# Wetter Temperatur Luftdruck Luftfeuchtigkeit Sichtweite Windgeschwindigkeit Windrichtung Zeit
1 Clouds 0 986 94 10000 1.5 320 06:24 11.07.2020
2 Clouds 0 985 94 10000 2.1 360 05:54 11.07.2020
3 Clouds 0 985 94 10000 2.1 360 05:18 11.07.2020
4 Clouds 1 985 80 10000 1.5 360 04:39 11.07.2020
5 Clouds 1 985 80 10000 1.5 360 04:19 11.07.2020
6 Clouds 1 984 74 10000 2.1 360 02:53 11.07.2020
7 Clouds 2 984 69 10000 2.1 270 01:57 11.07.2020
8 Clouds 2 984 69 10000 2.1 270 01:21 11.07.2020
9 Clouds 2 985 69 10000 3.1 320 00:55 11.07.2020
10 Clouds 2 985 69 10000 3.1 320 00:36 11.07.2020
11 Clouds 2 985 69 10000 3.1 320 00:18 11.07.2020
12 Clouds 2 985 69 10000 2.6 320 23:44 10.07.2020
13 Clouds 2 985 69 10000 2.6 320 23:26 10.07.2020
14 Clouds 1 985 74 10000 2.6 320 22:55 10.07.2020
15 Clouds 1 985 74 10000 2.6 320 22:36 10.07.2020
16 Clouds 1 985 74 10000 2.6 320 22:18 10.07.2020
17 Clouds 1 985 80 10000 1.5 20 21:38 10.07.2020
18 Clouds 1 985 80 10000 1.5 20 21:20 10.07.2020
19 Clouds 0 986 93 10000 2.3 4 20:56 10.07.2020
20 Clouds 0 986 93 10000 2.3 4 20:37 10.07.2020
21 Clouds 0 986 89 10000 2.24 3 20:19 10.07.2020
22 Clouds 0 986 89 10000 1.5 230 19:54 10.07.2020
23 Clouds 0 986 89 10000 1.5 230 19:36 10.07.2020
24 Clouds 0 986 89 10000 1.5 230 19:18 10.07.2020
25 Clouds 1 986 74 10000 2.1 360 18:38 10.07.2020
26 Clouds 1 986 74 10000 2.1 360 18:19 10.07.2020
27 Clouds 0 987 92 10000 4.1 340 17:55 10.07.2020
28 Clouds 0 987 92 10000 4.1 340 17:37 10.07.2020
29 Clouds 0 987 92 10000 4.1 340 17:18 10.07.2020
30 Clouds 0 987 92 10000 5.1 340 16:40 10.07.2020
31 Clouds 0 987 93 10000 5.1 340 16:19 10.07.2020
32 Clouds 0 987 93 10000 4.1 340 15:44 10.07.2020
33 Clouds 0 987 93 10000 4.1 340 15:22 10.07.2020
34 Clouds 1 987 59 10000 2.1 320 14:54 10.07.2020
35 Clouds 1 987 59 10000 2.1 320 14:36 10.07.2020
36 Clouds 1 987 59 10000 2.1 320 14:18 10.07.2020
37 Clouds 1 987 59 10000 2.1 340 13:55 10.07.2020
38 Clouds 1 987 59 10000 2.1 340 13:36 10.07.2020
39 Clouds 1 987 59 10000 2.1 340 13:18 10.07.2020
40 Clouds 1 986 64 10000 2.1 270 12:42 10.07.2020
41 Clouds 1 986 64 10000 2.1 270 12:24 10.07.2020
42 Clouds -1 986 86 10000 2.6 270 11:58 10.07.2020
43 Clouds -1 986 86 10000 2.6 270 11:38 10.07.2020
44 Clouds -1 986 86 10000 2.6 270 11:18 10.07.2020
45 Clouds 0 986 93 10000 1.5 270 10:42 10.07.2020
46 Clouds 0 986 93 10000 1.5 320 10:21 10.07.2020
47 Clouds 0 986 93 10000 1.5 320 09:59 10.07.2020
48 Clouds 0 986 93 10000 1.5 320 09:37 10.07.2020
49 Clouds 0 986 93 10000 1.5 320 09:19 10.07.2020
50 Clouds 1 986 69 10000 2.6 320 08:56 10.07.2020
51 Clouds 1 986 69 10000 2.6 320 08:37 10.07.2020
52 Clouds 1 986 69 10000 2.6 320 08:19 10.07.2020
53 Clouds 1 986 69 10000 4.1 360 07:41 10.07.2020
54 Clouds 1 986 69 10000 4.1 360 07:22 10.07.2020
55 Clouds 1 986 69 10000 2.1 320 06:49 10.07.2020
56 Clouds 2 986 69 10000 4.1 320 05:58 10.07.2020
57 Clouds 2 987 69 10000 2.6 320 04:39 10.07.2020
58 Rain 2 987 69 10000 3.6 320 03:37 10.07.2020
59 Clouds 2 987 69 10000 4.6 270 02:52 10.07.2020
60 Clouds 2 987 74 10000 5.1 270 01:50 10.07.2020
61 Clouds 3 987 64 10000 7.2 270 00:48 10.07.2020
62 Clouds 3 987 64 10000 7.2 270 00:20 10.07.2020
63 Rain 3 987 64 10000 5.7 270 23:46 09.07.2020
64 Rain 3 987 64 10000 5.7 270 23:23 09.07.2020
65 Clouds 3 986 64 10000 2.6 270 22:59 09.07.2020
66 Clouds 3 986 64 10000 2.6 270 22:41 09.07.2020
67 Clouds 3 986 64 10000 2.6 270 22:21 09.07.2020
68 Clouds 3 985 69 10000 1.5 250 21:56 09.07.2020
69 Clouds 3 985 69 10000 1.5 250 21:38 09.07.2020
70 Clouds 3 985 69 10000 1.5 250 21:19 09.07.2020
71 Clouds 3 985 69 10000 1.29 331 20:45 09.07.2020
72 Clouds 3 985 69 10000 1.44 331 20:26 09.07.2020
73 Clouds 3 985 64 10000 1.44 331 19:59 09.07.2020
74 Clouds 3 985 64 10000 1.44 331 19:41 09.07.2020
75 Clouds 3 985 64 10000 2.46 351 19:21 09.07.2020
76 Clouds 3 986 74 10000 1.5 360 18:43 09.07.2020
77 Clouds 3 986 74 10000 1.5 360 18:22 09.07.2020
78 Clouds 2 986 74 10000 1.5 360 17:56 09.07.2020
79 Clouds 2 986 74 10000 1.5 360 17:38 09.07.2020
80 Clouds 2 986 74 10000 1.5 360 17:19 09.07.2020
81 Clouds 2 986 55 10000 2.6 360 16:55 09.07.2020
82 Clouds 2 986 55 10000 2.6 360 16:37 09.07.2020
83 Clouds 2 986 55 10000 2.6 360 16:19 09.07.2020
84 Clouds 2 986 59 10000 3.8 9 15:55 09.07.2020
85 Clouds 1 986 69 10000 3.8 9 15:36 09.07.2020
86 Clouds 1 986 69 10000 3.55 12 15:18 09.07.2020
87 Clouds 1 986 69 10000 3.55 12 14:57 09.07.2020
88 Clouds 1 986 69 10000 3.55 12 14:38 09.07.2020
89 Clouds 1 986 69 10000 3.66 8 14:19 09.07.2020
90 Clouds 1 987 69 10000 1.5 340 13:41 09.07.2020
91 Clouds 1 987 69 10000 1.5 340 13:21 09.07.2020
92 Clouds 1 987 69 10000 3.37 5 12:59 09.07.2020
93 Clouds 2 988 69 10000 3.37 5 12:39 09.07.2020
94 Clouds 2 988 69 10000 3.17 2 12:20 09.07.2020
95 Clouds 2 988 69 10000 3.17 2 11:55 09.07.2020
96 Clouds 2 988 69 10000 3.17 2 11:37 09.07.2020
97 Clouds 2 988 69 10000 3.01 1 11:18 09.07.2020
98 Clouds 2 988 69 10000 3.01 1 10:42 09.07.2020
99 Clouds 2 988 69 10000 2.82 349 10:24 09.07.2020
100 Clear 3 989 59 10000 1.5 270 09:59 09.07.2020
101 Clear 3 989 59 10000 1.5 270 09:41 09.07.2020
102 Clear 3 989 59 10000 1.5 270 09:21 09.07.2020
103 Clear 3 989 59 10000 1.5 270 09:21 09.07.2020
104 Clear 2 989 69 10000 3.26 351 08:45 09.07.2020
105 Clouds 2 989 69 10000 2.97 4 08:25 09.07.2020
106 Clouds 3 990 64 10000 2.97 4 07:47 09.07.2020
107 Clouds 3 990 64 10000 3.26 360 07:25 09.07.2020
108 Clouds 3 990 64 10000 1.5 250 06:55 09.07.2020
109 Clouds 3 990 64 10000 1.5 250 06:20 09.07.2020
110 Clouds 4 990 64 10000 3.6 340 05:37 09.07.2020
111 Clouds 4 990 64 10000 5.1 340 04:28 09.07.2020
112 Clouds 5 990 65 10000 3.1 230 02:33 09.07.2020
113 Clouds 5 990 65 10000 3.1 230 01:39 09.07.2020
114 Clouds 5 990 65 10000 4.1 320 00:55 09.07.2020
115 Clouds 5 990 65 10000 4.1 320 00:25 09.07.2020
116 Clouds 5 991 80 10000 4.6 320 23:47 08.07.2020
117 Clouds 5 991 80 10000 4.6 320 23:28 08.07.2020
118 Clouds 5 991 75 10000 3.6 270 22:59 08.07.2020
119 Clouds 5 991 75 10000 3.6 270 22:41 08.07.2020
120 Clouds 5 991 75 10000 3.6 270 22:23 08.07.2020
121 Clouds 6 991 75 10000 4.6 340 21:58 08.07.2020
122 Clouds 6 991 75 10000 4.6 340 21:39 08.07.2020
123 Clouds 6 991 75 10000 4.6 340 21:21 08.07.2020
124 Clouds 6 991 75 10000 7.7 360 20:56 08.07.2020
125 Clouds 6 991 75 10000 7.7 360 20:38 08.07.2020
126 Clouds 6 991 75 10000 7.7 360 20:20 08.07.2020
127 Rain 6 991 70 10000 5.7 360 19:43 08.07.2020
128 Rain 6 991 70 10000 5.7 360 19:24 08.07.2020
129 Drizzle 6 992 70 10000 1.5 320 18:57 08.07.2020
130 Drizzle 6 992 70 10000 1.5 320 18:39 08.07.2020
131 Drizzle 6 992 70 10000 1.5 320 18:20 08.07.2020
132 Drizzle 6 992 70 10000 1 20 17:56 08.07.2020
133 Drizzle 6 992 70 10000 1 20 17:37 08.07.2020
134 Drizzle 6 992 70 10000 1 20 17:19 08.07.2020
135 Drizzle 6 992 85 10000 3.1 20 16:43 08.07.2020
136 Drizzle 6 992 86 10000 3.1 20 16:24 08.07.2020
137 Rain 6 993 60 10000 6.2 340 15:59 08.07.2020
138 Rain 6 993 60 10000 6.2 340 15:41 08.07.2020
139 Rain 6 993 60 10000 6.2 340 15:20 08.07.2020
140 Rain 6 993 85 10000 5.1 340 14:59 08.07.2020
141 Rain 6 993 85 10000 5.1 340 14:41 08.07.2020
142 Rain 6 993 85 10000 5.1 340 14:19 08.07.2020
143 Rain 6 994 60 10000 5.1 340 13:45 08.07.2020
144 Rain 6 994 60 10000 5.1 340 13:27 08.07.2020
145 Rain 7 994 65 10000 6.2 340 12:46 08.07.2020
146 Rain 7 994 65 10000 6.2 340 12:22 08.07.2020
147 Clouds 7 995 83 10000 4.6 360 11:59 08.07.2020
148 Clouds 7 995 83 10000 4.6 360 11:39 08.07.2020
149 Clouds 7 995 81 10000 4.6 360 11:20 08.07.2020
150 Drizzle 7 996 81 10000 4.1 360 10:56 08.07.2020
151 Drizzle 7 996 81 10000 4.1 360 10:56 08.07.2020
152 Drizzle 7 996 81 10000 4.1 360 10:38 08.07.2020
153 Drizzle 7 996 81 10000 4.1 360 10:19 08.07.2020
154 Drizzle 6 997 81 10000 6.7 360 09:43 08.07.2020
155 Drizzle 6 997 79 10000 6.7 360 09:23 08.07.2020
156 Drizzle 6 997 78 10000 7.2 360 08:43 08.07.2020
157 Drizzle 6 997 79 10000 7.2 360 08:24 08.07.2020
158 Drizzle 6 999 79 10000 3.6 320 07:48 08.07.2020
159 Drizzle 6 999 79 10000 3.6 320 07:48 08.07.2020
160 Drizzle 6 999 78 10000 3.6 320 07:24 08.07.2020
161 Drizzle 6 1000 78 10000 7.2 360 06:57 08.07.2020
162 Drizzle 6 1000 78 10000 7.2 360 06:37 08.07.2020
163 Drizzle 6 1000 80 10000 7.2 360 06:19 08.07.2020
164 Rain 5 1000 80 10000 9.3 360 05:33 08.07.2020
165 Drizzle 5 1001 81 10000 9.8 360 04:37 08.07.2020
166 Drizzle 5 1003 65 10000 6.2 360 02:55 08.07.2020
167 Rain 5 1003 65 10000 8.2 360 01:57 08.07.2020
168 Rain 5 1003 65 10000 8.2 360 01:37 08.07.2020
169 Rain 4 1004 64 10000 7.2 360 00:37 08.07.2020
170 Rain 4 1004 64 10000 7.2 360 00:18 08.07.2020
171 Rain 4 1005 69 10000 5.1 360 23:41 07.07.2020
172 Rain 4 1005 69 10000 5.1 360 23:20 07.07.2020
173 Rain 5 1005 65 10000 6.7 360 22:54 07.07.2020
174 Rain 5 1005 65 10000 6.7 360 22:36 07.07.2020
175 Rain 5 1005 65 10000 6.7 360 22:18 07.07.2020
176 Rain 5 1006 56 10000 6.2 340 21:41 07.07.2020
177 Rain 5 1006 56 10000 6.2 340 21:22 07.07.2020
178 Rain 5 1006 56 10000 6.2 340 21:22 07.07.2020
179 Rain 4 1007 60 10000 5.1 320 20:58 07.07.2020
180 Rain 4 1007 60 10000 5.1 320 20:40 07.07.2020
181 Rain 4 1007 60 10000 5.1 320 20:22 07.07.2020
182 Rain 4 1009 55 10000 7.7 320 19:55 07.07.2020
183 Rain 4 1009 55 10000 7.7 320 19:36 07.07.2020
184 Rain 4 1010 51 10000 6.7 320 19:18 07.07.2020
185 Rain 4 1010 51 10000 6.7 320 18:54 07.07.2020
186 Rain 4 1010 51 10000 6.7 320 18:36 07.07.2020
187 Rain 4 1010 51 10000 6.7 320 18:18 07.07.2020
188 Rain 3 1010 55 10000 6.2 290 17:40 07.07.2020
189 Rain 3 1010 55 10000 6.2 290 17:22 07.07.2020
190 Clouds 4 1011 51 10000 7.2 340 16:58 07.07.2020
191 Clouds 4 1011 51 10000 7.2 340 16:40 07.07.2020
192 Clouds 4 1011 51 10000 7.2 340 16:21 07.07.2020
193 Clouds 3 1012 59 10000 7.7 360 15:54 07.07.2020
194 Clouds 3 1012 59 10000 7.7 360 15:36 07.07.2020
195 Clouds 3 1012 59 10000 7.7 360 15:18 07.07.2020
196 Clouds 3 1012 59 10000 6.2 340 14:42 07.07.2020
197 Clouds 3 1012 59 10000 6.2 340 14:22 07.07.2020
198 Clouds 3 1013 59 10000 6.2 340 13:40 07.07.2020
199 Clouds 3 1013 59 10000 6.2 340 13:19 07.07.2020
200 Clouds 3 1013 59 10000 6.2 360 12:43 07.07.2020
201 Clouds 3 1013 59 10000 6.2 360 12:25 07.07.2020
202 Clouds 3 1013 59 10000 7.7 340 11:58 07.07.2020
203 Clouds 3 1013 59 10000 7.7 340 11:40 07.07.2020
204 Clouds 3 1013 59 10000 7.7 340 11:20 07.07.2020
205 Clouds 3 1014 55 10000 7.2 340 10:57 07.07.2020
206 Clouds 3 1014 55 10000 7.2 340 10:38 07.07.2020
207 Clouds 3 1014 55 10000 7.2 340 10:19 07.07.2020
208 Clouds 2 1015 64 10000 6.2 340 09:41 07.07.2020
209 Clouds 2 1015 64 10000 6.2 340 09:21 07.07.2020
210 Rain 2 1015 64 10000 4.01 356 08:42 07.07.2020
211 Rain 2 1015 64 10000 3.97 356 08:24 07.07.2020
212 Rain 2 1016 69 10000 2.6 360 07:47 07.07.2020
213 Rain 2 1016 69 10000 2.6 360 07:25 07.07.2020
214 Clouds 2 1017 80 10000 2.6 340 06:50 07.07.2020
215 Clouds 2 1017 80 10000 2.6 340 06:31 07.07.2020
216 Clouds 2 1018 74 10000 5.7 340 05:54 07.07.2020
217 Clouds 2 1018 74 10000 5.7 340 05:23 07.07.2020
218 Clear 2 1018 80 10000 7.2 360 04:42 07.07.2020
219 Clear 2 1019 69 10000 7.2 360 03:41 07.07.2020
220 Clear 2 1019 69 10000 7.2 340 02:28 07.07.2020
221 Clear 2 1019 69 10000 6.7 360 01:25 07.07.2020
222 Clear 1 1020 74 10000 6.2 360 00:54 07.07.2020
223 Clear 1 1020 74 10000 6.2 360 00:36 07.07.2020
224 Clear 1 1020 74 10000 6.2 360 00:18 07.07.2020
225 Clear 1 1020 80 10000 6.7 340 23:41 06.07.2020
226 Clear 1 1020 80 10000 6.7 340 23:22 06.07.2020
227 Clear 1 1020 80 10000 3.6 320 22:55 06.07.2020
228 Clear 1 1020 80 10000 3.6 320 22:37 06.07.2020
229 Clear 1 1020 80 10000 3.6 320 22:18 06.07.2020
230 Clear 1 1021 80 10000 2.97 350 21:54 06.07.2020
231 Clear 1 1021 80 10000 2.95 351 21:36 06.07.2020
232 Clear 1 1021 80 10000 2.74 353 21:18 06.07.2020
233 Clear 1 1021 80 10000 2.6 360 20:39 06.07.2020
234 Clear 1 1021 80 10000 2.6 360 20:20 06.07.2020
235 Clear 0 1022 92 10000 2.1 20 19:57 06.07.2020
236 Clear 0 1022 92 10000 2.1 20 19:39 06.07.2020
237 Clear 0 1022 92 10000 2.1 20 19:20 06.07.2020
238 Clear 0 1022 92 10000 1.5 360 18:56 06.07.2020
239 Clear 0 1022 92 10000 1.5 360 18:56 06.07.2020
240 Clear 0 1022 92 10000 1.5 360 18:38 06.07.2020
241 Clear 0 1022 92 10000 1.5 360 18:19 06.07.2020
242 Clouds -1 1023 92 10000 1.5 340 17:42 06.07.2020
243 Clouds -1 1023 92 10000 1.5 340 17:24 06.07.2020
244 Clouds -1 1023 86 10000 2.6 340 16:58 06.07.2020
245 Clouds -1 1023 86 10000 2.6 340 16:40 06.07.2020
246 Clouds -1 1023 86 10000 2.6 340 16:21 06.07.2020
247 Clouds -2 1023 100 10000 2.6 340 15:42 06.07.2020
248 Clouds -2 1023 100 10000 2.6 340 15:42 06.07.2020
249 Clouds -2 1023 100 10000 2.6 340 15:24 06.07.2020
250 Clouds -2 1023 100 10000 2.6 340 15:24 06.07.2020
251 Clouds -2 1023 92 10000 3.1 340 14:57 06.07.2020
252 Clouds -2 1023 92 10000 3.1 340 14:38 06.07.2020
253 Clouds -2 1023 92 10000 3.1 340 14:19 06.07.2020
254 Clouds -1 1023 86 10000 4.1 340 13:55 06.07.2020
255 Clouds -1 1023 86 10000 4.1 340 13:36 06.07.2020
256 Clouds -1 1023 86 10000 4.1 340 13:36 06.07.2020
257 Clouds -1 1023 86 10000 4.1 340 13:18 06.07.2020
258 Clouds -2 1023 92 10000 4.1 340 12:42 06.07.2020
259 Clouds -2 1023 92 10000 4.1 340 12:19 06.07.2020
260 Clouds -2 1023 92 10000 3.6 320 11:57 06.07.2020
261 Clouds -2 1023 92 10000 3.6 320 11:38 06.07.2020
262 Clouds -2 1023 92 10000 3.6 320 11:19 06.07.2020
263 Clouds -2 1023 92 10000 3.6 320 10:43 06.07.2020
264 Clouds -1 1024 86 10000 3.1 320 10:22 06.07.2020
265 Clouds -1 1024 86 10000 3.1 320 09:59 06.07.2020
266 Clouds -1 1024 86 10000 3.1 320 09:41 06.07.2020
267 Clouds -1 1024 86 10000 3.1 320 09:21 06.07.2020
268 Clouds -1 1024 92 10000 3.1 320 08:55 06.07.2020
269 Clouds -1 1024 92 10000 3.1 320 08:37 06.07.2020
270 Clouds -1 1024 92 10000 3.1 320 08:19 06.07.2020
271 Clouds -1 1024 100 10000 3.6 320 07:43 06.07.2020
272 Clouds -1 1024 100 10000 3.6 320 07:23 06.07.2020
273 Clouds 0 1024 92 10000 3.6 320 06:40 06.07.2020
274 Clouds 0 1024 92 10000 3.6 320 06:21 06.07.2020
275 Clouds 1 1024 86 10000 3.1 340 05:38 06.07.2020
276 Clouds 1 1024 86 10000 3.6 340 04:54 06.07.2020
277 Clouds 1 1023 86 10000 3.1 340 03:42 06.07.2020
278 Clouds 1 1023 86 10000 1.5 340 02:23 06.07.2020
279 Clouds 2 1023 92 10000 2.6 320 01:34 06.07.2020
280 Clouds 2 1023 92 10000 2.1 320 00:38 06.07.2020
281 Clouds 2 1023 92 10000 2.1 320 00:19 06.07.2020
282 Clouds 2 1023 92 10000 1.5 360 23:42 05.07.2020
283 Clouds 2 1023 92 10000 1.5 360 23:23 05.07.2020
284 Clouds 2 1022 80 10000 2.6 360 22:59 05.07.2020
285 Clouds 2 1022 80 10000 2.6 360 22:40 05.07.2020
286 Clouds 2 1022 80 10000 2.6 360 22:20 05.07.2020
287 Clouds 1 1022 74 10000 1.15 340 21:57 05.07.2020
288 Clouds 1 1022 74 10000 1.15 340 21:39 05.07.2020
289 Clouds 1 1022 74 10000 0.81 330 21:18 05.07.2020
290 Clouds 2 1022 69 10000 0.81 330 20:57 05.07.2020
291 Clouds 2 1022 69 10000 0.81 330 20:39 05.07.2020
292 Clouds 2 1022 69 10000 0.53 306 20:20 05.07.2020
293 Clouds 2 1022 74 10000 0.53 306 19:43 05.07.2020
294 Clouds 2 1022 74 10000 0.48 303 19:21 05.07.2020
295 Clouds 2 1022 74 10000 0.48 303 18:56 05.07.2020
296 Clouds 2 1022 74 10000 0.48 303 18:38 05.07.2020
297 Clouds 2 1022 74 10000 0.68 284 18:20 05.07.2020
298 Clouds 1 1021 74 10000 2.6 340 17:43 05.07.2020
299 Clouds 1 1021 74 10000 2.6 340 17:20 05.07.2020
300 Clouds 0 1021 92 10000 1.5 360 16:59 05.07.2020
301 Clouds 0 1021 92 10000 1.5 360 16:41 05.07.2020
302 Clouds 0 1021 92 10000 1.5 360 16:22 05.07.2020
303 Clouds 0 1021 92 10000 0.81 318 15:41 05.07.2020
304 Clouds 0 1021 92 10000 0.81 318 15:41 05.07.2020
305 Clouds 0 1021 92 10000 1.13 320 15:20 05.07.2020
306 Clouds 0 1021 92 10000 1.13 320 15:20 05.07.2020
307 Clouds 0 1021 92 10000 2.1 270 14:59 05.07.2020
308 Clouds 0 1021 92 10000 2.1 270 14:40 05.07.2020
309 Clouds 0 1021 92 10000 2.1 270 14:20 05.07.2020
310 Clouds 1 1020 86 10000 1.35 319 13:41 05.07.2020
311 Clouds 1 1020 86 10000 1.37 322 13:23 05.07.2020
312 Clouds 1 1020 86 10000 1.37 322 12:46 05.07.2020
313 Clouds 1 1020 86 10000 1.35 328 12:26 05.07.2020
314 Clouds 2 1020 80 10000 1 340 11:58 05.07.2020
315 Clouds 2 1020 80 10000 1 340 11:39 05.07.2020
316 Clouds 2 1020 80 10000 1 340 11:21 05.07.2020
317 Clouds 2 1019 80 10000 1 340 10:58 05.07.2020
318 Clouds 2 1019 80 10000 1 340 10:39 05.07.2020
319 Clouds 2 1019 80 10000 1 340 10:19 05.07.2020
320 Clouds 2 1019 74 10000 1.5 290 09:55 05.07.2020
321 Clouds 2 1019 74 10000 1.5 290 09:37 05.07.2020
322 Clouds 2 1019 74 10000 1.5 290 09:18 05.07.2020
323 Clouds 2 1019 74 10000 1.5 270 08:43 05.07.2020
324 Clouds 2 1019 74 10000 1.5 270 08:25 05.07.2020
325 Clouds 2 1019 80 10000 1 320 07:46 05.07.2020
326 Clouds 2 1019 80 10000 1 320 07:27 05.07.2020
327 Clouds 2 1019 93 10000 1.51 329 06:50 05.07.2020
328 Clouds 2 1018 93 10000 1.51 330 05:18 05.07.2020
329 Clouds 2 1018 93 10000 1.3 314 03:20 05.07.2020
330 Clouds 2 1017 93 10000 1.3 314 02:41 05.07.2020
331 Clouds 2 1017 93 10000 1.42 321 01:59 05.07.2020
332 Clouds 2 1017 93 10000 1.42 321 01:32 05.07.2020
333 Clouds 2 1017 93 10000 1.5 20 00:57 05.07.2020
334 Clouds 2 1017 93 10000 1.5 20 00:38 05.07.2020
335 Clouds 2 1017 94 10000 1.5 20 00:19 05.07.2020
336 Clouds 2 1016 93 10000 1.5 20 23:41 04.07.2020
337 Clouds 2 1016 93 10000 1.5 20 23:23 04.07.2020
338 Clouds 2 1016 94 10000 1.86 336 22:54 04.07.2020
339 Clouds 2 1016 94 10000 1.86 336 22:36 04.07.2020
340 Clouds 2 1016 94 10000 1.55 330 22:18 04.07.2020
341 Clouds 2 1016 94 10000 1.55 330 21:40 04.07.2020
342 Clouds 2 1016 92 10000 1.23 329 21:22 04.07.2020
343 Clouds 2 1016 93 10000 1.3 334 20:57 04.07.2020
344 Clouds 2 1016 93 10000 1.3 334 20:38 04.07.2020
345 Clouds 2 1016 93 10000 1.06 334 20:18 04.07.2020
346 Clouds 2 1016 93 10000 1.5 320 19:43 04.07.2020
347 Clouds 1 1016 88 10000 1.5 320 19:22 04.07.2020
348 Clouds 1 1016 88 10000 1.5 320 19:22 04.07.2020
349 Clouds 1 1016 88 10000 1.5 320 19:22 04.07.2020
350 Clouds 1 1016 88 10000 1.5 320 18:55 04.07.2020
351 Clouds 1 1016 88 10000 1.5 320 18:37 04.07.2020
352 Clouds -1 1015 100 10000 2.6 360 18:19 04.07.2020
353 Clouds -1 1015 100 10000 2.6 360 17:42 04.07.2020
354 Clouds -1 1015 100 10000 2.6 360 17:23 04.07.2020
355 Clouds -1 1015 86 10000 1.56 332 16:57 04.07.2020
356 Clouds -1 1015 86 10000 1.56 332 16:38 04.07.2020
357 Clouds -1 1015 86 10000 1.89 338 16:19 04.07.2020
358 Clouds -2 1015 92 10000 1.89 338 15:46 04.07.2020
359 Clouds -2 1015 92 10000 1.98 336 15:27 04.07.2020
360 Clouds -1 1014 86 10000 1.98 336 14:59 04.07.2020
361 Clouds -1 1014 86 10000 1.98 336 14:38 04.07.2020
362 Clouds -1 1014 86 10000 2.13 341 14:19 04.07.2020
363 Clouds -1 1014 86 10000 2.13 341 13:58 04.07.2020
364 Clouds -1 1014 86 10000 2.13 341 13:39 04.07.2020
365 Clouds -1 1014 86 10000 2.26 342 13:18 04.07.2020
366 Fog -1 1014 86 10000 2.26 342 12:42 04.07.2020
367 Fog -1 1014 86 10000 2.36 342 12:21 04.07.2020
368 Fog -2 1014 100 8000 1.5 340 11:54 04.07.2020
369 Fog -2 1014 100 8000 1.5 340 11:36 04.07.2020
370 Fog -2 1014 100 8000 1.5 340 11:18 04.07.2020
371 Fog -2 1013 92 800 1 360 10:41 04.07.2020
372 Fog -2 1013 92 800 1 360 10:21 04.07.2020
373 Fog -2 1014 100 50 1 320 09:58 04.07.2020
374 Fog -2 1014 100 50 1 320 09:58 04.07.2020
375 Fog -2 1014 100 50 1 320 09:37 04.07.2020
376 Fog -2 1014 100 50 1 320 09:19 04.07.2020
377 Fog -2 1013 100 50 2.67 354 08:46 04.07.2020
378 Fog -2 1013 100 50 2.54 355 08:27 04.07.2020
379 Fog -2 1013 100 50 1 320 07:46 04.07.2020
380 Fog -2 1013 100 50 1 320 07:28 04.07.2020
381 Fog -1 1013 100 50 1 320 06:55 04.07.2020
382 Fog -1 1013 100 50 1 320 06:22 04.07.2020
383 Fog -1 1013 100 50 2.53 356 05:35 04.07.2020
384 Fog -1 1012 100 100 2.6 355 04:43 04.07.2020
385 Fog -1 1012 100 100 1.5 340 03:18 04.07.2020
386 Fog -1 1011 100 100 2.26 352 02:23 04.07.2020
387 Fog -1 1011 100 100 2.26 352 01:31 04.07.2020
388 Fog -1 1011 92 500 1.5 320 00:44 04.07.2020
389 Fog -1 1011 92 500 1.5 320 00:24 04.07.2020
390 Rain -3 1010 100 10000 1.5 360 23:40 03.07.2020
391 Rain -3 1010 100 10000 1.5 360 23:19 03.07.2020
392 Rain -2 1010 100 10000 2.6 270 22:58 03.07.2020
393 Rain -2 1010 100 10000 2.6 270 22:39 03.07.2020
394 Rain -2 1010 100 10000 2.6 270 22:20 03.07.2020
395 Rain -1 1010 92 10000 1.34 347 21:41 03.07.2020
396 Rain -1 1010 92 10000 0.95 347 21:20 03.07.2020
397 Rain -2 1009 100 10000 0.78 2 20:56 03.07.2020
398 Rain -2 1009 100 10000 0.78 2 20:38 03.07.2020
399 Rain -2 1009 100 10000 0.57 1 20:20 03.07.2020
400 Clouds 2 1009 87 0 0.57 1 19:41 03.07.2020
401 Rain -2 1009 100 10000 1.5 270 19:20 03.07.2020
402 Rain -2 1009 100 10000 1.5 270 18:57 03.07.2020
403 Rain -2 1009 100 10000 1.5 270 18:39 03.07.2020
404 Rain -2 1009 100 10000 1 250 18:20 03.07.2020
405 Rain -2 1009 100 10000 1 250 17:43 03.07.2020
406 Rain -2 1009 100 10000 1 250 17:22 03.07.2020
407 Rain -2 1009 100 10000 1 320 16:46 03.07.2020
408 Rain -2 1009 100 10000 1 320 16:28 03.07.2020
409 Rain -2 1009 100 10000 1.5 340 15:49 03.07.2020
410 Rain -2 1009 100 10000 1.5 340 15:26 03.07.2020
411 Rain -2 1009 100 10000 2.1 320 15:00 03.07.2020
412 Rain -2 1009 100 10000 2.1 320 14:41 03.07.2020
413 Rain -2 1009 100 10000 2.1 320 14:22 03.07.2020
414 Rain -2 1008 100 10000 2.1 270 13:59 03.07.2020
415 Rain -2 1008 100 10000 2.1 270 13:40 03.07.2020
416 Rain -2 1008 100 10000 2.1 270 13:21 03.07.2020
417 Rain -2 1008 100 10000 2.6 340 12:40 03.07.2020
418 Rain -2 1008 100 10000 2.6 340 12:21 03.07.2020
419 Clouds -2 1008 100 10000 3.1 360 11:44 03.07.2020
420 Clouds -2 1008 100 10000 3.1 360 11:25 03.07.2020
421 Clouds -2 1008 100 10000 3.6 320 10:59 03.07.2020
422 Clouds -2 1008 100 10000 3.6 320 10:41 03.07.2020
423 Clouds -2 1008 100 10000 3.6 320 10:21 03.07.2020
424 Clouds -1 1008 92 10000 3.6 320 09:58 03.07.2020
425 Clouds -1 1008 92 10000 3.6 320 09:38 03.07.2020
426 Clouds -1 1008 92 10000 3.6 320 09:19 03.07.2020
427 Clouds -2 1008 100 10000 3.1 320 08:56 03.07.2020
428 Clouds -2 1008 100 10000 3.1 320 08:37 03.07.2020
429 Clouds -2 1008 100 10000 3.1 320 08:18 03.07.2020
430 Clouds -2 1008 100 10000 2.6 320 07:43 03.07.2020
431 Clouds -2 1008 100 10000 2.6 320 07:21 03.07.2020
432 Clouds -2 1008 100 10000 3.1 320 06:30 03.07.2020
433 Clouds -2 1008 100 10000 3.1 320 05:42 03.07.2020
434 Clouds -1 1008 92 10000 2.1 320 03:59 03.07.2020
435 Clouds -2 1009 100 10000 1.5 320 02:55 03.07.2020
436 Clouds -2 1009 100 10000 1.5 320 02:31 03.07.2020
437 Clouds -2 1009 92 10000 2.1 320 01:41 03.07.2020
438 Clouds -2 1009 92 10000 2.1 320 01:20 03.07.2020
439 Clouds -2 1009 92 10000 3.1 270 00:41 03.07.2020
440 Clouds -2 1009 100 10000 2.6 270 23:56 02.07.2020
441 Clouds -2 1009 100 10000 2.6 270 23:37 02.07.2020
442 Clouds -2 1009 100 10000 2.6 270 23:18 02.07.2020
443 Clouds -1 1009 92 10000 2.1 270 22:54 02.07.2020
444 Clouds -1 1009 92 10000 2.1 270 22:36 02.07.2020
445 Clouds -1 1009 92 10000 2.1 270 22:18 02.07.2020
446 Clouds -1 1009 100 10000 1.5 270 21:42 02.07.2020
447 Clouds -1 1009 100 10000 1.5 270 21:20 02.07.2020
448 Clouds -1 1009 100 10000 1.5 270 20:58 02.07.2020
449 Clouds -1 1009 100 10000 1.5 270 20:40 02.07.2020
450 Clouds -1 1009 100 10000 1.5 270 20:20 02.07.2020
451 Clouds -2 1010 92 10000 2.1 270 19:43 02.07.2020
452 Clouds -2 1010 92 10000 2.1 270 19:24 02.07.2020
453 Clouds -3 1010 100 10000 2.1 270 18:59 02.07.2020
454 Clouds -3 1010 100 10000 2.1 270 18:41 02.07.2020
455 Clouds -3 1010 100 10000 2.1 270 18:41 02.07.2020
456 Clouds -3 1010 100 10000 2.1 270 18:22 02.07.2020
457 Clouds -2 1011 92 10000 2.6 360 17:58 02.07.2020
458 Clouds -2 1011 92 10000 2.6 360 17:39 02.07.2020
459 Clouds -2 1011 92 10000 2.6 360 17:19 02.07.2020
460 Clouds -2 1011 92 10000 2.1 320 16:44 02.07.2020
461 Clouds -2 1011 92 10000 2.1 320 16:22 02.07.2020
462 Fog -3 1011 100 8000 2.05 345 15:59 02.07.2020
463 Fog -3 1011 100 8000 2.05 345 15:38 02.07.2020
464 Fog -3 1011 100 8000 1.89 342 15:20 02.07.2020
465 Fog -3 1011 100 8000 1.89 342 14:46 02.07.2020
466 Fog -3 1011 100 8000 1.84 341 14:25 02.07.2020
467 Fog -3 1012 100 10000 2.1 340 13:57 02.07.2020
468 Fog -3 1012 100 10000 2.1 340 13:39 02.07.2020
469 Fog -3 1012 100 10000 2.1 340 13:20 02.07.2020
470 Fog -3 1012 100 10000 1.6 336 12:58 02.07.2020
471 Clouds -2 1012 92 10000 1.6 336 12:38 02.07.2020
472 Clouds -2 1012 92 10000 1.75 340 12:20 02.07.2020
473 Clouds -2 1012 92 10000 1.75 340 12:20 02.07.2020
474 Clouds -2 1012 92 10000 1.75 340 11:43 02.07.2020
475 Clouds -2 1012 92 10000 1.7 338 11:25 02.07.2020
476 Clouds -2 1013 92 10000 1 320 10:48 02.07.2020
477 Clouds -2 1013 92 10000 1 320 10:27 02.07.2020
478 Clouds -2 1013 92 10000 1.66 338 09:59 02.07.2020
479 Clouds -2 1013 92 10000 1.66 338 09:40 02.07.2020
480 Clouds -2 1013 92 10000 1.75 339 09:20 02.07.2020
481 Clouds -3 1013 92 10000 2.1 320 08:55 02.07.2020
482 Clouds -3 1013 92 10000 2.1 320 08:37 02.07.2020
483 Clouds -3 1013 92 10000 2.1 320 08:18 02.07.2020
484 Clouds -3 1014 92 10000 2.6 340 07:40 02.07.2020
485 Clouds -3 1014 92 10000 2.6 340 07:19 02.07.2020
486 Clouds -2 1014 92 10000 2.1 320 06:40 02.07.2020
487 Clouds -2 1014 92 10000 2.1 320 06:20 02.07.2020
488 Clouds -3 1015 100 10000 1.5 320 05:44 02.07.2020
489 Clouds -3 1016 92 10000 2.1 340 03:57 02.07.2020
490 Clouds -3 1016 92 10000 2.1 340 03:31 02.07.2020
491 Clouds -2 1017 92 10000 1.5 290 00:54 02.07.2020
492 Clouds -2 1017 92 10000 1.5 290 00:25 02.07.2020
493 Clouds -1 1017 86 10000 2.1 270 23:48 01.07.2020
494 Clouds -1 1017 86 10000 2.1 270 23:30 01.07.2020
495 Clouds 0 1018 89 10000 2.1 270 22:57 01.07.2020
496 Clouds 0 1018 89 10000 2.1 270 22:38 01.07.2020
497 Clouds 0 1018 89 10000 2.1 270 22:19 01.07.2020
498 Clouds 0 1018 89 10000 2.1 270 21:58 01.07.2020
499 Clouds 0 1018 89 10000 2.1 270 21:40 01.07.2020
500 Clouds 0 1018 90 10000 2.1 270 21:22 01.07.2020
501 Clouds 0 1018 90 10000 1 360 20:57 01.07.2020
502 Clouds 0 1018 90 10000 1 360 20:39 01.07.2020
503 Clouds 0 1018 89 10000 1 360 20:20 01.07.2020
504 Clouds 0 1019 89 10000 2.1 360 19:54 01.07.2020
505 Clouds 0 1019 89 10000 2.1 360 19:36 01.07.2020
506 Clouds 0 1019 89 10000 2.1 360 19:18 01.07.2020
507 Clouds -1 1019 86 10000 2.6 360 18:42 01.07.2020
508 Clouds -1 1019 86 10000 2.6 360 18:21 01.07.2020
509 Clouds -2 1020 92 10000 2.6 340 17:57 01.07.2020
510 Clouds -2 1020 92 10000 2.6 340 17:38 01.07.2020
511 Clouds -2 1020 92 10000 2.6 340 17:19 01.07.2020
512 Clouds -3 1020 92 10000 3.1 340 16:46 01.07.2020
513 Clouds -3 1020 92 10000 3.1 340 16:27 01.07.2020
514 Clear -3 1020 92 10000 2.1 320 15:55 01.07.2020
515 Clear -3 1020 92 10000 2.1 320 15:37 01.07.2020
516 Clear -3 1020 92 10000 2.1 320 15:19 01.07.2020
517 Clear -3 1021 86 10000 3.1 340 14:44 01.07.2020
518 Clear -3 1021 86 10000 3.1 340 14:21 01.07.2020
519 Clear -3 1021 92 10000 2.6 320 13:57 01.07.2020
520 Clear -3 1021 92 10000 2.6 320 13:38 01.07.2020
521 Clear -3 1021 92 10000 2.6 320 13:20 01.07.2020
522 Clear -3 1021 92 10000 3.1 340 12:57 01.07.2020
523 Clear -3 1021 92 10000 3.1 340 12:38 01.07.2020
524 Clear -3 1021 92 10000 3.1 340 12:20 01.07.2020
525 Clear -3 1021 92 10000 3.1 320 11:40 01.07.2020
526 Clear -3 1021 92 10000 3.1 320 11:22 01.07.2020
527 Clear -3 1022 92 10000 2.1 320 10:58 01.07.2020
528 Clear -3 1022 92 10000 2.1 320 10:39 01.07.2020
529 Clear -3 1022 92 10000 2.1 320 10:21 01.07.2020
530 Clear -3 1022 86 10000 2.6 270 09:40 01.07.2020
531 Clear -3 1022 86 10000 2.6 270 09:20 01.07.2020
532 Clear -3 1023 86 10000 3.6 360 08:59 01.07.2020
533 Clear -3 1023 86 10000 3.6 360 08:40 01.07.2020
534 Clear -3 1023 86 10000 3.6 360 08:20 01.07.2020
535 Clear -2 1023 86 10000 3.1 320 07:43 01.07.2020
536 Clear -2 1023 86 10000 3.1 320 07:25 01.07.2020
537 Clear -3 1024 92 10000 2.1 320 06:59 01.07.2020
538 Clear -3 1024 92 10000 2.1 320 06:40 01.07.2020
539 Clear -3 1024 92 10000 2.1 320 06:20 01.07.2020
540 Clear -3 1024 79 10000 3.6 320 04:30 01.07.2020
541 Clear -3 1025 79 10000 2.1 320 03:44 01.07.2020
542 Clear -3 1025 79 10000 2.1 320 03:22 01.07.2020
543 Clear -3 1025 86 10000 2.1 320 02:19 01.07.2020
544 Clear -3 1025 92 10000 3.6 320 01:23 01.07.2020
545 Clear -2 1025 86 10000 2.6 320 00:38 01.07.2020
546 Clear -2 1025 86 10000 2.6 320 00:19 01.07.2020
547 Clear -2 1026 86 10000 2.1 270 23:40 30.06.2020
548 Clear -2 1026 86 10000 2.1 270 23:20 30.06.2020
549 Clear -1 1025 80 10000 2.6 270 22:42 30.06.2020
550 Clear -1 1025 80 10000 2.6 270 22:19 30.06.2020
551 Clear -1 1025 80 10000 0.34 268 21:55 30.06.2020
552 Clear -1 1025 80 10000 0.34 273 21:37 30.06.2020
553 Clear -1 1025 80 10000 0.59 299 21:18 30.06.2020
554 Clear 0 1026 91 10000 0.59 299 20:42 30.06.2020
555 Clear 0 1026 92 10000 0.8 314 20:21 30.06.2020
556 Clouds -1 1026 80 10000 2.1 360 19:44 30.06.2020
557 Clouds -1 1026 80 10000 2.1 360 19:22 30.06.2020
558 Clouds -1 1027 80 10000 1.5 360 18:59 30.06.2020
559 Clouds -1 1027 80 10000 1.5 360 18:41 30.06.2020
560 Clouds -1 1027 80 10000 1.5 360 18:20 30.06.2020
561 Clouds -2 1027 79 10000 2.1 320 17:40 30.06.2020
562 Clouds -2 1027 79 10000 2.1 320 17:21 30.06.2020
563 Clouds -2 1027 68 10000 4.1 270 16:59 30.06.2020
564 Clouds -2 1027 68 10000 4.1 270 16:40 30.06.2020
565 Clouds -2 1027 68 10000 4.1 270 16:21 30.06.2020
566 Clouds -2 1027 68 10000 4.1 270 16:21 30.06.2020
567 Clouds -2 1027 74 10000 2.6 320 15:56 30.06.2020
568 Clouds -2 1027 74 10000 2.6 320 15:38 30.06.2020
569 Clouds -2 1027 74 10000 2.6 320 15:19 30.06.2020
570 Clouds -3 1027 86 10000 2.6 290 14:43 30.06.2020
571 Clouds -3 1027 86 10000 2.6 290 14:22 30.06.2020
572 Clouds -3 1027 92 10000 4.1 270 13:58 30.06.2020
573 Clouds -3 1027 92 10000 4.1 270 13:37 30.06.2020
574 Clouds -3 1027 92 10000 4.1 270 13:19 30.06.2020
575 Clouds -3 1027 92 10000 4.1 270 13:19 30.06.2020
576 Clouds -3 1027 92 10000 3.6 320 12:56 30.06.2020
577 Clouds -3 1027 92 10000 3.6 320 12:38 30.06.2020
578 Clouds -3 1027 92 10000 3.6 320 12:19 30.06.2020
579 Clouds -3 1027 92 10000 3.6 320 12:19 30.06.2020
580 Clouds -3 1027 92 10000 1.5 290 11:56 30.06.2020
581 Clouds -3 1027 92 10000 1.5 290 11:38 30.06.2020
582 Clouds -3 1027 92 10000 1.5 290 11:18 30.06.2020
583 Clouds -3 1027 86 10000 3.1 290 10:54 30.06.2020
584 Clouds 2 1025 69 10000 8.7 230 16:38 28.06.2020
585 Clouds 2 1025 69 10000 8.7 230 16:18 28.06.2020
586 Clouds 2 1025 64 10000 9.3 230 15:54 28.06.2020
587 Clouds 2 1025 64 10000 9.3 230 15:36 28.06.2020
588 Clouds 2 1025 64 10000 9.3 230 15:18 28.06.2020
589 Clouds 2 1025 64 10000 8.7 230 14:41 28.06.2020
590 Clouds 2 1025 64 10000 8.7 230 14:23 28.06.2020
591 Clouds 1 1024 69 10000 8.7 250 13:55 28.06.2020
592 Clouds 1 1024 69 10000 8.7 250 13:36 28.06.2020
593 Clouds 1 1024 69 10000 8.7 250 13:18 28.06.2020
594 Clouds 1 1024 69 10000 11.3 230 12:55 28.06.2020
595 Clouds 1 1024 69 10000 11.3 230 12:55 28.06.2020
596 Clouds 1 1024 69 10000 11.3 230 12:36 28.06.2020
597 Clouds 1 1024 69 10000 11.3 230 12:18 28.06.2020
598 Clouds 2 1024 59 10000 8.7 230 11:42 28.06.2020
599 Clouds 2 1024 59 10000 8.7 230 11:21 28.06.2020
600 Clouds 2 1024 59 10000 11.3 230 10:58 28.06.2020
601 Clouds 2 1024 59 10000 11.3 230 10:40 28.06.2020
602 Clouds 2 1024 59 10000 11.3 230 10:21 28.06.2020
603 Clouds 2 1024 64 10000 11.3 230 09:42 28.06.2020
604 Clouds 2 1024 64 10000 11.3 230 09:23 28.06.2020
605 Clouds 1 1024 74 10000 10.3 250 08:57 28.06.2020
606 Clouds 1 1024 74 10000 10.3 250 08:38 28.06.2020
607 Clouds 1 1024 74 10000 10.3 250 08:20 28.06.2020
608 Clouds 2 1025 59 10000 8.7 250 07:33 28.06.2020
609 Clouds 2 1025 59 10000 9.3 250 06:56 28.06.2020
610 Clouds 2 1025 59 10000 9.3 250 06:32 28.06.2020
611 Clouds 2 1026 59 10000 9.3 250 05:50 28.06.2020
612 Clouds 2 1026 59 10000 7.7 230 04:27 28.06.2020
613 Clouds 2 1026 59 10000 7.2 230 02:58 28.06.2020
614 Clouds 2 1026 59 10000 7.2 230 02:22 28.06.2020
615 Clouds 2 1026 64 10000 8.2 230 01:45 28.06.2020
616 Clouds 2 1025 64 10000 7.7 230 00:57 28.06.2020
617 Clouds 2 1025 64 10000 7.7 230 00:30 28.06.2020
618 Clouds 3 1025 64 10000 8.7 230 23:58 27.06.2020
619 Clouds 3 1025 64 10000 8.7 230 23:39 27.06.2020
620 Clouds 3 1025 64 10000 8.7 230 23:21 27.06.2020
621 Clouds 3 1025 59 10000 9.8 230 22:42 27.06.2020
622 Clouds 3 1025 59 10000 9.8 230 22:23 27.06.2020
623 Clouds 3 1025 59 10000 9.8 230 22:23 27.06.2020
624 Clouds 3 1024 64 10000 8.7 230 21:59 27.06.2020
625 Clouds 3 1024 64 10000 8.7 230 21:41 27.06.2020
626 Clouds 3 1024 64 10000 8.7 230 21:20 27.06.2020
627 Clouds 3 1024 64 10000 6.7 180 20:56 27.06.2020
628 Clouds 3 1024 64 10000 6.7 180 20:37 27.06.2020
629 Clouds 3 1024 64 10000 6.7 180 20:18 27.06.2020
630 Clouds 3 1023 69 10000 8.2 180 19:38 27.06.2020
631 Clouds 3 1023 69 10000 8.2 180 19:19 27.06.2020
632 Clouds 3 1023 64 10000 8.7 230 18:57 27.06.2020
633 Clouds 3 1023 64 10000 8.7 230 18:38 27.06.2020
634 Clouds 3 1023 64 10000 8.7 230 18:38 27.06.2020
635 Clouds 2 1023 74 10000 10.3 230 18:19 27.06.2020
636 Clouds 2 1023 74 10000 10.3 230 17:41 27.06.2020
637 Clouds 2 1023 74 10000 10.3 230 17:21 27.06.2020
638 Clouds 2 1022 74 10000 10.8 230 16:59 27.06.2020
639 Clouds 2 1022 74 10000 10.8 230 16:39 27.06.2020
640 Clouds 2 1022 74 10000 10.8 230 16:39 27.06.2020
641 Clouds 2 1022 74 10000 10.8 230 16:20 27.06.2020
642 Clouds 2 1022 80 10000 9.3 230 15:45 27.06.2020
643 Clouds 2 1022 80 10000 9.3 230 15:24 27.06.2020
644 Clouds 1 1021 100 10000 10.8 230 14:59 27.06.2020
645 Clouds 1 1021 100 10000 10.8 230 14:39 27.06.2020
646 Clouds 1 1021 100 10000 10.8 230 14:20 27.06.2020
647 Rain 1 1021 86 10000 10.3 230 13:54 27.06.2020
648 Rain 1 1021 86 10000 10.3 230 13:36 27.06.2020
649 Drizzle 2 1020 80 10000 13.4 230 13:18 27.06.2020
650 Drizzle 2 1020 80 10000 13.4 230 12:41 27.06.2020
651 Drizzle 2 1020 80 10000 13.4 230 12:22 27.06.2020
652 Drizzle 2 1020 80 10000 11.8 230 11:59 27.06.2020
653 Drizzle 2 1020 80 10000 11.8 230 11:40 27.06.2020
654 Drizzle 2 1020 80 10000 11.8 230 11:21 27.06.2020
655 Drizzle 2 1020 95 10000 12.3 230 10:41 27.06.2020
656 Drizzle 2 1020 95 10000 12.3 230 10:19 27.06.2020
657 -273 0 0 0 0 0 09:59 27.06.2020
658 Clouds 3 1020 74 10000 12.3 230 09:39 27.06.2020
659 Clouds 3 1020 74 10000 12.3 230 09:20 27.06.2020
660 Clouds 3 1019 74 10000 13.4 230 08:44 27.06.2020
661 Clouds 3 1019 74 10000 13.4 230 08:23 27.06.2020
662 Clouds 2 1020 80 10000 11.8 230 07:48 27.06.2020
663 Clouds 2 1020 80 10000 11.8 230 07:26 27.06.2020
664 Clouds 2 1020 80 10000 11.8 230 06:52 27.06.2020
665 Clouds 2 1020 80 10000 11.8 230 06:33 27.06.2020
666 Clouds 2 1021 74 10000 10.8 230 04:55 27.06.2020
667 Clouds 2 1021 74 10000 10.8 230 04:18 27.06.2020
668 Clouds 2 1022 80 10000 9.8 230 03:51 27.06.2020
669 Clouds 2 1022 80 10000 9.3 230 02:43 27.06.2020
670 Clouds 2 1022 80 10000 9.3 230 02:24 27.06.2020
671 Clouds 2 1022 74 10000 10.8 230 01:37 27.06.2020
672 Clouds 3 1022 69 10000 8.2 230 00:49 27.06.2020
673 Clouds 3 1022 69 10000 10.8 230 23:56 26.06.2020
674 Clouds 3 1022 69 10000 10.8 230 23:37 26.06.2020
675 Clouds 3 1022 69 10000 10.8 230 23:19 26.06.2020
676 Clouds 3 1023 69 10000 12.3 230 22:42 26.06.2020
677 Clouds 3 1023 69 10000 12.3 230 22:24 26.06.2020
678 Clouds 3 1023 69 10000 12.3 230 21:58 26.06.2020
679 Clouds 3 1023 69 10000 12.3 230 21:40 26.06.2020
680 Clouds 3 1023 69 10000 12.3 230 21:40 26.06.2020
681 Clouds 3 1023 69 10000 12.3 230 21:21 26.06.2020
682 Clouds 3 1023 69 10000 10.8 230 20:58 26.06.2020
683 Clouds 3 1023 69 10000 10.8 230 20:39 26.06.2020
684 Clouds 3 1023 69 10000 10.8 230 20:18 26.06.2020
685 Clouds 3 1023 69 10000 10.8 230 19:40 26.06.2020
686 Clouds 3 1023 69 10000 10.8 230 19:20 26.06.2020
687 Clouds 3 1023 74 10000 10.8 230 18:43 26.06.2020
688 Clouds 3 1023 74 10000 10.8 230 18:25 26.06.2020
689 Clouds 3 1023 69 10000 9.3 230 17:55 26.06.2020
690 Clouds 3 1023 69 10000 9.3 230 17:37 26.06.2020
691 Clouds 3 1023 69 10000 9.3 230 17:19 26.06.2020
692 Rain 3 1024 69 10000 9.3 230 16:42 26.06.2020
693 Rain 3 1024 69 10000 9.3 230 16:23 26.06.2020
694 Rain 3 1024 69 10000 9.3 250 15:41 26.06.2020
695 Rain 3 1024 69 10000 9.3 250 15:22 26.06.2020
696 Clouds 3 1024 69 10000 9.3 230 14:59 26.06.2020
697 Clouds 3 1024 69 10000 9.3 230 14:40 26.06.2020
698 Clouds 3 1024 69 10000 9.3 230 14:22 26.06.2020
699 Clouds 3 1024 69 10000 9.3 250 13:47 26.06.2020
700 Clouds 3 1024 69 10000 9.3 250 13:25 26.06.2020
701 Clouds 3 1024 69 10000 9.3 230 12:59 26.06.2020
702 Clouds 3 1024 69 10000 9.3 230 12:41 26.06.2020
703 Clouds 3 1024 69 10000 9.3 230 12:22 26.06.2020
704 Clouds 2 1024 74 10000 8.7 250 11:57 26.06.2020
705 Clouds 2 1024 74 10000 8.7 250 11:39 26.06.2020
706 Clouds 2 1024 74 10000 8.7 250 11:20 26.06.2020
707 Clouds 2 1023 74 10000 9.8 230 10:57 26.06.2020
708 Clouds 2 1023 74 10000 9.8 230 10:38 26.06.2020
709 Clouds 2 1023 74 10000 9.8 230 10:18 26.06.2020
710 Clouds 2 1023 69 10000 8.7 230 09:43 26.06.2020
711 Clouds 2 1023 69 10000 8.7 230 09:24 26.06.2020
712 Clouds 2 1023 74 10000 8.2 230 08:56 26.06.2020
713 Clouds 2 1023 74 10000 8.2 230 08:28 26.06.2020
714 Clouds 2 1023 74 10000 9.3 230 07:53 26.06.2020
715 Clouds 2 1023 74 10000 9.3 230 07:24 26.06.2020
716 Clouds 2 1023 74 10000 9.3 230 06:58 26.06.2020
717 Clouds 2 1023 74 10000 9.3 230 06:36 26.06.2020
718 Clouds 2 1023 74 10000 9.3 230 06:18 26.06.2020
719 Clouds 2 1023 74 10000 9.8 230 05:40 26.06.2020
720 Clouds 2 1024 74 10000 8.2 230 03:30 26.06.2020
721 Clouds 2 1024 74 10000 10.3 230 02:22 26.06.2020
722 Clouds 2 1024 74 10000 8.7 230 01:19 26.06.2020
723 Clouds 2 1024 74 10000 8.2 230 00:40 26.06.2020
724 Clouds 2 1024 74 10000 8.2 230 00:19 26.06.2020
725 Clouds 2 1024 80 10000 9.3 230 23:41 25.06.2020
726 Clouds 2 1024 80 10000 9.3 230 23:18 25.06.2020
727 Clouds 3 1024 69 10000 9.3 230 22:56 25.06.2020
728 Clouds 3 1024 69 10000 9.3 230 22:36 25.06.2020
729 Clouds 3 1024 69 10000 9.3 230 22:18 25.06.2020
730 Clouds 3 1024 69 10000 9.8 230 21:54 25.06.2020
731 Clouds 3 1024 69 10000 9.8 230 21:36 25.06.2020
732 Clouds 3 1024 69 10000 9.8 230 21:18 25.06.2020
733 Clouds 2 1024 74 10000 9.8 230 20:44 25.06.2020
734 Clouds 2 1024 74 10000 9.8 230 20:23 25.06.2020
735 Clouds 2 1024 74 10000 10.8 230 19:57 25.06.2020
736 Clouds 2 1024 74 10000 10.8 230 19:38 25.06.2020
737 Clouds 2 1024 69 10000 8.7 230 19:18 25.06.2020
738 Clouds 2 1024 69 10000 8.7 230 18:55 25.06.2020
739 Clouds 2 1024 69 10000 8.7 230 18:36 25.06.2020
740 Clouds 2 1024 69 10000 8.7 230 18:36 25.06.2020
741 Clouds 2 1024 69 10000 8.7 230 18:18 25.06.2020
742 Clouds 1 1024 93 10000 9.3 230 17:39 25.06.2020
743 Clouds 1 1024 95 10000 9.3 230 17:19 25.06.2020
744 Clouds 2 1024 95 10000 8.2 230 16:41 25.06.2020
745 Clouds 2 1024 96 10000 8.2 230 16:21 25.06.2020
746 Clouds 2 1024 96 10000 7.7 230 15:46 25.06.2020
747 Clouds 2 1024 96 10000 7.7 230 15:27 25.06.2020
748 Rain 1 1002 96 10000 7.7 230 14:58 25.06.2020
749 Rain 1 1002 96 10000 7.7 230 14:40 25.06.2020
750 Rain 1 1002 95 10000 7.7 230 14:22 25.06.2020
751 Rain 1 1023 95 10000 8.7 230 13:56 25.06.2020
752 Rain 1 1023 95 10000 8.7 230 13:37 25.06.2020
753 Rain 1 1023 95 10000 8.7 230 13:19 25.06.2020
754 Clouds 1 1023 95 10000 7.7 230 12:44 25.06.2020
755 Clouds 1 1023 95 10000 7.7 230 12:20 25.06.2020
756 Clouds 2 1023 95 10000 7.7 230 11:56 25.06.2020
757 Clouds 2 1023 95 10000 7.7 230 11:38 25.06.2020
758 Clouds 2 1023 94 10000 7.7 230 11:20 25.06.2020
759 Clouds 2 1023 94 10000 7.7 230 11:20 25.06.2020
760 Clouds 1 1023 94 10000 5.7 230 10:42 25.06.2020
761 Clouds 1 1023 93 10000 5.7 230 10:23 25.06.2020
762 Drizzle 1 1023 93 10000 2.6 180 09:41 25.06.2020
763 Drizzle 1 1023 92 10000 2.6 180 09:23 25.06.2020
764 Drizzle 1 1023 100 10000 5.1 180 08:47 25.06.2020
765 Drizzle 1 1023 100 10000 5.1 180 08:20 25.06.2020
766 Drizzle 2 1023 93 10000 2.1 270 07:56 25.06.2020
767 Drizzle 2 1023 93 10000 2.1 270 07:38 25.06.2020
768 Drizzle 2 1023 93 10000 2.1 270 07:19 25.06.2020
769 Drizzle 2 1022 91 10000 2.77 189 06:28 25.06.2020
770 Rain 2 1022 80 10000 3.1 140 05:53 25.06.2020
771 Clouds 2 1021 90 10000 5.1 140 04:56 25.06.2020
772 Drizzle 2 1020 93 10000 5.1 140 03:35 25.06.2020
773 Drizzle 2 1020 93 10000 3.55 178 02:44 25.06.2020
774 Drizzle 2 1020 93 10000 2.73 189 02:18 25.06.2020
775 Rain 2 1019 93 10000 3.6 270 01:34 25.06.2020
776 Rain 2 1019 93 10000 4.6 230 00:47 25.06.2020
777 Rain 2 1019 93 10000 4.6 230 00:22 25.06.2020
778 Clouds 2 1018 100 10000 3.6 180 23:58 24.06.2020
779 Clouds 2 1018 100 10000 3.6 180 23:37 24.06.2020
780 Clouds 2 1018 100 10000 3.6 180 23:19 24.06.2020
781 Clouds 2 1017 93 10000 4.1 230 22:41 24.06.2020
782 Clouds 2 1017 93 10000 4.1 230 22:20 24.06.2020
783 Clouds 3 1016 88 10000 5.7 230 21:57 24.06.2020
784 Clouds 3 1016 88 10000 5.7 230 21:37 24.06.2020
785 Clouds 3 1016 86 10000 5.7 230 21:19 24.06.2020
786 Clouds 3 1016 86 10000 7.2 230 20:58 24.06.2020
787 Clouds 3 1016 86 10000 7.2 230 20:39 24.06.2020
788 Clouds 3 1016 86 10000 7.2 230 20:21 24.06.2020
789 Clouds 3 1015 86 10000 3.6 230 19:57 24.06.2020
790 Clouds 3 1015 86 10000 3.6 230 19:38 24.06.2020
791 Clouds 3 1015 87 10000 3.6 230 19:20 24.06.2020
792 Clouds 2 1015 87 10000 2.1 270 18:58 24.06.2020
793 Clouds 2 1015 87 10000 2.1 270 18:39 24.06.2020
794 Clouds 2 1015 89 10000 2.1 270 18:20 24.06.2020
795 Rain 2 1014 89 10000 2.6 230 17:55 24.06.2020
796 Rain 2 1014 89 10000 2.6 230 17:37 24.06.2020
797 Rain 2 1014 92 10000 2.6 230 17:18 24.06.2020
798 Rain 2 1013 92 10000 2.6 230 16:55 24.06.2020
799 Rain 2 1013 92 10000 2.6 230 16:37 24.06.2020
800 Rain 2 1013 92 10000 2.6 230 16:37 24.06.2020
801 Rain 2 1012 80 10000 2.1 290 16:19 24.06.2020
802 Rain 2 1012 80 10000 2.1 290 15:55 24.06.2020
803 Rain 2 1012 80 10000 2.1 290 15:37 24.06.2020
804 Rain 2 1012 80 10000 2.1 290 15:18 24.06.2020
805 Rain 2 1011 80 10000 5.1 250 14:40 24.06.2020
806 Rain 2 1011 80 10000 5.1 250 14:22 24.06.2020
807 Rain 2 1011 80 10000 7.7 230 13:42 24.06.2020
808 Rain 2 1011 80 10000 7.7 230 13:21 24.06.2020
809 Rain 2 1010 74 10000 7.7 230 12:46 24.06.2020
810 Rain 2 1010 74 10000 7.7 230 12:22 24.06.2020
811 Rain 2 1009 80 10000 5.1 250 11:59 24.06.2020
812 Rain 2 1009 80 10000 5.1 250 11:41 24.06.2020
813 Rain 2 1009 80 10000 5.1 250 11:23 24.06.2020
814 Rain 2 1009 80 10000 7.2 230 10:55 24.06.2020
815 Rain 2 1009 80 10000 7.2 230 10:36 24.06.2020
816 Rain 2 1009 80 10000 7.2 230 10:18 24.06.2020
817 Rain 2 1008 80 10000 7.7 230 09:42 24.06.2020
818 Rain 2 1008 80 10000 7.7 230 09:21 24.06.2020
819 Rain 2 1008 74 10000 7.7 250 08:41 24.06.2020
820 Rain 2 1008 74 10000 7.7 250 08:20 24.06.2020
821 Rain 1 1008 80 10000 7.2 250 07:50 24.06.2020
822 Rain 1 1008 80 10000 7.2 250 07:29 24.06.2020
823 Snow 1 1008 80 10000 5.1 270 06:49 24.06.2020
824 Snow 1 1008 80 10000 5.1 270 06:25 24.06.2020
825 Snow 1 1008 86 10000 7.2 230 05:48 24.06.2020
826 Snow 1 1007 86 10000 8.2 230 04:42 24.06.2020
827 Snow 1 1007 86 10000 8.2 230 04:18 24.06.2020
828 Snow 1 1008 86 10000 7.2 230 03:34 24.06.2020
829 Snow 1 1008 86 10000 7.7 230 02:43 24.06.2020
830 Rain 1 1007 86 10000 8.2 230 01:29 24.06.2020
831 Rain 1 1007 94 10000 5.7 250 00:47 24.06.2020
832 Rain 1 1007 94 10000 5.7 250 00:27 24.06.2020
833 Snow 1 1007 86 10000 7.7 230 23:44 23.06.2020
834 Snow 1 1007 86 10000 7.7 230 23:19 23.06.2020
835 Rain 1 1006 86 10000 8.7 230 22:42 23.06.2020
836 Rain 1 1006 86 10000 8.7 230 22:19 23.06.2020
837 Snow 1 1006 86 10000 8.2 230 21:59 23.06.2020
838 Snow 1 1006 86 10000 8.2 230 21:39 23.06.2020
839 Snow 1 1006 86 10000 8.2 230 21:19 23.06.2020
840 Snow 1 1006 90 10000 4.1 230 20:55 23.06.2020
841 Snow 1 1006 90 10000 4.1 230 20:37 23.06.2020
842 Rain 1 1007 89 10000 4.1 230 20:18 23.06.2020
843 Rain 1 1007 89 10000 4.1 230 19:44 23.06.2020
844 Rain 1 1007 89 10000 4.1 230 19:25 23.06.2020
845 Snow 1 1007 89 10000 3.1 270 18:42 23.06.2020
846 Snow 1 1007 90 10000 2.5 199 18:19 23.06.2020
847 Snow 1 1007 90 10000 2.5 199 17:56 23.06.2020
848 Snow 1 1007 90 10000 2.5 199 17:38 23.06.2020
849 Snow 1 1007 89 10000 2.81 178 17:19 23.06.2020
850 Snow 1 1007 86 6000 2.6 50 16:55 23.06.2020
851 Snow 1 1007 86 6000 2.6 50 16:36 23.06.2020
852 Snow 1 1007 86 6000 2.6 50 16:18 23.06.2020
853 Rain 1 1006 92 10000 5.1 230 15:43 23.06.2020
854 Rain 1 1006 93 10000 5.1 230 15:24 23.06.2020
855 Rain 1 1006 86 6000 3.6 250 14:56 23.06.2020
856 Rain 1 1006 86 6000 3.6 250 14:37 23.06.2020
857 Rain 1 1005 86 10000 2.1 270 14:18 23.06.2020
858 Rain 1 1005 86 10000 2.1 270 13:45 23.06.2020
859 Rain 1 1005 86 10000 2.1 270 13:26 23.06.2020
860 Drizzle 1 1005 86 10000 0.92 227 12:59 23.06.2020
861 Drizzle 1 1005 86 10000 0.92 227 12:39 23.06.2020
862 Drizzle 1 1005 86 10000 0.84 225 12:19 23.06.2020
863 Clouds 1 1005 89 10000 4.1 360 11:43 23.06.2020
864 Clouds 1 1005 89 10000 4.1 360 11:23 23.06.2020
865 Clouds 0 1005 89 10000 2.6 320 10:58 23.06.2020
866 Clouds 0 1005 89 10000 2.6 320 10:40 23.06.2020
867 Clouds 0 1005 91 10000 2.6 320 10:22 23.06.2020
868 Clouds 0 1005 91 10000 2.1 270 09:57 23.06.2020
869 Clouds 0 1005 91 10000 2.1 270 09:38 23.06.2020
870 Clouds 0 1005 92 10000 2.1 270 09:19 23.06.2020
871 Clouds 0 1005 92 10000 2.1 270 08:46 23.06.2020
872 Clouds 0 1005 91 10000 2.1 270 08:26 23.06.2020
873 Clouds 0 1005 91 10000 2.1 270 07:47 23.06.2020
874 Clouds 0 1005 91 10000 2.1 270 07:24 23.06.2020
875 Clouds 0 1005 91 10000 3.6 270 06:53 23.06.2020
876 Clouds 0 1005 91 10000 3.6 270 06:32 23.06.2020
877 Clouds 1 1005 86 10000 3.1 270 05:59 23.06.2020
878 Clouds 1 1005 86 10000 3.1 270 05:26 23.06.2020
879 Clouds 1 1005 86 10000 0.84 329 03:22 23.06.2020
880 Clouds 1 1004 86 10000 1.5 270 02:49 23.06.2020
881 Clouds 1 1004 86 10000 1.5 270 02:29 23.06.2020
882 Clouds 1 1005 86 10000 1 320 01:46 23.06.2020
883 Clouds 1 1005 86 10000 1 320 01:46 23.06.2020
884 Clouds 1 1005 86 10000 1 320 01:24 23.06.2020
885 Clouds 1 1004 86 10000 1 320 00:46 23.06.2020
886 Clouds 1 1004 86 10000 1 320 00:21 23.06.2020
887 Clouds 2 1004 80 10000 1.8 354 23:55 22.06.2020
888 Clouds 2 1004 80 10000 1.8 354 23:36 22.06.2020
889 Clouds 2 1004 80 10000 2.26 353 23:18 22.06.2020
890 Fog 2 1003 93 10000 2.26 353 22:54 22.06.2020
891 Fog 2 1003 93 10000 2.26 353 22:36 22.06.2020
892 Fog 2 1003 93 10000 1.95 357 22:18 22.06.2020
893 Fog 2 1003 80 10000 2.1 50 21:41 22.06.2020
894 Fog 2 1003 80 10000 2.1 50 21:22 22.06.2020
895 Fog 2 1003 80 10000 1.5 50 20:59 22.06.2020
896 Fog 2 1003 80 10000 1.5 50 20:59 22.06.2020
897 Fog 2 1003 80 10000 1.5 50 20:40 22.06.2020
898 Fog 2 1003 80 10000 1.5 50 20:21 22.06.2020
899 Clouds 2 1003 80 10000 1.5 360 19:44 22.06.2020
900 Clouds 2 1003 80 10000 1.5 360 19:19 22.06.2020
901 Clouds 1 1004 86 10000 0.61 360 18:57 22.06.2020
902 Clouds 1 1004 86 10000 0.61 360 18:38 22.06.2020
903 Clouds 1 1004 86 10000 0.76 342 18:19 22.06.2020
904 Clouds 1 1003 86 10000 2.6 340 17:55 22.06.2020
905 Clouds 1 1003 86 10000 2.6 340 17:37 22.06.2020
906 Clouds 1 1003 86 10000 2.6 340 17:18 22.06.2020
907 Clouds 1 1003 86 10000 3.1 340 16:43 22.06.2020
908 Clouds 1 1003 86 10000 3.1 340 16:19 22.06.2020
909 Clouds 0 1002 87 10000 2.1 320 15:58 22.06.2020
910 Clouds 0 1002 87 10000 2.1 320 15:39 22.06.2020
911 Clouds 0 1002 91 10000 2.1 320 15:21 22.06.2020
912 Clouds 1 1002 86 10000 2.6 340 14:40 22.06.2020
913 Clouds 1 1002 86 10000 2.6 340 14:21 22.06.2020
914 Clear 1 1002 86 10000 2.6 320 13:58 22.06.2020
915 Clear 1 1002 86 10000 2.6 320 13:39 22.06.2020
916 Clear 1 1002 86 10000 2.6 320 13:21 22.06.2020
917 Clear 1 1002 80 10000 3.1 340 12:44 22.06.2020
918 Clear 1 1002 80 10000 3.1 340 12:24 22.06.2020
919 Clear 1 1002 86 10000 2.6 340 11:59 22.06.2020
920 Clear 1 1002 86 10000 2.6 340 11:37 22.06.2020
921 Clear 1 1002 86 10000 2.6 340 11:19 22.06.2020
922 Clear 1 1001 86 10000 2.1 320 10:55 22.06.2020
923 Clear 1 1001 86 10000 2.1 320 10:36 22.06.2020
924 Clear 1 1001 86 10000 2.1 320 10:18 22.06.2020
925 Clear 1 1001 86 10000 2.1 290 09:56 22.06.2020
926 Clear 1 1001 86 10000 2.1 290 09:37 22.06.2020
927 Clear 1 1001 86 10000 2.1 290 09:18 22.06.2020
928 Clear 1 1000 86 10000 2.6 340 08:40 22.06.2020
929 Clouds 1 1000 86 10000 2.6 340 08:21 22.06.2020
930 Clouds 1 1000 86 10000 3.1 340 07:54 22.06.2020
931 Clouds 1 1000 86 10000 3.1 340 07:34 22.06.2020
932 Clouds 1 1000 86 10000 2.6 290 06:56 22.06.2020
933 Clouds 1 1000 86 10000 2.6 290 06:37 22.06.2020
934 Clouds 1 1000 86 10000 2.6 290 06:19 22.06.2020
935 Clouds 2 1000 80 10000 4.6 340 05:41 22.06.2020
936 Clouds 2 999 80 10000 3.1 340 02:59 22.06.2020
937 Clouds 2 998 80 10000 2.1 340 01:38 22.06.2020
938 Clouds 2 998 80 10000 2.6 340 00:43 22.06.2020
939 Clouds 2 998 80 10000 2.6 340 00:22 22.06.2020
940 Clouds 3 997 89 10000 3.1 320 23:55 21.06.2020
941 Clouds 3 997 89 10000 3.1 320 23:36 21.06.2020
942 Clouds 3 997 89 10000 3.1 320 23:18 21.06.2020
943 Clouds 3 997 89 10000 2.6 360 22:55 21.06.2020
944 Clouds 3 997 89 10000 2.6 360 22:55 21.06.2020
945 Clouds 3 997 89 10000 2.6 360 22:36 21.06.2020
946 Clouds 4 996 89 10000 2.1 270 22:18 21.06.2020
947 Clouds 4 996 89 10000 2.1 270 22:18 21.06.2020
948 Clouds 4 996 89 10000 2.1 270 21:55 21.06.2020
949 Clouds 4 996 89 10000 2.1 270 21:37 21.06.2020
950 Clouds 4 996 84 10000 2.1 270 21:18 21.06.2020
951 Clouds 4 996 80 10000 1.5 360 20:40 21.06.2020
952 Clouds 4 996 80 10000 1.5 360 20:20 21.06.2020
953 -273 0 0 0 0 0 19:59 21.06.2020
954 Clouds 3 995 79 10000 4.1 360 19:40 21.06.2020
955 Clouds 3 995 79 10000 4.1 360 19:20 21.06.2020
956 Clouds 3 995 79 10000 1.5 360 18:56 21.06.2020
957 Clouds 3 995 79 10000 1.5 360 18:38 21.06.2020
958 Clouds 3 995 82 10000 1.5 360 18:19 21.06.2020
959 Clouds 3 995 82 10000 1.35 311 17:41 21.06.2020
960 Clouds 3 995 85 10000 1.32 317 17:21 21.06.2020
961 Clouds 3 994 85 10000 1.32 317 16:57 21.06.2020
962 Clouds 3 994 85 10000 1.32 317 16:39 21.06.2020
963 Clouds 3 994 91 10000 1.49 314 16:21 21.06.2020
964 Clouds 2 993 91 10000 1.49 314 15:40 21.06.2020
965 Clouds 2 993 91 10000 1.49 314 15:40 21.06.2020
966 Clouds 2 993 94 10000 1.74 327 15:22 21.06.2020
967 Clouds 2 992 93 10000 2.6 270 14:58 21.06.2020
968 Clouds 2 992 93 10000 2.6 270 14:37 21.06.2020
969 Clouds 2 992 93 10000 2.6 270 14:19 21.06.2020
970 Clouds 2 992 94 10000 1.46 314 13:55 21.06.2020
971 Clouds 2 992 94 10000 1.46 314 13:36 21.06.2020
972 Clouds 2 991 94 10000 2.6 320 13:18 21.06.2020
973 Clouds 2 991 94 10000 2.6 320 12:42 21.06.2020
974 Clouds 2 991 95 10000 2.6 320 12:23 21.06.2020
975 Drizzle 2 990 95 10000 2.6 320 11:43 21.06.2020
976 Drizzle 2 990 95 10000 2.6 320 11:25 21.06.2020
977 Clouds 2 989 95 10000 1.67 313 10:59 21.06.2020
978 Clouds 2 989 95 10000 1.67 313 10:41 21.06.2020
979 Clouds 2 989 93 10000 1.81 323 10:22 21.06.2020
980 Clouds 3 989 86 10000 2.6 270 09:58 21.06.2020
981 Clouds 3 989 86 10000 2.6 270 09:36 21.06.2020
982 Clouds 4 988 91 10000 2.1 270 09:18 21.06.2020
983 Clouds 4 988 91 10000 2.1 270 08:54 21.06.2020
984 Clouds 4 988 91 10000 2.1 270 08:36 21.06.2020
985 Clouds 3 987 92 10000 2.1 320 08:18 21.06.2020
986 Clouds 3 987 92 10000 2.1 320 07:40 21.06.2020
987 Clouds 3 987 92 10000 2.1 320 07:21 21.06.2020
988 Clouds 3 987 92 10000 1.59 324 06:48 21.06.2020
989 Clouds 3 986 91 10000 2.6 360 05:59 21.06.2020
990 Clouds 3 986 90 10000 4.1 360 04:50 21.06.2020
991 Clouds 3 986 87 10000 3.6 270 03:20 21.06.2020
992 Clouds 3 986 87 10000 2.1 270 02:53 21.06.2020
993 Clouds 3 986 87 10000 2.76 5 01:49 21.06.2020
994 Clouds 3 986 89 10000 2.89 2 01:21 21.06.2020
995 Clouds 3 985 89 10000 5.7 90 00:55 21.06.2020
996 Clouds 3 985 89 10000 5.7 90 00:37 21.06.2020
997 Clouds 3 985 89 10000 3.18 9 00:18 21.06.2020
998 Clouds 3 985 89 10000 3.18 9 23:43 20.06.2020
999 Clouds 3 985 89 10000 3.41 7 23:21 20.06.2020
1000 Clouds 3 985 89 10000 3.41 7 22:55 20.06.2020
1001 Clouds 3 985 89 10000 3.41 7 22:37 20.06.2020
1002 Clouds 3 985 87 10000 1.5 200 22:18 20.06.2020
1003 Clouds 3 985 87 10000 1.5 200 21:56 20.06.2020
1004 Clouds 3 985 87 10000 1.5 200 21:37 20.06.2020
1005 Clouds 3 985 82 10000 1.5 200 21:19 20.06.2020
1006 Clouds 1 985 86 10000 2.1 180 20:55 20.06.2020
1007 Clouds 1 985 86 10000 2.1 180 20:37 20.06.2020
1008 Clouds 1 985 86 10000 2.1 180 20:19 20.06.2020
1009 Clouds 1 986 78 10000 3.84 0 19:43 20.06.2020
1010 Clouds 1 986 77 10000 3.35 5 19:22 20.06.2020
1011 Fog 1 986 77 4000 2.6 110 18:55 20.06.2020
1012 Fog 1 986 77 4000 2.6 110 18:37 20.06.2020
1013 Clouds 1 986 86 10000 2.1 360 18:18 20.06.2020
1014 Clouds 1 986 86 10000 2.1 360 17:55 20.06.2020
1015 Clouds 1 986 86 10000 2.1 360 17:37 20.06.2020
1016 Mist 1 986 85 10000 2.1 360 17:18 20.06.2020
1017 Mist 1 986 85 10000 2.1 360 16:39 20.06.2020
1018 Mist 1 986 91 10000 2.1 360 16:18 20.06.2020
1019 Mist 1 987 86 10000 2.1 360 15:42 20.06.2020
1020 Mist 1 987 86 10000 2.1 360 15:19 20.06.2020
1021 Mist 1 987 86 10000 2.1 360 14:57 20.06.2020
1022 Mist 1 987 86 10000 2.1 360 14:39 20.06.2020
1023 Mist 1 987 86 10000 2.1 360 14:19 20.06.2020
1024 Clouds 1 987 86 10000 2.6 360 13:41 20.06.2020
1025 Clouds 1 987 86 10000 2.6 360 13:20 20.06.2020
1026 Clouds 1 987 91 10000 2.1 360 12:55 20.06.2020
1027 Clouds 1 987 91 10000 2.1 360 12:55 20.06.2020
1028 Clouds 1 987 91 10000 2.1 360 12:37 20.06.2020
1029 Clouds 1 987 86 10000 2.6 340 12:18 20.06.2020
1030 Clouds 1 987 86 10000 2.6 340 11:39 20.06.2020
1031 Clouds 1 987 86 10000 2.6 340 11:20 20.06.2020
1032 Clouds 1 987 89 10000 2.1 360 10:57 20.06.2020
1033 Clouds 1 987 89 10000 2.1 360 10:38 20.06.2020
1034 Clouds 1 987 88 10000 2.1 360 10:18 20.06.2020
1035 Clouds 2 987 88 10000 1.5 270 09:42 20.06.2020
1036 Clouds 2 987 86 10000 1.5 270 09:24 20.06.2020
1037 Clouds 2 986 86 10000 3.1 340 08:58 20.06.2020
1038 Clouds 2 986 86 10000 3.1 340 08:39 20.06.2020
1039 Clouds 2 986 87 10000 3.1 340 08:21 20.06.2020
1040 Clouds 2 987 93 10000 2.1 340 07:50 20.06.2020
1041 Snow 2 987 93 10000 2.1 340 07:25 20.06.2020
1042 Clouds 3 986 86 10000 1.79 348 06:43 20.06.2020
1043 Clouds 3 986 86 10000 1.42 344 06:20 20.06.2020
1044 Clouds 3 986 86 10000 2.6 320 05:47 20.06.2020
1045 Clouds 3 985 93 10000 2.1 320 03:53 20.06.2020
1046 Clouds 2 985 93 10000 2.6 270 01:54 20.06.2020
1047 Clouds 2 985 93 10000 2.6 270 01:36 20.06.2020
1048 Clouds 3 985 86 10000 1 320 00:45 20.06.2020
1049 Clouds 3 985 86 10000 1 320 00:20 20.06.2020
1050 Drizzle 3 984 86 10000 1.68 326 23:41 19.06.2020
1051 Drizzle 3 984 86 10000 1.48 322 23:20 19.06.2020
1052 Drizzle 3 984 86 10000 1.48 322 22:56 19.06.2020
1053 Drizzle 3 984 86 10000 1.48 322 22:56 19.06.2020
1054 Drizzle 3 984 86 10000 1.48 322 22:37 19.06.2020
1055 Drizzle 3 984 86 10000 1.06 323 22:19 19.06.2020
1056 Drizzle 3 984 86 10000 1 270 21:55 19.06.2020
1057 Drizzle 3 984 86 10000 1 270 21:37 19.06.2020
1058 Drizzle 3 984 86 10000 1.5 270 21:18 19.06.2020
1059 Drizzle 3 984 86 10000 1.5 270 20:56 19.06.2020
1060 Drizzle 3 984 86 10000 1.5 270 20:38 19.06.2020
1061 Drizzle 3 984 86 10000 1.5 270 20:20 19.06.2020
1062 Drizzle 3 984 86 10000 1.5 270 19:42 19.06.2020
1063 Drizzle 3 984 86 10000 1.5 270 19:23 19.06.2020
1064 Clouds 2 984 93 10000 2.1 270 18:59 19.06.2020
1065 Clouds 2 984 93 10000 2.1 270 18:39 19.06.2020
1066 Clouds 2 984 93 10000 2.1 270 18:21 19.06.2020
1067 Clouds 2 984 81 10000 1 250 17:42 19.06.2020
1068 Clouds 2 984 82 10000 1 250 17:23 19.06.2020
1069 Clouds 2 983 80 10000 1.5 290 16:58 19.06.2020
1070 Clouds 2 983 80 10000 1.5 290 16:40 19.06.2020
1071 Clouds 2 983 80 10000 1.5 290 16:22 19.06.2020
1072 Clouds 2 983 85 10000 1.34 342 15:47 19.06.2020
1073 Clouds 2 983 88 10000 1.38 334 15:27 19.06.2020
1074 Clouds 2 983 74 10000 1 320 14:58 19.06.2020
1075 Clouds 2 983 74 10000 1 320 14:40 19.06.2020
1076 Clouds 2 983 74 10000 1 320 14:21 19.06.2020
1077 Clouds 2 983 69 10000 1.5 340 13:58 19.06.2020
1078 Clouds 2 983 69 10000 1.5 340 13:40 19.06.2020
1079 Clouds 2 983 69 10000 1.5 340 13:22 19.06.2020
1080 Clouds 2 983 69 10000 1.5 340 12:45 19.06.2020
1081 Clouds 2 983 69 10000 1.5 340 12:22 19.06.2020
1082 Clouds 2 983 69 10000 1.46 346 11:56 19.06.2020
1083 Clouds 2 983 69 10000 1.46 346 11:36 19.06.2020
1084 Clouds 2 983 64 10000 2.1 360 11:18 19.06.2020
1085 Clouds 2 983 64 10000 2.1 360 10:41 19.06.2020
1086 Clouds 2 983 64 10000 2.1 360 10:21 19.06.2020
1087 Clouds 1 984 80 10000 2.19 351 09:56 19.06.2020
1088 Clouds 1 984 80 10000 2.19 351 09:37 19.06.2020
1089 Clouds 1 984 80 10000 2.31 350 09:19 19.06.2020
1090 Clouds 0 984 91 10000 2.1 320 08:41 19.06.2020
1091 Clouds 0 984 92 10000 2.1 320 08:23 19.06.2020
1092 Clouds 1 984 74 10000 2.1 360 07:42 19.06.2020
1093 Clouds 1 984 74 10000 2.1 360 07:22 19.06.2020
1094 Clouds 1 984 74 10000 2.1 360 07:22 19.06.2020
1095 Clouds 1 985 74 10000 2.36 358 06:59 19.06.2020
1096 Clouds 1 985 74 10000 2.46 359 06:23 19.06.2020
1097 Clouds 1 985 74 10000 2.1 90 05:41 19.06.2020
1098 Clouds 1 986 74 10000 1 270 04:23 19.06.2020
1099 Clear 1 986 74 10000 1.5 320 02:27 19.06.2020
1100 Clouds 1 987 74 10000 2.1 360 00:47 19.06.2020
1101 Clouds 1 987 74 10000 2.1 360 00:22 19.06.2020
1102 Clouds 2 987 69 10000 2.1 320 23:58 18.06.2020
1103 Clouds 2 987 69 10000 2.1 320 23:40 18.06.2020
1104 Clouds 2 987 69 10000 2.1 320 23:22 18.06.2020
1105 Clouds 2 988 69 10000 2.1 270 22:41 18.06.2020
1106 Clouds 2 988 69 10000 2.1 270 22:41 18.06.2020
1107 Clouds 2 988 69 10000 2.1 270 22:21 18.06.2020
1108 Clouds 2 988 64 10000 3.35 1 21:58 18.06.2020
1109 Clouds 2 988 64 10000 3.35 1 21:58 18.06.2020
1110 Clouds 2 988 64 10000 3.35 1 21:38 18.06.2020
1111 Clouds 2 988 64 10000 3.21 359 21:19 18.06.2020
1112 Clouds 1 990 74 10000 1.5 320 20:44 18.06.2020
1113 Clouds 1 990 74 10000 1.5 320 20:22 18.06.2020
1114 Clouds 1 990 80 10000 3.17 7 19:58 18.06.2020
1115 Clouds 1 990 80 10000 3.17 7 19:40 18.06.2020
1116 Clear 1 990 80 10000 3.5 8 19:20 18.06.2020
1117 Clear 1 991 80 10000 3.5 8 18:44 18.06.2020
1118 Clear 1 991 80 10000 3.29 7 18:25 18.06.2020
1119 Clear 0 991 91 10000 3.29 7 17:59 18.06.2020
1120 Clear 0 991 91 10000 3.29 7 17:41 18.06.2020
1121 Clear 0 991 94 10000 2.76 9 17:23 18.06.2020
1122 Clear 0 992 94 10000 1.5 360 16:44 18.06.2020
1123 Clear 0 992 94 10000 1.5 360 16:25 18.06.2020
1124 Clear 0 993 94 10000 2.6 360 15:59 18.06.2020
1125 Clear 0 993 94 10000 2.6 360 15:40 18.06.2020
1126 Clear 0 993 94 10000 2.6 360 15:20 18.06.2020
1127 Clear -1 993 86 10000 2.75 6 14:57 18.06.2020
1128 Clear -1 993 86 10000 2.75 6 14:39 18.06.2020
1129 Clear -1 993 86 10000 2.44 8 14:20 18.06.2020
1130 Clear -1 994 92 10000 3.1 320 13:55 18.06.2020
1131 Clear -1 994 92 10000 3.1 320 13:36 18.06.2020
1132 Clear -1 994 92 10000 2.34 4 13:18 18.06.2020
1133 Clear -1 994 92 10000 2.34 4 12:40 18.06.2020
1134 Clear -1 994 92 10000 2.05 2 12:20 18.06.2020
1135 Clear 0 995 93 10000 2.1 320 11:59 18.06.2020
1136 Clear 0 995 93 10000 2.1 320 11:40 18.06.2020
1137 Clear 0 995 93 10000 2.1 320 11:20 18.06.2020
1138 Clear 0 996 93 10000 1 50 10:41 18.06.2020
1139 Clear 0 996 93 10000 1 50 10:41 18.06.2020
1140 Clear 0 996 93 10000 1 50 10:19 18.06.2020
1141 Clear 1 996 86 10000 1.5 320 09:55 18.06.2020
1142 Clear 1 996 86 10000 1.5 320 09:37 18.06.2020
1143 Clear 1 996 86 10000 1.5 320 09:19 18.06.2020
1144 Clouds 1 997 86 10000 2.1 340 08:40 18.06.2020
1145 Clouds 1 997 86 10000 2.1 340 08:21 18.06.2020
1146 Clear 1 997 94 10000 1.5 340 07:46 18.06.2020
1147 Clear 1 997 93 10000 1.5 340 07:26 18.06.2020
1148 Clouds 1 998 86 10000 1.5 340 06:54 18.06.2020
1149 Clouds 1 999 86 10000 2.1 50 05:55 18.06.2020
1150 Clear 1 999 86 10000 2.6 340 04:22 18.06.2020
1151 Clear 1 1000 86 10000 2.6 320 02:51 18.06.2020
1152 Clouds 2 1001 80 10000 3.1 320 01:28 18.06.2020
1153 Clouds 2 1001 80 10000 2.6 290 00:56 18.06.2020
1154 Clouds 2 1001 80 10000 2.6 290 00:37 18.06.2020
1155 Clouds 2 1001 80 10000 2.6 290 00:19 18.06.2020
1156 Clouds 3 1001 74 10000 1.5 270 23:42 17.06.2020
1157 Clouds 3 1001 74 10000 1.5 270 23:20 17.06.2020
1158 Clouds 3 1001 74 10000 1.5 270 22:57 17.06.2020
1159 Clouds 3 1001 74 10000 1.5 270 22:38 17.06.2020
1160 Clouds 3 1001 74 10000 1.5 270 22:20 17.06.2020
1161 Clouds 5 1001 56 10000 2.6 320 21:55 17.06.2020
1162 Clouds 5 1001 56 10000 2.6 320 21:36 17.06.2020
1163 Clouds 4 1002 69 10000 0.34 155 21:18 17.06.2020
1164 Clouds 4 1002 69 10000 0.34 155 21:18 17.06.2020
1165 Clouds 4 1002 69 10000 0.34 155 20:38 17.06.2020
1166 Clouds 4 1002 69 10000 0.39 154 20:19 17.06.2020
1167 Clouds 4 1002 69 10000 0.39 154 19:55 17.06.2020
1168 Clouds 4 1002 69 10000 0.39 154 19:36 17.06.2020
1169 Clouds 4 1002 69 10000 1.5 320 19:18 17.06.2020
1170 Clouds 4 1002 69 10000 1.5 320 18:41 17.06.2020
1171 Clouds 4 1002 69 10000 1.5 320 18:23 17.06.2020
1172 Rain 4 1002 80 10000 5.1 230 17:44 17.06.2020
1173 Rain 4 1002 80 10000 5.1 230 17:44 17.06.2020
1174 Rain 4 1002 80 10000 5.1 230 17:22 17.06.2020
1175 Rain 4 1002 86 10000 4.1 230 16:57 17.06.2020
1176 Rain 4 1002 86 10000 4.1 230 16:57 17.06.2020
1177 Rain 4 1002 86 10000 4.1 230 16:39 17.06.2020
1178 Rain 4 1002 89 10000 4.1 230 16:21 17.06.2020
1179 Rain 4 1002 89 10000 7.7 230 15:56 17.06.2020
1180 Rain 4 1002 89 10000 7.7 230 15:38 17.06.2020
1181 Rain 4 1002 90 10000 7.7 230 15:19 17.06.2020
1182 Rain 4 1002 80 10000 7.7 230 14:57 17.06.2020
1183 Rain 4 1002 80 10000 7.7 230 14:39 17.06.2020
1184 Rain 4 1002 80 10000 7.7 230 14:19 17.06.2020
1185 Clouds 4 1002 80 10000 7.7 230 13:55 17.06.2020
1186 Clouds 4 1002 80 10000 7.7 230 13:36 17.06.2020
1187 Clouds 4 1002 86 10000 7.7 230 13:18 17.06.2020
1188 Clouds 4 1002 86 10000 7.7 230 12:41 17.06.2020
1189 Clouds 4 1002 86 10000 7.7 230 12:21 17.06.2020
1190 Clouds 4 1002 80 10000 8.2 230 11:45 17.06.2020
1191 Clouds 4 1002 80 10000 8.2 230 11:26 17.06.2020
1192 Clouds 4 1002 86 10000 8.2 230 10:59 17.06.2020
1193 Clouds 4 1002 86 10000 8.2 230 10:38 17.06.2020
1194 Clouds 4 1002 86 10000 8.2 230 10:19 17.06.2020
1195 Clouds 4 1002 86 10000 8.2 230 10:19 17.06.2020
1196 Clouds 4 1002 86 10000 9.8 230 09:55 17.06.2020
1197 Clouds 4 1002 86 10000 9.8 230 09:37 17.06.2020
1198 Clouds 4 1002 86 10000 9.8 230 09:18 17.06.2020
1199 Clouds 4 1002 86 10000 9.8 230 08:44 17.06.2020
1200 Clouds 4 1002 86 10000 9.8 230 08:20 17.06.2020
1201 Rain 4 1002 86 10000 8.2 230 07:44 17.06.2020
1202 Rain 4 1002 86 10000 8.2 230 07:24 17.06.2020
1203 Rain 4 1002 86 10000 10.3 230 06:59 17.06.2020
1204 Rain 4 1002 86 10000 10.3 230 06:41 17.06.2020
1205 Rain 4 1002 86 10000 10.3 230 06:22 17.06.2020
1206 Rain 4 1002 80 10000 9.3 230 05:49 17.06.2020
1207 Drizzle 4 1001 80 10000 12.3 230 04:38 17.06.2020
1208 Drizzle 3 1002 86 10000 9.8 230 02:21 17.06.2020
1209 Drizzle 3 1002 86 10000 2.6 320 00:53 17.06.2020
1210 Drizzle 3 1002 86 10000 2.6 320 00:30 17.06.2020
1211 Clouds 3 1003 86 10000 1.5 320 00:00 17.06.2020
1212 Clouds 3 1003 86 10000 1.5 320 23:41 16.06.2020
1213 Clouds 3 1003 86 10000 1.5 320 23:22 16.06.2020
1214 Clouds 3 1003 86 10000 2.1 360 22:57 16.06.2020
1215 Clouds 3 1003 86 10000 2.1 360 22:38 16.06.2020
1216 Clouds 3 1003 86 10000 2.1 360 22:19 16.06.2020
1217 Clouds 3 1003 86 10000 1.5 360 21:57 16.06.2020
1218 Clouds 3 1003 86 10000 1.5 360 21:39 16.06.2020
1219 Clouds 3 1003 86 10000 1.5 360 21:21 16.06.2020
1220 Clouds 3 1003 86 10000 2.1 360 20:43 16.06.2020
1221 Clouds 3 1003 86 10000 2.1 360 20:23 16.06.2020
1222 Clouds 3 1004 81 10000 2.1 360 19:58 16.06.2020
1223 Clouds 3 1004 81 10000 2.1 360 19:40 16.06.2020
1224 Clouds 3 1004 79 10000 2.1 360 19:22 16.06.2020
1225 Clouds 3 1004 79 10000 0.59 228 18:59 16.06.2020
1226 Clouds 3 1004 79 10000 0.59 228 18:40 16.06.2020
1227 Clouds 3 1004 79 10000 0.46 304 18:21 16.06.2020
1228 Clouds 2 1005 79 10000 0.46 304 17:57 16.06.2020
1229 Clouds 2 1005 79 10000 0.46 304 17:37 16.06.2020
1230 Clouds 2 1005 83 10000 0.75 356 17:19 16.06.2020
1231 Clouds 3 1004 83 10000 0.75 356 16:56 16.06.2020
1232 Clouds 3 1004 83 10000 0.75 356 16:38 16.06.2020
1233 Clouds 3 1004 86 10000 0.31 82 16:19 16.06.2020
1234 Clouds 3 1004 86 10000 3.6 270 15:56 16.06.2020
1235 Clouds 3 1004 86 10000 3.6 270 15:38 16.06.2020
1236 Clouds 3 1004 86 10000 3.6 270 15:20 16.06.2020
1237 Rain 3 1004 86 10000 2.6 320 14:43 16.06.2020
1238 Rain 3 1004 88 10000 2.6 320 14:25 16.06.2020
1239 Rain 3 1005 87 10000 1.44 171 13:57 16.06.2020
1240 Rain 3 1005 87 10000 1.44 171 13:39 16.06.2020
1241 Rain 3 1005 87 10000 1.38 183 13:20 16.06.2020
1242 Clouds 3 1005 87 10000 1.38 183 12:41 16.06.2020
1243 Clouds 3 1005 86 10000 0.78 188 12:21 16.06.2020
1244 Drizzle 3 1005 86 10000 3.1 320 11:56 16.06.2020
1245 Drizzle 3 1005 86 10000 3.1 320 11:38 16.06.2020
1246 Drizzle 3 1005 87 10000 3.1 320 11:19 16.06.2020
1247 Drizzle 4 1005 87 10000 4.6 270 10:43 16.06.2020
1248 Drizzle 4 1005 86 10000 4.6 270 10:22 16.06.2020
1249 Clouds 3 1005 86 10000 3.6 230 09:59 16.06.2020
1250 Clouds 3 1005 86 10000 3.6 230 09:41 16.06.2020
1251 Clouds 3 1005 86 10000 3.6 230 09:21 16.06.2020
1252 Clouds 3 1005 86 10000 2.1 50 08:48 16.06.2020
1253 Clouds 3 1005 86 10000 2.1 50 08:30 16.06.2020
1254 Clouds 2 1005 86 10000 1.5 360 07:51 16.06.2020
1255 Clouds 2 1005 86 10000 1.5 360 07:28 16.06.2020
1256 Clouds 3 1005 86 10000 2.6 50 06:55 16.06.2020
1257 Clouds 3 1005 86 10000 2.6 50 06:29 16.06.2020
1258 Clouds 4 1006 80 10000 1.5 50 05:46 16.06.2020
1259 Clouds 4 1006 84 10000 2.25 4 04:42 16.06.2020
1260 Clouds 4 1006 84 10000 2.6 320 03:48 16.06.2020
1261 Clouds 4 1006 80 10000 2.6 340 02:19 16.06.2020
1262 Clouds 4 1006 86 10000 2.1 50 01:31 16.06.2020
1263 Clouds 4 1006 86 10000 3.1 90 00:52 16.06.2020
1264 Clouds 4 1006 86 10000 3.1 90 00:22 16.06.2020
1265 Clouds 6 1006 70 10000 2.6 90 23:43 15.06.2020
1266 Clouds 6 1006 70 10000 2.6 90 23:24 15.06.2020
1267 Clouds 6 1005 81 10000 1 90 22:59 15.06.2020
1268 Clouds 6 1005 81 10000 1 90 22:40 15.06.2020
1269 Clouds 6 1005 81 10000 1 90 22:21 15.06.2020
1270 Clouds 6 1005 75 10000 4.6 320 21:56 15.06.2020
1271 Clouds 6 1005 75 10000 4.6 320 21:38 15.06.2020
1272 Clouds 6 1005 75 10000 4.6 320 21:19 15.06.2020
1273 Clouds 6 1006 75 10000 5.1 360 20:57 15.06.2020
1274 Clouds 6 1006 75 10000 5.1 360 20:38 15.06.2020
1275 Clouds 6 1006 75 10000 5.1 360 20:19 15.06.2020
1276 Clouds 4 1006 80 10000 3.6 90 19:56 15.06.2020
1277 Clouds 4 1006 80 10000 3.6 90 19:38 15.06.2020
1278 Clouds 4 1006 80 10000 3.6 180 19:20 15.06.2020
1279 Clouds 4 1006 80 10000 3.6 180 18:56 15.06.2020
1280 Clouds 4 1006 80 10000 3.6 180 18:37 15.06.2020
1281 Clouds 4 1006 80 10000 2.1 290 18:19 15.06.2020
1282 Clouds 4 1006 80 10000 2.1 290 17:55 15.06.2020
1283 Clouds 4 1006 80 10000 2.1 290 17:36 15.06.2020
1284 Clouds 5 1007 83 10000 4.1 160 17:18 15.06.2020
1285 Clouds 5 1007 83 10000 4.1 160 16:41 15.06.2020
1286 Clouds 5 1007 87 10000 4.1 160 16:19 15.06.2020
1287 Clouds 4 1007 87 10000 2.1 230 15:56 15.06.2020
1288 Clouds 4 1007 87 10000 2.1 230 15:38 15.06.2020
1289 Clouds 5 1007 65 10000 4.1 360 15:18 15.06.2020
1290 Clouds 5 1007 65 10000 4.1 360 14:42 15.06.2020
1291 Clouds 5 1007 65 10000 4.1 360 14:21 15.06.2020
1292 Clouds 4 1008 69 10000 2.1 180 13:59 15.06.2020
1293 Clouds 4 1008 69 10000 2.1 180 13:41 15.06.2020
1294 Clouds 4 1008 69 10000 2.1 180 13:41 15.06.2020
1295 Clouds 4 1008 69 10000 2.1 180 13:22 15.06.2020
1296 Clouds 4 1008 69 10000 1 340 12:57 15.06.2020
1297 Clouds 4 1008 69 10000 1 340 12:39 15.06.2020
1298 Clouds 4 1008 69 10000 1 340 12:21 15.06.2020
1299 Clouds 4 1008 69 10000 1 340 12:21 15.06.2020
1300 Clouds 1 1008 74 10000 3.97 359 11:44 15.06.2020
1301 Clouds 1 1008 74 10000 3.83 357 11:25 15.06.2020
1302 Clouds 1 1008 74 10000 3.83 357 10:45 15.06.2020
1303 Clouds 1 1008 74 10000 3.75 354 10:23 15.06.2020
1304 Clouds 0 1009 95 0 3.75 354 09:57 15.06.2020
1305 Clouds 0 1009 95 0 3.75 354 09:39 15.06.2020
1306 Clouds 0 1009 94 0 3.99 354 09:20 15.06.2020
1307 Clouds 0 1009 94 0 3.99 354 08:41 15.06.2020
1308 Clouds 1 1008 74 10000 3.38 354 08:23 15.06.2020
1309 Clouds 1 1008 74 10000 3.38 354 07:47 15.06.2020
1310 Clouds 1 1008 74 10000 3.42 355 07:28 15.06.2020
1311 Clouds 1 1008 74 10000 3.42 355 06:49 15.06.2020
1312 Clouds 1 1008 74 10000 3.5 357 06:26 15.06.2020
1313 Clouds 0 1008 95 10000 1.5 270 05:47 15.06.2020
1314 Clouds 0 1008 95 10000 1.5 270 05:26 15.06.2020
1315 Clouds 0 1008 95 10000 2.1 320 04:20 15.06.2020
1316 Clouds 0 1008 95 10000 1 320 03:42 15.06.2020
1317 Clouds 1 1008 86 10000 3.14 359 02:54 15.06.2020
1318 Clouds 0 1008 94 10000 3.1 320 01:58 15.06.2020
1319 Clouds 0 1008 94 10000 3.1 320 01:37 15.06.2020
1320 Clouds 0 1008 94 10000 2.6 320 01:18 15.06.2020
1321 Clouds 0 1008 94 10000 2.6 320 00:39 15.06.2020
1322 Clouds 0 1008 94 10000 2.6 320 00:20 15.06.2020
1323 Clouds 0 1007 94 10000 3.1 320 23:47 14.06.2020
1324 Clouds 0 1007 94 10000 3.1 320 23:25 14.06.2020
1325 Clouds 1 1007 74 10000 1.5 320 22:58 14.06.2020
1326 Clouds 1 1007 74 10000 1.5 320 22:39 14.06.2020
1327 Clouds 1 1007 74 10000 1.5 320 22:20 14.06.2020
1328 Clouds 1 1007 74 10000 3.1 320 21:58 14.06.2020
1329 Clouds 1 1007 74 10000 3.1 320 21:40 14.06.2020
1330 Clouds 1 1007 74 10000 3.1 320 21:19 14.06.2020
1331 Clouds 1 1007 74 10000 1.5 360 20:59 14.06.2020
1332 Clouds 1 1007 74 10000 1.5 360 20:40 14.06.2020
1333 Clouds 1 1007 74 10000 1.5 360 20:21 14.06.2020
1334 Clouds 0 1008 91 10000 2.1 290 19:59 14.06.2020
1335 Clouds 0 1008 91 10000 2.1 290 19:40 14.06.2020
1336 Clouds 0 1008 91 10000 2.1 290 19:40 14.06.2020
1337 Clouds 0 1008 91 10000 2.1 290 19:20 14.06.2020
1338 Clouds 0 1008 91 10000 3.6 2 18:57 14.06.2020
1339 Clouds 0 1008 91 10000 3.6 2 18:39 14.06.2020
1340 Clouds 0 1008 92 10000 3.62 360 18:21 14.06.2020
1341 Clouds 0 1008 92 10000 3.62 360 17:58 14.06.2020
1342 Clouds 0 1008 92 10000 3.62 360 17:39 14.06.2020
1343 Clouds 0 1008 93 10000 3.3 360 17:20 14.06.2020
1344 Clouds -2 1007 79 10000 1.5 320 16:55 14.06.2020
1345 Clouds -2 1007 79 10000 1.5 320 16:37 14.06.2020
1346 Clear -3 1007 93 0 3.11 2 16:18 14.06.2020
1347 Clear -3 1007 93 0 3.11 2 15:41 14.06.2020
1348 Clear -3 1008 79 10000 3.13 0 15:20 14.06.2020
1349 Clear -3 1008 79 10000 3.13 0 14:59 14.06.2020
1350 Clear -3 1008 79 10000 3.13 0 14:41 14.06.2020
1351 Clear -3 1008 79 10000 3.13 358 14:22 14.06.2020
1352 Clear -3 1007 79 10000 3.13 358 13:58 14.06.2020
1353 Clear -3 1007 79 10000 3.13 358 13:40 14.06.2020
1354 Clear -3 1007 79 10000 3 4 13:21 14.06.2020
1355 Clear -3 1008 86 10000 1 320 12:57 14.06.2020
1356 Clear -3 1008 86 10000 1 320 12:38 14.06.2020
1357 Clear -3 1008 86 10000 1 320 12:20 14.06.2020
1358 Clear -3 1008 86 10000 1 320 12:20 14.06.2020
1359 Clear -2 1008 86 10000 2.1 340 11:56 14.06.2020
1360 Clear -2 1008 86 10000 2.1 340 11:38 14.06.2020
1361 Clear -2 1008 86 10000 2.1 340 11:19 14.06.2020
1362 Clear -2 1009 86 10000 2.6 320 10:42 14.06.2020
1363 Clear -2 1009 86 10000 2.6 320 10:20 14.06.2020
1364 Clouds -3 1009 92 10000 2.6 320 09:51 14.06.2020
1365 Clouds -3 1009 92 10000 2.6 320 09:26 14.06.2020
1366 Clear -2 1009 86 10000 4.1 340 08:58 14.06.2020
1367 Clear -2 1009 86 10000 4.1 340 08:58 14.06.2020
1368 Clear -2 1009 86 10000 4.1 340 08:40 14.06.2020
1369 Clear -1 1009 86 10000 3.6 360 08:18 14.06.2020
1370 Clear -1 1009 86 10000 3.6 360 07:51 14.06.2020
1371 Clear -1 1009 86 10000 3.6 360 07:32 14.06.2020
1372 Clear -2 1010 92 10000 2.6 290 06:35 14.06.2020
1373 Clouds -1 1010 92 10000 3.6 290 05:44 14.06.2020
1374 Clouds -1 1010 92 10000 3.1 290 04:58 14.06.2020
1375 Clouds -1 1010 92 10000 3.1 290 04:31 14.06.2020
1376 Clouds 0 1010 91 10000 2.1 270 03:23 14.06.2020
1377 Clouds 0 1010 91 10000 2.6 270 02:30 14.06.2020
1378 Clouds 1 1010 74 10000 4.1 250 01:42 14.06.2020
1379 Clouds 1 1010 74 10000 4.6 250 01:18 14.06.2020
1380 Clouds 1 1010 74 10000 4.6 250 00:38 14.06.2020
1381 Clouds 2 1010 64 10000 5.7 230 00:18 14.06.2020
1382 Clouds 2 1010 64 10000 5.7 230 23:43 13.06.2020
1383 Clouds 2 1010 64 10000 5.7 230 23:23 13.06.2020
1384 Clouds 2 1010 64 10000 6.2 230 22:56 13.06.2020
1385 Clouds 2 1010 64 10000 6.2 230 22:37 13.06.2020
1386 Clouds 3 1010 59 10000 5.7 230 22:18 13.06.2020
1387 Clouds 3 1010 59 10000 5.7 230 22:18 13.06.2020
1388 Clouds 3 1010 59 10000 5.7 230 21:55 13.06.2020
1389 Clouds 3 1010 59 10000 5.7 230 21:37 13.06.2020
1390 Clouds 2 1010 64 10000 6.2 230 21:18 13.06.2020
1391 Clouds 2 1010 64 10000 6.2 230 20:42 13.06.2020
1392 Clouds 2 1010 64 10000 6.2 230 20:19 13.06.2020
1393 Clouds 2 1010 64 10000 6.7 230 19:54 13.06.2020
1394 Clouds 2 1010 64 10000 6.7 230 19:36 13.06.2020
1395 Clouds 1 1010 86 10000 5.7 230 19:18 13.06.2020
1396 Clouds 1 1010 86 10000 5.7 230 18:41 13.06.2020
1397 Clouds 1 1010 86 10000 5.7 230 18:21 13.06.2020
1398 Clouds 2 1010 69 10000 7.7 230 18:00 13.06.2020
1399 Clouds 2 1010 69 10000 7.7 230 17:41 13.06.2020
1400 Clouds 2 1010 69 10000 7.7 230 17:23 13.06.2020
1401 Clouds 2 1010 74 10000 7.7 230 16:56 13.06.2020
1402 Clouds 2 1010 74 10000 7.7 230 16:38 13.06.2020
1403 Clouds 2 1009 74 10000 6.2 230 16:19 13.06.2020
1404 Clouds 2 1009 74 10000 6.2 230 15:45 13.06.2020
1405 Clouds 2 1009 74 10000 6.2 230 15:27 13.06.2020
1406 Clouds 2 1009 74 10000 8.2 230 14:59 13.06.2020
1407 Clouds 2 1009 74 10000 8.2 230 14:39 13.06.2020
1408 Clouds 2 1009 74 10000 8.2 230 14:20 13.06.2020
1409 Clouds 1 1009 74 10000 7.2 230 13:44 13.06.2020
1410 Clouds 1 1009 74 10000 7.2 230 13:26 13.06.2020
1411 Clouds 1 1008 74 10000 7.2 230 12:55 13.06.2020
1412 Clouds 1 1008 74 10000 7.2 230 12:37 13.06.2020
1413 Clouds 2 1008 69 10000 10.3 230 12:19 13.06.2020
1414 Clouds 2 1008 69 10000 10.3 230 11:40 13.06.2020
1415 Clouds 1 1008 74 5000 9.8 230 11:19 13.06.2020
1416 Clouds 1 1008 74 5000 9.8 230 10:58 13.06.2020
1417 Clouds 1 1008 74 5000 9.8 230 10:39 13.06.2020
1418 Clouds 1 1008 74 5000 9.8 230 10:20 13.06.2020
1419 Clouds -1 1008 94 0 1.74 239 09:45 13.06.2020
1420 Clouds 1 1007 80 10000 8.2 230 09:27 13.06.2020
1421 Clouds 1 1007 80 10000 8.2 230 08:56 13.06.2020
1422 Clouds 1 1007 80 10000 8.2 230 08:37 13.06.2020
1423 Clouds 1 1007 80 10000 8.2 230 08:19 13.06.2020
1424 Clouds 1 1007 80 10000 9.8 230 07:42 13.06.2020
1425 Clouds 1 1007 80 10000 9.8 230 07:24 13.06.2020
1426 Clouds 1 1007 80 10000 8.7 230 06:44 13.06.2020
1427 Clouds 1 1007 80 10000 8.7 230 06:25 13.06.2020
1428 Rain 1 1006 86 10000 9.8 230 05:28 13.06.2020
1429 Rain 1 1006 86 8000 10.8 230 04:37 13.06.2020
1430 Rain 1 1006 86 8000 11.3 230 03:33 13.06.2020
1431 Rain 1 1005 86 8000 11.3 230 02:39 13.06.2020
1432 Snow 0 1004 93 6000 12.9 230 01:48 13.06.2020
1433 Snow 0 1004 93 6000 12.9 230 01:22 13.06.2020
1434 Snow 0 1004 93 6000 10.8 230 00:53 13.06.2020
1435 Snow 0 1004 93 6000 10.8 230 00:27 13.06.2020
1436 Snow 1 1002 86 7000 12.9 230 23:58 12.06.2020
1437 Snow 1 1002 86 7000 12.9 230 23:38 12.06.2020
1438 Snow 1 1002 80 8000 13.4 230 23:18 12.06.2020
1439 Snow 1 1002 80 8000 13.4 230 22:42 12.06.2020
1440 Snow 1 1002 80 8000 13.4 230 22:19 12.06.2020
1441 Snow 1 1001 86 9000 10.8 230 21:56 12.06.2020
1442 Snow 1 1001 86 9000 10.8 230 21:37 12.06.2020
1443 Snow 1 1001 86 9000 10.8 230 21:19 12.06.2020
1444 Snow 0 1001 89 4500 13.4 230 20:56 12.06.2020
1445 Snow 0 1001 89 4500 13.4 230 20:37 12.06.2020
1446 Snow 1 1000 86 4500 14.9 230 20:19 12.06.2020
1447 Snow 1 1000 86 7000 13.4 230 19:39 12.06.2020
1448 Snow 1 1000 86 7000 13.4 230 19:21 12.06.2020
1449 Snow 0 1000 88 8000 11.8 230 18:56 12.06.2020
1450 Snow 0 1000 88 8000 11.8 230 18:36 12.06.2020
1451 Snow 0 1000 89 5000 11.3 230 18:18 12.06.2020
1452 Snow 0 1000 89 5000 11.3 230 17:40 12.06.2020
1453 Snow 0 1000 90 5000 11.3 230 17:21 12.06.2020
1454 Snow 0 1000 90 4000 11.3 230 16:45 12.06.2020
1455 Snow 0 1000 92 4000 11.3 230 16:21 12.06.2020
1456 Snow 0 999 92 6000 10.3 230 15:49 12.06.2020
1457 Snow 0 999 92 6000 10.3 230 15:28 12.06.2020
1458 Snow 0 999 92 5000 10.3 230 14:59 12.06.2020
1459 Snow 0 999 92 5000 10.3 230 14:39 12.06.2020
1460 Snow 0 999 93 5000 10.3 230 14:21 12.06.2020
1461 Snow 0 998 93 6000 9.3 230 13:43 12.06.2020
1462 Snow 0 998 94 6000 9.3 230 13:22 12.06.2020
1463 Snow 0 998 94 8000 9.3 230 12:55 12.06.2020
1464 Snow 0 998 94 8000 9.3 230 12:37 12.06.2020
1465 Rain 1 997 86 10000 7.7 200 12:18 12.06.2020
1466 Rain 1 997 86 10000 7.7 200 11:43 12.06.2020
1467 Rain 1 997 86 10000 7.7 200 11:23 12.06.2020
1468 Snow 1 996 86 6000 9.8 230 10:49 12.06.2020
1469 Snow 1 996 86 6000 9.8 230 10:26 12.06.2020
1470 Snow 1 996 86 6000 10.3 230 09:58 12.06.2020
1471 Snow 1 996 86 6000 10.3 230 09:39 12.06.2020
1472 Rain 1 995 80 10000 10.3 230 09:19 12.06.2020
1473 Rain 1 995 80 10000 10.3 230 08:41 12.06.2020
1474 Rain 1 995 80 10000 10.3 230 08:22 12.06.2020
1475 Snow 0 995 94 4000 9.3 230 07:41 12.06.2020
1476 Snow 0 995 95 4000 9.3 230 07:23 12.06.2020
1477 Snow 0 995 95 1000 11.8 230 06:41 12.06.2020
1478 Snow 0 995 95 1000 11.8 230 06:20 12.06.2020
1479 Rain 0 994 95 10000 9.8 230 05:49 12.06.2020
1480 Rain 0 994 95 10000 9.8 230 05:23 12.06.2020
1481 Rain 0 994 95 10000 9.3 230 03:53 12.06.2020
1482 Snow 0 993 95 10000 9.3 230 02:42 12.06.2020
1483 Rain 0 993 95 10000 9.3 230 01:39 12.06.2020
1484 Rain 1 992 80 10000 8.2 230 00:59 12.06.2020
1485 Rain 1 992 80 10000 8.2 230 00:39 12.06.2020
1486 Rain 1 992 80 10000 8.2 230 00:20 12.06.2020
1487 Clouds 1 991 86 10000 10.3 230 23:56 11.06.2020
1488 Clouds 1 991 86 10000 10.3 230 23:38 11.06.2020
1489 Snow 1 991 80 10000 8.7 230 23:19 11.06.2020
1490 Snow 1 991 80 10000 8.7 230 22:54 11.06.2020
1491 Snow 1 991 80 10000 8.7 230 22:36 11.06.2020
1492 Rain 1 990 80 10000 9.3 230 22:18 11.06.2020
1493 Rain 1 990 80 10000 9.3 230 21:42 11.06.2020
1494 Rain 1 990 80 10000 9.3 230 21:20 11.06.2020
1495 Clouds 1 990 80 10000 8.7 230 20:57 11.06.2020
1496 Clouds 1 990 80 10000 8.7 230 20:38 11.06.2020
1497 Clouds 1 990 80 10000 8.7 230 20:20 11.06.2020
1498 Snow 0 989 93 10000 12.3 230 19:43 11.06.2020
1499 Snow 0 989 95 10000 12.3 230 19:22 11.06.2020
1500 Snow 0 988 95 5000 13.4 230 18:54 11.06.2020
1501 Snow 0 988 95 5000 13.4 230 18:36 11.06.2020
1502 Rain 0 988 94 10000 10.8 230 18:18 11.06.2020
1503 Rain 0 988 94 10000 10.8 230 17:55 11.06.2020
1504 Rain 0 988 94 10000 10.8 230 17:37 11.06.2020
1505 Rain 0 988 93 10000 10.8 230 17:18 11.06.2020
1506 Rain 0 988 93 10000 9.8 230 16:42 11.06.2020
1507 Rain 0 988 94 10000 9.8 230 16:23 11.06.2020
1508 Rain 0 987 94 10000 10.3 230 15:57 11.06.2020
1509 Rain 0 987 94 10000 10.3 230 15:38 11.06.2020
1510 Rain 0 987 94 10000 10.3 230 15:20 11.06.2020
1511 Snow 0 987 94 10000 8.2 230 14:44 11.06.2020
1512 Snow 0 987 93 10000 8.2 230 14:21 11.06.2020
1513 Snow -1 987 92 10000 8.2 230 13:57 11.06.2020
1514 Snow -1 987 92 10000 8.2 230 13:39 11.06.2020
1515 Snow -1 987 92 10000 8.2 230 13:20 11.06.2020
1516 Snow -1 986 92 10000 10.3 230 12:56 11.06.2020
1517 Snow -1 986 92 10000 10.3 230 12:56 11.06.2020
1518 Snow -1 986 92 10000 10.3 230 12:38 11.06.2020
1519 Snow 0 985 93 10000 10.3 230 12:19 11.06.2020
1520 Snow 0 985 93 10000 10.3 230 11:57 11.06.2020
1521 Snow 0 985 93 10000 10.3 230 11:38 11.06.2020
1522 Snow 0 985 93 10000 10.3 230 11:20 11.06.2020
1523 Snow 0 985 93 10000 8.2 230 10:54 11.06.2020
1524 Snow 0 985 93 10000 8.2 230 10:36 11.06.2020
1525 Snow 0 985 93 10000 8.2 230 10:18 11.06.2020
1526 Clouds 0 985 93 10000 12.9 230 09:40 11.06.2020
1527 Clouds 0 985 93 10000 12.9 230 09:22 11.06.2020
1528 Clouds 0 984 93 10000 12.3 230 08:43 11.06.2020
1529 Clouds 0 984 93 10000 12.3 230 08:43 11.06.2020
1530 Clouds 0 984 93 10000 12.3 230 08:19 11.06.2020
1531 Clouds 1 984 74 10000 11.3 230 07:42 11.06.2020
1532 Clouds 1 984 74 10000 11.3 230 07:24 11.06.2020
1533 Clouds 0 983 93 10000 14.9 230 06:40 11.06.2020
1534 Rain -1 983 86 10000 9.8 230 06:21 11.06.2020
1535 Rain -1 983 86 10000 9.8 230 05:28 11.06.2020
1536 Rain -1 983 80 10000 9.3 250 03:28 11.06.2020
1537 Rain -1 983 92 10000 8.2 230 02:50 11.06.2020
1538 Rain -1 983 92 10000 8.2 230 02:31 11.06.2020
1539 Snow -1 982 100 6000 10.3 230 01:43 11.06.2020
1540 Snow -1 982 100 6000 10.3 230 01:22 11.06.2020
1541 Snow 0 981 95 3000 10.8 230 00:45 11.06.2020
1542 Snow 0 981 95 3000 10.8 230 00:26 11.06.2020
1543 Rain 1 982 80 10000 9.3 230 23:43 10.06.2020
1544 Rain 1 982 80 10000 9.3 230 23:24 10.06.2020
1545 Rain 2 981 95 10000 10.3 230 22:56 10.06.2020
1546 Rain 2 981 95 10000 10.3 230 22:37 10.06.2020
1547 Rain 2 981 94 10000 10.3 230 22:19 10.06.2020
1548 Snow 2 980 80 7000 14.4 230 21:55 10.06.2020
1549 Snow 2 980 80 7000 14.4 230 21:37 10.06.2020
1550 Snow 2 980 80 7000 14.4 230 21:18 10.06.2020
1551 Snow 2 980 92 6000 15.9 230 20:56 10.06.2020
1552 Snow 2 980 92 6000 15.9 230 20:38 10.06.2020
1553 Snow 2 980 90 6000 15.9 230 20:19 10.06.2020
1554 Rain 2 980 90 10000 12.9 230 19:40 10.06.2020
1555 Rain 2 979 87 10000 18 230 19:19 10.06.2020
1556 Rain 2 979 87 10000 18 230 18:58 10.06.2020
1557 Rain 2 979 87 10000 18 230 18:40 10.06.2020
1558 Snow 1 978 88 10000 17.5 230 18:19 10.06.2020
1559 Snow 1 978 88 10000 17.5 230 17:55 10.06.2020
1560 Snow 1 978 88 10000 17.5 230 17:37 10.06.2020
1561 Snow 1 978 86 10000 17.5 230 17:18 10.06.2020
1562 Snow 1 978 86 8000 17.5 230 16:56 10.06.2020
1563 Snow 1 978 86 8000 17.5 230 16:38 10.06.2020
1564 Snow 1 978 86 8000 17.5 230 16:18 10.06.2020
1565 Snow 1 977 86 5000 13.9 230 15:40 10.06.2020
1566 Snow 1 977 86 5000 13.9 230 15:21 10.06.2020
1567 Snow 1 976 86 5000 4.6 230 14:56 10.06.2020
1568 Snow 1 976 86 5000 4.6 230 14:38 10.06.2020
1569 Snow 1 976 86 5000 4.6 230 14:19 10.06.2020
1570 Snow 1 975 80 3000 5.7 270 13:40 10.06.2020
1571 Snow 1 975 80 3000 5.7 270 13:40 10.06.2020
1572 Snow 1 975 80 3000 5.7 270 13:21 10.06.2020
1573 Clouds 1 975 80 10000 7.2 230 12:44 10.06.2020
1574 Drizzle 2 974 69 10000 6.7 230 12:20 10.06.2020
1575 Drizzle 2 974 69 10000 6.7 230 11:58 10.06.2020
1576 Drizzle 2 974 69 10000 6.7 230 11:40 10.06.2020
1577 Drizzle 2 974 69 10000 6.7 230 11:19 10.06.2020
1578 Clouds 1 974 69 10000 4.6 270 10:57 10.06.2020
1579 Clouds 1 974 69 10000 4.6 270 10:39 10.06.2020
1580 Clouds 1 973 69 10000 4.1 270 10:20 10.06.2020
1581 Clouds 1 973 69 10000 4.1 270 09:41 10.06.2020
1582 Clouds 1 973 69 10000 4.1 270 09:41 10.06.2020
1583 Clouds 1 973 69 10000 4.1 270 09:41 10.06.2020
1584 Clouds 1 973 69 10000 4.1 270 09:23 10.06.2020
1585 Clouds 1 973 74 10000 4.6 270 08:44 10.06.2020
1586 Clouds 1 973 74 10000 4.6 270 08:24 10.06.2020
1587 Clouds 1 972 80 10000 4.1 270 07:58 10.06.2020
1588 Clouds 1 972 80 10000 4.1 270 07:38 10.06.2020
1589 Clouds 1 972 80 10000 3.6 270 07:20 10.06.2020
1590 Clouds 1 972 80 10000 3.6 270 06:44 10.06.2020
1591 Clouds 1 972 80 10000 3.6 270 06:22 10.06.2020
1592 Clouds 2 971 74 10000 4.1 270 05:55 10.06.2020
1593 Clouds 2 971 74 10000 4.1 270 05:25 10.06.2020
1594 Clouds 2 971 74 10000 7.2 290 04:35 10.06.2020
1595 Clouds 2 970 80 10000 2.6 270 02:56 10.06.2020
1596 Clouds 2 970 80 10000 2.6 270 02:20 10.06.2020
1597 Clouds 3 970 74 10000 2.6 320 01:36 10.06.2020
1598 Rain 3 970 90 10000 3.1 270 00:39 10.06.2020
1599 Rain 3 970 89 10000 3.1 270 00:21 10.06.2020
1600 Clouds 4 970 69 10000 2.1 320 23:56 09.06.2020
1601 Clouds 4 970 69 10000 2.1 320 23:37 09.06.2020
1602 Clouds 4 970 69 10000 2.1 320 23:19 09.06.2020
1603 Clouds 5 969 88 10000 1.34 65 22:55 09.06.2020
1604 Clouds 5 969 88 10000 1.34 65 22:37 09.06.2020
1605 Clouds 5 969 87 10000 1.63 107 22:18 09.06.2020
1606 Clouds 5 969 87 10000 1.63 107 21:55 09.06.2020
1607 Clouds 5 969 87 10000 1.63 107 21:37 09.06.2020
1608 Clouds 5 969 86 10000 2.76 166 21:19 09.06.2020
1609 Clouds 5 969 86 10000 0.93 175 20:56 09.06.2020
1610 Clouds 5 969 86 10000 0.93 175 20:38 09.06.2020
1611 Clouds 4 969 69 10000 0.53 221 20:18 09.06.2020
1612 Clouds 4 969 69 10000 0.53 221 19:55 09.06.2020
1613 Clouds 4 969 69 10000 0.53 221 19:37 09.06.2020
1614 Clouds 4 969 69 10000 1.67 245 19:18 09.06.2020
1615 Clouds 4 969 69 10000 1.67 245 18:45 09.06.2020
1616 Clouds 4 969 69 10000 1.74 319 18:26 09.06.2020
1617 Clouds 3 969 69 10000 1.74 319 17:57 09.06.2020
1618 Clouds 3 969 69 10000 1.74 319 17:39 09.06.2020
1619 Clouds 3 969 69 10000 2.24 354 17:21 09.06.2020
1620 Clouds 3 970 74 10000 3.1 180 16:56 09.06.2020
1621 Clouds 3 970 74 10000 3.1 180 16:37 09.06.2020
1622 Clouds 3 970 74 10000 3.1 180 16:19 09.06.2020
1623 Rain 3 970 69 10000 3.19 357 15:40 09.06.2020
1624 Rain 3 970 69 10000 3.28 3 15:21 09.06.2020
1625 Rain 3 970 59 10000 3.28 3 14:57 09.06.2020
1626 Rain 3 970 59 10000 3.28 3 14:38 09.06.2020
1627 Rain 3 970 59 10000 3.81 5 14:19 09.06.2020
1628 Snow 1 970 90 0 3.78 8 13:54 09.06.2020
1629 Rain 3 972 59 10000 6.2 360 13:36 09.06.2020
1630 Rain 3 972 59 10000 6.2 360 13:36 09.06.2020
1631 Rain 3 972 59 10000 6.2 360 13:18 09.06.2020
1632 Rain 3 972 59 10000 6.2 360 12:41 09.06.2020
1633 Rain 3 972 59 10000 6.2 360 12:20 09.06.2020
1634 Clouds 3 973 55 10000 2.6 250 11:56 09.06.2020
1635 Clouds 3 973 55 10000 2.6 250 11:37 09.06.2020
1636 Clouds 3 973 55 10000 2.6 250 11:37 09.06.2020
1637 Clouds 3 973 55 10000 2.6 250 11:19 09.06.2020
1638 Clouds 1 974 69 10000 2.6 340 10:45 09.06.2020
1639 Clouds 1 974 69 10000 2.6 340 10:27 09.06.2020
1640 Clouds 2 975 59 10000 5.1 360 09:59 09.06.2020
1641 Clouds 2 975 59 10000 5.1 360 09:39 09.06.2020
1642 Clouds 2 975 59 10000 5.1 360 09:19 09.06.2020
1643 Clouds 2 976 64 10000 5.7 340 08:40 09.06.2020
1644 Clouds 2 976 64 10000 5.7 340 08:21 09.06.2020
1645 Clouds 2 976 64 10000 5.7 340 08:21 09.06.2020
1646 Clouds 2 978 69 10000 1.5 340 07:43 09.06.2020
1647 Clouds 2 978 69 10000 1.5 340 07:23 09.06.2020
1648 Clouds 2 978 59 10000 7.2 360 06:56 09.06.2020
1649 Clouds 2 978 59 10000 7.2 360 06:36 09.06.2020
1650 Clouds 2 980 69 10000 3.1 320 05:48 09.06.2020
1651 Clouds 1 981 74 10000 4.1 290 04:22 09.06.2020
1652 Clouds 2 980 74 10000 2.1 270 02:47 09.06.2020
1653 Clouds 3 980 64 10000 3.1 270 01:38 09.06.2020
1654 Clouds 3 980 69 10000 7.7 230 01:18 09.06.2020
1655 Clouds 3 980 69 10000 7.7 230 00:44 09.06.2020
1656 Rain 4 979 69 10000 12.3 230 00:19 09.06.2020
1657 Rain 4 979 69 10000 12.3 230 23:42 08.06.2020
1658 Rain 4 979 69 10000 12.3 230 23:22 08.06.2020
1659 Drizzle 4 978 64 10000 12.3 230 22:59 08.06.2020
1660 Drizzle 4 978 64 10000 12.3 230 22:39 08.06.2020
1661 Drizzle 4 978 64 10000 12.3 230 22:20 08.06.2020
1662 Rain 4 976 64 10000 12.3 230 21:56 08.06.2020
1663 Rain 4 976 64 10000 12.3 230 21:38 08.06.2020
1664 Rain 4 976 64 10000 12.3 230 21:19 08.06.2020
1665 Clouds 5 973 65 10000 5.7 250 20:55 08.06.2020
1666 Clouds 5 973 65 10000 5.7 250 20:37 08.06.2020
1667 Clouds 5 973 65 10000 5.7 250 20:18 08.06.2020
1668 Rain 5 973 60 10000 4.1 180 19:43 08.06.2020
1669 Rain 5 973 60 10000 5.1 180 19:21 08.06.2020
1670 Rain 5 973 60 10000 5.1 180 18:44 08.06.2020
1671 Rain 5 973 60 10000 5.1 180 18:23 08.06.2020
1672 Rain 5 974 86 10000 5.1 360 17:58 08.06.2020
1673 Rain 5 974 86 10000 5.1 360 17:40 08.06.2020
1674 Rain 5 974 86 10000 5.1 360 17:22 08.06.2020
1675 Snow 2 975 85 0 6.53 12 16:59 08.06.2020
1676 Snow 2 975 85 0 6.53 12 16:41 08.06.2020
1677 Rain 3 976 69 10000 6.2 320 16:22 08.06.2020
1678 Rain 3 976 69 10000 6.2 320 15:44 08.06.2020
1679 Rain 3 976 69 10000 6.2 320 15:22 08.06.2020
1680 Clouds 2 977 69 10000 5.1 20 14:59 08.06.2020
1681 Clouds 2 977 69 10000 5.1 20 14:40 08.06.2020
1682 Clouds 2 977 69 10000 5.1 20 14:20 08.06.2020
1683 Clouds 2 978 69 10000 5.1 360 13:44 08.06.2020
1684 Clouds 2 978 69 10000 5.1 360 13:25 08.06.2020
1685 Clouds 3 979 59 10000 4.1 320 12:44 08.06.2020
1686 Clouds 3 979 59 10000 4.1 320 12:44 08.06.2020
1687 Clouds 3 979 59 10000 4.1 320 12:44 08.06.2020
1688 Clouds 3 979 59 10000 4.1 320 12:22 08.06.2020
1689 Clouds 3 980 59 10000 3.85 359 11:59 08.06.2020
1690 Clouds 3 980 59 10000 3.85 359 11:41 08.06.2020
1691 Clouds 3 980 59 10000 4.13 357 11:22 08.06.2020
1692 Clouds 4 980 51 10000 2.6 320 10:58 08.06.2020
1693 Clouds 4 980 51 10000 2.6 320 10:39 08.06.2020
1694 Clouds 4 980 51 10000 2.6 320 10:20 08.06.2020
1695 Clouds 4 980 51 10000 3.1 270 09:58 08.06.2020
1696 Clouds 4 980 51 10000 3.1 270 09:40 08.06.2020
1697 Clouds 4 980 51 10000 3.1 270 09:21 08.06.2020
1698 Clouds 5 980 52 10000 2.6 270 08:47 08.06.2020
1699 Clouds 5 980 52 10000 2.6 270 08:22 08.06.2020
1700 Clouds 5 980 48 10000 5.7 320 07:46 08.06.2020
1701 Clouds 5 980 48 10000 5.7 320 07:24 08.06.2020
1702 Clouds 5 980 48 10000 3.6 270 06:51 08.06.2020
1703 Clouds 5 980 48 10000 3.6 270 06:33 08.06.2020
1704 Clouds 5 980 52 10000 1 270 05:52 08.06.2020
1705 Clouds 5 980 60 10000 1.5 270 04:29 08.06.2020
1706 Clouds 6 979 56 10000 8.2 230 02:32 08.06.2020
1707 Clouds 8 978 36 10000 7.7 320 01:55 08.06.2020
1708 Clouds 8 978 36 10000 7.7 320 01:30 08.06.2020
1709 Clouds 8 977 33 10000 10.8 320 00:33 08.06.2020
1710 Clouds 8 977 42 10000 10.3 320 23:58 07.06.2020
1711 Clouds 8 977 42 10000 10.3 320 23:36 07.06.2020
1712 Clouds 8 977 42 10000 10.3 320 23:18 07.06.2020
1713 Clouds 8 977 42 10000 10.8 320 22:39 07.06.2020
1714 Clouds 8 977 42 10000 10.8 320 22:20 07.06.2020
1715 Clouds 8 977 75 10000 8.2 320 21:59 07.06.2020
1716 Clouds 8 977 75 10000 8.2 320 21:39 07.06.2020
1717 Clouds 8 977 72 10000 8.2 320 21:20 07.06.2020
1718 Clouds 8 977 75 10000 8.2 320 21:20 07.06.2020
1719 Clouds 8 977 75 10000 8.2 320 21:20 07.06.2020
1720 Drizzle 8 977 75 10000 9.3 320 20:57 07.06.2020
1721 Drizzle 8 977 75 10000 9.3 320 20:38 07.06.2020
1722 Drizzle 8 977 72 10000 9.3 320 20:19 07.06.2020
1723 Drizzle 7 977 72 10000 11.8 320 19:56 07.06.2020
1724 Drizzle 7 977 72 10000 11.8 320 19:38 07.06.2020
1725 Drizzle 7 978 72 10000 11.3 320 19:19 07.06.2020
1726 Drizzle 7 978 72 10000 11.3 320 18:55 07.06.2020
1727 Drizzle 7 978 72 10000 11.3 320 18:36 07.06.2020
1728 Drizzle 7 979 65 10000 11.3 340 18:18 07.06.2020
1729 Drizzle 7 979 65 10000 11.3 340 17:55 07.06.2020
1730 Drizzle 7 979 65 10000 11.3 340 17:36 07.06.2020
1731 Drizzle 7 979 65 10000 11.3 340 17:18 07.06.2020
1732 Drizzle 7 980 65 10000 4.1 290 16:41 07.06.2020
1733 Drizzle 7 980 65 10000 4.1 290 16:21 07.06.2020
1734 Drizzle 7 980 65 10000 4.1 290 16:21 07.06.2020
1735 Clouds 7 981 70 10000 5.7 340 15:37 07.06.2020
1736 Clouds 7 981 70 10000 5.7 340 15:18 07.06.2020
1737 Clouds 7 981 70 10000 5.7 340 14:39 07.06.2020
1738 Clouds 7 981 70 10000 5.7 340 14:39 07.06.2020
1739 Clouds 7 981 70 10000 5.7 340 14:21 07.06.2020
1740 Clouds 3 983 82 0 3.57 3 13:47 07.06.2020
1741 Clouds 7 981 56 10000 5.7 20 13:21 07.06.2020
1742 Clouds 7 981 56 10000 5.7 20 12:55 07.06.2020
1743 Clouds 7 981 56 10000 5.7 20 12:36 07.06.2020
1744 Clouds 6 981 56 10000 2.1 50 12:18 07.06.2020
1745 Clouds 6 981 56 10000 2.1 50 11:55 07.06.2020
1746 Clouds 6 981 56 10000 2.1 50 11:36 07.06.2020
1747 Clouds 6 981 56 10000 2.1 50 11:18 07.06.2020
1748 Clouds 6 980 56 10000 5.7 340 10:42 07.06.2020
1749 Clouds 6 980 56 10000 5.7 340 10:20 07.06.2020
1750 Clouds 6 980 52 10000 6.7 360 09:57 07.06.2020
1751 Clouds 6 980 52 10000 6.7 360 09:38 07.06.2020
1752 Clouds 6 980 52 10000 6.7 360 09:20 07.06.2020
1753 Clouds 6 980 52 10000 6.2 320 08:48 07.06.2020
1754 Clouds 6 980 52 10000 6.2 320 08:24 07.06.2020
1755 Clouds 6 980 52 10000 6.2 320 08:24 07.06.2020
1756 Clouds 4 979 80 10000 3.1 110 07:50 07.06.2020
1757 Clouds 4 979 80 10000 3.1 110 07:30 07.06.2020
1758 Clouds 4 978 80 10000 4.56 354 06:51 07.06.2020
1759 Clouds 4 979 80 10000 3.39 344 05:50 07.06.2020
1760 Clouds 5 979 75 10000 1.5 290 04:20 07.06.2020
1761 Clouds 5 979 75 10000 2.6 290 02:36 07.06.2020
1762 Clouds 6 979 70 10000 4.1 270 01:55 07.06.2020
1763 Clouds 6 979 70 10000 4.1 270 01:25 07.06.2020
1764 Rain 6 980 70 10000 3.1 360 00:46 07.06.2020
1765 Rain 6 980 70 10000 3.1 360 00:19 07.06.2020
1766 Drizzle 6 981 70 10000 1.5 50 23:58 06.06.2020
1767 Drizzle 6 981 70 10000 1.5 50 23:37 06.06.2020
1768 Drizzle 6 981 70 10000 1.5 50 23:19 06.06.2020
1769 Clouds 3 981 79 0 3.54 3 22:56 06.06.2020
1770 Clouds 7 981 70 10000 3.1 140 22:38 06.06.2020
1771 Clouds 7 981 70 10000 3.1 140 22:18 06.06.2020
1772 Clouds 7 981 70 10000 3.1 140 21:45 06.06.2020
1773 Clouds 7 981 70 10000 3.1 140 21:22 06.06.2020
1774 Clouds 7 983 70 10000 1.5 180 20:57 06.06.2020
1775 Clouds 7 983 70 10000 1.5 180 20:38 06.06.2020
1776 Clouds 7 983 70 10000 1.5 180 20:18 06.06.2020
1777 Clouds 7 983 70 10000 1.5 180 20:18 06.06.2020
1778 Clouds 6 984 75 10000 2.1 250 19:57 06.06.2020
1779 Clouds 6 984 75 10000 2.1 250 19:38 06.06.2020
1780 Clouds 6 985 70 10000 3.6 160 19:19 06.06.2020
1781 Clouds 6 985 70 10000 3.6 160 18:43 06.06.2020
1782 Clouds 6 985 70 10000 3.6 160 18:24 06.06.2020
1783 Clouds 6 986 70 10000 3.1 160 17:58 06.06.2020
1784 Clouds 6 986 70 10000 3.1 160 17:39 06.06.2020
1785 Clouds 6 986 70 10000 3.1 160 17:19 06.06.2020
1786 Clouds 5 987 75 10000 1 110 16:44 06.06.2020
1787 Clouds 5 987 75 10000 1 110 16:22 06.06.2020
1788 Clouds 4 987 80 10000 4.1 270 15:58 06.06.2020
1789 Clouds 4 987 80 10000 4.1 270 15:40 06.06.2020
1790 Clouds 4 987 80 10000 4.1 270 15:20 06.06.2020
1791 Clouds 5 987 75 10000 3.1 90 14:44 06.06.2020
1792 Clouds 5 987 75 10000 3.1 90 14:25 06.06.2020
1793 Clouds 4 988 80 10000 4.1 110 13:59 06.06.2020
1794 Clouds 4 988 80 10000 4.1 110 13:41 06.06.2020
1795 Clouds 4 988 86 10000 1.5 250 13:18 06.06.2020
1796 Clouds 4 988 86 10000 1.5 250 12:43 06.06.2020
1797 Clouds 4 988 86 10000 1.5 250 12:43 06.06.2020
1798 Clouds 4 988 86 10000 1.5 250 12:43 06.06.2020
1799 Clouds 4 988 86 10000 1.5 250 12:43 06.06.2020
1800 Clouds 4 988 86 10000 1.5 250 12:24 06.06.2020
1801 Clouds 5 988 80 10000 2.61 348 11:59 06.06.2020
1802 Clouds 5 988 80 10000 2.61 348 11:39 06.06.2020
1803 Clouds 5 988 80 10000 2.64 348 11:20 06.06.2020
1804 Clouds 5 988 80 10000 2.64 348 10:59 06.06.2020
1805 Clouds 5 988 80 10000 2.64 348 10:39 06.06.2020
1806 Clouds 5 988 80 10000 2.84 352 10:21 06.06.2020
1807 Clouds 5 988 86 10000 2.6 360 09:58 06.06.2020
1808 Clouds 5 988 86 10000 2.6 360 09:40 06.06.2020
1809 Clouds 5 988 86 10000 2.6 360 09:21 06.06.2020
1810 Clouds 6 988 81 10000 2.6 270 08:43 06.06.2020
1811 Clouds 6 988 81 10000 2.6 270 08:23 06.06.2020
1812 Clouds 4 987 93 10000 2.1 360 07:49 06.06.2020
1813 Clouds 4 987 93 10000 2.1 360 07:23 06.06.2020
1814 Clouds 4 986 93 10000 2.6 320 06:52 06.06.2020
1815 Clouds 4 986 93 10000 2.6 320 06:34 06.06.2020
1816 Clouds 6 986 75 10000 9.3 230 05:59 06.06.2020
1817 Clouds 6 986 75 10000 9.3 230 05:31 06.06.2020
1818 Clouds 6 985 75 10000 9.3 230 04:47 06.06.2020
1819 Clouds 6 984 75 10000 4.1 230 03:21 06.06.2020
1820 Clouds 7 982 75 10000 2.1 180 01:58 06.06.2020
1821 Clouds 7 982 75 10000 2.1 180 01:20 06.06.2020
1822 Clouds 7 982 70 10000 4.1 230 00:47 06.06.2020
1823 Clouds 7 982 70 10000 4.1 230 00:27 06.06.2020
1824 Clouds 8 982 61 10000 6.2 230 23:59 05.06.2020
1825 Clouds 8 982 61 10000 6.2 230 23:39 05.06.2020
1826 Clouds 8 982 61 10000 6.2 230 23:19 05.06.2020
1827 Clouds 9 980 57 10000 3.6 270 22:56 05.06.2020
1828 Clouds 9 980 57 10000 3.6 270 22:37 05.06.2020
1829 Clouds 9 980 57 10000 3.6 270 22:18 05.06.2020
1830 Clouds 9 980 45 10000 6.7 320 21:42 05.06.2020
1831 Clouds 9 980 45 10000 6.7 320 21:22 05.06.2020
1832 Clouds 9 980 45 10000 6.7 320 20:58 05.06.2020
1833 Clouds 9 980 45 10000 6.7 320 20:39 05.06.2020
1834 Clouds 9 980 45 10000 6.7 320 20:21 05.06.2020
1835 Clouds 10 980 37 10000 7.2 320 19:42 05.06.2020
1836 Clouds 10 980 37 10000 7.2 320 19:23 05.06.2020
1837 Clouds 10 980 39 10000 7.7 320 18:57 05.06.2020
1838 Clouds 10 980 39 10000 7.7 320 18:38 05.06.2020
1839 Clouds 10 981 39 10000 6.2 320 18:19 05.06.2020
1840 Clouds 10 981 39 10000 6.2 320 17:57 05.06.2020
1841 Clouds 10 981 39 10000 6.2 320 17:39 05.06.2020
1842 Clouds 10 981 39 10000 6.2 320 17:19 05.06.2020
1843 Clouds 8 981 52 10000 4.1 290 16:39 05.06.2020
1844 Clouds 8 981 52 10000 4.1 290 16:39 05.06.2020
1845 Clouds 8 981 52 10000 4.1 290 16:20 05.06.2020
1846 Clouds 8 981 49 10000 5.1 340 15:47 05.06.2020
1847 Clouds 8 981 49 10000 5.1 340 15:24 05.06.2020
1848 Clouds 8 981 49 10000 5.1 340 14:59 05.06.2020
1849 Clouds 8 981 49 10000 5.1 340 14:40 05.06.2020
1850 Clouds 8 981 49 10000 5.1 340 14:22 05.06.2020
1851 Clouds 8 980 49 10000 4.1 320 13:59 05.06.2020
1852 Clouds 8 980 49 10000 4.1 320 13:40 05.06.2020
1853 Clouds 8 980 49 10000 4.1 320 13:22 05.06.2020
1854 Clouds 8 980 49 10000 5.1 290 12:42 05.06.2020
1855 Clouds 8 980 49 10000 5.1 290 12:20 05.06.2020
1856 Clouds 8 980 52 10000 6.2 360 11:56 05.06.2020
1857 Clouds 8 980 52 10000 6.2 360 11:38 05.06.2020
1858 Clouds 8 980 52 10000 6.2 360 11:19 05.06.2020
1859 Clouds 8 980 49 10000 5.7 320 10:42 05.06.2020
1860 Clouds 8 980 49 10000 5.7 320 10:22 05.06.2020
1861 Clouds 8 980 49 10000 5.7 320 10:22 05.06.2020
1862 Clouds 8 981 49 10000 3.1 340 09:59 05.06.2020
1863 Clouds 8 981 49 10000 3.1 340 09:40 05.06.2020
1864 Clouds 8 981 49 10000 3.1 340 09:21 05.06.2020
1865 Clouds 8 980 49 10000 6.7 340 08:59 05.06.2020
1866 Clouds 8 980 49 10000 6.7 340 08:41 05.06.2020
1867 Clouds 8 980 49 10000 6.7 340 08:19 05.06.2020
1868 Clouds 8 980 45 10000 6.7 340 07:55 05.06.2020
1869 Clouds 8 980 45 10000 6.7 340 07:36 05.06.2020
1870 Clouds 8 980 70 10000 5.1 320 06:54 05.06.2020
1871 Clouds 7 981 52 10000 6.2 340 05:24 05.06.2020
1872 Clouds 6 981 60 10000 5.7 320 04:44 05.06.2020
1873 Clouds 7 982 52 10000 8.7 320 03:50 05.06.2020
1874 Clouds 7 982 52 10000 6.7 320 02:44 05.06.2020
1875 Clouds 7 982 52 10000 6.7 320 02:18 05.06.2020
1876 Clouds 8 982 49 10000 5.1 320 01:49 05.06.2020
1877 Clouds 8 983 49 10000 5.7 290 00:58 05.06.2020
1878 Clouds 8 983 49 10000 5.7 290 00:39 05.06.2020
1879 Clouds 9 983 45 10000 6.2 320 00:19 05.06.2020
1880 Clouds 9 983 45 10000 6.2 320 23:46 04.06.2020
1881 Clouds 9 983 45 10000 6.2 320 23:25 04.06.2020
1882 Clouds 8 983 81 10000 5.7 320 22:45 04.06.2020
1883 Clouds 8 983 83 10000 5.7 320 22:23 04.06.2020
1884 Clouds 9 982 83 10000 6.2 320 21:59 04.06.2020
1885 Clouds 9 982 83 10000 6.2 320 21:40 04.06.2020
1886 Clouds 9 982 79 10000 6.2 320 21:22 04.06.2020
1887 Clouds 9 982 79 10000 6.2 320 21:22 04.06.2020
1888 Clouds 8 982 79 10000 5.7 320 20:59 04.06.2020
1889 Clouds 8 982 79 10000 5.7 320 20:39 04.06.2020
1890 Clouds 8 982 52 10000 1.39 327 20:20 04.06.2020
1891 Clouds 8 982 52 10000 1.39 327 19:57 04.06.2020
1892 Clouds 8 982 52 10000 1.39 327 19:38 04.06.2020
1893 Clouds 8 983 52 10000 1.15 334 19:20 04.06.2020
1894 Clouds 8 983 52 10000 1.15 334 18:40 04.06.2020
1895 Clouds 8 983 52 10000 1.25 327 18:21 04.06.2020
1896 Clouds 4 984 81 0 1.25 327 17:59 04.06.2020
1897 Clouds 4 984 81 0 1.25 327 17:41 04.06.2020
1898 Clouds 4 984 81 0 1.25 327 17:41 04.06.2020
1899 Clouds 5 982 75 10000 2.6 360 17:20 04.06.2020
1900 Clouds 5 982 75 10000 2.6 360 16:41 04.06.2020
1901 Clouds 5 982 75 10000 2.6 360 16:21 04.06.2020
1902 Clear 4 982 86 10000 2.6 360 15:58 04.06.2020
1903 Clear 4 982 86 10000 2.6 360 15:40 04.06.2020
1904 Clear 4 982 86 10000 2.6 360 15:22 04.06.2020
1905 Clear 4 980 80 10000 2.26 343 14:39 04.06.2020
1906 Clouds 4 980 80 10000 2.29 339 14:19 04.06.2020
1907 Clouds 5 980 65 10000 4.6 290 13:56 04.06.2020
1908 Clouds 5 980 65 10000 4.6 290 13:37 04.06.2020
1909 Clouds 5 979 60 10000 2.33 326 13:18 04.06.2020
1910 Clouds 5 979 60 10000 2.33 326 12:54 04.06.2020
1911 Clouds 5 979 60 10000 2.33 326 12:36 04.06.2020
1912 Clouds 6 978 60 10000 3.6 270 12:18 04.06.2020
1913 Clouds 6 978 60 10000 3.6 270 11:39 04.06.2020
1914 Clouds 6 978 60 10000 3.6 270 11:20 04.06.2020
1915 Clouds 6 977 84 10000 3.6 270 10:58 04.06.2020
1916 Clouds 6 977 84 10000 3.6 270 10:38 04.06.2020
1917 Clouds 6 977 84 10000 3.6 270 10:19 04.06.2020
1918 Clouds 6 977 84 10000 5.1 270 09:45 04.06.2020
1919 Clouds 6 977 85 10000 5.1 270 09:27 04.06.2020
1920 Clouds 6 976 70 10000 5.1 270 08:49 04.06.2020
1921 Clouds 6 976 70 10000 5.1 270 08:28 04.06.2020
1922 Clouds 6 974 70 10000 2.6 230 07:58 04.06.2020
1923 Clouds 6 974 70 10000 2.6 230 07:29 04.06.2020
1924 Clouds 4 975 85 0 2.03 329 06:45 04.06.2020
1925 Clouds 6 973 60 10000 3.1 250 06:26 04.06.2020
1926 Clouds 6 973 60 10000 3.1 250 05:51 04.06.2020
1927 Clouds 6 973 60 10000 3.1 250 05:30 04.06.2020
1928 Clouds 6 972 60 10000 4.1 270 03:31 04.06.2020
1929 Clouds 7 973 52 10000 7.2 320 01:59 04.06.2020
1930 Clouds 7 974 52 10000 9.3 320 01:20 04.06.2020
1931 Clouds 7 974 52 10000 9.3 320 00:51 04.06.2020
1932 Rain 6 976 60 10000 3.6 340 23:56 03.06.2020
1933 Rain 6 976 60 10000 3.6 340 23:36 03.06.2020
1934 Rain 6 976 60 10000 3.6 340 23:18 03.06.2020
1935 Rain 7 978 75 10000 7.7 320 22:40 03.06.2020
1936 Rain 7 978 75 10000 7.7 320 22:19 03.06.2020
1937 Rain 7 980 75 10000 10.8 360 21:59 03.06.2020
1938 Rain 7 980 75 10000 10.8 360 21:40 03.06.2020
1939 Rain 7 980 75 10000 10.8 360 21:21 03.06.2020
1940 Rain 7 980 75 10000 10.8 360 21:21 03.06.2020
1941 Drizzle 7 982 75 10000 10.8 320 20:58 03.06.2020
1942 Drizzle 7 982 75 10000 10.8 320 20:39 03.06.2020
1943 Drizzle 7 982 75 10000 10.8 320 20:20 03.06.2020
1944 Drizzle 6 984 81 10000 8.2 320 19:57 03.06.2020
1945 Drizzle 6 984 81 10000 8.2 320 19:37 03.06.2020
1946 Drizzle 6 984 81 10000 8.2 320 19:37 03.06.2020
1947 Drizzle 6 987 75 10000 9.3 320 19:19 03.06.2020
1948 Drizzle 6 987 75 10000 9.3 320 18:55 03.06.2020
1949 Drizzle 6 987 75 10000 9.3 320 18:37 03.06.2020
1950 Drizzle 6 989 70 10000 8.7 360 18:18 03.06.2020
1951 Drizzle 6 989 70 10000 8.7 360 17:42 03.06.2020
1952 Drizzle 6 989 70 10000 8.7 360 17:21 03.06.2020
1953 Rain 4 990 69 10000 7.2 340 16:55 03.06.2020
1954 Rain 4 990 69 10000 7.2 340 16:37 03.06.2020
1955 Rain 4 990 69 10000 7.2 340 16:18 03.06.2020
1956 Rain 4 990 69 10000 7.2 340 16:18 03.06.2020
1957 Clouds 3 993 86 10000 8.7 340 15:41 03.06.2020
1958 Clouds 3 993 86 10000 8.7 340 15:21 03.06.2020
1959 Snow 4 995 84 0 5.12 356 14:57 03.06.2020
1960 Snow 4 995 84 0 5.12 356 14:38 03.06.2020
1961 Snow 4 996 83 0 4.97 351 14:20 03.06.2020
1962 Clouds 2 997 80 10000 6.7 360 13:38 03.06.2020
1963 Clouds 2 997 80 10000 6.7 360 13:19 03.06.2020
1964 Clouds 2 999 84 10000 2.1 90 12:43 03.06.2020
1965 Clouds 2 999 86 10000 2.1 90 12:22 03.06.2020
1966 Clouds 2 1000 80 10000 1.5 180 11:57 03.06.2020
1967 Clouds 2 1000 80 10000 1.5 180 11:38 03.06.2020
1968 Clouds 2 1000 80 10000 1.5 180 11:20 03.06.2020
1969 Clouds 2 1002 80 10000 2.6 70 10:41 03.06.2020
1970 Clouds 2 1002 80 10000 2.6 70 10:22 03.06.2020
1971 Rain 3 1003 90 10000 2.6 320 09:45 03.06.2020
1972 Rain 3 1003 94 10000 2.6 320 09:20 03.06.2020
1973 Drizzle 3 1004 74 10000 1.5 200 08:58 03.06.2020
1974 Drizzle 3 1004 74 10000 1.5 200 08:58 03.06.2020
1975 Drizzle 3 1004 74 10000 1.5 200 08:58 03.06.2020
1976 Drizzle 3 1004 74 10000 1.5 200 08:58 03.06.2020
1977 Drizzle 3 1004 74 10000 1.5 200 08:40 03.06.2020
1978 Drizzle 3 1004 74 10000 1.5 200 08:19 03.06.2020
1979 Rain 2 1004 80 10000 2.6 360 07:42 03.06.2020
1980 Rain 2 1004 80 10000 3.6 340 07:20 03.06.2020
1981 Rain 2 1004 80 10000 3.6 340 06:52 03.06.2020
1982 Rain 2 1004 80 10000 3.6 340 06:30 03.06.2020
1983 Clouds 4 1005 69 10000 4.6 320 05:47 03.06.2020
1984 Drizzle 4 1005 95 10000 11.8 230 04:56 03.06.2020
1985 Clouds 4 1005 95 10000 14.4 230 03:50 03.06.2020
1986 Clouds 4 1005 95 10000 14.4 230 03:20 03.06.2020
1987 Clouds 4 1005 88 10000 11.8 230 01:53 03.06.2020
1988 Clouds 4 1004 86 10000 7.2 280 00:44 03.06.2020
1989 Drizzle 3 1005 86 10000 11.8 230 00:25 03.06.2020
1990 Drizzle 3 1005 86 10000 11.8 230 23:52 02.06.2020
1991 Drizzle 3 1005 87 10000 11.8 230 23:28 02.06.2020
1992 Drizzle 4 1004 87 10000 13.9 230 22:57 02.06.2020
1993 Drizzle 4 1004 87 10000 13.9 230 22:38 02.06.2020
1994 Drizzle 4 1004 85 10000 13.9 230 22:19 02.06.2020
1995 Drizzle 3 1003 85 10000 11.3 230 21:56 02.06.2020
1996 Drizzle 3 1003 85 10000 11.3 230 21:38 02.06.2020
1997 Drizzle 3 1003 84 10000 11.3 230 21:19 02.06.2020
1998 Drizzle 3 1003 84 10000 15.9 230 20:57 02.06.2020
1999 Drizzle 3 1003 84 10000 15.9 230 20:39 02.06.2020
2000 Drizzle 3 1003 80 10000 15.9 230 20:20 02.06.2020
2001 Clouds 3 1002 80 10000 15.9 230 19:43 02.06.2020
2002 Clouds 3 1002 79 10000 15.9 230 19:25 02.06.2020
2003 Drizzle 3 1002 79 10000 14.9 230 18:57 02.06.2020
2004 Drizzle 3 1002 79 10000 14.9 230 18:57 02.06.2020
2005 Drizzle 3 1002 79 10000 14.9 230 18:39 02.06.2020
2006 Drizzle 3 1002 80 10000 14.9 230 18:20 02.06.2020
2007 Drizzle 4 1001 80 10000 13.9 230 17:55 02.06.2020
2008 Drizzle 4 1001 80 10000 13.9 230 17:37 02.06.2020
2009 Drizzle 4 1001 83 10000 13.9 230 17:18 02.06.2020
2010 Rain 4 1001 83 10000 12.3 230 16:41 02.06.2020
2011 Rain 4 1001 87 10000 12.3 230 16:21 02.06.2020
2012 Drizzle 4 1000 87 10000 10.3 230 15:59 02.06.2020
2013 Rain 4 1001 87 10000 8.7 230 15:40 02.06.2020
2014 Rain 4 1001 88 10000 8.7 230 15:20 02.06.2020
2015 Rain 3 999 88 10000 8.7 230 14:46 02.06.2020
2016 Rain 3 999 84 10000 8.7 230 14:27 02.06.2020
2017 Rain 3 997 84 10000 10.8 230 13:55 02.06.2020
2018 Rain 3 997 84 10000 10.8 230 13:36 02.06.2020
2019 Rain 3 997 84 10000 10.8 230 13:18 02.06.2020
2020 Rain 3 996 84 10000 9.8 230 12:54 02.06.2020
2021 Rain 3 996 84 10000 9.8 230 12:36 02.06.2020
2022 Rain 3 996 84 10000 9.8 230 12:36 02.06.2020
2023 Rain 3 996 85 10000 9.8 230 12:18 02.06.2020
2024 Rain 3 994 74 10000 8.7 230 11:40 02.06.2020
2025 Rain 3 994 74 10000 8.7 230 11:21 02.06.2020
2026 Rain 4 993 69 10000 10.3 250 10:55 02.06.2020
2027 Rain 4 993 69 10000 10.3 250 10:37 02.06.2020
2028 Rain 4 993 69 10000 10.3 250 10:18 02.06.2020
2029 Drizzle 3 993 87 10000 7.2 250 09:42 02.06.2020
2030 Drizzle 3 993 91 10000 7.2 250 09:20 02.06.2020
2031 Drizzle 3 992 74 10000 8.7 230 08:53 02.06.2020
2032 Drizzle 3 992 74 10000 8.7 230 08:28 02.06.2020
2033 Drizzle 4 992 64 10000 8.2 230 07:55 02.06.2020
2034 Drizzle 4 992 64 10000 8.2 230 07:31 02.06.2020
2035 Clouds 3 992 74 10000 3.1 270 06:51 02.06.2020
2036 Clouds 3 992 74 10000 3.1 270 06:31 02.06.2020
2037 Clouds 3 993 92 10000 2.6 270 05:31 02.06.2020
2038 Clouds 4 992 80 10000 6.2 250 03:54 02.06.2020
2039 Clouds 4 992 80 10000 11.3 230 02:31 02.06.2020
2040 Rain 4 992 86 10000 13.4 230 01:43 02.06.2020
2041 Rain 4 992 86 10000 12.3 230 00:27 02.06.2020
2042 Drizzle 5 992 86 10000 10.3 230 23:59 01.06.2020
2043 Drizzle 5 992 86 10000 10.3 230 23:38 01.06.2020
2044 Drizzle 5 992 86 10000 10.3 230 23:19 01.06.2020
2045 Rain 5 991 80 10000 13.4 230 22:56 01.06.2020
2046 Rain 5 991 80 10000 13.4 230 22:56 01.06.2020
2047 Rain 5 991 80 10000 13.4 230 22:37 01.06.2020
2048 Rain 5 991 80 10000 13.4 230 22:18 01.06.2020
2049 Rain 6 990 81 10000 7.2 230 21:41 01.06.2020
2050 Rain 6 990 81 10000 7.2 230 21:20 01.06.2020
2051 Clouds 6 990 81 10000 11.3 230 20:59 01.06.2020
2052 Snow 3 994 86 0 1.29 176 20:41 01.06.2020
2053 Clouds 9 990 57 10000 9.3 230 20:20 01.06.2020
2054 Clouds 9 990 57 10000 9.3 230 19:58 01.06.2020
2055 Clouds 9 990 57 10000 9.3 230 19:39 01.06.2020
2056 Clouds 10 990 53 10000 2.49 193 19:20 01.06.2020
2057 Clouds 10 990 53 10000 2.49 193 18:57 01.06.2020
2058 Clouds 10 990 53 10000 2.49 193 18:38 01.06.2020
2059 Clouds 10 990 61 10000 6.2 180 18:19 01.06.2020
2060 Clouds 10 990 61 10000 6.2 180 17:41 01.06.2020
2061 Clouds 10 990 61 10000 6.2 180 17:21 01.06.2020
2062 Clouds 10 991 61 10000 1.3 339 16:58 01.06.2020
2063 Clouds 10 991 61 10000 1.3 339 16:39 01.06.2020
2064 Clouds 10 991 61 10000 1.85 333 16:18 01.06.2020
2065 Clouds 9 991 61 10000 4.6 360 15:45 01.06.2020
2066 Clouds 9 991 61 10000 4.6 360 15:21 01.06.2020
2067 Clouds 9 992 61 10000 9.3 360 14:59 01.06.2020
2068 Clouds 9 992 61 10000 9.3 360 14:41 01.06.2020
2069 Clouds 9 992 61 10000 9.3 360 14:21 01.06.2020
2070 Clouds 8 992 65 10000 10.3 360 13:58 01.06.2020
2071 Clouds 8 992 65 10000 10.3 360 13:39 01.06.2020
2072 Clouds 8 992 65 10000 10.3 360 13:20 01.06.2020
2073 Clouds 7 993 70 10000 6.2 360 12:57 01.06.2020
2074 Clouds 7 993 70 10000 6.2 360 12:39 01.06.2020
2075 Clouds 7 993 70 10000 6.2 360 12:20 01.06.2020
2076 Clouds 7 995 70 10000 6.2 360 11:41 01.06.2020
2077 Clouds 7 995 70 10000 6.2 360 11:23 01.06.2020
2078 Clouds 6 996 81 10000 5.1 230 10:59 01.06.2020
2079 Clouds 6 996 81 10000 5.1 230 10:39 01.06.2020
2080 Clouds 6 996 81 10000 5.1 230 10:20 01.06.2020
2081 Clouds 8 998 61 10000 5.7 360 09:56 01.06.2020
2082 Clouds 8 998 61 10000 5.7 360 09:38 01.06.2020
2083 Clouds 8 998 61 10000 5.7 360 09:19 01.06.2020
2084 Clouds 8 1000 81 10000 6.7 360 08:46 01.06.2020
2085 Clouds 8 1000 82 10000 6.7 360 08:25 01.06.2020
2086 Clouds 6 1001 82 10000 7.2 360 07:45 01.06.2020
2087 Clouds 6 1001 81 10000 7.2 360 07:27 01.06.2020
2088 Clouds 6 1003 70 10000 6.2 360 06:57 01.06.2020
2089 Clouds 6 1003 70 10000 6.2 360 06:20 01.06.2020
2090 Clouds 3 1004 93 10000 4.6 340 05:50 01.06.2020
2091 Clouds 3 1006 93 10000 2.52 348 04:23 01.06.2020
2092 Clouds 4 1007 86 10000 2.52 348 03:46 01.06.2020
2093 Clouds 4 1007 86 10000 2.95 345 03:18 01.06.2020
2094 Clouds 4 1010 86 10000 3.02 350 01:50 01.06.2020
2095 Clouds 4 1010 86 10000 3.02 350 01:29 01.06.2020
2096 Clouds 5 1010 80 10000 3.09 351 00:57 01.06.2020
2097 Clouds 5 1010 80 10000 3.09 351 00:39 01.06.2020
2098 Clouds 5 1010 80 10000 3.05 348 00:21 01.06.2020
2099 Clouds 6 1011 75 10000 3.1 90 23:55 31.05.2020
2100 Clouds 6 1011 75 10000 3.1 90 23:37 31.05.2020
2101 Clouds 6 1011 75 10000 3.1 90 23:19 31.05.2020
2102 Clouds 6 1011 75 10000 1.5 20 22:43 31.05.2020
2103 Clouds 6 1011 75 10000 1.5 20 22:25 31.05.2020
2104 Clouds 6 1011 70 10000 3.1 360 21:58 31.05.2020
2105 Clouds 6 1011 70 10000 3.1 360 21:39 31.05.2020
2106 Clouds 6 1011 70 10000 3.1 360 21:39 31.05.2020
2107 Clouds 6 1011 70 10000 3.1 360 21:21 31.05.2020
2108 Clouds 6 1011 70 10000 3.1 360 21:21 31.05.2020
2109 Clouds 6 1012 70 10000 2.06 329 20:57 31.05.2020
2110 Clouds 6 1012 70 10000 2.06 329 20:38 31.05.2020
2111 Clouds 6 1012 70 10000 1.76 337 20:19 31.05.2020
2112 Clouds 6 1012 70 10000 1.76 337 19:54 31.05.2020
2113 Clouds 6 1012 70 10000 1.76 337 19:36 31.05.2020
2114 Clouds 6 1012 70 10000 1.84 334 19:18 31.05.2020
2115 Clouds 5 1013 75 10000 1.5 230 18:43 31.05.2020
2116 Clouds 5 1013 76 10000 1.5 230 18:24 31.05.2020
2117 Clouds 5 1013 75 10000 2.6 320 17:44 31.05.2020
2118 Clouds 5 1013 75 10000 2.6 320 17:24 31.05.2020
2119 Clouds 6 1013 70 10000 3.6 320 16:58 31.05.2020
2120 Clouds 6 1013 70 10000 3.6 320 16:38 31.05.2020
2121 Clouds 6 1013 70 10000 3.6 320 16:18 31.05.2020
2122 Clouds 7 1013 80 10000 4.6 320 15:39 31.05.2020
2123 Clouds 7 1013 81 10000 4.6 320 15:21 31.05.2020
2124 Clouds 8 1013 61 10000 5.1 360 14:47 31.05.2020
2125 Clouds 8 1013 61 10000 5.1 360 14:21 31.05.2020
2126 Clouds 7 1013 80 10000 1.87 320 13:56 31.05.2020
2127 Clouds 7 1013 80 10000 1.87 320 13:38 31.05.2020
2128 Clouds 7 1013 81 10000 1.86 320 13:20 31.05.2020
2129 Clouds 7 1013 65 10000 1.86 320 12:57 31.05.2020
2130 Clouds 7 1013 65 10000 1.86 320 12:37 31.05.2020
2131 Clouds 7 1013 65 10000 1.51 298 12:19 31.05.2020
2132 Clouds 7 1012 65 10000 6.2 250 11:47 31.05.2020
2133 Clouds 7 1012 65 10000 6.2 250 11:23 31.05.2020
2134 Clouds 7 1012 65 10000 8.2 230 10:57 31.05.2020
2135 Clouds 7 1012 65 10000 8.2 230 10:38 31.05.2020
2136 Clouds 7 1012 65 10000 8.2 230 10:19 31.05.2020
2137 Clouds 8 1011 61 10000 8.7 230 09:42 31.05.2020
2138 Clouds 8 1011 61 10000 8.7 230 09:23 31.05.2020
2139 Clouds 8 1011 61 10000 8.2 230 08:58 31.05.2020
2140 Clouds 8 1011 61 10000 8.2 230 08:37 31.05.2020
2141 Clouds 8 1011 61 10000 8.2 230 08:19 31.05.2020
2142 Clouds 8 1010 65 10000 5.7 250 07:43 31.05.2020
2143 Clouds 8 1010 65 10000 5.7 250 07:21 31.05.2020
2144 Clouds 8 1010 70 10000 3.6 20 06:54 31.05.2020
2145 Clouds 8 1010 70 10000 3.6 20 06:31 31.05.2020
2146 Clouds 8 1009 70 10000 6.2 360 05:44 31.05.2020
2147 Clouds 8 1009 75 10000 4.6 20 04:29 31.05.2020
2148 Clouds 9 1009 66 10000 3.1 180 03:48 31.05.2020
2149 Clouds 9 1009 66 10000 3.6 70 02:59 31.05.2020
2150 Clouds 9 1008 66 10000 7.2 360 01:50 31.05.2020
2151 Clouds 9 1008 66 10000 7.2 360 01:27 31.05.2020
2152 Clouds 8 1009 75 10000 3.1 180 00:31 31.05.2020
2153 Clouds 5 1009 86 10000 2.6 320 23:57 30.05.2020
2154 Clouds 5 1009 86 10000 2.6 320 23:39 30.05.2020
2155 Clouds 5 1009 86 10000 2.6 320 23:19 30.05.2020
2156 Clouds 6 1010 81 10000 5.7 320 22:41 30.05.2020
2157 Clouds 6 1010 81 10000 5.7 320 22:41 30.05.2020
2158 Clouds 6 1010 81 10000 5.7 320 22:23 30.05.2020
2159 Clouds 6 1011 81 10000 1.5 360 21:56 30.05.2020
2160 Clouds 6 1011 81 10000 1.5 360 21:37 30.05.2020
2161 Clouds 6 1011 81 10000 1.5 360 21:19 30.05.2020
2162 Clouds 6 1011 81 10000 4.45 357 20:56 30.05.2020
2163 Clouds 6 1011 81 10000 4.45 357 20:38 30.05.2020
2164 Clouds 6 1011 81 10000 4.1 2 20:20 30.05.2020
2165 Clouds 6 1013 81 10000 4.1 2 19:42 30.05.2020
2166 Clouds 6 1013 81 10000 3.69 6 19:22 30.05.2020
2167 Clouds 5 1014 86 10000 2.1 70 18:46 30.05.2020
2168 Clouds 5 1014 86 10000 2.1 70 18:25 30.05.2020
2169 Clouds 5 1015 86 10000 3.1 50 17:55 30.05.2020
2170 Clouds 5 1015 86 10000 3.1 50 17:37 30.05.2020
2171 Clouds 5 1015 86 10000 3.1 50 17:18 30.05.2020
2172 Clouds 4 1016 86 10000 2.1 290 16:43 30.05.2020
2173 Clouds 4 1016 86 10000 2.1 290 16:23 30.05.2020
2174 Clouds 4 1017 86 10000 4.1 340 15:56 30.05.2020
2175 Clouds 4 1017 86 10000 4.1 340 15:37 30.05.2020
2176 Clear 4 1017 86 10000 4.1 340 15:19 30.05.2020
2177 Clouds 5 1017 80 10000 4.1 320 14:42 30.05.2020
2178 Clouds 5 1017 80 10000 4.1 320 14:20 30.05.2020
2179 Clouds 6 1017 75 10000 4.1 250 13:41 30.05.2020
2180 Clouds 6 1017 75 10000 4.1 250 13:18 30.05.2020
2181 Clouds 6 1018 75 10000 4.1 340 12:40 30.05.2020
2182 Clouds 6 1018 75 10000 4.1 340 12:20 30.05.2020
2183 Clouds 6 1018 87 10000 2.6 320 11:56 30.05.2020
2184 Clouds 6 1018 87 10000 2.6 320 11:38 30.05.2020
2185 Clouds 6 1018 87 10000 2.6 320 11:20 30.05.2020
2186 Clouds 7 1018 75 10000 2.6 230 10:39 30.05.2020
2187 Clouds 7 1018 75 10000 2.6 230 10:39 30.05.2020
2188 Clouds 7 1018 75 10000 2.6 230 10:21 30.05.2020
2189 Clouds 7 1017 70 10000 6.2 230 09:47 30.05.2020
2190 Clouds 7 1017 70 10000 6.2 230 09:29 30.05.2020
2191 Clouds 7 1018 65 10000 6.2 230 08:46 30.05.2020
2192 Clouds 7 1018 65 10000 6.2 230 08:28 30.05.2020
2193 Clouds 7 1018 56 10000 6.2 230 07:44 30.05.2020
2194 Clouds 7 1018 56 10000 6.2 230 07:21 30.05.2020
2195 Clouds 7 1018 56 10000 4.6 270 06:33 30.05.2020
2196 Clouds 7 1017 65 10000 7.2 320 05:58 30.05.2020
2197 Clouds 7 1017 65 10000 7.2 320 05:34 30.05.2020
2198 Clouds 6 1018 81 10000 3.1 320 03:39 30.05.2020
2199 Clouds 7 1018 79 10000 4.1 360 02:30 30.05.2020
2200 Clouds 7 1018 78 10000 4.1 360 01:46 30.05.2020
2201 Clouds 7 1018 78 10000 3.1 320 00:38 30.05.2020
2202 Clouds 7 1018 78 10000 3.1 320 00:19 30.05.2020
2203 Clouds 7 1018 56 10000 4.6 360 23:55 29.05.2020
2204 Clouds 7 1018 56 10000 4.6 360 23:36 29.05.2020
2205 Clouds 7 1018 56 10000 4.6 360 23:18 29.05.2020
2206 Clouds 7 1018 76 10000 4.6 340 22:40 29.05.2020
2207 Clouds 7 1018 75 10000 4.6 340 22:19 29.05.2020
2208 Clouds 8 1018 61 10000 2.6 340 21:58 29.05.2020
2209 Clouds 8 1018 61 10000 2.6 340 21:37 29.05.2020
2210 Clouds 8 1018 61 10000 2.6 340 21:18 29.05.2020
2211 Clouds 8 1019 73 10000 2.6 340 20:44 29.05.2020
2212 Clouds 8 1019 72 10000 2.6 340 20:20 29.05.2020
2213 Clouds 8 1019 72 10000 4.6 320 19:59 29.05.2020
2214 Clouds 8 1019 72 10000 4.6 320 19:39 29.05.2020
2215 Clouds 8 1019 70 10000 4.6 320 19:21 29.05.2020
2216 Clouds 8 1019 52 10000 5.7 340 18:46 29.05.2020
2217 Clouds 8 1019 52 10000 5.7 340 18:19 29.05.2020
2218 Clouds 7 1019 56 10000 4.1 290 17:56 29.05.2020
2219 Clouds 7 1019 56 10000 4.1 290 17:38 29.05.2020
2220 Clouds 7 1019 56 10000 4.1 290 17:19 29.05.2020
2221 Clouds 6 1019 60 10000 3.1 320 16:43 29.05.2020
2222 Clouds 6 1019 60 10000 3.1 320 16:25 29.05.2020
2223 Clouds 6 1019 60 10000 4.1 320 15:56 29.05.2020
2224 Clouds 6 1019 60 10000 4.1 320 15:38 29.05.2020
2225 Clouds 6 1019 60 10000 4.1 320 15:19 29.05.2020
2226 Clouds 5 1019 65 10000 5.1 250 14:49 29.05.2020
2227 Clouds 5 1019 65 10000 5.1 250 14:23 29.05.2020
2228 Clouds 6 1019 83 10000 7.7 250 13:58 29.05.2020
2229 Clouds 6 1019 83 10000 7.7 250 13:39 29.05.2020
2230 Clouds 6 1019 84 10000 7.7 250 13:18 29.05.2020
2231 Clouds 7 1019 65 10000 9.3 250 12:43 29.05.2020
2232 Clouds 7 1019 65 10000 9.3 250 12:24 29.05.2020
2233 Clouds 6 1018 70 10000 9.3 250 11:45 29.05.2020
2234 Clouds 6 1018 70 10000 9.3 250 11:27 29.05.2020
2235 Clouds 6 1018 70 10000 8.2 230 10:58 29.05.2020
2236 Clouds 6 1018 70 10000 8.2 230 10:38 29.05.2020
2237 Clouds 6 1018 70 10000 8.2 230 10:19 29.05.2020
2238 Clouds 7 1018 83 10000 7.7 250 09:44 29.05.2020
2239 Clouds 7 1018 84 10000 7.7 250 09:20 29.05.2020
2240 Clouds 7 1018 84 10000 8.7 250 08:56 29.05.2020
2241 Clouds 7 1018 84 10000 8.7 250 08:37 29.05.2020
2242 Clouds 7 1018 81 10000 8.7 250 08:19 29.05.2020
2243 Clouds 5 1018 65 10000 6.2 250 07:40 29.05.2020
2244 Clouds 5 1018 65 10000 6.2 250 07:22 29.05.2020
2245 Clouds 6 1018 70 10000 9.3 230 06:48 29.05.2020
2246 Clouds 6 1018 70 10000 9.3 230 06:28 29.05.2020
2247 Clouds 6 1019 79 10000 8.2 230 05:52 29.05.2020
2248 Clouds 6 1018 60 10000 5.1 270 03:44 29.05.2020
2249 Clouds 6 1018 83 10000 8.2 230 01:46 29.05.2020
2250 Clouds 6 1018 83 10000 8.2 230 01:23 29.05.2020
2251 Clouds 5 1018 56 10000 4.1 270 00:47 29.05.2020
2252 Clouds 5 1018 56 10000 4.1 270 00:22 29.05.2020
2253 Clouds 5 1018 56 10000 6.2 270 23:40 28.05.2020
2254 Clouds 5 1018 56 10000 6.2 270 23:19 28.05.2020
2255 Clouds 5 1018 56 10000 5.1 270 22:45 28.05.2020
2256 Clouds 5 1018 56 10000 5.1 270 22:45 28.05.2020
2257 Clouds 5 1018 56 10000 5.1 270 22:45 28.05.2020
2258 Clouds 5 1018 56 10000 5.1 270 22:27 28.05.2020
2259 Clouds 5 1017 52 10000 3.6 270 21:59 28.05.2020
2260 Clouds 5 1017 52 10000 3.6 270 21:40 28.05.2020
2261 Clouds 5 1017 52 10000 3.6 270 21:20 28.05.2020
2262 Clouds 5 1017 52 10000 3.1 320 20:58 28.05.2020
2263 Clouds 5 1017 52 10000 3.1 320 20:39 28.05.2020
2264 Clouds 5 1017 52 10000 3.1 320 20:19 28.05.2020
2265 Clouds 4 1017 51 10000 2.6 230 19:57 28.05.2020
2266 Clouds 4 1017 51 10000 2.6 230 19:57 28.05.2020
2267 Clouds 4 1017 51 10000 2.6 230 19:39 28.05.2020
2268 Clouds 4 1017 51 10000 2.6 230 19:20 28.05.2020
2269 Clouds 4 1018 55 10000 3.1 360 18:43 28.05.2020
2270 Clouds 4 1018 55 10000 3.1 360 18:25 28.05.2020
2271 Clouds 4 1018 69 10000 4.1 320 17:59 28.05.2020
2272 Clouds 4 1018 69 10000 4.1 320 17:39 28.05.2020
2273 Clouds 4 1018 69 10000 4.1 320 17:20 28.05.2020
2274 Clouds 3 1018 78 10000 2.33 327 16:46 28.05.2020
2275 Clouds 3 1018 83 10000 2.16 322 16:21 28.05.2020
2276 Clouds 4 1017 80 10000 4.6 320 15:54 28.05.2020
2277 Clouds 4 1017 80 10000 4.6 320 15:36 28.05.2020
2278 Clouds 4 1017 80 10000 4.6 320 15:18 28.05.2020
2279 Clouds 3 1017 88 10000 2.1 270 14:41 28.05.2020
2280 Clouds 3 1017 90 10000 2.1 270 14:22 28.05.2020
2281 Clouds 2 1016 93 10000 4.6 230 13:46 28.05.2020
2282 Clouds 2 1016 93 10000 4.6 230 13:27 28.05.2020
2283 Clouds 3 1016 92 10000 3.1 270 12:43 28.05.2020
2284 Clouds 3 1016 92 10000 3.1 270 12:20 28.05.2020
2285 Clouds 4 1015 69 10000 8.2 230 11:57 28.05.2020
2286 Clouds 4 1015 69 10000 8.2 230 11:57 28.05.2020
2287 Clouds 4 1015 69 10000 8.2 230 11:39 28.05.2020
2288 Clouds 4 1015 69 10000 8.2 230 11:20 28.05.2020
2289 Clouds 4 1015 64 10000 9.3 230 10:43 28.05.2020
2290 Clouds 4 1015 64 10000 9.3 230 10:25 28.05.2020
2291 Clouds 4 1014 84 10000 6.7 230 09:57 28.05.2020
2292 Clouds 4 1014 84 10000 6.7 230 09:38 28.05.2020
2293 Clouds 4 1014 83 10000 6.7 230 09:18 28.05.2020
2294 Clouds 4 1013 83 10000 8.7 230 08:44 28.05.2020
2295 Clouds 4 1013 84 10000 8.7 230 08:24 28.05.2020
2296 Clouds 5 1012 84 10000 11.8 230 07:43 28.05.2020
2297 Clouds 5 1012 84 10000 11.8 230 07:23 28.05.2020
2298 Drizzle 5 1011 65 10000 11.3 230 06:45 28.05.2020
2299 Drizzle 5 1011 65 10000 11.3 230 06:27 28.05.2020
2300 Drizzle 4 1011 86 10000 8.7 320 05:39 28.05.2020
2301 Clouds 4 1010 69 10000 3.1 270 04:38 28.05.2020
2302 Clouds 4 1010 69 10000 3.1 270 04:18 28.05.2020
2303 Clouds 4 1008 64 10000 1.5 270 02:59 28.05.2020
2304 Clouds 4 1008 64 10000 1.5 270 02:38 28.05.2020
2305 Clouds 4 1007 69 10000 2.16 327 01:45 28.05.2020
2306 Clouds 4 1007 80 10000 1 270 00:49 28.05.2020
2307 Clouds 4 1007 80 10000 1 270 00:20 28.05.2020
2308 Clouds 4 1006 80 10000 2.45 354 23:56 27.05.2020
2309 Clouds 4 1006 80 10000 2.45 354 23:38 27.05.2020
2310 Clouds 4 1006 80 10000 2.63 352 23:19 27.05.2020
2311 Clouds 5 1006 75 10000 1.5 20 22:42 27.05.2020
2312 Clouds 5 1006 75 10000 1.5 20 22:23 27.05.2020
2313 Clouds 5 1006 79 10000 2.6 90 21:57 27.05.2020
2314 Clouds 5 1006 79 10000 2.6 90 21:57 27.05.2020
2315 Clouds 5 1006 79 10000 2.6 90 21:39 27.05.2020
2316 Clouds 5 1006 79 10000 2.6 90 21:39 27.05.2020
2317 Clouds 5 1006 73 10000 2.6 90 21:20 27.05.2020
2318 Clouds 4 1005 74 10000 1.5 140 20:58 27.05.2020
2319 Clouds 4 1005 74 10000 1.5 140 20:39 27.05.2020
2320 Clouds 4 1005 71 10000 1.5 140 20:19 27.05.2020
2321 Clouds 4 1005 71 10000 2.1 360 19:46 27.05.2020
2322 Clouds 4 1005 71 10000 2.1 360 19:21 27.05.2020
2323 Clouds 4 1005 71 10000 2.6 360 18:54 27.05.2020
2324 Clouds 4 1005 71 10000 2.6 360 18:36 27.05.2020
2325 Clouds 4 1005 73 10000 2.6 360 18:18 27.05.2020
2326 Clouds 3 1005 73 10000 4.6 320 17:42 27.05.2020
2327 Clouds 3 1005 76 10000 4.6 320 17:23 27.05.2020
2328 Clouds 4 1005 64 10000 3.6 320 16:56 27.05.2020
2329 Clouds 4 1005 64 10000 3.6 320 16:38 27.05.2020
2330 Clouds 4 1005 64 10000 3.6 320 16:19 27.05.2020
2331 Clouds 4 1004 69 10000 2.6 270 15:49 27.05.2020
2332 Clouds 4 1004 69 10000 2.6 270 15:23 27.05.2020
2333 Clouds 6 1003 85 10000 4.1 320 14:57 27.05.2020
2334 Clouds 6 1003 85 10000 4.1 320 14:39 27.05.2020
2335 Clouds 6 1003 85 10000 4.1 320 14:19 27.05.2020
2336 Clouds 5 1002 85 10000 3.6 320 13:42 27.05.2020
2337 Clouds 5 1002 84 10000 3.6 320 13:23 27.05.2020
2338 Clouds 4 1001 84 10000 4.1 270 12:42 27.05.2020
2339 Clouds 4 1001 82 10000 4.1 270 12:24 27.05.2020
2340 Clouds 4 1000 82 10000 4.1 270 11:58 27.05.2020
2341 Clouds 4 1000 82 10000 4.1 270 11:37 27.05.2020
2342 Clouds 4 1000 81 10000 4.1 270 11:19 27.05.2020
2343 Clouds 4 1000 81 10000 3.1 290 10:44 27.05.2020
2344 Clouds 4 1000 83 10000 3.1 290 10:24 27.05.2020
2345 Clouds 5 999 83 10000 3.1 290 09:58 27.05.2020
2346 Clouds 5 999 83 10000 3.1 290 09:39 27.05.2020
2347 Clouds 5 999 84 10000 3.1 290 09:20 27.05.2020
2348 Clouds 5 997 75 10000 6.2 230 08:43 27.05.2020
2349 Clouds 5 997 75 10000 6.2 230 08:25 27.05.2020
2350 Clouds 5 997 80 10000 5.7 230 07:54 27.05.2020
2351 Clouds 5 997 80 10000 5.7 230 07:35 27.05.2020
2352 Clouds 5 995 75 10000 7.7 250 06:57 27.05.2020
2353 Clouds 5 995 75 10000 7.7 250 06:33 27.05.2020
2354 Clouds 6 994 75 10000 7.2 230 05:55 27.05.2020
2355 Clouds 6 994 75 10000 7.2 230 05:35 27.05.2020
2356 Clouds 7 993 65 10000 5.1 230 04:19 27.05.2020
2357 Clouds 8 991 65 10000 5.7 230 02:30 27.05.2020
2358 Clouds 8 990 61 10000 6.2 230 01:51 27.05.2020
2359 Clouds 8 990 61 10000 6.2 230 01:20 27.05.2020
2360 Clouds 9 989 61 10000 2.13 345 00:44 27.05.2020
2361 Clouds 9 989 61 10000 3.08 350 00:19 27.05.2020
2362 Clouds 10 988 82 10000 5.1 360 23:43 26.05.2020
2363 Clouds 10 988 80 10000 5.1 360 23:25 26.05.2020
2364 Clouds 9 986 61 10000 5.1 360 22:59 26.05.2020
2365 Clouds 9 986 61 10000 5.1 360 22:38 26.05.2020
2366 Clouds 9 986 61 10000 5.1 360 22:20 26.05.2020
2367 Clouds 8 986 81 10000 3.27 354 21:57 26.05.2020
2368 Clouds 8 986 81 10000 3.27 354 21:39 26.05.2020
2369 Clouds 8 986 81 10000 4.27 358 21:20 26.05.2020
2370 Clouds 8 986 87 10000 5.1 320 20:42 26.05.2020
2371 Clouds 8 986 87 10000 5.1 320 20:21 26.05.2020
2372 Clouds 8 986 87 10000 2.6 140 19:56 26.05.2020
2373 Clouds 8 986 87 10000 2.6 140 19:37 26.05.2020
2374 Clouds 8 986 87 10000 2.6 140 19:18 26.05.2020
2375 Clouds 8 986 81 10000 4.51 349 18:42 26.05.2020
2376 Clouds 8 986 81 10000 4.03 349 18:22 26.05.2020
2377 Rain 6 986 93 10000 4.03 349 17:55 26.05.2020
2378 Rain 6 986 93 10000 4.03 349 17:37 26.05.2020
2379 Rain 6 986 93 10000 3.57 344 17:19 26.05.2020
2380 Drizzle 7 986 87 10000 2.1 140 16:41 26.05.2020
2381 Drizzle 7 986 87 10000 2.1 140 16:19 26.05.2020
2382 Clouds 6 987 82 0 3.15 344 15:44 26.05.2020
2383 Drizzle 8 987 81 10000 3.6 140 15:21 26.05.2020
2384 Drizzle 8 987 81 10000 3.6 140 14:59 26.05.2020
2385 Drizzle 8 987 81 10000 3.6 140 14:41 26.05.2020
2386 Drizzle 8 987 81 10000 3.6 140 14:22 26.05.2020
2387 Drizzle 8 986 75 10000 6.2 340 13:42 26.05.2020
2388 Drizzle 8 986 75 10000 6.2 340 13:24 26.05.2020
2389 Drizzle 8 988 75 10000 1.5 340 12:59 26.05.2020
2390 Drizzle 8 988 75 10000 1.5 340 12:39 26.05.2020
2391 Drizzle 8 988 75 10000 1.5 340 12:19 26.05.2020
2392 Drizzle 8 988 70 10000 2.1 320 11:41 26.05.2020
2393 Drizzle 8 988 70 10000 2.1 320 11:21 26.05.2020
2394 Drizzle 8 990 70 10000 5.7 20 10:59 26.05.2020
2395 Drizzle 8 990 70 10000 5.7 20 10:39 26.05.2020
2396 Drizzle 8 990 70 10000 5.7 20 10:18 26.05.2020
2397 Rain 8 991 61 10000 6.7 20 09:39 26.05.2020
2398 Rain 8 991 61 10000 6.7 20 09:19 26.05.2020
2399 Rain 8 992 61 10000 7.7 360 08:43 26.05.2020
2400 Rain 8 992 61 10000 7.7 360 08:22 26.05.2020
2401 Rain 8 992 61 10000 7.7 360 08:22 26.05.2020
2402 Rain 8 993 61 10000 7.7 340 07:44 26.05.2020
2403 Rain 8 993 61 10000 7.7 340 07:25 26.05.2020
2404 Drizzle 8 994 61 10000 6.7 340 06:57 26.05.2020
2405 Drizzle 8 994 61 10000 6.7 340 06:39 26.05.2020
2406 Drizzle 8 996 61 10000 8.2 360 05:55 26.05.2020
2407 Drizzle 8 996 61 10000 8.2 360 05:33 26.05.2020
2408 Drizzle 9 997 57 10000 11.8 360 04:54 26.05.2020
2409 Drizzle 9 997 57 10000 11.8 360 04:33 26.05.2020
2410 Drizzle 9 998 57 10000 8.7 360 03:55 26.05.2020
2411 Drizzle 8 1000 61 10000 6.7 360 02:45 26.05.2020
2412 Drizzle 7 1001 75 10000 7.7 360 01:49 26.05.2020
2413 Drizzle 7 1001 75 10000 7.7 360 01:27 26.05.2020
2414 Drizzle 7 1002 75 10000 8.7 360 00:39 26.05.2020
2415 Drizzle 7 1002 75 10000 8.7 360 00:19 26.05.2020
2416 Rain 8 1004 70 10000 7.7 360 23:56 25.05.2020
2417 Rain 8 1004 70 10000 7.7 360 23:37 25.05.2020
2418 Rain 8 1004 70 10000 7.7 360 23:18 25.05.2020
2419 Rain 8 1005 65 10000 9.3 360 22:55 25.05.2020
2420 Rain 8 1005 65 10000 9.3 360 22:36 25.05.2020
2421 Rain 8 1005 65 10000 9.3 360 22:18 25.05.2020
2422 Rain 8 1006 65 10000 6.7 340 21:55 25.05.2020
2423 Rain 8 1006 65 10000 6.7 340 21:36 25.05.2020
2424 Rain 8 1006 65 10000 6.7 340 21:18 25.05.2020
2425 Clouds 8 1008 61 10000 9.3 360 20:42 25.05.2020
2426 Clouds 8 1008 61 10000 9.3 360 20:21 25.05.2020
2427 Clouds 6 1010 81 10000 4.6 360 19:59 25.05.2020
2428 Clouds 6 1010 81 10000 4.6 360 19:39 25.05.2020
2429 Clouds 6 1010 81 10000 4.6 360 19:18 25.05.2020
2430 Clouds 5 1011 80 10000 1.5 270 18:54 25.05.2020
2431 Clouds 5 1011 80 10000 1.5 270 18:36 25.05.2020
2432 Clouds 5 1011 80 10000 1.5 270 18:18 25.05.2020
2433 Clouds 5 1012 80 10000 2.6 230 17:41 25.05.2020
2434 Clouds 5 1012 80 10000 2.6 230 17:23 25.05.2020
2435 Clouds 6 1012 81 10000 3.4 12 16:56 25.05.2020
2436 Clouds 6 1012 81 10000 3.4 12 16:38 25.05.2020
2437 Clouds 6 1012 81 10000 2.36 17 16:19 25.05.2020
2438 Clouds 6 1012 81 10000 2.36 17 16:19 25.05.2020
2439 Clouds 5 1013 86 10000 2.36 17 15:44 25.05.2020
2440 Clouds 5 1013 86 10000 2.15 17 15:19 25.05.2020
2441 Clouds 5 1014 93 10000 2.6 290 14:57 25.05.2020
2442 Clouds 5 1014 93 10000 2.6 290 14:38 25.05.2020
2443 Clouds 5 1014 93 10000 2.6 290 14:19 25.05.2020
2444 Rain 5 1013 93 10000 2.1 50 13:39 25.05.2020
2445 Rain 5 1013 93 10000 2.1 50 13:21 25.05.2020
2446 Rain 5 1013 86 10000 3.6 50 12:57 25.05.2020
2447 Rain 5 1013 86 10000 3.6 50 12:38 25.05.2020
2448 Rain 5 1013 86 10000 3.6 50 12:20 25.05.2020
2449 Rain 5 1013 80 10000 2.1 50 11:39 25.05.2020
2450 Rain 5 1013 80 10000 2.1 50 11:20 25.05.2020
2451 Rain 6 1013 75 10000 1.82 3 10:56 25.05.2020
2452 Rain 6 1013 75 10000 1.82 3 10:37 25.05.2020
2453 Rain 6 1013 75 10000 1.75 6 10:19 25.05.2020
2454 Drizzle 6 1013 75 10000 1 360 09:54 25.05.2020
2455 Drizzle 6 1013 75 10000 1 360 09:36 25.05.2020
2456 Drizzle 6 1013 75 10000 1 360 09:18 25.05.2020
2457 Drizzle 6 1013 75 10000 1 250 08:40 25.05.2020
2458 Drizzle 6 1013 75 10000 1 250 08:21 25.05.2020
2459 Rain 6 1012 75 10000 1 320 07:50 25.05.2020
2460 Rain 6 1012 75 10000 1 320 07:32 25.05.2020
2461 Drizzle 6 1011 75 10000 2.1 320 06:57 25.05.2020
2462 Drizzle 6 1011 75 10000 2.1 320 06:37 25.05.2020
2463 Drizzle 6 1011 75 10000 2.6 360 05:27 25.05.2020
2464 Clouds 6 1009 75 10000 1 20 03:30 25.05.2020
2465 Clouds 6 1008 75 10000 2.1 360 02:51 25.05.2020
2466 Clouds 6 1008 75 10000 2.1 360 02:32 25.05.2020
2467 Clouds 6 1007 81 10000 2.6 360 01:42 25.05.2020
2468 Clouds 6 1006 75 10000 3.6 360 00:47 25.05.2020
2469 Clouds 6 1006 75 10000 3.6 360 00:26 25.05.2020
2470 Clouds 7 1005 70 10000 6.7 360 23:58 24.05.2020
2471 Clouds 7 1005 70 10000 6.7 360 23:39 24.05.2020
2472 Clouds 7 1005 70 10000 6.7 360 23:39 24.05.2020
2473 Clouds 7 1005 70 10000 6.7 360 23:20 24.05.2020
2474 Clouds 7 1004 70 10000 2.1 360 22:55 24.05.2020
2475 Clouds 7 1004 70 10000 2.1 360 22:37 24.05.2020
2476 Clouds 7 1004 70 10000 2.1 360 22:18 24.05.2020
2477 Clouds 7 1004 70 10000 2.1 360 22:18 24.05.2020
2478 Clouds 7 1003 65 10000 2.6 360 21:55 24.05.2020
2479 Clouds 7 1003 65 10000 2.6 360 21:36 24.05.2020
2480 Clouds 7 1003 65 10000 2.6 360 21:18 24.05.2020
2481 Clouds 7 1002 65 10000 5.7 360 20:43 24.05.2020
2482 Clouds 7 1002 65 10000 5.7 360 20:43 24.05.2020
2483 Clouds 7 1002 65 10000 5.7 360 20:21 24.05.2020
2484 Clouds 6 1002 70 10000 5.1 360 19:56 24.05.2020
2485 Clouds 6 1002 70 10000 5.1 360 19:38 24.05.2020
2486 Clouds 6 1002 70 10000 5.1 360 19:18 24.05.2020
2487 Clouds 6 1002 70 10000 3.1 360 18:42 24.05.2020
2488 Clouds 6 1002 70 10000 3.1 360 18:23 24.05.2020
2489 Clouds 6 1001 70 10000 6.2 50 17:58 24.05.2020
2490 Clouds 6 1001 70 10000 6.2 50 17:40 24.05.2020
2491 Clouds 6 1001 70 10000 6.2 50 17:21 24.05.2020
2492 Drizzle 7 1000 79 10000 7.2 360 16:56 24.05.2020
2493 Drizzle 7 1000 79 10000 7.2 360 16:37 24.05.2020
2494 Drizzle 7 1000 81 10000 7.2 360 16:19 24.05.2020
2495 Drizzle 6 1000 70 10000 6.7 360 15:55 24.05.2020
2496 Drizzle 6 1000 70 10000 6.7 360 15:37 24.05.2020
2497 Drizzle 6 1000 70 10000 6.7 360 15:18 24.05.2020
2498 Clouds 6 999 83 10000 7.7 360 14:44 24.05.2020
2499 Clouds 6 999 81 10000 7.7 360 14:24 24.05.2020
2500 Drizzle 6 998 75 10000 7.7 360 13:57 24.05.2020
2501 Drizzle 6 998 75 10000 7.7 360 13:38 24.05.2020
2502 Drizzle 6 998 75 10000 7.7 360 13:20 24.05.2020
2503 Clouds 5 998 80 10000 8.2 360 12:57 24.05.2020
2504 Clouds 5 998 80 10000 8.2 360 12:38 24.05.2020
2505 Clouds 5 998 80 10000 8.2 360 12:20 24.05.2020
2506 Drizzle 5 998 75 10000 7.7 360 11:56 24.05.2020
2507 Drizzle 5 998 75 10000 7.7 360 11:38 24.05.2020
2508 Drizzle 5 998 75 10000 7.7 360 11:20 24.05.2020
2509 Drizzle 5 998 80 10000 7.2 360 10:55 24.05.2020
2510 Drizzle 5 998 80 10000 7.2 360 10:37 24.05.2020
2511 Drizzle 5 998 80 10000 7.2 360 10:18 24.05.2020
2512 Drizzle 4 998 93 10000 2.1 320 09:41 24.05.2020
2513 Drizzle 4 998 93 10000 2.1 320 09:18 24.05.2020
2514 Drizzle 4 998 93 10000 3.1 360 08:56 24.05.2020
2515 Drizzle 4 998 93 10000 3.1 360 08:38 24.05.2020
2516 Drizzle 4 998 93 10000 3.1 360 08:19 24.05.2020
2517 Clouds 4 998 86 10000 5.7 50 07:44 24.05.2020
2518 Clouds 4 998 86 10000 5.7 50 07:25 24.05.2020
2519 Drizzle 4 998 86 10000 6.7 50 06:49 24.05.2020
2520 Drizzle 4 998 86 10000 6.7 50 06:29 24.05.2020
2521 Rain 4 998 86 10000 11.3 70 04:54 24.05.2020
2522 Rain 4 997 86 10000 11.8 90 03:42 24.05.2020
2523 Rain 5 996 86 0 1.21 85 02:46 24.05.2020
2524 Rain 4 997 93 10000 11.3 90 01:47 24.05.2020
2525 Rain 5 996 86 10000 12.3 90 00:41 24.05.2020
2526 Rain 5 996 86 10000 12.3 90 00:22 24.05.2020
2527 Rain 5 996 93 10000 10.3 90 23:44 23.05.2020
2528 Rain 5 996 93 10000 10.3 90 23:25 23.05.2020
2529 Rain 5 996 93 10000 10.3 90 23:25 23.05.2020
2530 Rain 5 995 100 5000 10.3 90 22:59 23.05.2020
2531 Rain 5 995 100 5000 10.3 90 22:39 23.05.2020
2532 Rain 5 995 100 5000 10.3 90 22:20 23.05.2020
2533 Drizzle 5 994 100 3000 7.7 90 21:58 23.05.2020
2534 Drizzle 5 994 100 3000 7.7 90 21:40 23.05.2020
2535 Drizzle 5 994 100 3000 7.7 90 21:20 23.05.2020
2536 Drizzle 5 994 100 3000 7.7 90 21:20 23.05.2020
2537 Drizzle 5 994 100 3000 7.7 90 21:20 23.05.2020
2538 Drizzle 5 994 100 3000 7.7 90 21:20 23.05.2020
2539 Drizzle 6 994 100 2500 9.3 70 20:58 23.05.2020
2540 Drizzle 6 994 100 2500 9.3 70 20:38 23.05.2020
2541 Drizzle 6 994 100 2500 9.3 70 20:38 23.05.2020
2542 Drizzle 6 994 100 2500 9.3 70 20:19 23.05.2020
2543 Clouds 6 993 100 2500 1.5 360 19:54 23.05.2020
2544 Clouds 6 993 100 2500 1.5 360 19:36 23.05.2020
2545 Clouds 6 993 100 2500 1.5 360 19:36 23.05.2020
2546 Clouds 6 993 100 2500 1.5 360 19:18 23.05.2020
2547 Drizzle 7 993 87 2500 1.07 169 18:40 23.05.2020
2548 Drizzle 7 993 87 2500 0.85 156 18:22 23.05.2020
2549 Rain 7 993 81 10000 0.85 156 17:56 23.05.2020
2550 Rain 7 993 81 10000 0.85 156 17:38 23.05.2020
2551 Rain 7 993 81 10000 0.79 144 17:19 23.05.2020
2552 Rain 6 992 87 10000 1 320 16:57 23.05.2020
2553 Rain 6 992 87 10000 1 320 16:39 23.05.2020
2554 Rain 6 992 87 10000 1 320 16:19 23.05.2020
2555 Clouds 6 992 87 10000 1.5 340 15:43 23.05.2020
2556 Clouds 6 992 87 10000 1.5 340 15:24 23.05.2020
2557 Clouds 6 992 87 10000 1.5 340 15:24 23.05.2020
2558 Clouds 7 992 81 10000 1.5 70 14:58 23.05.2020
2559 Clouds 7 992 81 10000 1.5 70 14:39 23.05.2020
2560 Clouds 7 992 81 10000 1.5 70 14:21 23.05.2020
2561 Clouds 6 992 87 10000 2.1 340 13:41 23.05.2020
2562 Clouds 6 992 87 10000 2.1 340 13:19 23.05.2020
2563 Clouds 6 992 87 10000 2.1 340 13:19 23.05.2020
2564 Clouds 7 992 81 10000 3.1 340 12:56 23.05.2020
2565 Clouds 7 992 81 10000 3.1 340 12:38 23.05.2020
2566 Clouds 7 992 81 10000 3.1 340 12:19 23.05.2020
2567 Clouds 6 992 81 10000 1.5 20 11:43 23.05.2020
2568 Clouds 6 992 81 10000 1.5 20 11:22 23.05.2020
2569 Clouds 6 992 81 10000 1.5 20 10:57 23.05.2020
2570 Clouds 6 992 81 10000 1.5 20 10:39 23.05.2020
2571 Clouds 6 992 81 10000 1.5 20 10:20 23.05.2020
2572 Clouds 7 992 75 10000 2.14 319 09:58 23.05.2020
2573 Clouds 7 992 75 10000 2.14 319 09:40 23.05.2020
2574 Clouds 7 992 75 10000 2.39 320 09:21 23.05.2020
2575 Clouds 9 992 66 10000 2.1 290 08:44 23.05.2020
2576 Clouds 9 992 66 10000 2.1 290 08:20 23.05.2020
2577 Clouds 8 992 70 10000 2.7 327 07:57 23.05.2020
2578 Clouds 8 992 70 10000 2.7 327 07:37 23.05.2020
2579 Clouds 8 992 70 10000 2.94 329 07:19 23.05.2020
2580 Clouds 9 993 66 10000 2.1 90 06:38 23.05.2020
2581 Clouds 9 993 66 10000 3.1 140 05:34 23.05.2020
2582 Clouds 9 993 66 10000 2.6 140 03:48 23.05.2020
2583 Clouds 9 994 61 10000 5.1 360 02:59 23.05.2020
2584 Clouds 9 995 61 10000 3.6 140 01:59 23.05.2020
2585 Clouds 9 995 61 10000 3.6 140 01:59 23.05.2020
2586 Clouds 9 995 61 10000 3.6 140 01:27 23.05.2020
2587 Clouds 9 996 61 10000 6.7 360 00:47 23.05.2020
2588 Clouds 9 996 61 10000 6.7 360 00:29 23.05.2020
2589 Clouds 11 997 81 10000 7.2 320 23:58 22.05.2020
2590 Clouds 11 997 81 10000 7.2 320 23:39 22.05.2020
2591 Clouds 11 997 76 10000 7.2 320 23:19 22.05.2020
2592 Clouds 12 998 76 10000 6.2 320 22:55 22.05.2020
2593 Clouds 12 998 76 10000 6.2 320 22:55 22.05.2020
2594 Clouds 12 998 76 10000 6.2 320 22:37 22.05.2020
2595 Clouds 12 998 68 10000 6.2 320 22:18 22.05.2020
2596 Clouds 12 998 40 10000 3.6 320 21:42 22.05.2020
2597 Clouds 12 998 40 10000 3.6 320 21:21 22.05.2020
2598 Clouds 12 1000 37 10000 6.2 360 20:54 22.05.2020
2599 Clouds 12 1000 37 10000 6.2 360 20:36 22.05.2020
2600 Clouds 12 1000 37 10000 6.2 360 20:18 22.05.2020
2601 Clouds 11 1001 40 10000 7.2 360 19:41 22.05.2020
2602 Clouds 11 1001 40 10000 7.2 360 19:23 22.05.2020
2603 Clouds 11 1003 40 10000 7.2 360 18:40 22.05.2020
2604 Clouds 11 1003 40 10000 7.2 360 18:40 22.05.2020
2605 Clouds 11 1003 40 10000 7.2 360 18:21 22.05.2020
2606 Clouds 11 1004 43 10000 7.7 360 17:59 22.05.2020
2607 Clouds 11 1004 43 10000 7.7 360 17:38 22.05.2020
2608 Clouds 11 1004 43 10000 7.7 360 17:18 22.05.2020
2609 Clouds 11 1005 43 10000 5.1 320 16:45 22.05.2020
2610 Clouds 11 1005 43 10000 5.1 320 16:21 22.05.2020
2611 Clouds 10 1006 46 10000 5.1 340 15:59 22.05.2020
2612 Clouds 10 1006 46 10000 5.1 340 15:41 22.05.2020
2613 Clouds 10 1006 46 10000 5.1 340 15:21 22.05.2020
2614 Rain 9 1007 57 10000 6.2 360 14:44 22.05.2020
2615 Rain 9 1007 57 10000 6.2 360 14:25 22.05.2020
2616 Rain 9 1008 66 10000 6.2 340 13:49 22.05.2020
2617 Rain 9 1008 66 10000 6.2 340 13:21 22.05.2020
2618 Rain 9 1008 81 10000 7.7 340 12:59 22.05.2020
2619 Rain 9 1008 81 10000 7.7 340 12:39 22.05.2020
2620 Rain 9 1008 82 10000 7.7 340 12:20 22.05.2020
2621 Clouds 9 1009 82 10000 7.2 360 11:44 22.05.2020
2622 Clouds 9 1009 84 10000 7.2 360 11:21 22.05.2020
2623 Clouds 9 1009 84 10000 7.2 360 11:21 22.05.2020
2624 Clouds 7 1010 65 10000 3.1 340 10:55 22.05.2020
2625 Clouds 7 1010 65 10000 3.1 340 10:37 22.05.2020
2626 Clouds 7 1010 65 10000 3.1 340 10:18 22.05.2020
2627 Clouds 5 1012 75 10000 4.26 348 09:42 22.05.2020
2628 Clouds 5 1012 75 10000 3.92 352 09:20 22.05.2020
2629 Clouds 5 1013 75 10000 2.1 110 08:55 22.05.2020
2630 Clouds 5 1013 75 10000 2.1 110 08:37 22.05.2020
2631 Clouds 5 1013 75 10000 2.1 110 08:18 22.05.2020
2632 Clouds 5 1013 75 10000 2.6 110 07:46 22.05.2020
2633 Clouds 5 1013 75 10000 2.6 110 07:22 22.05.2020
2634 Clouds 5 1014 80 10000 3.48 351 06:43 22.05.2020
2635 Clouds 5 1014 80 10000 3.24 337 06:25 22.05.2020
2636 Clouds 5 1014 79 10000 1.5 70 05:35 22.05.2020
2637 Clouds 5 1014 65 10000 2.91 339 04:47 22.05.2020
2638 Clouds 5 1015 65 10000 7.2 340 03:49 22.05.2020
2639 Clouds 5 1015 65 10000 7.2 340 03:29 22.05.2020
2640 Clouds 5 1015 80 10000 5.1 320 01:58 22.05.2020
2641 Clouds 5 1015 80 10000 5.1 320 01:31 22.05.2020
2642 Clouds 6 1015 81 10000 6.2 360 00:52 22.05.2020
2643 Clouds 6 1015 81 10000 6.2 360 00:30 22.05.2020
2644 Clouds 6 1015 70 10000 3.6 290 23:56 21.05.2020
2645 Clouds 6 1015 70 10000 3.6 290 23:37 21.05.2020
2646 Clouds 6 1015 70 10000 3.6 290 23:19 21.05.2020
2647 Clouds 6 1014 81 10000 3.6 320 22:57 21.05.2020
2648 Clouds 6 1014 81 10000 3.6 320 22:37 21.05.2020
2649 Clouds 6 1014 81 10000 3.6 320 22:18 21.05.2020
2650 Clouds 6 1014 70 10000 2.1 270 21:46 21.05.2020
2651 Clouds 6 1014 70 10000 2.1 270 21:26 21.05.2020
2652 Clouds 6 1014 70 10000 2.6 270 20:55 21.05.2020
2653 Clouds 6 1014 70 10000 2.6 270 20:37 21.05.2020
2654 Clouds 6 1014 70 10000 2.6 270 20:19 21.05.2020
2655 Clouds 6 1013 80 10000 3.1 270 19:39 21.05.2020
2656 Clouds 6 1013 81 10000 3.1 270 19:19 21.05.2020
2657 Clouds 6 1013 81 10000 3.1 320 18:41 21.05.2020
2658 Clouds 6 1013 84 10000 3.1 320 18:21 21.05.2020
2659 Clouds 5 1013 84 10000 3.1 320 17:59 21.05.2020
2660 Clouds 5 1013 84 10000 3.1 320 17:59 21.05.2020
2661 Clouds 5 1013 84 10000 3.1 320 17:41 21.05.2020
2662 Clouds 5 1013 84 10000 3.1 320 17:22 21.05.2020
2663 Clouds 5 1012 60 10000 3.1 320 16:47 21.05.2020
2664 Clouds 5 1012 60 10000 3.1 320 16:25 21.05.2020
2665 Clouds 4 1012 64 10000 0.73 314 15:56 21.05.2020
2666 Clouds 4 1012 64 10000 0.73 314 15:38 21.05.2020
2667 Clouds 4 1012 64 10000 1.51 270 15:19 21.05.2020
2668 Snow 2 1012 84 0 1.51 270 14:40 21.05.2020
2669 Clouds 3 1011 69 10000 3.6 340 14:19 21.05.2020
2670 Clouds 3 1011 69 10000 3.6 340 13:42 21.05.2020
2671 Clouds 3 1011 69 10000 3.6 340 13:22 21.05.2020
2672 Clouds 3 1011 69 10000 5.1 320 12:59 21.05.2020
2673 Clouds 3 1011 69 10000 5.1 320 12:38 21.05.2020
2674 Clouds 3 1011 69 10000 5.1 320 12:19 21.05.2020
2675 Clouds 4 1010 64 10000 3.6 320 11:42 21.05.2020
2676 Clouds 4 1010 64 10000 3.6 320 11:24 21.05.2020
2677 Clouds 3 1010 74 10000 3.6 320 10:59 21.05.2020
2678 Clouds 3 1010 74 10000 3.6 320 10:39 21.05.2020
2679 Clouds 3 1010 74 10000 3.6 320 10:20 21.05.2020
2680 Clouds 3 1010 74 10000 5.1 320 09:55 21.05.2020
2681 Clouds 3 1010 74 10000 5.1 320 09:37 21.05.2020
2682 Clouds 3 1010 74 10000 5.1 320 09:19 21.05.2020
2683 Clouds 3 1010 74 10000 2.6 320 08:45 21.05.2020
2684 Clouds 3 1010 74 10000 2.6 320 08:26 21.05.2020
2685 Clouds 3 1010 74 10000 2.6 320 08:26 21.05.2020
2686 Clouds 2 1009 93 10000 3.1 320 07:48 21.05.2020
2687 Clouds 2 1009 93 10000 3.1 320 07:27 21.05.2020
2688 Clouds 2 1009 83 10000 5.1 320 06:52 21.05.2020
2689 Clouds 2 1009 83 10000 5.1 320 06:22 21.05.2020
2690 Clouds 2 1008 93 10000 4.1 320 05:34 21.05.2020
2691 Clouds 3 1008 86 10000 2.1 320 03:22 21.05.2020
2692 Clouds 3 1008 86 10000 2.1 320 03:22 21.05.2020
2693 Clouds 3 1008 86 10000 2.1 320 03:22 21.05.2020
2694 Clouds 3 1008 86 10000 2.1 320 03:22 21.05.2020
2695 Clouds 3 1007 86 10000 1 360 02:45 21.05.2020
2696 Clouds 3 1007 86 10000 1 360 02:26 21.05.2020
2697 Clouds 3 1007 84 10000 4.6 320 01:45 21.05.2020
2698 Clouds 3 1007 84 10000 4.6 320 01:21 21.05.2020
2699 Clouds 4 1007 84 10000 3.1 320 00:52 21.05.2020
2700 Clouds 4 1007 85 10000 3.1 320 00:23 21.05.2020
2701 Clouds 4 1006 85 10000 2.6 230 23:44 20.05.2020
2702 Clouds 4 1006 84 10000 2.6 230 23:21 20.05.2020
2703 Clouds 5 1006 84 10000 1.5 230 22:58 20.05.2020
2704 Clouds 5 1006 84 10000 1.5 230 22:39 20.05.2020
2705 Clouds 5 1006 81 10000 1.5 230 22:21 20.05.2020
2706 Clouds 5 1005 81 10000 1.97 335 21:41 20.05.2020
2707 Clouds 5 1005 74 10000 2.21 346 21:23 20.05.2020
2708 Clouds 5 1005 75 10000 1 360 20:45 20.05.2020
2709 Clouds 5 1005 75 10000 1 360 20:45 20.05.2020
2710 Clouds 5 1005 75 10000 1 360 20:26 20.05.2020
2711 Clouds 4 1005 80 10000 2.6 360 19:59 20.05.2020
2712 Clouds 4 1005 80 10000 2.6 360 19:38 20.05.2020
2713 Clouds 4 1005 80 10000 2.6 360 19:38 20.05.2020
2714 Clouds 4 1005 80 10000 2.6 360 19:20 20.05.2020
2715 Clouds 2 1005 74 10000 1.78 353 18:50 20.05.2020
2716 Clouds 2 1005 74 10000 1.78 353 18:31 20.05.2020
2717 Clouds 2 1005 74 10000 1.79 346 17:58 20.05.2020
2718 Clouds 2 1005 74 10000 1.79 346 17:37 20.05.2020
2719 Clouds 2 1005 74 10000 1.91 340 17:19 20.05.2020
2720 Clouds 3 1005 64 10000 1.91 340 16:41 20.05.2020
2721 Clouds 3 1005 64 10000 1.97 339 16:22 20.05.2020
2722 Clouds 3 1005 64 10000 1.97 339 15:56 20.05.2020
2723 Clouds 3 1005 64 10000 1.97 339 15:38 20.05.2020
2724 Clouds 3 1005 64 10000 1.78 334 15:20 20.05.2020
2725 Clouds 2 1005 59 10000 1.5 360 14:42 20.05.2020
2726 Clouds 2 1005 55 10000 1.5 360 14:20 20.05.2020
2727 Clouds 2 1005 55 10000 1.5 360 13:41 20.05.2020
2728 Clouds 2 1005 55 10000 1.5 360 13:19 20.05.2020
2729 Clouds 2 1005 59 10000 1.5 360 12:56 20.05.2020
2730 Clouds 2 1005 59 10000 1.5 360 12:37 20.05.2020
2731 Clouds 2 1005 59 10000 1.5 360 12:18 20.05.2020
2732 Clouds 2 1005 59 10000 2.04 337 11:36 20.05.2020
2733 Clouds 2 1005 59 10000 2.07 340 11:18 20.05.2020
2734 Clouds 2 1005 59 10000 2.07 340 11:18 20.05.2020
2735 Clouds 1 1004 74 10000 1.5 320 10:42 20.05.2020
2736 Clouds 1 1004 74 10000 1.5 320 10:20 20.05.2020
2737 Clouds 1 1004 74 10000 2.1 360 09:44 20.05.2020
2738 Clouds 1 1004 74 10000 2.1 360 09:21 20.05.2020
2739 Clear 1 1004 69 10000 3.1 340 08:56 20.05.2020
2740 Clear 1 1004 69 10000 3.1 340 08:38 20.05.2020
2741 Clear 1 1004 69 10000 3.1 340 08:18 20.05.2020
2742 Clear 2 1004 69 10000 3.1 340 07:45 20.05.2020
2743 Clear 2 1004 69 10000 3.1 340 07:19 20.05.2020
2744 Clear 2 1004 64 10000 2.1 320 06:36 20.05.2020
2745 Clear 2 1003 74 10000 4.1 360 05:24 20.05.2020
2746 Clear 2 1002 69 10000 3.6 320 04:27 20.05.2020
2747 Clear 3 1002 64 10000 3.6 270 03:42 20.05.2020
2748 Clear 3 1002 69 10000 4.6 320 02:25 20.05.2020
2749 Clouds 4 1002 69 10000 3.1 320 01:28 20.05.2020
2750 Clouds 4 1001 69 10000 5.7 230 00:44 20.05.2020
2751 Clouds 4 1001 69 10000 5.7 230 00:23 20.05.2020
2752 Clouds 5 1000 75 10000 10.3 230 23:42 19.05.2020
2753 Clouds 5 1000 75 10000 10.3 230 23:19 19.05.2020
2754 Clouds 5 1000 75 10000 10.3 230 23:19 19.05.2020
2755 Clouds 6 999 70 10000 12.3 230 22:56 19.05.2020
2756 Clouds 6 999 70 10000 12.3 230 22:38 19.05.2020
2757 Clouds 6 999 70 10000 12.3 230 22:19 19.05.2020
2758 Clouds 6 998 70 10000 14.4 230 21:57 19.05.2020
2759 Clouds 6 998 70 10000 14.4 230 21:37 19.05.2020
2760 Clouds 6 998 70 10000 14.4 230 21:19 19.05.2020
2761 Clouds 6 997 70 10000 13.4 230 20:57 19.05.2020
2762 Clouds 6 997 70 10000 13.4 230 20:38 19.05.2020
2763 Clouds 6 997 70 10000 13.4 230 20:20 19.05.2020
2764 Clouds 6 997 81 10000 11.8 230 19:40 19.05.2020
2765 Clouds 6 997 81 10000 11.8 230 19:21 19.05.2020
2766 Clouds 5 996 86 10000 12.9 230 18:58 19.05.2020
2767 Clouds 5 996 86 10000 12.9 230 18:40 19.05.2020
2768 Clouds 5 996 86 10000 12.9 230 18:20 19.05.2020
2769 Drizzle 5 996 80 10000 14.4 230 17:43 19.05.2020
2770 Drizzle 5 996 80 10000 14.4 230 17:21 19.05.2020
2771 Drizzle 5 995 86 10000 14.9 230 16:58 19.05.2020
2772 Drizzle 5 995 86 10000 14.9 230 16:38 19.05.2020
2773 Drizzle 5 995 86 10000 14.9 230 16:19 19.05.2020
2774 Drizzle 5 994 86 10000 13.4 230 15:46 19.05.2020
2775 Drizzle 5 994 86 10000 13.4 230 15:21 19.05.2020
2776 Drizzle 5 993 86 10000 11.8 230 14:57 19.05.2020
2777 Drizzle 5 993 86 10000 11.8 230 14:38 19.05.2020
2778 Drizzle 5 993 86 10000 11.8 230 14:20 19.05.2020
2779 Drizzle 5 992 86 10000 10.3 230 13:57 19.05.2020
2780 Drizzle 5 992 86 10000 10.3 230 13:38 19.05.2020
2781 Drizzle 5 992 86 10000 10.3 230 13:20 19.05.2020
2782 Drizzle 4 992 93 10000 9.3 230 12:56 19.05.2020
2783 Drizzle 4 992 93 10000 9.3 230 12:37 19.05.2020
2784 Drizzle 4 992 93 10000 9.3 230 12:19 19.05.2020
2785 Rain 4 991 93 10000 6.2 230 11:43 19.05.2020
2786 Rain 4 991 93 10000 6.2 230 11:43 19.05.2020
2787 Rain 4 991 93 10000 6.2 230 11:23 19.05.2020
2788 Rain 4 990 93 10000 10.8 250 10:58 19.05.2020
2789 Rain 4 990 93 10000 10.8 250 10:40 19.05.2020
2790 Rain 4 990 93 10000 10.8 250 10:21 19.05.2020
2791 Rain 3 989 100 10000 11.8 230 09:46 19.05.2020
2792 Rain 3 989 100 10000 11.8 230 09:25 19.05.2020
2793 Rain 3 988 100 10000 11.3 230 08:48 19.05.2020
2794 Rain 3 988 100 10000 11.3 230 08:48 19.05.2020
2795 Rain 3 988 100 10000 11.3 230 08:25 19.05.2020
2796 Rain 4 987 93 10000 12.9 230 07:57 19.05.2020
2797 Rain 4 987 93 10000 12.9 230 07:37 19.05.2020
2798 Rain 4 987 93 10000 12.9 230 07:19 19.05.2020
2799 Rain 4 986 93 10000 11.8 230 06:40 19.05.2020
2800 Rain 4 986 93 10000 11.8 230 06:18 19.05.2020
2801 Drizzle 4 986 93 10000 10.8 230 05:39 19.05.2020
2802 Drizzle 4 985 100 10000 10.3 230 04:50 19.05.2020
2803 Drizzle 4 985 100 10000 8.2 230 02:59 19.05.2020
2804 Drizzle 5 984 93 10000 6.2 230 01:21 19.05.2020
2805 Drizzle 5 984 93 10000 8.2 230 00:40 19.05.2020
2806 Drizzle 5 984 93 10000 8.2 230 00:18 19.05.2020
2807 Drizzle 4 984 100 10000 4.6 230 23:40 18.05.2020
2808 Drizzle 4 984 100 10000 4.6 230 23:20 18.05.2020
2809 Drizzle 4 984 93 10000 3.1 140 22:57 18.05.2020
2810 Drizzle 4 984 93 10000 3.1 140 22:39 18.05.2020
2811 Drizzle 4 984 93 10000 3.1 140 22:20 18.05.2020
2812 Rain 4 984 86 10000 5.7 90 21:42 18.05.2020
2813 Rain 4 984 86 10000 5.7 90 21:22 18.05.2020
2814 Rain 4 985 86 10000 6.2 70 20:57 18.05.2020
2815 Rain 4 985 86 10000 6.2 70 20:38 18.05.2020
2816 Rain 4 986 86 10000 1.58 161 20:19 18.05.2020
2817 Rain 4 986 86 10000 1.58 161 19:55 18.05.2020
2818 Rain 4 986 86 10000 1.72 155 19:37 18.05.2020
2819 Rain 3 987 86 10000 1.5 50 19:18 18.05.2020
2820 Rain 3 987 86 10000 1.5 50 18:43 18.05.2020
2821 Rain 3 987 86 10000 1.5 50 18:21 18.05.2020
2822 Clouds 3 989 93 10000 2.1 0 17:39 18.05.2020
2823 Clouds 3 989 93 10000 2.1 0 17:18 18.05.2020
2824 Clouds 3 990 86 10000 0.92 26 16:56 18.05.2020
2825 Clouds 3 990 86 10000 0.92 26 16:37 18.05.2020
2826 Clouds 3 990 86 10000 1.37 16 16:18 18.05.2020
2827 Rain 2 992 80 10000 2.1 290 15:54 18.05.2020
2828 Rain 2 992 80 10000 2.1 290 15:36 18.05.2020
2829 Rain 2 992 80 10000 2.1 290 15:18 18.05.2020
2830 Clouds 2 993 80 10000 2.2 20 14:42 18.05.2020
2831 Clouds 2 993 80 10000 2.33 22 14:23 18.05.2020
2832 Clouds 2 992 80 10000 2.33 22 13:57 18.05.2020
2833 Clouds 2 992 80 10000 2.33 22 13:38 18.05.2020
2834 Clouds 2 992 80 10000 2.32 24 13:19 18.05.2020
2835 Clouds 1 995 86 10000 2.32 24 12:55 18.05.2020
2836 Clouds 1 995 86 10000 2.32 24 12:37 18.05.2020
2837 Clouds 1 995 86 10000 2.25 16 12:18 18.05.2020
2838 Clouds 1 996 86 10000 2.25 16 11:46 18.05.2020
2839 Clouds 1 996 86 10000 2.49 16 11:26 18.05.2020
2840 Clouds 1 998 86 10000 2.49 16 10:55 18.05.2020
2841 Clouds 1 998 86 10000 2.49 16 10:37 18.05.2020
2842 Clouds 1 998 86 10000 2.61 10 10:19 18.05.2020
2843 Clouds 1 998 86 10000 3.1 320 09:42 18.05.2020
2844 Clouds 1 998 86 10000 3.1 320 09:23 18.05.2020
2845 Clouds 1 999 85 10000 2.6 360 08:42 18.05.2020
2846 Clear 1 999 85 10000 2.6 360 08:24 18.05.2020
2847 Clear 2 1000 80 10000 3.1 360 07:50 18.05.2020
2848 Clear 2 1000 80 10000 3.1 360 07:26 18.05.2020
2849 Clear 2 1000 80 10000 3.1 360 07:26 18.05.2020
2850 Clear 2 1000 80 10000 2.6 320 06:49 18.05.2020
2851 Clear 2 1000 80 10000 2.6 320 06:31 18.05.2020
2852 Clear 2 1000 74 10000 1 360 05:49 18.05.2020
2853 Clear 3 1000 69 10000 2.1 320 04:40 18.05.2020
2854 Clear 3 1001 69 10000 3.1 360 03:30 18.05.2020
2855 Clouds 4 1000 69 10000 1.5 360 01:58 18.05.2020
2856 Clouds 5 1000 65 10000 3.6 270 00:50 18.05.2020
2857 Clouds 5 1000 65 10000 3.6 270 00:22 18.05.2020
2858 Clouds 5 999 75 10000 2.6 360 23:56 17.05.2020
2859 Clouds 5 999 75 10000 2.6 360 23:38 17.05.2020
2860 Clouds 5 999 75 10000 2.6 360 23:19 17.05.2020
2861 Clouds 6 998 70 10000 1.67 349 22:55 17.05.2020
2862 Clouds 6 998 70 10000 1.67 349 22:36 17.05.2020
2863 Clouds 6 998 70 10000 1.25 324 22:18 17.05.2020
2864 Clouds 7 998 65 10000 1.25 324 21:41 17.05.2020
2865 Clouds 7 998 65 10000 2.27 324 21:20 17.05.2020
2866 Clouds 6 998 75 10000 2.6 320 20:58 17.05.2020
2867 Clouds 6 998 75 10000 2.6 320 20:40 17.05.2020
2868 Clouds 6 998 75 10000 2.6 320 20:19 17.05.2020
2869 Clouds 6 998 75 10000 4.1 360 19:47 17.05.2020
2870 Clouds 6 998 75 10000 4.1 360 19:29 17.05.2020
2871 Clouds 5 997 80 10000 2.6 230 18:59 17.05.2020
2872 Clouds 5 997 80 10000 2.6 230 18:59 17.05.2020
2873 Clouds 5 997 80 10000 2.6 230 18:39 17.05.2020
2874 Clouds 5 997 80 10000 2.6 230 18:21 17.05.2020
2875 Clouds 5 997 80 10000 1.8 333 17:42 17.05.2020
2876 Clouds 5 997 80 10000 1.92 340 17:23 17.05.2020
2877 Clouds 5 996 75 10000 2.1 270 16:59 17.05.2020
2878 Clouds 5 996 75 10000 2.1 270 16:39 17.05.2020
2879 Clouds 5 996 75 10000 2.1 270 16:20 17.05.2020
2880 Clouds 5 996 75 10000 2.1 270 16:20 17.05.2020
2881 Clouds 5 996 75 10000 3.1 50 15:54 17.05.2020
2882 Clouds 5 996 75 10000 3.1 50 15:36 17.05.2020
2883 Clouds 5 996 75 10000 3.1 50 15:18 17.05.2020
2884 Clouds 4 995 80 10000 4.6 230 14:42 17.05.2020
2885 Clouds 4 995 80 10000 4.6 230 14:24 17.05.2020
2886 Clouds 4 995 87 10000 0.45 282 13:43 17.05.2020
2887 Clouds 4 995 85 10000 0.89 298 13:21 17.05.2020
2888 Clouds 3 994 86 10000 2.1 320 10:50 17.05.2020
2889 Drizzle 6 991 75 10000 5.1 360 04:19 17.05.2020
2890 Clouds 5 990 80 10000 2.43 349 02:29 17.05.2020
2891 Clouds 3 990 82 0 2.69 354 01:55 17.05.2020
2892 Clouds 6 989 75 10000 3.6 320 00:57 17.05.2020
2893 Clouds 6 989 75 10000 3.6 320 00:38 17.05.2020
2894 Clouds 2 989 83 0 2.84 349 23:57 16.05.2020
2895 Clouds 2 989 83 0 2.84 349 23:39 16.05.2020
2896 Clouds 7 988 81 10000 4.1 320 23:19 16.05.2020
2897 Clouds 7 988 81 10000 4.1 320 22:57 16.05.2020
2898 Clouds 7 988 81 10000 4.1 320 22:39 16.05.2020
2899 Clouds 7 988 81 10000 4.1 320 22:19 16.05.2020
2900 Clouds 8 988 81 10000 1.5 360 21:44 16.05.2020
2901 Clouds 8 988 81 10000 1.5 360 21:25 16.05.2020
2902 Clouds 7 988 87 10000 2.6 90 20:57 16.05.2020
2903 Clouds 7 988 87 10000 2.6 90 20:39 16.05.2020
2904 Clouds 7 988 87 10000 2.6 90 20:20 16.05.2020
2905 Clouds 7 988 81 10000 2.1 360 19:56 16.05.2020
2906 Clouds 7 988 81 10000 2.1 360 19:37 16.05.2020
2907 Clouds 7 988 81 10000 2.1 360 19:19 16.05.2020
2908 Clouds 5 988 86 10000 2.42 355 18:41 16.05.2020
2909 Clouds 5 988 86 10000 2.58 355 18:22 16.05.2020
2910 Clouds 5 988 80 10000 1.5 50 17:55 16.05.2020
2911 Clouds 5 988 80 10000 1.5 50 17:36 16.05.2020
2912 Clouds 5 988 80 10000 1.5 50 17:18 16.05.2020
2913 Clouds 4 988 93 10000 2.1 340 16:39 16.05.2020
2914 Clouds 4 988 93 10000 2.1 340 16:20 16.05.2020
2915 Clouds 4 988 86 10000 1.5 50 15:55 16.05.2020
2916 Clouds 4 988 86 10000 1.5 50 15:37 16.05.2020
2917 Clouds 4 988 86 10000 1.5 50 15:18 16.05.2020
2918 Clouds 4 987 86 10000 2.1 340 14:42 16.05.2020
2919 Clouds 4 987 86 10000 2.1 340 14:20 16.05.2020
2920 Rain 4 987 93 10000 2.1 340 13:57 16.05.2020
2921 Rain 4 987 93 10000 2.1 340 13:38 16.05.2020
2922 Rain 4 987 93 10000 2.1 340 13:20 16.05.2020
2923 Rain 4 987 86 10000 2.1 290 12:44 16.05.2020
2924 Rain 4 987 86 10000 2.1 290 12:20 16.05.2020
2925 Clouds 4 987 93 10000 2.1 270 11:56 16.05.2020
2926 Clouds 3 987 86 0 1.92 1 11:38 16.05.2020
2927 Clouds 3 987 86 0 2.02 346 11:19 16.05.2020
2928 Clouds 3 987 86 0 2.02 346 10:55 16.05.2020
2929 Clouds 3 987 86 0 2.02 346 10:36 16.05.2020
2930 Clouds 3 987 85 0 2 351 10:18 16.05.2020
2931 Clouds 3 987 85 0 2 351 09:40 16.05.2020
2932 Clouds 5 986 80 10000 1.93 347 09:19 16.05.2020
2933 Clouds 5 986 80 10000 1.93 347 08:43 16.05.2020
2934 Clouds 5 986 80 10000 1.9 350 08:21 16.05.2020
2935 Clouds 5 986 80 10000 1.9 350 07:46 16.05.2020
2936 Clouds 5 986 80 10000 2.12 359 07:27 16.05.2020
2937 Clouds 4 986 86 10000 2.1 320 06:58 16.05.2020
2938 Clouds 4 986 86 10000 2.1 320 06:39 16.05.2020
2939 Clouds 4 986 86 10000 2.1 320 06:18 16.05.2020
2940 Clouds 4 987 86 10000 3.6 320 05:33 16.05.2020
2941 Clouds 5 987 80 10000 3.1 340 03:37 16.05.2020
2942 Clouds 5 987 80 10000 2.65 4 02:59 16.05.2020
2943 Clouds 5 987 80 10000 2.49 11 02:21 16.05.2020
2944 Clouds 5 988 80 10000 3.1 270 01:53 16.05.2020
2945 Clouds 5 988 80 10000 3.1 270 01:23 16.05.2020
2946 Clouds 5 988 80 10000 2.6 360 00:49 16.05.2020
2947 Clouds 5 988 80 10000 2.6 360 00:22 16.05.2020
2948 Clouds 5 988 80 10000 2.1 50 23:41 15.05.2020
2949 Clouds 5 988 80 10000 2.1 50 23:20 15.05.2020
2950 Clouds 5 989 75 10000 3.1 90 22:58 15.05.2020
2951 Clouds 5 989 75 10000 3.1 90 22:39 15.05.2020
2952 Clouds 5 989 75 10000 3.1 90 22:19 15.05.2020
2953 Clouds 6 989 70 10000 2.6 90 21:40 15.05.2020
2954 Clouds 6 989 70 10000 2.6 90 21:22 15.05.2020
2955 Clouds 5 990 75 10000 1.5 360 20:59 15.05.2020
2956 Clouds 5 990 75 10000 1.5 360 20:41 15.05.2020
2957 Clouds 5 990 75 10000 1.5 360 20:22 15.05.2020
2958 Clouds 5 991 80 10000 1.5 50 19:58 15.05.2020
2959 Clouds 5 991 80 10000 1.5 50 19:40 15.05.2020
2960 Clouds 5 991 80 10000 1.5 50 19:21 15.05.2020
2961 Clouds 5 992 75 10000 2.1 360 18:45 15.05.2020
2962 Clouds 5 992 75 10000 2.1 360 18:27 15.05.2020
2963 Clouds 5 993 80 10000 1.5 50 17:41 15.05.2020
2964 Clouds 5 993 80 10000 1.5 50 17:20 15.05.2020
2965 Clouds 4 993 80 10000 1.5 20 16:58 15.05.2020
2966 Clouds 4 993 80 10000 1.5 20 16:39 15.05.2020
2967 Clouds 4 993 80 10000 1.5 20 16:19 15.05.2020
2968 Clouds 2 994 81 10000 2.6 340 15:58 15.05.2020
2969 Clouds 2 994 80 10000 2.6 340 15:39 15.05.2020
2970 Clouds 2 994 83 10000 2.6 340 15:19 15.05.2020
2971 Clouds 3 993 83 10000 1.5 20 14:54 15.05.2020
2972 Clouds 3 993 83 10000 1.5 20 14:36 15.05.2020
2973 Clouds 3 993 83 10000 1.5 20 14:18 15.05.2020
2974 Clouds 3 994 93 10000 2.1 340 13:40 15.05.2020
2975 Clouds 3 994 93 10000 2.1 340 13:20 15.05.2020
2976 Clouds 3 994 83 10000 1 70 12:41 15.05.2020
2977 Clouds 3 994 84 10000 2.1 360 12:19 15.05.2020
2978 Clouds 3 994 84 10000 2.1 360 11:57 15.05.2020
2979 Clouds 3 994 84 10000 2.1 360 11:39 15.05.2020
2980 Clouds 3 994 85 10000 2.1 360 11:21 15.05.2020
2981 Clouds 3 995 85 10000 2.1 290 10:59 15.05.2020
2982 Clouds 3 995 85 10000 2.1 290 10:40 15.05.2020
2983 Clouds 3 995 84 10000 2.1 290 10:22 15.05.2020
2984 Clouds 3 995 84 10000 2.35 343 09:59 15.05.2020
2985 Clouds 3 995 84 10000 2.35 343 09:37 15.05.2020
2986 Clouds 3 995 84 10000 2.35 343 09:37 15.05.2020
2987 Clouds 3 995 83 10000 2.45 349 09:18 15.05.2020
2988 Clouds 3 995 74 10000 2.6 230 08:57 15.05.2020
2989 Clouds 3 995 74 10000 2.6 230 08:37 15.05.2020
2990 Clouds 3 995 74 10000 2.6 230 08:18 15.05.2020
2991 Clouds 3 995 74 10000 2.6 320 07:43 15.05.2020
2992 Clouds 3 995 74 10000 2.6 320 07:24 15.05.2020
2993 Clouds 4 995 83 10000 2.67 352 06:41 15.05.2020
2994 Clouds 4 995 80 10000 3.1 320 05:49 15.05.2020
2995 Clear 4 995 84 10000 3.1 360 04:27 15.05.2020
2996 Clouds 5 995 84 10000 4.6 360 03:45 15.05.2020
2997 Clouds 6 995 84 10000 5.7 320 02:30 15.05.2020
2998 Clouds 6 995 82 10000 5.7 320 01:20 15.05.2020
2999 Clouds 6 994 82 10000 4.6 320 00:48 15.05.2020
3000 Clouds 6 994 82 10000 4.6 320 00:29 15.05.2020
3001 Clouds 6 994 80 10000 2.6 320 23:44 14.05.2020
3002 Clouds 6 994 79 10000 2.6 320 23:22 14.05.2020
3003 Clouds 7 994 79 10000 2.1 320 22:59 14.05.2020
3004 Clouds 7 994 79 10000 2.1 320 22:40 14.05.2020
3005 Clouds 7 994 77 10000 2.1 320 22:19 14.05.2020
3006 Clouds 7 993 77 10000 1.5 270 21:56 14.05.2020
3007 Clouds 7 993 77 10000 1.5 270 21:38 14.05.2020
3008 Clouds 7 993 77 10000 1.5 270 21:19 14.05.2020
3009 Clouds 7 993 77 10000 2.1 20 20:55 14.05.2020
3010 Clouds 7 993 77 10000 2.1 20 20:36 14.05.2020
3011 Rain 7 993 56 10000 2.1 340 20:18 14.05.2020
3012 Rain 7 993 56 10000 2.1 340 19:40 14.05.2020
3013 Rain 7 993 56 10000 2.1 340 19:21 14.05.2020
3014 Clouds 7 993 48 10000 3.6 250 18:58 14.05.2020
3015 Clouds 7 993 48 10000 3.6 250 18:38 14.05.2020
3016 Clouds 7 993 48 10000 3.6 250 18:20 14.05.2020
3017 Drizzle 7 992 48 10000 2.1 360 17:59 14.05.2020
3018 Drizzle 7 992 48 10000 2.1 360 17:37 14.05.2020
3019 Drizzle 7 992 48 10000 2.1 360 17:19 14.05.2020
3020 Clouds 8 992 45 10000 5.7 360 16:57 14.05.2020
3021 Clouds 8 992 45 10000 5.7 360 16:38 14.05.2020
3022 Clouds 8 992 45 10000 5.7 360 16:19 14.05.2020
3023 Clouds 7 993 74 10000 2.6 360 15:56 14.05.2020
3024 Clouds 7 993 74 10000 2.6 360 15:37 14.05.2020
3025 Clouds 7 993 75 10000 2.6 360 15:18 14.05.2020
3026 Clouds 7 993 75 10000 2.6 320 14:40 14.05.2020
3027 Clouds 7 993 75 10000 2.6 320 14:21 14.05.2020
3028 Clouds 7 994 75 10000 5.7 360 13:59 14.05.2020
3029 Clouds 7 994 75 10000 5.7 360 13:59 14.05.2020
3030 Clouds 7 994 75 10000 5.7 360 13:41 14.05.2020
3031 Clouds 7 994 75 10000 5.7 360 13:20 14.05.2020
3032 Clouds 6 994 81 10000 5.1 320 12:59 14.05.2020
3033 Clouds 6 994 81 10000 5.1 320 12:39 14.05.2020
3034 Clouds 6 994 81 10000 5.1 320 12:39 14.05.2020
3035 Clouds 6 994 81 10000 5.1 320 12:20 14.05.2020
3036 Clouds 6 995 75 10000 2.6 340 11:58 14.05.2020
3037 Clouds 6 995 75 10000 2.6 340 11:39 14.05.2020
3038 Clouds 6 995 75 10000 2.6 340 11:20 14.05.2020
3039 Clouds 5 996 75 10000 2.6 230 10:56 14.05.2020
3040 Clouds 5 996 75 10000 2.6 230 10:37 14.05.2020
3041 Clouds 5 996 75 10000 2.6 230 10:19 14.05.2020
3042 Clouds 5 997 75 10000 4.19 356 09:42 14.05.2020
3043 Clouds 5 997 75 10000 3.85 358 09:22 14.05.2020
3044 Clouds 5 999 80 10000 1.5 90 08:41 14.05.2020
3045 Clouds 5 999 80 10000 1.5 90 08:20 14.05.2020
3046 Clouds 5 1001 80 10000 3.6 110 07:46 14.05.2020
3047 Clouds 5 1001 80 10000 3.6 110 07:25 14.05.2020
3048 Clouds 5 1001 78 10000 3.22 354 06:54 14.05.2020
3049 Clouds 5 1001 78 10000 3.22 354 06:31 14.05.2020
3050 Clouds 6 1003 60 10000 1 250 05:56 14.05.2020
3051 Clouds 6 1003 60 10000 1 250 05:35 14.05.2020
3052 Clouds 6 1004 60 10000 2.83 353 04:25 14.05.2020
3053 Clouds 6 1005 60 10000 1.5 320 03:27 14.05.2020
3054 Rain 6 1006 60 10000 1.5 270 02:41 14.05.2020
3055 Clouds 6 1006 56 10000 1.5 320 01:56 14.05.2020
3056 Clouds 6 1006 56 10000 1.5 320 01:24 14.05.2020
3057 Clouds 6 1007 56 10000 1 360 00:48 14.05.2020
3058 Clouds 6 1007 56 10000 1 360 00:24 14.05.2020
3059 Clouds 5 1007 79 10000 4.1 360 23:44 13.05.2020
3060 Clouds 5 1007 77 10000 4.1 360 23:22 13.05.2020
3061 Clouds 5 1008 75 10000 1.5 360 22:54 13.05.2020
3062 Clouds 5 1008 75 10000 1.5 360 22:36 13.05.2020
3063 Clouds 5 1008 75 10000 1.5 360 22:18 13.05.2020
3064 Clouds 5 1008 75 10000 2.6 360 21:56 13.05.2020
3065 Clouds 5 1008 75 10000 2.6 360 21:38 13.05.2020
3066 Clouds 5 1008 75 10000 2.6 360 21:18 13.05.2020
3067 Clouds 5 1009 75 10000 4.1 360 20:41 13.05.2020
3068 Clouds 5 1009 75 10000 4.1 360 20:23 13.05.2020
3069 Clouds 6 1010 70 10000 3.6 360 19:44 13.05.2020
3070 Clouds 6 1010 71 10000 3.6 360 19:24 13.05.2020
3071 Clouds 6 1010 70 10000 5.1 270 18:58 13.05.2020
3072 Clouds 6 1010 70 10000 5.1 270 18:39 13.05.2020
3073 -273 0 0 0 0 0 18:21 13.05.2020
3074 Clouds 6 1010 70 10000 5.1 270 18:20 13.05.2020
3075 Clouds 6 1010 70 10000 5.1 270 18:20 13.05.2020
3076 Clouds 6 1010 70 10000 5.1 270 18:20 13.05.2020
3077 Clouds 5 1010 75 10000 3.6 270 17:39 13.05.2020
3078 Clouds 5 1010 75 10000 3.6 270 17:19 13.05.2020
3079 Clouds 5 1011 80 10000 5.1 270 16:56 13.05.2020
3080 Clouds 5 1011 80 10000 5.1 270 16:37 13.05.2020
3081 Clouds 5 1011 80 10000 5.1 270 16:18 13.05.2020
3082 Clouds 5 1011 80 10000 5.1 250 15:42 13.05.2020
3083 Clouds 5 1011 80 10000 5.1 250 15:20 13.05.2020
3084 Clouds 4 1011 86 10000 7.7 230 14:57 13.05.2020
3085 Clouds 4 1011 86 10000 7.7 230 14:39 13.05.2020
3086 Clouds 4 1011 86 10000 7.7 230 14:21 13.05.2020
3087 Clouds 4 1010 86 10000 10.3 230 13:57 13.05.2020
3088 Clouds 4 1010 86 10000 10.3 230 13:38 13.05.2020
3089 Clouds 4 1010 86 10000 10.3 230 13:19 13.05.2020
3090 Clouds 4 1010 80 10000 9.3 230 12:43 13.05.2020
3091 Clouds 4 1010 80 10000 9.3 230 12:23 13.05.2020
3092 Clouds 5 1010 87 10000 10.8 230 11:57 13.05.2020
3093 Clouds 5 1010 87 10000 10.8 230 11:39 13.05.2020
3094 Clouds 5 1010 85 10000 10.8 230 11:20 13.05.2020
3095 Clouds 5 1010 85 10000 12.3 230 10:59 13.05.2020
3096 Clouds 5 1010 85 10000 12.3 230 10:39 13.05.2020
3097 Clouds 5 1010 88 10000 12.3 230 10:20 13.05.2020
3098 Clouds 5 1010 88 10000 12.3 230 10:20 13.05.2020
3099 Clouds 5 1010 88 10000 12.9 230 09:58 13.05.2020
3100 Clouds 5 1010 88 10000 12.9 230 09:39 13.05.2020
3101 Clouds 5 1010 89 10000 12.9 230 09:21 13.05.2020
3102 Clouds 5 1010 88 10000 12.9 230 09:21 13.05.2020
3103 Clouds 5 1010 89 10000 14.4 230 08:41 13.05.2020
3104 Clouds 5 1010 90 10000 14.4 230 08:22 13.05.2020
3105 Clouds 5 1009 65 10000 17.5 230 07:59 13.05.2020
3106 Clouds 5 1009 65 10000 17.5 230 07:59 13.05.2020
3107 Clouds 5 1009 65 10000 17.5 230 07:36 13.05.2020
3108 Clouds 6 1008 60 10000 17 230 06:59 13.05.2020
3109 Clouds 6 1008 60 10000 17 230 06:41 13.05.2020
3110 Clouds 6 1008 60 10000 15.9 230 05:50 13.05.2020
3111 Clouds 5 1008 65 10000 16.5 230 04:22 13.05.2020
3112 Rain 5 1007 65 10000 17 230 02:59 13.05.2020
3113 Rain 5 1007 65 10000 17 230 02:22 13.05.2020
3114 Rain 5 1008 89 10000 16.5 230 01:21 13.05.2020
3115 Clouds 5 1008 89 10000 15.4 230 00:41 13.05.2020
3116 Clouds 5 1008 88 10000 15.4 230 00:19 13.05.2020
3117 Clouds 5 1009 88 10000 15.9 230 23:40 12.05.2020
3118 Clouds 5 1009 86 10000 15.9 230 23:21 12.05.2020
3119 Clouds 5 1009 80 10000 14.9 230 22:57 12.05.2020
3120 Clouds 5 1009 80 10000 14.9 230 22:39 12.05.2020
3121 Clouds 5 1009 80 10000 14.9 230 22:20 12.05.2020
3122 Clouds 5 1008 80 10000 14.4 230 21:55 12.05.2020
3123 Clouds 5 1008 80 10000 14.4 230 21:36 12.05.2020
3124 Clouds 5 1008 80 10000 14.4 230 21:18 12.05.2020
3125 Clouds 5 1007 80 10000 14.4 230 20:56 12.05.2020
3126 Clouds 5 1007 80 10000 14.4 230 20:37 12.05.2020
3127 Clouds 5 1007 80 10000 14.4 230 20:19 12.05.2020
3128 Clouds 5 1007 80 10000 16.5 230 19:55 12.05.2020
3129 Clouds 5 1007 80 10000 16.5 230 19:37 12.05.2020
3130 Clouds 4 1006 86 10000 15.9 230 19:18 12.05.2020
3131 Clouds 4 1006 86 10000 15.9 230 18:41 12.05.2020
3132 Clouds 4 1006 86 10000 15.9 230 18:23 12.05.2020
3133 Clouds 4 1005 86 10000 13.4 230 17:54 12.05.2020
3134 Clouds 4 1005 86 10000 13.4 230 17:36 12.05.2020
3135 Clouds 4 1005 86 10000 13.4 230 17:18 12.05.2020
3136 Clouds 4 1006 86 10000 12.3 230 16:42 12.05.2020
3137 Clouds 4 1006 86 10000 12.3 230 16:21 12.05.2020
3138 Clouds 4 1006 86 10000 8.2 240 15:55 12.05.2020
3139 Clouds 4 1006 86 10000 8.2 240 15:36 12.05.2020
3140 Clouds 4 1006 86 10000 8.2 240 15:18 12.05.2020
3141 Clouds 4 1005 86 10000 10.8 230 14:55 12.05.2020
3142 Clouds 4 1005 86 10000 10.8 230 14:36 12.05.2020
3143 Rain 4 1005 86 10000 8.2 240 14:18 12.05.2020
3144 Rain 4 1005 86 10000 8.2 240 13:54 12.05.2020
3145 Rain 4 1005 86 10000 8.2 240 13:36 12.05.2020
3146 Rain 4 1005 86 10000 8.2 240 13:18 12.05.2020
3147 Drizzle 3 1004 93 10000 7.2 230 12:55 12.05.2020
3148 Drizzle 3 1004 93 10000 7.2 230 12:37 12.05.2020
3149 Drizzle 3 1004 93 10000 7.2 230 12:18 12.05.2020
3150 Rain 4 1003 80 10000 10.8 230 11:56 12.05.2020
3151 Rain 4 1003 80 10000 10.8 230 11:37 12.05.2020
3152 Rain 4 1003 80 10000 10.8 230 11:19 12.05.2020
3153 Rain 4 1002 86 10000 10.8 230 10:54 12.05.2020
3154 Rain 4 1002 86 10000 10.8 230 10:36 12.05.2020
3155 Rain 4 1002 86 10000 10.8 230 10:18 12.05.2020
3156 Rain 4 1002 86 10000 10.8 230 10:18 12.05.2020
3157 Rain 4 1001 80 10000 9.8 230 09:55 12.05.2020
3158 Rain 4 1001 80 10000 9.8 230 09:36 12.05.2020
3159 Rain 4 1001 80 10000 9.8 230 09:18 12.05.2020
3160 Clouds 4 1000 80 10000 11.8 230 08:39 12.05.2020
3161 Clouds 4 1000 80 10000 11.8 230 08:20 12.05.2020
3162 Rain 4 1000 86 10000 13.4 230 07:44 12.05.2020
3163 Rain 4 1000 86 10000 13.4 230 07:26 12.05.2020
3164 Clouds 4 999 86 10000 11.3 230 06:55 12.05.2020
3165 Clouds 4 999 86 10000 11.3 230 06:36 12.05.2020
3166 Clouds 4 992 86 10000 10.8 230 06:18 12.05.2020
3167 Clouds 4 992 86 10000 10.8 230 05:44 12.05.2020
3168 Clouds 4 998 88 10000 8.2 230 03:48 12.05.2020
3169 Clouds 4 997 80 10000 9.3 230 02:58 12.05.2020
3170 Clouds 4 997 80 10000 9.3 230 02:26 12.05.2020
3171 Rain 5 997 80 10000 10.8 230 01:33 12.05.2020
3172 Rain 5 996 75 10000 10.3 230 00:40 12.05.2020
3173 Rain 5 996 75 10000 10.3 230 00:21 12.05.2020
3174 Clouds 5 996 86 10000 11.8 230 23:55 11.05.2020
3175 Clouds 5 996 86 10000 11.8 230 23:37 11.05.2020
3176 Clouds 5 996 86 10000 11.8 230 23:18 11.05.2020
3177 Clouds 5 995 86 10000 10.8 230 22:54 11.05.2020
3178 Clouds 5 995 86 10000 10.8 230 22:36 11.05.2020
3179 Clouds 5 995 86 10000 10.8 230 22:18 11.05.2020
3180 Clouds 6 995 75 10000 6.2 230 21:54 11.05.2020
3181 Clouds 6 995 75 10000 6.2 230 21:36 11.05.2020
3182 Clouds 6 995 75 10000 6.2 230 21:18 11.05.2020
3183 Clouds 6 995 75 10000 10.3 230 20:42 11.05.2020
3184 Clouds 6 995 75 10000 10.3 230 20:21 11.05.2020
3185 Clouds 6 996 75 10000 6.7 230 19:58 11.05.2020
3186 Clouds 6 996 75 10000 6.7 230 19:40 11.05.2020
3187 Clouds 6 996 75 10000 6.7 230 19:21 11.05.2020
3188 Clouds 5 996 80 10000 8.2 230 18:57 11.05.2020
3189 Clouds 5 996 80 10000 8.2 230 18:38 11.05.2020
3190 Clouds 5 996 80 10000 8.2 230 18:19 11.05.2020
3191 Clouds 6 996 75 10000 9.8 230 17:57 11.05.2020
3192 Clouds 6 996 75 10000 9.8 230 17:57 11.05.2020
3193 Clouds 6 996 75 10000 9.8 230 17:38 11.05.2020
3194 Clouds 6 996 75 10000 9.8 230 17:20 11.05.2020
3195 Clouds 5 996 80 10000 8.2 230 16:56 11.05.2020
3196 Clouds 5 996 80 10000 8.2 230 16:37 11.05.2020
3197 Clouds 5 996 80 10000 8.2 230 16:18 11.05.2020
3198 Clouds 5 996 80 10000 8.2 230 15:42 11.05.2020
3199 Clouds 5 996 80 10000 8.2 230 15:20 11.05.2020
3200 Clouds 6 996 75 10000 6.2 230 14:58 11.05.2020
3201 Clouds 6 996 75 10000 6.2 230 14:40 11.05.2020
3202 Clouds 6 996 75 10000 6.2 230 14:21 11.05.2020
3203 Clouds 5 996 80 10000 6.7 230 13:42 11.05.2020
3204 Clouds 5 996 80 10000 6.7 230 13:23 11.05.2020
3205 Clouds 5 996 80 10000 4.1 270 12:59 11.05.2020
3206 Clouds 5 996 80 10000 4.1 270 12:41 11.05.2020
3207 Clouds 5 996 80 10000 4.1 270 12:23 11.05.2020
3208 Clouds 4 996 80 10000 3.6 290 11:58 11.05.2020
3209 Clouds 4 996 80 10000 3.6 290 11:40 11.05.2020
3210 Clouds 4 996 80 10000 3.6 290 11:21 11.05.2020
3211 Clouds 5 995 75 10000 5.7 250 10:58 11.05.2020
3212 Clouds 5 995 75 10000 5.7 250 10:40 11.05.2020
3213 Clouds 5 995 75 10000 5.7 250 10:21 11.05.2020
3214 Clouds 5 996 75 10000 6.2 230 09:58 11.05.2020
3215 Clouds 5 996 75 10000 6.2 230 09:39 11.05.2020
3216 Clouds 5 996 75 10000 6.2 230 09:19 11.05.2020
3217 Clouds 5 996 80 10000 3.1 250 08:55 11.05.2020
3218 Clouds 5 996 80 10000 3.1 250 08:36 11.05.2020
3219 Clouds 5 996 75 10000 4.1 290 08:18 11.05.2020
3220 Clouds 5 996 75 10000 4.1 290 07:41 11.05.2020
3221 Clouds 5 996 75 10000 4.1 290 07:23 11.05.2020
3222 Clouds 6 995 70 10000 3.6 270 06:40 11.05.2020
3223 Clouds 6 996 81 10000 4.6 250 05:55 11.05.2020
3224 Clouds 6 996 81 10000 4.6 250 05:23 11.05.2020
3225 Rain 6 995 81 10000 9.3 230 04:19 11.05.2020
3226 Clouds 6 995 87 10000 9.3 360 02:37 11.05.2020
3227 Clouds 6 995 87 10000 9.3 360 02:19 11.05.2020
3228 Clouds 6 994 87 10000 5.1 320 01:31 11.05.2020
3229 Clouds 6 994 87 10000 1.14 270 00:44 11.05.2020
3230 Clouds 6 994 87 10000 0.83 262 00:19 11.05.2020
3231 Clouds 5 994 86 10000 1.5 320 23:43 10.05.2020
3232 Clouds 5 994 86 10000 1.5 320 23:20 10.05.2020
3233 Clouds 7 993 81 10000 1.52 254 22:55 10.05.2020
3234 Clouds 7 993 81 10000 1.52 254 22:37 10.05.2020
3235 Clouds 7 993 81 10000 1.35 309 22:18 10.05.2020
3236 Clouds 7 993 81 10000 1.35 309 21:43 10.05.2020
3237 Clouds 7 993 81 10000 1.49 346 21:19 10.05.2020
3238 Clear 7 993 81 10000 1.04 339 20:43 10.05.2020
3239 Clouds 7 993 81 10000 0.98 312 20:25 10.05.2020
3240 Clouds 7 993 81 10000 0.98 312 19:59 10.05.2020
3241 Clouds 7 993 81 10000 0.98 312 19:40 10.05.2020
3242 Clouds 7 993 81 10000 0.99 347 19:22 10.05.2020
3243 Clouds 6 993 87 10000 0.99 347 18:57 10.05.2020
3244 Clouds 6 993 87 10000 0.99 347 18:37 10.05.2020
3245 Clouds 6 993 87 10000 0.65 310 18:19 10.05.2020
3246 Clouds 5 993 80 10000 1.5 270 17:58 10.05.2020
3247 Clouds 5 993 80 10000 1.5 270 17:40 10.05.2020
3248 Clouds 5 993 80 10000 1.5 270 17:21 10.05.2020
3249 Clouds 4 993 80 10000 0.7 311 16:57 10.05.2020
3250 Clouds 4 993 80 10000 0.7 311 16:38 10.05.2020
3251 Clouds 4 993 80 10000 0.52 308 16:19 10.05.2020
3252 Clouds 4 992 70 10000 0.52 308 15:44 10.05.2020
3253 Clouds 4 992 76 10000 0.64 271 15:25 10.05.2020
3254 Clouds 4 992 76 0 0.64 271 14:58 10.05.2020
3255 Clouds 4 992 76 0 0.64 271 14:38 10.05.2020
3256 Clouds 4 992 76 0 0.64 271 14:38 10.05.2020
3257 Clouds 4 992 76 0 0.54 269 14:20 10.05.2020
3258 Clouds 4 992 80 10000 0.54 269 13:59 10.05.2020
3259 Clouds 4 992 80 10000 0.54 269 13:38 10.05.2020
3260 Clouds 4 992 80 10000 0.65 279 13:20 10.05.2020
3261 Clouds 4 992 86 10000 1.5 320 12:57 10.05.2020
3262 Clouds 4 992 86 10000 1.5 320 12:38 10.05.2020
3263 Clouds 4 992 86 10000 1.5 320 12:20 10.05.2020
3264 Clouds 4 991 93 10000 0.87 296 11:57 10.05.2020
3265 Clouds 4 991 93 10000 0.87 296 11:39 10.05.2020
3266 Clouds 4 991 93 10000 0.86 309 11:19 10.05.2020
3267 Clouds 4 991 93 10000 0.86 309 10:46 10.05.2020
3268 Clouds 4 991 93 10000 1.04 318 10:28 10.05.2020
3269 Clouds 5 991 86 10000 1.04 318 09:58 10.05.2020
3270 Clouds 5 991 86 10000 1.04 318 09:40 10.05.2020
3271 Clouds 5 991 86 10000 0.96 330 09:20 10.05.2020
3272 Clouds 5 991 86 10000 1.19 336 08:50 10.05.2020
3273 Clouds 5 991 86 10000 1.11 334 08:24 10.05.2020
3274 Clouds 4 990 93 10000 1.11 334 07:45 10.05.2020
3275 Clouds 4 990 93 10000 0.99 346 07:21 10.05.2020
3276 Clouds 5 990 86 10000 0.99 346 06:57 10.05.2020
3277 Clouds 5 990 86 10000 0.99 346 06:32 10.05.2020
3278 Clouds 5 990 86 10000 0.66 335 05:52 10.05.2020
3279 Clouds 6 990 81 10000 0.26 317 04:55 10.05.2020
3280 Clouds 6 990 81 10000 0.26 317 04:36 10.05.2020
3281 Clouds 6 990 81 10000 2.1 320 03:57 10.05.2020
3282 Clouds 6 990 81 10000 2.1 320 03:38 10.05.2020
3283 Clouds 7 990 75 10000 1.5 290 02:48 10.05.2020
3284 Clouds 7 990 75 10000 1.5 290 02:19 10.05.2020
3285 Clouds 7 989 81 10000 2.6 270 01:42 10.05.2020
3286 Clouds 7 989 81 10000 2.6 270 01:20 10.05.2020
3287 Clouds 7 989 81 10000 3.1 230 00:54 10.05.2020
3288 Clouds 7 989 81 10000 3.1 230 00:24 10.05.2020
3289 Clouds 7 989 87 10000 3.6 230 23:59 09.05.2020
3290 Clouds 7 989 87 10000 3.6 230 23:39 09.05.2020
3291 Clouds 7 989 87 10000 3.6 230 23:20 09.05.2020
3292 Clouds 9 989 70 10000 2.1 360 22:43 09.05.2020
3293 Clouds 9 989 70 10000 2.1 360 22:24 09.05.2020
3294 Clouds 9 989 81 10000 0.2 356 21:59 09.05.2020
3295 Clouds 9 989 81 10000 0.2 356 21:41 09.05.2020
3296 Clouds 9 989 81 10000 0.04 174 21:21 09.05.2020
3297 Clouds 8 989 81 10000 2.1 360 20:58 09.05.2020
3298 Clouds 8 989 81 10000 2.1 360 20:38 09.05.2020
3299 Clouds 8 989 81 10000 2.1 360 20:20 09.05.2020
3300 Clouds 8 989 81 10000 1.5 360 19:56 09.05.2020
3301 Clouds 8 989 81 10000 1.5 360 19:38 09.05.2020
3302 Clouds 8 989 81 10000 1.5 360 19:19 09.05.2020
3303 Clouds 7 989 87 10000 2.1 90 18:44 09.05.2020
3304 Clouds 7 989 87 10000 2.1 90 18:26 09.05.2020
3305 Clouds 7 989 87 10000 3.1 20 17:46 09.05.2020
3306 Clouds 7 989 87 10000 3.1 20 17:23 09.05.2020
3307 Clouds 7 989 81 10000 4.1 50 16:58 09.05.2020
3308 Clouds 7 989 81 10000 4.1 50 16:40 09.05.2020
3309 Clouds 7 989 81 10000 4.1 50 16:19 09.05.2020
3310 Rain 6 989 93 10000 1.5 90 15:45 09.05.2020
3311 Rain 6 989 93 10000 1.5 90 15:26 09.05.2020
3312 Rain 6 989 93 10000 4.1 20 14:57 09.05.2020
3313 Rain 6 989 93 10000 4.1 20 14:39 09.05.2020
3314 Rain 6 989 93 10000 4.1 20 14:18 09.05.2020
3315 Rain 6 989 87 10000 2.6 20 13:56 09.05.2020
3316 Rain 6 989 87 10000 2.6 20 13:38 09.05.2020
3317 Rain 6 989 87 10000 2.6 20 13:19 09.05.2020
3318 Clouds 6 990 75 10000 1.5 90 12:41 09.05.2020
3319 Clouds 6 990 75 10000 1.5 90 12:22 09.05.2020
3320 Clouds 6 990 75 10000 1.5 90 12:22 09.05.2020
3321 Clouds 5 990 93 10000 1.85 336 11:56 09.05.2020
3322 Clouds 5 990 93 10000 1.85 336 11:37 09.05.2020
3323 Clouds 5 990 93 10000 2.1 334 11:18 09.05.2020
3324 Clouds 5 990 93 10000 2.1 334 10:43 09.05.2020
3325 Clouds 5 990 93 10000 2.11 333 10:23 09.05.2020
3326 Clouds 6 990 87 10000 2.11 333 09:56 09.05.2020
3327 Clouds 6 990 87 10000 2.11 333 09:37 09.05.2020
3328 Clouds 6 990 87 10000 2.46 341 09:18 09.05.2020
3329 Clouds 6 991 81 10000 3.6 360 08:51 09.05.2020
3330 Clouds 6 991 81 10000 3.6 360 08:31 09.05.2020
3331 Clouds 6 991 87 10000 2.1 110 07:49 09.05.2020
3332 Clouds 6 991 87 10000 2.1 110 07:31 09.05.2020
3333 Clouds 7 991 75 10000 1.5 360 06:47 09.05.2020
3334 Clouds 7 991 75 10000 1.5 360 06:22 09.05.2020
3335 Clouds 8 992 70 10000 1.5 360 05:45 09.05.2020
3336 Clouds 8 992 75 10000 1.5 270 03:44 09.05.2020
3337 Clouds 8 992 75 10000 1.5 270 03:22 09.05.2020
3338 Clouds 8 992 75 10000 2.1 50 02:32 09.05.2020
3339 Clouds 8 992 75 10000 2.1 140 01:52 09.05.2020
3340 Clouds 8 992 75 10000 2.1 140 01:23 09.05.2020
3341 Clouds 7 992 87 10000 2.6 140 00:50 09.05.2020
3342 Clouds 7 992 87 10000 2.6 140 00:31 09.05.2020
3343 Clouds 7 992 87 10000 2.1 90 23:49 08.05.2020
3344 Clouds 7 992 87 10000 2.1 90 23:29 08.05.2020
3345 Clouds 7 992 93 10000 1.5 90 22:59 08.05.2020
3346 Clouds 7 992 93 10000 1.5 90 22:40 08.05.2020
3347 Clouds 7 992 93 10000 1.5 90 22:19 08.05.2020
3348 Fog 6 992 100 10000 2.4 353 21:59 08.05.2020
3349 Fog 6 992 100 10000 2.4 353 21:39 08.05.2020
3350 Fog 6 992 100 10000 1.73 351 21:19 08.05.2020
3351 Fog 6 993 100 400 2.1 180 20:58 08.05.2020
3352 Fog 6 993 100 400 2.1 180 20:39 08.05.2020
3353 Fog 6 993 100 400 2.1 180 20:21 08.05.2020
3354 Fog 6 993 100 400 2.1 230 19:44 08.05.2020
3355 Fog 6 993 100 400 2.1 230 19:24 08.05.2020
3356 Fog 7 994 100 100 2.21 351 18:56 08.05.2020
3357 Fog 7 994 100 100 2.21 351 18:38 08.05.2020
3358 Fog 6 994 93 300 1.5 50 18:18 08.05.2020
3359 Fog 6 994 93 300 1.5 50 17:42 08.05.2020
3360 Rain 6 995 87 10000 1.5 360 17:18 08.05.2020
3361 Rain 6 995 87 10000 1.5 360 16:45 08.05.2020
3362 Rain 6 995 87 10000 1.5 360 16:26 08.05.2020
3363 Clouds 4 995 93 10000 4.1 340 15:57 08.05.2020
3364 Clouds 4 995 93 10000 4.1 340 15:39 08.05.2020
3365 Clouds 4 995 93 10000 4.1 340 15:18 08.05.2020
3366 Rain 5 995 86 10000 4.1 340 14:54 08.05.2020
3367 Rain 5 995 86 10000 4.1 340 14:36 08.05.2020
3368 Rain 5 995 86 10000 4.1 340 14:18 08.05.2020
3369 Rain 6 995 93 10000 3.1 340 13:41 08.05.2020
3370 Rain 6 995 93 10000 3.1 340 13:20 08.05.2020
3371 Rain 6 995 93 10000 2.1 340 12:55 08.05.2020
3372 Rain 6 995 93 10000 2.1 340 12:36 08.05.2020
3373 Rain 6 995 93 10000 2.1 340 12:18 08.05.2020
3374 Clouds 6 995 93 10000 2.6 320 11:43 08.05.2020
3375 Clouds 6 995 93 10000 2.6 320 11:22 08.05.2020
3376 Clouds 6 995 100 10000 2.1 320 10:58 08.05.2020
3377 Clouds 6 995 100 10000 2.1 320 10:40 08.05.2020
3378 Clouds 8 995 81 10000 0.33 323 10:19 08.05.2020
3379 Clouds 8 995 81 10000 0.33 323 09:54 08.05.2020
3380 Clouds 8 995 81 10000 0.33 323 09:36 08.05.2020
3381 Clouds 8 995 87 10000 2.6 50 09:18 08.05.2020
3382 Clouds 8 995 87 10000 2.6 50 08:40 08.05.2020
3383 Clouds 8 995 87 10000 2.6 50 08:21 08.05.2020
3384 Clouds 8 995 87 10000 0.75 302 07:43 08.05.2020
3385 Clouds 8 995 87 10000 1.74 347 07:23 08.05.2020
3386 Rain 8 995 75 10000 1.74 347 06:50 08.05.2020
3387 Rain 8 996 75 10000 4.6 230 06:21 08.05.2020
3388 Rain 9 996 76 10000 1 320 05:41 08.05.2020
3389 Rain 9 996 76 10000 3.6 340 04:30 08.05.2020
3390 Drizzle 9 997 70 10000 7.2 360 02:32 08.05.2020
3391 Drizzle 9 997 70 10000 7.7 360 01:45 08.05.2020
3392 Drizzle 9 997 70 10000 7.7 360 01:23 08.05.2020
3393 Drizzle 8 997 75 10000 9.3 360 00:51 08.05.2020
3394 Rain 8 998 75 10000 8.2 360 00:29 08.05.2020
3395 Clouds 6 998 87 10000 3.6 340 23:58 07.05.2020
3396 Clouds 6 998 87 10000 3.6 340 23:40 07.05.2020
3397 Clouds 6 998 87 10000 3.6 340 23:21 07.05.2020
3398 Clouds 7 999 81 10000 2.6 50 22:55 07.05.2020
3399 Clouds 7 999 81 10000 2.6 50 22:37 07.05.2020
3400 Clouds 7 999 81 10000 2.6 50 22:18 07.05.2020
3401 Clouds 7 1000 87 10000 3.1 70 21:55 07.05.2020
3402 Clouds 7 1000 87 10000 3.1 70 21:36 07.05.2020
3403 Clouds 7 1002 81 10000 4.1 50 21:18 07.05.2020
3404 Clouds 7 1002 81 10000 4.1 50 20:42 07.05.2020
3405 Clouds 7 1002 81 10000 4.1 50 20:22 07.05.2020
3406 Clouds 7 1003 81 10000 2.6 50 19:54 07.05.2020
3407 Clouds 7 1003 81 10000 2.6 50 19:36 07.05.2020
3408 Clouds 7 1004 70 10000 2.1 50 19:18 07.05.2020
3409 Clouds 7 1004 70 10000 2.1 50 18:43 07.05.2020
3410 Clouds 7 1004 70 10000 2.1 50 18:24 07.05.2020
3411 Clouds 6 1005 75 10000 2.6 360 17:43 07.05.2020
3412 Clouds 6 1005 75 10000 2.6 360 17:21 07.05.2020
3413 Clouds 6 1006 75 10000 3.1 340 16:59 07.05.2020
3414 Clouds 6 1006 75 10000 3.1 340 16:40 07.05.2020
3415 Clouds 6 1006 75 10000 3.1 340 16:18 07.05.2020
3416 Clouds 5 1006 86 10000 2.1 340 15:56 07.05.2020
3417 Clouds 5 1006 86 10000 2.1 340 15:37 07.05.2020
3418 Clouds 5 1006 86 10000 2.1 340 15:18 07.05.2020
3419 Clouds 5 1007 86 10000 4.1 320 14:43 07.05.2020
3420 Clouds 5 1007 86 10000 4.1 320 14:20 07.05.2020
3421 Clouds 4 1008 80 0 1.57 349 13:44 07.05.2020
3422 Clouds 5 1007 86 10000 4.1 320 13:25 07.05.2020
3423 Clouds 5 1007 86 10000 4.1 320 12:54 07.05.2020
3424 Clouds 5 1007 86 10000 4.1 320 12:36 07.05.2020
3425 Clouds 5 1007 80 10000 3.1 340 12:18 07.05.2020
3426 Clouds 5 1007 80 10000 3.1 340 11:39 07.05.2020
3427 Clouds 5 1007 80 10000 3.1 340 11:21 07.05.2020
3428 Clouds 5 1007 80 10000 2.02 331 10:43 07.05.2020
3429 Clouds 5 1007 80 10000 1.74 330 10:24 07.05.2020
3430 Clouds 6 1007 75 10000 3.6 320 09:56 07.05.2020
3431 Clouds 6 1007 75 10000 3.6 320 09:38 07.05.2020
3432 Clouds 6 1007 75 10000 3.6 320 09:18 07.05.2020
3433 Clouds 5 1007 86 10000 3.6 320 08:42 07.05.2020
3434 Clouds 5 1007 86 10000 3.6 320 08:22 07.05.2020
3435 Clouds 5 1007 86 10000 4.1 340 07:57 07.05.2020
3436 Clouds 5 1007 86 10000 4.1 340 07:39 07.05.2020
3437 Clouds 5 1007 86 10000 4.1 340 07:18 07.05.2020
3438 Clouds 6 1007 87 10000 0.52 291 06:37 07.05.2020
3439 Clouds 6 1007 81 10000 1 50 05:47 07.05.2020
3440 Drizzle 6 1007 75 10000 1.5 290 04:27 07.05.2020
3441 Drizzle 6 1007 75 10000 1 270 03:29 07.05.2020
3442 Drizzle 6 1006 75 10000 2.6 360 02:59 07.05.2020
3443 Drizzle 6 1006 75 10000 2.6 360 02:24 07.05.2020
3444 Clouds 6 1006 75 10000 2.6 322 01:25 07.05.2020
3445 Clouds 5 1006 75 10000 1.5 180 00:51 07.05.2020
3446 Clouds 5 1006 75 10000 1.5 180 00:31 07.05.2020
3447 Clouds 5 1006 75 10000 3.18 338 23:58 06.05.2020
3448 Clouds 5 1006 75 10000 3.18 338 23:38 06.05.2020
3449 Clouds 5 1006 75 10000 3.47 347 23:19 06.05.2020
3450 Clouds 5 1007 80 10000 3.47 347 22:55 06.05.2020
3451 Clouds 5 1007 80 10000 3.47 347 22:37 06.05.2020
3452 Clouds 5 1007 80 10000 3.47 347 22:37 06.05.2020
3453 Clouds 5 1007 80 10000 3.57 353 22:18 06.05.2020
3454 Clouds 5 1008 80 10000 3.57 353 21:42 06.05.2020
3455 Clouds 5 1008 80 10000 2.58 352 21:22 06.05.2020
3456 Clouds 4 1008 80 10000 1 360 20:57 06.05.2020
3457 Clouds 4 1008 80 10000 1 360 20:38 06.05.2020
3458 Clouds 4 1008 80 10000 1 360 20:20 06.05.2020
3459 Clouds 4 1009 86 10000 1.5 360 19:56 06.05.2020
3460 Clouds 4 1009 86 10000 1.5 360 19:37 06.05.2020
3461 Clouds 4 1009 86 10000 1.5 360 19:18 06.05.2020
3462 Clouds 4 1010 57 10000 2.43 347 18:55 06.05.2020
3463 Clouds 4 1010 57 10000 2.43 347 18:37 06.05.2020
3464 Clouds 4 1010 57 10000 2.76 349 18:18 06.05.2020
3465 Clouds 4 1011 57 10000 2.76 349 17:54 06.05.2020
3466 Clouds 4 1011 57 10000 2.76 349 17:36 06.05.2020
3467 Clouds 4 1011 59 10000 2.98 353 17:18 06.05.2020
3468 Clouds 5 1012 65 10000 1.5 360 16:57 06.05.2020
3469 Clouds 5 1012 65 10000 1.5 360 16:39 06.05.2020
3470 Clouds 5 1012 65 10000 1.5 360 16:19 06.05.2020
3471 Clouds 4 1013 64 10000 2.37 355 15:45 06.05.2020
3472 Clouds 4 1013 64 10000 2.02 357 15:22 06.05.2020
3473 Clouds 3 1013 64 10000 2.02 357 14:56 06.05.2020
3474 Clouds 3 1013 64 10000 2.02 357 14:38 06.05.2020
3475 Clouds 3 1013 64 10000 1.37 8 14:19 06.05.2020
3476 Clouds 2 1015 64 10000 1.68 4 13:57 06.05.2020
3477 Clouds 2 1015 64 10000 1.68 4 13:37 06.05.2020
3478 Clouds 2 1015 64 10000 1.62 354 13:19 06.05.2020
3479 Clouds 2 1016 64 10000 1.62 354 12:42 06.05.2020
3480 Clouds 2 1016 64 10000 1.06 350 12:24 06.05.2020
3481 Clouds 2 1016 64 10000 2.1 320 11:42 06.05.2020
3482 Clouds 2 1016 64 10000 2.1 320 11:23 06.05.2020
3483 Clouds 2 1016 69 10000 2.6 320 10:58 06.05.2020
3484 Clouds 2 1016 69 10000 2.6 320 10:39 06.05.2020
3485 Clouds 2 1016 69 10000 2.6 320 10:19 06.05.2020
3486 Clouds 2 1017 69 10000 2.6 360 09:59 06.05.2020
3487 Clouds 2 1017 69 10000 2.6 360 09:38 06.05.2020
3488 Clouds 2 1017 69 10000 2.6 360 09:20 06.05.2020
3489 Clouds 2 1018 69 10000 3.1 320 08:43 06.05.2020
3490 Clouds 2 1018 69 10000 3.1 320 08:20 06.05.2020
3491 Clouds 4 1018 55 10000 2.1 320 07:56 06.05.2020
3492 Clouds 4 1018 55 10000 2.1 320 07:38 06.05.2020
3493 Clouds 4 1018 55 10000 2.1 320 07:18 06.05.2020
3494 Clouds 4 1018 55 10000 2.6 320 06:46 06.05.2020
3495 Clouds 4 1018 55 10000 2.6 320 06:20 06.05.2020
3496 Clouds 3 1019 93 10000 2.6 340 05:49 06.05.2020
3497 Clouds 3 1019 93 10000 2.6 340 05:31 06.05.2020
3498 Clouds 5 1019 60 10000 1.5 340 03:53 06.05.2020
3499 Clouds 5 1019 60 10000 1.5 340 03:28 06.05.2020
3500 Clouds 4 1019 64 10000 3.1 340 02:54 06.05.2020
3501 Clouds 4 1019 64 10000 3.1 340 02:26 06.05.2020
3502 Clouds 5 1020 60 10000 4.1 270 01:43 06.05.2020
3503 Clouds 5 1020 60 10000 4.1 270 01:25 06.05.2020
3504 Clouds 5 1019 65 10000 1.5 360 00:44 06.05.2020
3505 Clouds 5 1019 65 10000 1.5 360 00:19 06.05.2020
3506 Clouds 6 1019 60 10000 2.6 290 23:42 05.05.2020
3507 Clouds 6 1019 60 10000 2.6 290 23:20 05.05.2020
3508 Clouds 7 1019 68 10000 2.1 250 22:55 05.05.2020
3509 Clouds 7 1019 68 10000 2.1 250 22:37 05.05.2020
3510 Clouds 7 1019 64 10000 2.1 250 22:18 05.05.2020
3511 Clouds 7 1019 56 10000 4.6 230 21:41 05.05.2020
3512 Clouds 7 1019 56 10000 4.6 230 21:41 05.05.2020
3513 Clouds 7 1019 56 10000 4.6 230 21:22 05.05.2020
3514 Clouds 7 1019 59 10000 6.2 230 20:59 05.05.2020
3515 Clouds 7 1019 59 10000 6.2 230 20:40 05.05.2020
3516 Clouds 7 1019 54 10000 6.2 230 20:20 05.05.2020
3517 Clouds 8 1019 61 10000 9.3 230 19:59 05.05.2020
3518 Clouds 8 1019 61 10000 9.3 230 19:39 05.05.2020
3519 Clouds 8 1019 61 10000 9.3 230 19:21 05.05.2020
3520 Clouds 8 1019 52 10000 7.7 230 18:57 05.05.2020
3521 Clouds 8 1019 52 10000 7.7 230 18:38 05.05.2020
3522 Clouds 8 1019 52 10000 7.7 230 18:19 05.05.2020
3523 Clouds 7 1019 52 10000 8.2 230 17:54 05.05.2020
3524 Clouds 7 1019 52 10000 8.2 230 17:36 05.05.2020
3525 Clouds 6 1018 70 10000 9.3 230 17:18 05.05.2020
3526 Clouds 6 1018 70 10000 9.3 230 16:38 05.05.2020
3527 Clouds 6 1018 70 10000 9.3 230 16:20 05.05.2020
3528 Clouds 5 1018 63 10000 12.3 230 15:58 05.05.2020
3529 Clouds 5 1018 63 10000 12.3 230 15:39 05.05.2020
3530 Clouds 5 1018 69 10000 12.3 230 15:20 05.05.2020
3531 Clouds 4 1018 69 10000 10.3 230 14:55 05.05.2020
3532 Clouds 4 1018 69 10000 12.3 230 14:37 05.05.2020
3533 Clouds 4 1018 69 10000 12.3 230 14:18 05.05.2020
3534 Clouds 4 1018 69 10000 12.3 230 13:55 05.05.2020
3535 Clouds 4 1018 69 10000 12.3 230 13:36 05.05.2020
3536 Clouds 4 1018 69 10000 12.3 230 13:18 05.05.2020
3537 Clouds 4 1018 69 10000 12.3 230 13:18 05.05.2020
3538 Clouds 5 1017 65 10000 10.3 230 12:54 05.05.2020
3539 Clouds 5 1017 65 10000 10.3 230 12:36 05.05.2020
3540 Clouds 5 1017 65 10000 10.3 230 12:18 05.05.2020
3541 Clouds 6 1016 60 10000 14.4 230 11:40 05.05.2020
3542 Clouds 6 1016 60 10000 14.4 230 11:19 05.05.2020
3543 Clouds 6 1016 56 10000 12.9 230 10:55 05.05.2020
3544 Clouds 6 1016 56 10000 12.9 230 10:37 05.05.2020
3545 Clouds 6 1016 56 10000 12.9 230 10:18 05.05.2020
3546 Clouds 6 1016 56 10000 12.9 230 09:44 05.05.2020
3547 Clear 6 1016 56 10000 12.9 230 09:26 05.05.2020
3548 Clear 6 1016 56 10000 14.4 230 08:59 05.05.2020
3549 Clear 6 1016 56 10000 14.4 230 08:59 05.05.2020
3550 Clear 6 1016 56 10000 14.4 230 08:39 05.05.2020
3551 Clear 6 1016 56 10000 14.4 230 08:18 05.05.2020
3552 Clear 7 1015 45 10000 12.9 230 07:44 05.05.2020
3553 Clear 7 1015 45 10000 12.9 230 07:22 05.05.2020
3554 Clear 7 1014 56 10000 12.3 230 06:58 05.05.2020
3555 Clear 7 1014 56 10000 12.3 230 06:58 05.05.2020
3556 Clear 7 1014 56 10000 12.3 230 06:39 05.05.2020
3557 Clear 7 1014 56 10000 13.4 230 05:56 05.05.2020
3558 Clear 7 1014 56 10000 13.4 230 05:25 05.05.2020
3559 Clear 7 1013 56 10000 10.3 230 02:46 05.05.2020
3560 Clear 7 1013 80 10000 11.8 203 01:19 05.05.2020
3561 Clear 7 1012 80 10000 10.3 230 00:47 05.05.2020
3562 Clear 7 1011 65 10000 11.8 230 23:56 04.05.2020
3563 Clear 7 1011 65 10000 11.8 230 23:38 04.05.2020
3564 Clear 7 1011 65 10000 11.8 230 23:18 04.05.2020
3565 Clear 8 1011 61 10000 12.3 230 22:54 04.05.2020
3566 Clear 8 1011 61 10000 12.3 230 22:36 04.05.2020
3567 Clear 8 1011 61 10000 10.8 230 22:18 04.05.2020
3568 Clear 8 1011 61 10000 10.8 230 22:18 04.05.2020
3569 Clear 8 1011 61 10000 10.8 230 21:43 04.05.2020
3570 Clear 8 1011 61 10000 10.8 230 21:43 04.05.2020
3571 Clouds 8 1011 61 10000 10.8 230 21:22 04.05.2020
3572 Clouds 8 1011 61 10000 10.8 230 21:22 04.05.2020
3573 Clear 8 1011 61 10000 10.8 230 21:22 04.05.2020
3574 Clouds 8 1011 61 10000 11.8 230 20:43 04.05.2020
3575 Clouds 8 1011 61 10000 11.8 230 20:42 04.05.2020
3576 Clouds 8 1011 61 10000 11.8 230 20:21 04.05.2020
3577 Clouds 8 1011 61 10000 11.8 230 20:21 04.05.2020
3578 Clouds 6 1011 69 10000 10.3 230 19:58 04.05.2020
3579 Clouds 6 1011 69 10000 10.3 230 19:40 04.05.2020
3580 Clouds 6 1011 69 10000 10.3 230 19:40 04.05.2020
3581 Clouds 6 1011 70 10000 10.3 230 19:19 04.05.2020
3582 Clouds 5 1012 68 10000 9.3 230 18:39 04.05.2020
3583 Clouds 5 1012 71 10000 9.3 230 18:21 04.05.2020
3584 Clouds 5 1012 71 10000 7.7 230 17:58 04.05.2020
3585 Clouds 5 1012 72 10000 7.7 230 17:40 04.05.2020
3586 Clouds 5 1012 74 10000 7.7 230 17:21 04.05.2020
3587 Clouds 6 1012 70 10000 8.2 230 16:59 04.05.2020
3588 Clouds 6 1012 70 10000 8.2 230 16:41 04.05.2020
3589 Clouds 6 1012 70 10000 8.2 230 16:20 04.05.2020
3590 Clouds 6 1012 70 10000 8.2 230 16:19 04.05.2020
3591 Clouds 6 1013 70 10000 8.2 230 15:43 04.05.2020
3592 Clouds 6 1013 70 10000 8.2 230 15:24 04.05.2020
3593 Clouds 5 1012 75 10000 8.7 230 14:54 04.05.2020
3594 Clouds 5 1012 75 10000 8.7 230 14:54 04.05.2020
3595 Clouds 5 1012 75 10000 8.7 230 14:31 04.05.2020
3596 Clouds 5 1012 75 10000 8.7 230 14:31 04.05.2020
3597 Clouds 5 1012 75 10000 8.7 230 14:31 04.05.2020
3598 Clouds 5 1012 75 10000 8.7 230 14:31 04.05.2020
3599 Clouds 4 1012 81 10000 8.2 230 13:40 04.05.2020
3600 Clouds 4 1012 81 10000 8.2 230 13:40 04.05.2020
3601 Clouds 4 1012 81 10000 8.2 230 13:40 04.05.2020
3602 Clouds 4 1012 81 10000 8.2 230 13:40 04.05.2020
3603 Clouds 4 1012 81 10000 8.2 230 13:40 04.05.2020
3604 Clouds 2 1012 81 0 1.16 235 12:45 04.05.2020
3605 Clouds 2 1012 81 0 1.16 235 12:45 04.05.2020
3606 Clouds 4 1011 81 10000 9.3 230 11:29 04.05.2020
3607 Clouds 4 1011 81 10000 9.3 230 11:29 04.05.2020
3608 Clouds 4 1011 69 10000 7.2 230 09:32 04.05.2020
3609 Clouds 4 1011 69 10000 7.2 230 09:32 04.05.2020
3610 Clouds 4 1011 69 10000 7.2 230 09:32 04.05.2020
3611 Clouds 4 1011 69 10000 7.2 230 09:32 04.05.2020
3612 Clouds 4 1011 64 10000 8.7 230 07:59 04.05.2020
3613 Clouds 4 1011 64 10000 8.7 230 07:40 04.05.2020
3614 Clouds 4 1011 69 10000 6.7 230 06:31 04.05.2020
3615 Clouds 4 1011 69 10000 6.7 230 06:31 04.05.2020
3616 Clouds 4 1011 69 10000 6.7 230 06:31 04.05.2020
3617 Clouds 4 1011 69 10000 6.7 230 06:31 04.05.2020
3618 Clouds 4 1011 69 10000 6.7 230 06:31 04.05.2020
3619 Clouds 4 1011 69 10000 7.2 270 04:53 04.05.2020
3620 Clouds 4 1011 69 10000 5.1 250 03:18 04.05.2020
3621 Clouds 4 1011 69 10000 5.1 250 02:30 04.05.2020
3622 Clouds 4 1010 64 10000 2.6 270 00:36 04.05.2020
3623 Clouds 4 1010 64 10000 2.6 270 00:36 04.05.2020
3624 Clouds 4 1010 69 10000 1.5 270 23:45 03.05.2020
3625 Clouds 4 1010 69 10000 1.5 270 23:24 03.05.2020
3626 Clouds 5 1009 65 10000 1.5 360 22:45 03.05.2020
3627 Clouds 5 1009 65 10000 1.5 360 22:25 03.05.2020
3628 Clouds 5 1009 73 10000 1.5 320 21:58 03.05.2020
3629 Clouds 5 1009 73 10000 1.5 320 21:40 03.05.2020
3630 Clouds 5 1009 72 10000 1.5 320 21:20 03.05.2020
3631 Clouds 5 1009 65 10000 1.5 360 20:46 03.05.2020
3632 Clouds 5 1009 65 10000 1.5 360 20:22 03.05.2020
3633 Clouds 6 1009 60 10000 2.6 90 19:51 03.05.2020
3634 Clouds 6 1009 60 10000 2.6 90 19:51 03.05.2020
3635 Clouds 6 1009 60 10000 2.6 90 19:32 03.05.2020
3636 Clouds 6 1009 56 10000 4.1 90 19:00 03.05.2020
3637 Clouds 6 1009 56 10000 4.1 90 18:38 03.05.2020
3638 Clouds 6 1009 56 10000 4.1 90 18:38 03.05.2020
3639 Clouds 6 1009 56 10000 4.1 90 18:19 03.05.2020
3640 Rain 5 1009 86 10000 6.2 140 17:42 03.05.2020
3641 Rain 5 1009 86 10000 6.2 140 17:42 03.05.2020
3642 Rain 5 1009 86 10000 6.2 140 17:22 03.05.2020
3643 Rain 5 1009 86 10000 6.2 140 17:22 03.05.2020
3644 Rain 5 1009 86 10000 6.2 140 17:22 03.05.2020
3645 Clouds 6 1009 93 10000 8.7 140 16:54 03.05.2020
3646 Clouds 6 1009 93 10000 8.7 140 16:36 03.05.2020
3647 Clouds 6 1008 93 10000 8.7 140 16:18 03.05.2020
3648 Clouds 6 1008 93 10000 8.7 140 15:54 03.05.2020
3649 Clouds 6 1008 93 10000 8.7 140 15:36 03.05.2020
3650 Clouds 6 1008 93 10000 8.7 140 15:36 03.05.2020
3651 Clouds 6 1008 93 10000 8.7 140 15:36 03.05.2020
3652 Clouds 6 1008 93 10000 8.7 140 15:18 03.05.2020
3653 Clouds 6 1007 93 10000 6.2 140 14:41 03.05.2020
3654 Clouds 6 1007 93 10000 6.2 140 14:22 03.05.2020
3655 Clouds 6 1007 93 10000 6.2 140 14:22 03.05.2020
3656 Rain 5 1007 85 0 3.76 182 13:56 03.05.2020
3657 Rain 5 1007 85 0 3.76 182 13:56 03.05.2020
3658 Clouds 6 1006 87 10000 7.7 140 13:33 03.05.2020
3659 Clouds 6 1006 87 10000 7.7 140 13:33 03.05.2020
3660 Clouds 6 1006 87 10000 7.7 140 13:33 03.05.2020
3661 Clouds 6 1006 87 10000 7.7 140 13:33 03.05.2020
3662 Clouds 6 1006 87 10000 7.7 140 13:33 03.05.2020
3663 Clouds 6 1006 87 10000 7.7 140 12:47 03.05.2020
3664 Clouds 6 1006 87 10000 7.7 140 12:20 03.05.2020
3665 Drizzle 6 1006 87 10000 5.1 140 11:57 03.05.2020
3666 Drizzle 6 1006 87 10000 5.1 140 11:57 03.05.2020
3667 Drizzle 6 1006 87 10000 5.1 140 11:57 03.05.2020
3668 Drizzle 6 1006 87 10000 5.1 140 11:57 03.05.2020
3669 Drizzle 6 1006 87 10000 5.1 140 11:39 03.05.2020
3670 Drizzle 6 1006 87 10000 5.1 140 11:39 03.05.2020
3671 Drizzle 6 1006 87 10000 5.1 140 11:19 03.05.2020
3672 Clouds 6 1005 87 10000 5.7 140 10:49 03.05.2020
3673 Clouds 6 1005 87 10000 5.7 140 10:49 03.05.2020
3674 Clouds 6 1005 87 10000 5.7 140 10:49 03.05.2020
3675 Clouds 6 1005 87 10000 5.7 140 10:01 03.05.2020
3676 Clouds 6 1005 87 10000 5.7 140 10:01 03.05.2020
3677 Clouds 6 1005 87 10000 5.7 140 10:01 03.05.2020
3678 Clouds 6 1005 87 10000 5.7 140 10:01 03.05.2020
3679 Clouds 6 1005 87 10000 5.7 140 10:01 03.05.2020
3680 Clouds 6 1005 87 10000 5.7 140 09:39 03.05.2020
3681 Clouds 7 1005 81 10000 5.7 140 08:57 03.05.2020
3682 Clouds 7 1005 81 10000 5.7 140 08:57 03.05.2020
3683 Clouds 7 1005 81 10000 5.7 140 08:57 03.05.2020
3684 Clouds 7 1005 81 10000 5.7 140 08:27 03.05.2020
3685 Clouds 7 1005 81 10000 6.7 140 07:40 03.05.2020
3686 Clouds 7 1005 81 10000 6.7 140 07:40 03.05.2020
3687 Clouds 7 1005 81 10000 6.7 140 06:31 03.05.2020
3688 Clouds 7 1005 81 10000 6.7 140 06:30 03.05.2020
3689 Drizzle 6 1005 81 10000 3.6 180 05:49 03.05.2020
3690 Rain 6 1004 75 10000 5.1 270 05:29 03.05.2020
3691 Rain 6 1004 75 10000 5.1 270 04:27 03.05.2020
3692 Rain 6 1004 75 10000 5.1 270 04:27 03.05.2020
3693 Clouds 6 1004 75 10000 4.6 230 03:30 03.05.2020
3694 Clear 6 1004 75 10000 7.2 230 02:30 03.05.2020
3695 Clouds 7 1003 75 10000 5.1 230 01:48 03.05.2020
3696 Clouds 7 1003 75 10000 5.1 230 01:27 03.05.2020
3697 Clear 9 1003 76 10000 4.6 230 00:57 03.05.2020
3698 Clear 9 1003 76 10000 4.6 230 00:57 03.05.2020
3699 Clear 9 1003 76 10000 4.6 230 00:38 03.05.2020
3700 Clear 9 1003 76 10000 4.6 230 00:19 03.05.2020
3701 Clouds 10 1004 71 10000 1.39 198 23:44 02.05.2020
3702 Clouds 10 1004 71 10000 0.61 205 23:26 02.05.2020
3703 Clouds 10 1004 76 10000 0.61 205 22:56 02.05.2020
3704 Clouds 10 1004 76 10000 0.61 205 22:37 02.05.2020
3705 Clouds 10 1004 76 10000 1.04 189 22:18 02.05.2020
3706 Clouds 10 1004 81 10000 1.04 189 21:40 02.05.2020
3707 Clouds 10 1004 81 10000 1.04 187 21:19 02.05.2020
3708 Clouds 9 1004 81 10000 1.04 187 20:57 02.05.2020
3709 Clouds 9 1004 81 10000 1.04 187 20:38 02.05.2020
3710 Clouds 9 1004 81 10000 1.42 187 20:19 02.05.2020
3711 Clouds 9 1004 87 10000 1.42 187 19:57 02.05.2020
3712 Clouds 9 1004 87 10000 1.42 187 19:39 02.05.2020
3713 Clouds 9 1004 87 10000 1.08 172 19:20 02.05.2020
3714 Clouds 9 1004 87 10000 1.08 172 19:20 02.05.2020
3715 Clouds 9 1005 87 10000 1.08 172 18:56 02.05.2020
3716 Clouds 9 1005 87 10000 1.08 172 18:37 02.05.2020
3717 Clouds 9 1005 87 10000 0.26 187 18:19 02.05.2020
3718 Rain 9 1006 87 10000 1.5 180 17:55 02.05.2020
3719 Rain 9 1006 87 10000 1.5 180 17:37 02.05.2020
3720 Rain 9 1006 87 10000 1.5 180 17:19 02.05.2020
3721 Rain 8 1006 70 10000 1 250 16:43 02.05.2020
3722 Rain 8 1006 70 10000 1 250 16:43 02.05.2020
3723 Rain 8 1006 70 10000 1 250 16:25 02.05.2020
3724 Rain 8 1006 75 10000 1 290 15:55 02.05.2020
3725 Rain 8 1006 75 10000 1 290 15:36 02.05.2020
3726 Rain 7 1007 87 10000 2.6 230 15:18 02.05.2020
3727 Rain 7 1007 87 10000 2.6 230 14:41 02.05.2020
3728 Rain 7 1007 87 10000 2.6 230 14:22 02.05.2020
3729 Rain 9 1007 70 10000 2.6 340 13:55 02.05.2020
3730 Rain 9 1007 70 10000 2.6 340 13:37 02.05.2020
3731 Drizzle 9 1008 66 8000 2.1 290 13:18 02.05.2020
3732 Drizzle 9 1008 66 8000 2.1 290 13:18 02.05.2020
3733 Drizzle 9 1008 66 8000 2.1 290 12:40 02.05.2020
3734 Drizzle 9 1008 66 8000 2.1 290 12:20 02.05.2020
3735 Drizzle 9 1009 61 10000 5.1 20 11:55 02.05.2020
3736 Drizzle 9 1009 61 10000 5.1 20 11:37 02.05.2020
3737 Drizzle 9 1009 61 10000 5.1 20 11:18 02.05.2020
3738 Clouds 10 1010 46 10000 4.6 340 10:40 02.05.2020
3739 Clouds 10 1010 46 10000 4.6 340 10:22 02.05.2020
3740 Clouds 10 1010 80 10000 7.7 340 09:58 02.05.2020
3741 Clouds 10 1010 80 10000 7.7 340 09:39 02.05.2020
3742 Clouds 10 1010 78 10000 7.7 340 09:21 02.05.2020
3743 Clouds 11 1011 50 10000 5.7 360 08:51 02.05.2020
3744 Clouds 11 1011 50 10000 5.7 360 08:31 02.05.2020
3745 Clouds 10 1012 53 10000 4.6 360 07:49 02.05.2020
3746 Clouds 10 1012 53 10000 4.6 360 07:30 02.05.2020
3747 Clouds 9 1013 57 10000 5.7 360 06:54 02.05.2020
3748 Clouds 9 1013 57 10000 5.7 360 06:23 02.05.2020
3749 Clouds 7 1015 75 10000 2.1 270 05:27 02.05.2020
3750 Clouds 7 1015 70 10000 1.5 360 04:26 02.05.2020
3751 Clouds 7 1016 70 10000 4.49 0 03:38 02.05.2020
3752 Clouds 7 1017 70 10000 6.2 360 02:40 02.05.2020
3753 Clouds 7 1018 70 10000 6.7 360 01:52 02.05.2020
3754 Clouds 7 1018 70 10000 6.7 360 01:18 02.05.2020
3755 Clouds 7 1018 70 10000 7.2 360 00:42 02.05.2020
3756 Clouds 7 1018 70 10000 7.2 360 00:20 02.05.2020
3757 Clouds 7 1019 70 10000 6.7 360 23:40 01.05.2020
3758 Clouds 7 1019 70 10000 6.7 360 23:21 01.05.2020
3759 Clouds 6 1020 87 10000 2.6 90 22:58 01.05.2020
3760 Clouds 6 1020 87 10000 2.6 90 22:38 01.05.2020
3761 Clouds 6 1020 87 10000 2.6 90 22:38 01.05.2020
3762 Clouds 6 1020 87 10000 2.6 90 22:19 01.05.2020
3763 Clouds 7 1020 81 10000 2.6 360 21:57 01.05.2020
3764 Clouds 7 1020 81 10000 2.6 360 21:39 01.05.2020
3765 Clouds 7 1020 81 10000 2.6 360 21:19 01.05.2020
3766 Clouds 7 1020 81 10000 5.1 90 20:57 01.05.2020
3767 Clouds 7 1020 81 10000 5.1 90 20:38 01.05.2020
3768 Clouds 7 1020 81 10000 5.1 90 20:19 01.05.2020
3769 Clouds 5 1021 80 10000 5.1 90 19:55 01.05.2020
3770 Clouds 5 1021 80 10000 5.1 90 19:37 01.05.2020
3771 Clouds 5 1021 80 10000 5.1 90 19:19 01.05.2020
3772 Clouds 5 1022 86 10000 5.1 90 18:55 01.05.2020
3773 Clouds 5 1022 86 10000 5.1 90 18:36 01.05.2020
3774 Rain 5 1022 86 10000 4.1 50 18:18 01.05.2020
3775 Rain 5 1022 86 10000 4.1 50 17:40 01.05.2020
3776 Rain 5 1022 86 10000 4.1 50 17:21 01.05.2020
3777 Rain 4 1023 93 10000 3.1 50 16:57 01.05.2020
3778 Rain 4 1023 93 10000 3.1 50 16:39 01.05.2020
3779 Rain 4 1023 93 10000 3.1 50 16:20 01.05.2020
3780 Rain 4 1023 93 10000 4.1 70 15:57 01.05.2020
3781 Rain 4 1023 93 10000 4.1 70 15:39 01.05.2020
3782 Rain 4 1023 93 10000 4.1 70 15:19 01.05.2020
3783 Rain 4 1022 86 10000 4.1 70 14:43 01.05.2020
3784 Rain 4 1022 86 10000 4.1 70 14:24 01.05.2020
3785 Drizzle 4 1021 80 8000 2.6 70 13:55 01.05.2020
3786 Drizzle 4 1021 80 8000 2.6 70 13:36 01.05.2020
3787 Drizzle 4 1021 80 8000 2.6 70 13:18 01.05.2020
3788 Rain 4 1021 93 8000 2.6 110 12:54 01.05.2020
3789 Rain 4 1021 93 8000 2.6 110 12:36 01.05.2020
3790 Rain 4 1021 86 10000 2.1 50 12:18 01.05.2020
3791 Rain 4 1021 86 10000 2.1 50 11:41 01.05.2020
3792 Rain 4 1021 86 10000 2.1 50 11:21 01.05.2020
3793 Rain 4 1021 86 10000 2.1 50 11:21 01.05.2020
3794 Rain 4 1020 86 10000 2.6 110 10:56 01.05.2020
3795 Rain 4 1020 86 10000 2.6 110 10:37 01.05.2020
3796 Clouds 5 1020 80 10000 2.6 140 10:19 01.05.2020
3797 Clouds 5 1020 80 10000 2.6 140 09:43 01.05.2020
3798 Clouds 5 1020 80 10000 2.6 140 09:19 01.05.2020
3799 Clouds 5 1020 80 10000 4.6 200 08:54 01.05.2020
3800 Clouds 5 1020 80 10000 4.6 200 08:36 01.05.2020
3801 Clouds 5 1019 75 10000 4.6 250 08:18 01.05.2020
3802 Clouds 5 1019 75 10000 4.6 250 07:41 01.05.2020
3803 Clouds 5 1019 75 10000 4.6 250 07:21 01.05.2020
3804 Clouds 5 1019 75 10000 4.6 250 07:21 01.05.2020
3805 Rain 5 1018 75 10000 5.7 250 06:39 01.05.2020
3806 Clouds 4 1017 86 10000 8.7 230 05:26 01.05.2020
3807 Clouds 4 1017 93 10000 8.2 230 04:20 01.05.2020
3808 Rain 5 1015 80 10000 12.3 230 02:59 01.05.2020
3809 Rain 5 1015 80 10000 12.3 230 02:40 01.05.2020
3810 Drizzle 6 1014 81 10000 11.8 230 01:58 01.05.2020
3811 Drizzle 6 1014 81 10000 11.8 230 01:28 01.05.2020
3812 Drizzle 7 1012 75 10000 12.9 230 00:41 01.05.2020
3813 Drizzle 7 1012 75 10000 12.9 230 00:22 01.05.2020
3814 Drizzle 7 1011 81 10000 14.4 230 23:58 30.04.2020
3815 Drizzle 7 1011 81 10000 14.4 230 23:39 30.04.2020
3816 Drizzle 7 1011 81 10000 14.4 230 23:21 30.04.2020
3817 Drizzle 8 1009 75 10000 15.4 230 22:59 30.04.2020
3818 Drizzle 8 1009 75 10000 15.4 230 22:40 30.04.2020
3819 Drizzle 8 1009 75 10000 15.4 230 22:19 30.04.2020
3820 Clouds 9 1008 70 10000 11.8 230 21:55 30.04.2020
3821 Clouds 9 1008 70 10000 11.8 230 21:37 30.04.2020
3822 Clouds 9 1008 70 10000 11.8 230 21:18 30.04.2020
3823 Clouds 10 1008 76 10000 10.3 230 20:41 30.04.2020
3824 Clouds 10 1008 76 10000 10.3 230 20:19 30.04.2020
3825 Clouds 9 1008 81 10000 6.7 230 19:58 30.04.2020
3826 Clouds 9 1008 81 10000 6.7 230 19:38 30.04.2020
3827 Clouds 8 1008 81 10000 1.13 230 19:18 30.04.2020
3828 Clouds 8 1008 81 10000 1.13 230 18:40 30.04.2020
3829 Clouds 8 1008 81 10000 1.38 259 18:21 30.04.2020
3830 Clouds 6 1007 93 10000 1.5 230 17:59 30.04.2020
3831 Clouds 6 1007 93 10000 1.5 230 17:40 30.04.2020
3832 Clouds 6 1007 93 10000 1.5 230 17:22 30.04.2020
3833 Clouds 5 1007 93 10000 3.6 360 16:58 30.04.2020
3834 Clouds 5 1007 93 10000 3.6 360 16:40 30.04.2020
3835 Clouds 5 1007 93 10000 3.6 360 16:19 30.04.2020
3836 Clouds 5 1006 86 10000 1.5 140 15:54 30.04.2020
3837 Clouds 5 1006 86 10000 1.5 140 15:36 30.04.2020
3838 Clouds 4 1006 93 10000 1.5 320 15:18 30.04.2020
3839 Clouds 4 1006 93 10000 1.5 320 14:40 30.04.2020
3840 Clouds 4 1006 93 10000 1.5 320 14:19 30.04.2020
3841 Clouds 5 1005 86 10000 2.95 337 13:56 30.04.2020
3842 Clouds 5 1005 86 10000 2.95 337 13:38 30.04.2020
3843 Clouds 5 1005 86 10000 2.57 336 13:20 30.04.2020
3844 Clouds 4 1006 80 0 2.57 336 12:41 30.04.2020
3845 Clouds 6 1004 81 10000 2.71 336 12:21 30.04.2020
3846 Clouds 6 1004 81 10000 2.71 336 11:59 30.04.2020
3847 Clouds 6 1004 81 10000 2.71 336 11:37 30.04.2020
3848 Clouds 6 1004 81 10000 2.78 344 11:18 30.04.2020
3849 Clouds 6 1005 81 10000 2.78 344 10:54 30.04.2020
3850 Clouds 6 1005 81 10000 2.78 344 10:36 30.04.2020
3851 Clouds 7 1004 75 10000 2.36 330 10:18 30.04.2020
3852 Clouds 7 1004 75 10000 2.36 330 09:41 30.04.2020
3853 Clouds 7 1004 75 10000 1.7 323 09:22 30.04.2020
3854 Clouds 7 1004 81 10000 3.1 340 08:49 30.04.2020
3855 Clouds 7 1004 81 10000 3.1 340 08:27 30.04.2020
3856 Clouds 7 1004 87 10000 1.37 311 07:59 30.04.2020
3857 Clouds 7 1004 87 10000 1.37 311 07:40 30.04.2020
3858 Clouds 7 1004 87 10000 1.51 321 07:22 30.04.2020
3859 Clouds 7 1004 87 10000 1.51 321 06:39 30.04.2020
3860 Drizzle 7 1004 81 10000 1.63 330 05:49 30.04.2020
3861 Drizzle 7 1004 81 10000 1.76 337 05:27 30.04.2020
3862 Drizzle 8 1004 65 10000 1.76 337 04:29 30.04.2020
3863 Clouds 8 1004 65 10000 2.6 230 02:57 30.04.2020
3864 Clouds 8 1004 65 10000 2.6 230 02:57 30.04.2020
3865 Clouds 8 1004 65 10000 2.6 230 02:29 30.04.2020
3866 Clouds 9 1004 61 10000 4.6 270 01:56 30.04.2020
3867 Clouds 9 1004 61 10000 4.6 270 01:20 30.04.2020
3868 Clouds 10 1004 57 10000 4.1 230 00:37 30.04.2020
3869 Clouds 12 1004 46 10000 5.1 360 00:18 30.04.2020
3870 Clouds 12 1004 46 10000 5.1 360 23:42 29.04.2020
3871 Clouds 12 1004 46 10000 5.1 360 23:24 29.04.2020
3872 -273 0 0 0 0 0 22:59 29.04.2020
3873 Clouds 12 1004 46 10000 9.3 360 22:39 29.04.2020
3874 Clouds 12 1004 46 10000 9.3 360 22:20 29.04.2020
3875 Clouds 11 1004 50 10000 10.3 360 21:39 29.04.2020
3876 Clouds 11 1004 50 10000 10.3 360 21:21 29.04.2020
3877 Clouds 8 1004 70 10000 8.7 360 20:59 29.04.2020
3878 Clouds 8 1004 70 10000 8.7 360 20:59 29.04.2020
3879 Clouds 8 1004 70 10000 8.7 360 20:40 29.04.2020
3880 Clouds 8 1004 70 10000 8.7 360 20:19 29.04.2020
3881 Clouds 8 1005 65 10000 4.53 1 19:57 29.04.2020
3882 Clouds 8 1005 65 10000 4.53 1 19:39 29.04.2020
3883 Clouds 8 1005 65 10000 4.44 356 19:18 29.04.2020
3884 Clouds 8 1006 65 10000 4.44 356 18:42 29.04.2020
3885 Clouds 8 1006 65 10000 4.44 356 18:42 29.04.2020
3886 Clouds 8 1006 65 10000 4.24 354 18:22 29.04.2020
3887 Clouds 7 1007 70 10000 6.2 340 17:56 29.04.2020
3888 Clouds 7 1007 70 10000 6.2 340 17:38 29.04.2020
3889 Clouds 7 1007 70 10000 6.2 340 17:20 29.04.2020
3890 Clouds 6 1007 75 10000 2.1 360 16:38 29.04.2020
3891 Clouds 6 1007 75 10000 2.1 360 16:19 29.04.2020
3892 Clouds 5 1008 77 0 3.68 354 15:57 29.04.2020
3893 Clouds 5 1008 77 0 3.68 354 15:39 29.04.2020
3894 Clouds 5 1009 80 10000 3.59 348 15:20 29.04.2020
3895 Clouds 5 1009 80 10000 3.59 348 14:56 29.04.2020
3896 Clouds 5 1009 80 10000 3.59 348 14:38 29.04.2020
3897 Clear 4 1009 86 10000 4.1 50 14:18 29.04.2020
3898 Clear 4 1009 86 10000 4.1 50 13:42 29.04.2020
3899 Clear 4 1009 86 10000 4.1 50 13:20 29.04.2020
3900 Clear 4 1011 80 10000 4.6 320 12:57 29.04.2020
3901 Clear 4 1011 80 10000 4.6 320 12:39 29.04.2020
3902 Clear 4 1011 80 10000 4.6 320 12:18 29.04.2020
3903 Clear 4 1011 80 10000 3.18 356 11:40 29.04.2020
3904 Clear 4 1011 80 10000 3.42 353 11:21 29.04.2020
3905 Clear 4 1011 80 10000 2.6 250 10:58 29.04.2020
3906 Clear 4 1011 80 10000 2.6 250 10:37 29.04.2020
3907 Clear 5 1011 80 10000 3.46 352 10:19 29.04.2020
3908 Clear 5 1011 80 10000 3.46 352 09:42 29.04.2020
3909 Clear 5 1011 80 10000 3.42 358 09:23 29.04.2020
3910 Clear 5 1011 80 10000 3.42 358 08:56 29.04.2020
3911 Clear 5 1011 80 10000 3.42 358 08:56 29.04.2020
3912 Clear 5 1011 80 10000 3.42 358 08:37 29.04.2020
3913 Clouds 5 1011 80 10000 3.41 7 08:19 29.04.2020
3914 Clouds 4 1012 86 10000 2.1 250 07:41 29.04.2020
3915 Clouds 4 1012 86 10000 2.1 250 07:23 29.04.2020
3916 Clouds 4 1013 86 10000 2.68 5 06:50 29.04.2020
3917 Clouds 4 1013 86 10000 2.68 5 06:30 29.04.2020
3918 Clouds 4 1013 86 10000 2.19 352 05:21 29.04.2020
3919 Clouds 4 1013 86 10000 2.19 352 04:45 29.04.2020
3920 Clouds 4 1013 86 10000 2.23 351 04:18 29.04.2020
3921 Clouds 5 1014 75 10000 2.2 356 02:43 29.04.2020
3922 Clouds 5 1015 86 10000 2.15 355 01:44 29.04.2020
3923 Clouds 5 1015 86 10000 1.78 359 01:26 29.04.2020
3924 Clouds 6 1014 80 0 1.78 359 00:42 29.04.2020
3925 Clouds 6 1015 75 10000 1.25 354 00:20 29.04.2020
3926 Clouds 6 1015 75 10000 1.25 354 23:51 28.04.2020
3927 Clouds 6 1015 75 10000 1.13 353 23:24 28.04.2020
3928 Clouds 7 1015 70 10000 1.13 353 22:58 28.04.2020
3929 Clouds 7 1015 70 10000 1.13 353 22:37 28.04.2020
3930 Clouds 7 1015 70 10000 1.31 356 22:18 28.04.2020
3931 Clouds 7 1015 70 10000 1.31 356 21:57 28.04.2020
3932 Clouds 7 1015 70 10000 1.31 356 21:38 28.04.2020
3933 Clouds 7 1015 70 10000 1.13 348 21:20 28.04.2020
3934 Clouds 7 1015 75 10000 1.13 348 20:55 28.04.2020
3935 Clouds 7 1015 75 10000 1.13 348 20:37 28.04.2020
3936 Clouds 7 1015 75 10000 0.94 343 20:19 28.04.2020
3937 Clouds 6 1016 81 10000 1.5 50 19:43 28.04.2020
3938 Clouds 6 1016 81 10000 1.5 50 19:43 28.04.2020
3939 Clouds 6 1016 81 10000 1.5 50 19:22 28.04.2020
3940 Clouds 6 1016 75 10000 1.5 360 18:59 28.04.2020
3941 Clouds 6 1016 75 10000 1.5 360 18:41 28.04.2020
3942 Clouds 6 1016 75 10000 1.5 360 18:41 28.04.2020
3943 Clouds 6 1016 75 10000 1.5 360 18:20 28.04.2020
3944 Clouds 5 1016 80 10000 2.1 360 17:58 28.04.2020
3945 Clouds 5 1016 80 10000 2.1 360 17:37 28.04.2020
3946 Clouds 5 1016 80 10000 2.1 360 17:18 28.04.2020
3947 Clouds 6 1016 56 10000 3.6 340 16:54 28.04.2020
3948 Clouds 6 1016 56 10000 3.6 340 16:36 28.04.2020
3949 Clouds 6 1016 56 10000 3.6 340 16:18 28.04.2020
3950 Clouds 5 1015 60 10000 4.6 340 15:54 28.04.2020
3951 Clouds 5 1015 60 10000 4.6 340 15:36 28.04.2020
3952 Clouds 5 1015 78 10000 4.6 320 15:18 28.04.2020
3953 Clouds 5 1015 78 10000 4.6 320 14:41 28.04.2020
3954 Clouds 5 1015 79 10000 4.6 320 14:22 28.04.2020
3955 Clouds 4 1014 79 10000 3.6 290 13:59 28.04.2020
3956 Clouds 4 1014 79 10000 3.6 290 13:39 28.04.2020
3957 Clouds 4 1014 80 10000 3.6 290 13:21 28.04.2020
3958 Clouds 4 1014 80 10000 3.1 290 12:57 28.04.2020
3959 Clouds 4 1014 80 10000 3.1 290 12:37 28.04.2020
3960 Clouds 4 1014 81 10000 3.1 290 12:19 28.04.2020
3961 Clouds 4 1014 81 10000 4.1 270 11:40 28.04.2020
3962 Clouds 4 1014 82 10000 4.1 270 11:20 28.04.2020
3963 Clouds 4 1014 80 10000 5.1 271 10:55 28.04.2020
3964 Clouds 4 1014 80 10000 5.1 271 10:37 28.04.2020
3965 Clouds 5 1014 75 10000 4.1 270 10:18 28.04.2020
3966 Clouds 5 1014 75 10000 4.1 270 09:42 28.04.2020
3967 Clouds 5 1014 75 10000 4.1 270 09:24 28.04.2020
3968 Clouds 5 1013 75 10000 6.2 270 08:49 28.04.2020
3969 Clouds 5 1013 75 10000 6.2 270 08:30 28.04.2020
3970 Clouds 5 1013 75 10000 5.1 250 07:58 28.04.2020
3971 Clouds 5 1013 75 10000 5.1 250 07:39 28.04.2020
3972 Clouds 5 1013 80 10000 5.7 230 07:18 28.04.2020
3973 Clouds 5 1013 80 10000 5.7 230 06:31 28.04.2020
3974 Clouds 5 1012 86 10000 4.1 270 05:47 28.04.2020
3975 Clouds 5 1012 86 10000 4.1 270 05:29 28.04.2020
3976 Clouds 6 1012 81 10000 5.1 270 04:33 28.04.2020
3977 Clouds 7 1012 75 10000 8.2 230 02:37 28.04.2020
3978 Clouds 7 1011 75 10000 9.8 230 01:27 28.04.2020
3979 Clouds 7 1010 75 10000 11.3 230 00:59 28.04.2020
3980 Clouds 7 1010 75 10000 11.3 230 00:29 28.04.2020
3981 Clouds 8 1009 70 10000 11.8 230 23:48 27.04.2020
3982 Clouds 8 1009 70 10000 11.8 230 23:25 27.04.2020
3983 Clouds 9 1009 66 10000 8.2 230 22:58 27.04.2020
3984 Clouds 9 1009 66 10000 8.2 230 22:40 27.04.2020
3985 Clouds 9 1009 66 10000 8.2 230 22:22 27.04.2020
3986 Clouds 10 1010 66 10000 3.1 360 21:57 27.04.2020
3987 Clouds 10 1010 66 10000 3.1 360 21:38 27.04.2020
3988 Clouds 10 1010 66 10000 3.1 360 21:18 27.04.2020
3989 Clouds 10 1010 66 10000 0.54 189 20:55 27.04.2020
3990 Clouds 10 1010 66 10000 0.54 189 20:37 27.04.2020
3991 Clouds 8 1010 75 10000 0.59 209 20:19 27.04.2020
3992 Clouds 8 1010 75 10000 0.59 209 19:40 27.04.2020
3993 Clouds 8 1010 75 10000 0.66 197 19:22 27.04.2020
3994 Clouds 8 1010 75 10000 0.66 197 18:59 27.04.2020
3995 Clouds 8 1010 75 10000 0.66 197 18:40 27.04.2020
3996 Clouds 8 1010 75 10000 0.7 198 18:19 27.04.2020
3997 Clouds 8 1010 75 10000 0.7 198 18:19 27.04.2020
3998 Clouds 8 1011 70 10000 1.5 360 17:58 27.04.2020
3999 Clouds 8 1011 70 10000 1.5 360 17:39 27.04.2020
4000 Clouds 8 1011 70 10000 1.5 360 17:19 27.04.2020
4001 Clouds 7 1011 81 10000 2.1 360 16:40 27.04.2020
4002 Clouds 7 1011 81 10000 2.1 360 16:22 27.04.2020
4003 Clouds 6 1011 75 10000 2.6 360 15:57 27.04.2020
4004 Clouds 6 1011 75 10000 2.6 360 15:38 27.04.2020
4005 Clouds 6 1011 75 10000 2.6 360 15:19 27.04.2020
4006 Clouds 5 1011 74 10000 2.6 360 14:58 27.04.2020
4007 Clouds 5 1011 75 10000 2.6 360 14:39 27.04.2020
4008 Clouds 5 1011 75 10000 2.6 360 14:18 27.04.2020
4009 Clouds 5 1011 75 10000 1.5 320 13:55 27.04.2020
4010 Clouds 5 1011 75 10000 1.5 320 13:36 27.04.2020
4011 Clouds 5 1012 75 10000 4.1 360 13:18 27.04.2020
4012 Clouds 5 1012 75 10000 4.1 360 12:42 27.04.2020
4013 Clouds 5 1012 74 10000 4.1 360 12:20 27.04.2020
4014 Clouds 5 1012 80 10000 4.1 340 11:42 27.04.2020
4015 Clouds 5 1012 80 10000 4.1 340 11:22 27.04.2020
4016 Clouds 6 1012 70 10000 4.1 360 10:58 27.04.2020
4017 Clouds 6 1012 70 10000 4.1 360 10:39 27.04.2020
4018 Clouds 6 1012 70 10000 4.1 360 10:21 27.04.2020
4019 Clouds 6 1012 70 10000 4.1 360 09:54 27.04.2020
4020 Clouds 6 1012 70 10000 4.1 360 09:36 27.04.2020
4021 Clouds 6 1012 73 10000 2.6 360 09:18 27.04.2020
4022 Clouds 6 1012 73 10000 2.6 360 08:43 27.04.2020
4023 Clouds 6 1012 73 10000 2.6 360 08:25 27.04.2020
4024 Clouds 6 1012 60 10000 5.1 320 07:44 27.04.2020
4025 Clouds 6 1012 60 10000 5.1 320 07:22 27.04.2020
4026 Clouds 4 1013 64 10000 5.7 320 06:57 27.04.2020
4027 Clouds 4 1013 64 10000 5.7 320 06:27 27.04.2020
4028 Clouds 5 1013 65 10000 6.2 360 05:50 27.04.2020
4029 Clouds 4 1013 69 10000 5.1 360 04:51 27.04.2020
4030 Clouds 4 1013 69 10000 5.1 360 04:20 27.04.2020
4031 Clouds 4 1013 69 10000 3.1 270 03:43 27.04.2020
4032 Clouds 5 1014 65 10000 1 360 01:45 27.04.2020
4033 Clouds 5 1014 75 10000 3.1 320 01:18 27.04.2020
4034 Clouds 5 1014 75 10000 3.1 320 00:20 27.04.2020
4035 Clouds 6 1014 56 10000 3.1 360 23:58 26.04.2020
4036 Clouds 6 1014 56 10000 3.1 360 23:40 26.04.2020
4037 Clouds 6 1014 56 10000 3.1 360 23:21 26.04.2020
4038 Clouds 7 1014 56 10000 1.5 360 22:58 26.04.2020
4039 Clouds 7 1014 56 10000 1.5 360 22:58 26.04.2020
4040 Clouds 7 1014 56 10000 1.5 360 22:39 26.04.2020
4041 Clouds 7 1014 56 10000 1.5 360 22:20 26.04.2020
4042 Clouds 7 1015 56 10000 2.1 360 21:57 26.04.2020
4043 Clouds 7 1015 56 10000 2.1 360 21:38 26.04.2020
4044 Clouds 7 1015 56 10000 2.1 360 21:18 26.04.2020
4045 Clouds 7 1015 56 10000 2.1 360 21:18 26.04.2020
4046 Clouds 7 1015 56 10000 2.1 360 21:18 26.04.2020
4047 Clouds 7 1015 52 10000 3.1 230 20:54 26.04.2020
4048 Clouds 7 1015 52 10000 3.1 230 20:36 26.04.2020
4049 Clouds 6 1016 56 10000 2.1 360 20:18 26.04.2020
4050 Clouds 6 1016 56 10000 2.1 360 19:56 26.04.2020
4051 Clouds 6 1016 56 10000 2.1 360 19:36 26.04.2020
4052 Clouds 6 1016 56 10000 2.1 360 19:18 26.04.2020
4053 Clouds 6 1016 56 10000 2.1 360 19:18 26.04.2020
4054 Clouds 6 1016 56 10000 2.1 360 18:41 26.04.2020
4055 Clouds 6 1016 56 10000 2.1 360 18:23 26.04.2020
4056 Clouds 5 1017 60 10000 2.6 360 17:42 26.04.2020
4057 Clouds 5 1017 60 10000 2.6 360 17:22 26.04.2020
4058 Clouds 4 1017 60 10000 2.6 360 16:56 26.04.2020
4059 Clouds 4 1017 60 10000 2.6 360 16:38 26.04.2020
4060 Clouds 4 1017 60 10000 2.6 360 16:19 26.04.2020
4061 Clouds 2 1017 69 10000 4.6 340 15:56 26.04.2020
4062 Clouds 2 1017 69 10000 4.6 340 15:37 26.04.2020
4063 Clouds 2 1017 69 10000 3.1 320 15:18 26.04.2020
4064 Clouds 2 1017 69 10000 3.1 320 14:41 26.04.2020
4065 Clouds 2 1017 69 10000 3.1 320 14:19 26.04.2020
4066 Clouds 2 1018 69 10000 2.6 340 13:58 26.04.2020
4067 Clouds 2 1018 69 10000 2.6 340 13:39 26.04.2020
4068 Clouds 2 1018 69 10000 2.6 340 13:21 26.04.2020
4069 Clouds 2 1018 69 10000 3.6 320 12:55 26.04.2020
4070 Clouds 2 1018 69 10000 3.6 320 12:37 26.04.2020
4071 Clouds 2 1018 69 10000 3.6 320 12:18 26.04.2020
4072 Clouds 1 1018 74 10000 2.6 340 11:44 26.04.2020
4073 Clouds 1 1018 74 10000 2.6 340 11:23 26.04.2020
4074 Clouds 2 1018 64 10000 1.5 360 10:59 26.04.2020
4075 Clouds 2 1018 64 10000 1.5 360 10:41 26.04.2020
4076 Clouds 2 1018 64 10000 1.5 360 10:23 26.04.2020
4077 Clouds 1 1019 69 10000 2.6 320 09:57 26.04.2020
4078 Clouds 1 1019 69 10000 2.6 320 09:37 26.04.2020
4079 Clouds 1 1019 69 10000 2.6 320 09:19 26.04.2020
4080 Clouds 1 1019 80 10000 2.1 320 08:41 26.04.2020
4081 Clouds 1 1019 80 10000 2.1 320 08:41 26.04.2020
4082 Clouds 1 1019 80 10000 2.1 320 08:22 26.04.2020
4083 Clouds 1 1019 69 10000 2.1 320 07:48 26.04.2020
4084 Clouds 1 1019 69 10000 2.1 320 07:24 26.04.2020
4085 Clouds 1 1020 74 10000 2.6 290 06:47 26.04.2020
4086 Clouds 1 1020 74 10000 2.6 290 06:23 26.04.2020
4087 Clouds 1 1020 69 10000 1.5 320 05:49 26.04.2020
4088 Clouds 1 1020 69 10000 1.5 320 05:30 26.04.2020
4089 Clouds 2 1021 59 10000 1.5 320 04:39 26.04.2020
4090 Clouds 2 1021 64 10000 1.5 340 03:40 26.04.2020
4091 Clouds 2 1021 64 10000 2.6 270 02:37 26.04.2020
4092 Clouds 2 1021 64 10000 2.6 270 02:19 26.04.2020
4093 Clouds 4 1021 64 10000 1.5 320 01:36 26.04.2020
4094 Clouds 4 1022 60 10000 1.73 310 00:41 26.04.2020
4095 Clouds 4 1022 60 10000 1.43 305 00:21 26.04.2020
4096 Clouds 4 1022 60 10000 1.43 305 00:21 26.04.2020
4097 Clouds 4 1022 60 10000 1.43 305 23:56 25.04.2020
4098 Clouds 4 1022 60 10000 1.43 305 23:37 25.04.2020
4099 Clouds 4 1022 60 10000 1.43 305 23:18 25.04.2020
4100 Clouds 5 1022 60 10000 1.5 360 22:42 25.04.2020
4101 Clouds 5 1022 60 10000 1.5 360 22:20 25.04.2020
4102 Clouds 5 1022 65 10000 1.43 305 21:58 25.04.2020
4103 Clouds 5 1022 65 10000 1.41 302 21:39 25.04.2020
4104 Clouds 5 1022 65 10000 1.97 308 21:19 25.04.2020
4105 Clouds 5 1022 60 10000 1.97 308 20:43 25.04.2020
4106 Clouds 5 1022 60 10000 1.97 308 20:23 25.04.2020
4107 Clouds 4 1023 64 10000 1.97 308 19:59 25.04.2020
4108 Clouds 4 1023 64 10000 1.97 308 19:39 25.04.2020
4109 Clouds 4 1023 64 10000 1.97 308 19:21 25.04.2020
4110 Clouds 4 1023 64 10000 1.97 308 18:56 25.04.2020
4111 Clouds 4 1023 64 10000 1.97 308 18:37 25.04.2020
4112 Clouds 5 1023 52 10000 2.1 340 18:18 25.04.2020
4113 Clouds 5 1023 52 10000 2.1 340 17:55 25.04.2020
4114 Clouds 5 1023 52 10000 2.1 340 17:36 25.04.2020
4115 Clouds 3 1023 69 10000 2.6 340 17:18 25.04.2020
4116 Clouds 3 1023 69 10000 2.6 340 16:43 25.04.2020
4117 Clouds 3 1023 69 10000 2.6 340 16:25 25.04.2020
4118 Clouds 1 1023 80 10000 2.1 340 15:58 25.04.2020
4119 Clouds 1 1023 80 10000 2.1 340 15:38 25.04.2020
4120 Clouds 1 1023 80 10000 2.1 340 15:19 25.04.2020
4121 Clouds 1 1023 80 10000 2.1 340 15:19 25.04.2020
4122 Rain 1 1023 74 10000 5.1 340 14:56 25.04.2020
4123 Rain 1 1023 74 10000 5.1 340 14:37 25.04.2020
4124 Rain 1 1023 74 10000 5.1 340 14:18 25.04.2020
4125 Rain 2 1023 69 10000 3.1 270 13:42 25.04.2020
4126 Rain 2 1023 69 10000 3.1 270 13:19 25.04.2020
4127 Rain 2 1023 74 10000 3.1 270 12:57 25.04.2020
4128 Rain 2 1023 74 10000 3.1 270 12:38 25.04.2020
4129 Rain 2 1023 74 10000 3.1 270 12:38 25.04.2020
4130 Rain 2 1023 74 10000 3.1 270 12:19 25.04.2020
4131 Clouds 2 1022 80 10000 2.1 270 11:54 25.04.2020
4132 Clouds 2 1022 80 10000 2.1 270 11:54 25.04.2020
4133 Clouds 2 1022 80 10000 2.1 270 11:36 25.04.2020
4134 Drizzle 2 1022 80 10000 2.6 320 11:18 25.04.2020
4135 Drizzle 2 1022 80 10000 2.6 320 10:41 25.04.2020
4136 Drizzle 2 1022 80 10000 2.6 320 10:22 25.04.2020
4137 Clouds 2 1021 80 10000 0.86 315 09:46 25.04.2020
4138 Clouds 2 1021 80 10000 0.57 220 09:27 25.04.2020
4139 Clouds 2 1021 94 10000 3.6 140 08:57 25.04.2020
4140 Clouds 2 1021 94 10000 3.6 140 08:38 25.04.2020
4141 Clouds 2 1021 94 10000 3.6 140 08:20 25.04.2020
4142 Clouds 1 1020 94 10000 2.6 180 07:45 25.04.2020
4143 Clouds 1 1020 94 10000 2.6 180 07:24 25.04.2020
4144 Drizzle 2 1020 94 10000 4.1 140 06:44 25.04.2020
4145 Drizzle 2 1019 80 10000 3.1 180 05:56 25.04.2020
4146 Drizzle 2 1019 80 10000 3.1 180 05:31 25.04.2020
4147 Rain 2 1018 80 10000 6.2 180 04:42 25.04.2020
4148 Rain 2 1017 74 10000 2.1 180 02:59 25.04.2020
4149 Rain 2 1017 74 10000 2.1 180 02:20 25.04.2020
4150 Rain 3 1015 64 10000 4.1 180 01:51 25.04.2020
4151 Rain 3 1015 64 10000 4.1 180 01:27 25.04.2020
4152 Rain 3 1014 64 10000 7.2 180 00:50 25.04.2020
4153 Rain 3 1014 64 10000 7.2 180 00:31 25.04.2020
4154 Clouds 3 1013 64 10000 7.7 180 23:44 24.04.2020
4155 Clouds 3 1013 64 10000 7.7 180 23:23 24.04.2020
4156 Clouds 3 1012 74 10000 8.7 230 22:56 24.04.2020
4157 Clouds 3 1012 74 10000 8.7 230 22:56 24.04.2020
4158 Clouds 3 1012 74 10000 8.7 230 22:38 24.04.2020
4159 Clouds 3 1012 74 10000 8.7 230 22:19 24.04.2020
4160 Clouds 2 1011 93 10000 7.7 180 21:55 24.04.2020
4161 Clouds 2 1011 93 10000 7.7 180 21:36 24.04.2020
4162 Snow 2 1010 93 10000 10.3 180 21:18 24.04.2020
4163 Snow 2 1010 93 10000 10.3 180 20:54 24.04.2020
4164 Snow 2 1010 93 10000 10.3 180 20:36 24.04.2020
4165 Snow 2 1010 93 10000 9.8 180 20:18 24.04.2020
4166 Snow 2 1010 93 10000 9.8 180 19:39 24.04.2020
4167 Snow 2 1010 93 10000 9.8 180 19:20 24.04.2020
4168 Drizzle 2 1009 93 9998 9.3 140 18:44 24.04.2020
4169 Drizzle 2 1009 93 9998 9.3 140 18:25 24.04.2020
4170 Drizzle 3 1007 86 10000 10.3 140 17:55 24.04.2020
4171 Drizzle 3 1007 86 10000 10.3 140 17:37 24.04.2020
4172 Drizzle 3 1007 86 10000 10.3 140 17:18 24.04.2020
4173 Rain 3 1006 77 10000 11.3 140 16:57 24.04.2020
4174 Rain 3 1006 77 10000 11.3 140 16:38 24.04.2020
4175 Rain 3 1006 77 10000 11.3 140 16:20 24.04.2020
4176 Drizzle 3 1006 86 10000 10.3 140 15:41 24.04.2020
4177 Drizzle 3 1006 86 10000 10.3 140 15:20 24.04.2020
4178 Drizzle 4 1004 86 10000 6.2 160 14:41 24.04.2020
4179 Drizzle 4 1004 86 10000 6.2 160 14:22 24.04.2020
4180 Drizzle 4 1003 80 10000 10.3 230 13:59 24.04.2020
4181 Drizzle 4 1003 80 10000 10.3 230 13:41 24.04.2020
4182 Drizzle 4 1003 80 10000 10.3 230 13:21 24.04.2020
4183 Drizzle 4 1002 80 10000 10.3 230 12:58 24.04.2020
4184 Drizzle 4 1002 80 10000 10.3 230 12:39 24.04.2020
4185 Drizzle 4 1002 80 10000 10.3 230 12:19 24.04.2020
4186 Rain 4 1001 80 10000 10.3 230 11:43 24.04.2020
4187 Rain 4 1001 80 10000 10.3 230 11:22 24.04.2020
4188 Clouds 4 1001 81 10000 8.7 250 10:59 24.04.2020
4189 Clouds 4 1001 81 10000 8.7 250 10:38 24.04.2020
4190 Clouds 4 1001 81 10000 8.7 250 10:20 24.04.2020
4191 Clouds 4 1000 81 10000 9.8 230 09:55 24.04.2020
4192 Clouds 4 1000 81 10000 9.8 230 09:36 24.04.2020
4193 Clouds 4 1000 82 10000 9.8 230 09:18 24.04.2020
4194 Clouds 4 1000 82 10000 10.3 230 08:42 24.04.2020
4195 Clouds 4 1000 82 10000 10.3 230 08:20 24.04.2020
4196 Clouds 4 1000 82 10000 10.3 230 07:56 24.04.2020
4197 Clouds 4 1000 82 10000 10.3 230 07:38 24.04.2020
4198 Clouds 4 1000 82 10000 10.3 230 07:20 24.04.2020
4199 Clouds 4 999 80 10000 10.8 230 06:43 24.04.2020
4200 Clouds 4 998 85 10000 11.3 230 05:51 24.04.2020
4201 Clouds 4 998 85 10000 11.3 230 05:20 24.04.2020
4202 Clouds 5 999 75 10000 11.8 230 03:39 24.04.2020
4203 Clouds 5 1002 83 10000 9.8 230 02:50 24.04.2020
4204 Clouds 5 1002 84 10000 9.8 230 02:30 24.04.2020
4205 Rain 5 998 65 10000 12.3 230 01:46 24.04.2020
4206 Rain 5 998 84 10000 11.8 230 00:50 24.04.2020
4207 Rain 5 998 76 10000 11.8 230 00:19 24.04.2020
4208 Clouds 7 998 70 10000 12.3 230 23:47 23.04.2020
4209 Clouds 7 998 70 10000 12.3 230 23:27 23.04.2020
4210 Clouds 7 998 75 10000 8.7 230 22:58 23.04.2020
4211 Clouds 7 998 75 10000 8.7 230 22:39 23.04.2020
4212 Clouds 7 998 75 10000 8.7 230 22:39 23.04.2020
4213 Clouds 7 998 75 10000 8.7 230 22:20 23.04.2020
4214 Clouds 8 998 70 10000 10.8 230 21:57 23.04.2020
4215 Clouds 8 998 70 10000 10.8 230 21:57 23.04.2020
4216 Clouds 8 998 70 10000 10.8 230 21:39 23.04.2020
4217 Clouds 8 998 70 10000 10.8 230 21:20 23.04.2020
4218 Clouds 8 998 70 10000 9.8 230 20:57 23.04.2020
4219 Clouds 8 998 70 10000 9.8 230 20:39 23.04.2020
4220 Clouds 8 998 70 10000 9.8 230 20:19 23.04.2020
4221 Rain 7 998 75 10000 10.8 230 19:56 23.04.2020
4222 Rain 7 998 75 10000 10.8 230 19:38 23.04.2020
4223 Rain 7 998 75 10000 10.8 230 19:19 23.04.2020
4224 Rain 7 998 75 10000 10.8 230 19:19 23.04.2020
4225 Drizzle 7 999 75 10000 7.7 230 18:41 23.04.2020
4226 Drizzle 7 999 75 10000 7.7 230 18:23 23.04.2020
4227 Drizzle 7 999 70 10000 5.7 250 17:58 23.04.2020
4228 Drizzle 7 999 70 10000 5.7 250 17:58 23.04.2020
4229 Drizzle 7 999 70 10000 5.7 250 17:39 23.04.2020
4230 Drizzle 7 999 70 10000 5.7 250 17:21 23.04.2020
4231 Rain 6 1000 71 0 1.43 290 16:56 23.04.2020
4232 Clouds 6 1000 70 10000 2.6 320 16:38 23.04.2020
4233 Clouds 6 1000 70 10000 2.6 320 16:18 23.04.2020
4234 Clouds 6 1000 70 10000 2.6 320 15:42 23.04.2020
4235 Clouds 6 1000 70 10000 2.6 320 15:22 23.04.2020
4236 Clouds 5 1001 75 10000 1.5 360 14:56 23.04.2020
4237 Clouds 5 1001 75 10000 1.5 360 14:37 23.04.2020
4238 Clouds 5 1001 75 10000 1.5 360 14:19 23.04.2020
4239 Clouds 4 1002 80 10000 2.1 270 13:41 23.04.2020
4240 Clouds 4 1002 80 10000 2.1 270 13:22 23.04.2020
4241 Clouds 2 1002 80 0 1.5 301 12:59 23.04.2020
4242 Clouds 2 1002 80 0 1.5 301 12:41 23.04.2020
4243 Clouds 4 1003 80 10000 1.5 250 12:23 23.04.2020
4244 Clouds 4 1003 80 10000 1.5 250 11:47 23.04.2020
4245 Clouds 4 1003 80 10000 1.5 250 11:28 23.04.2020
4246 Clouds 4 1004 80 10000 1.5 200 10:59 23.04.2020
4247 Clouds 4 1004 80 10000 1.5 200 10:41 23.04.2020
4248 Clouds 4 1004 80 10000 1.5 200 10:20 23.04.2020
4249 Clouds 4 1005 80 10000 1.79 320 09:41 23.04.2020
4250 Clouds 4 1005 80 10000 1.21 322 09:20 23.04.2020
4251 Clouds 3 1006 86 10000 1.21 322 08:54 23.04.2020
4252 Clouds 3 1006 86 10000 1.21 322 08:36 23.04.2020
4253 Clouds 3 1007 78 10000 2.1 290 08:18 23.04.2020
4254 Clouds 3 1007 78 10000 2.1 290 07:41 23.04.2020
4255 Clouds 3 1007 78 10000 2.1 290 07:22 23.04.2020
4256 Clouds 4 1008 78 10000 1.5 270 06:46 23.04.2020
4257 Clouds 3 1009 74 10000 1.82 345 05:58 23.04.2020
4258 Clouds 4 1010 64 10000 1.82 345 05:22 23.04.2020
4259 Clouds 4 1010 64 10000 1.82 345 04:50 23.04.2020
4260 Clouds 4 1011 69 10000 4.1 320 02:24 23.04.2020
4261 Clouds 5 1011 65 10000 2.6 320 01:41 23.04.2020
4262 Clouds 5 1011 65 10000 4.6 320 01:18 23.04.2020
4263 Clouds 5 1011 65 10000 4.6 320 00:36 23.04.2020
4264 Clouds 6 1012 56 10000 5.7 230 00:18 23.04.2020
4265 Clouds 6 1012 56 10000 5.7 230 23:42 22.04.2020
4266 Clouds 6 1012 56 10000 5.7 230 23:22 22.04.2020
4267 Clouds 7 1012 70 10000 5.7 230 22:54 22.04.2020
4268 Clouds 7 1012 70 10000 5.7 230 22:36 22.04.2020
4269 Clouds 8 1012 61 10000 9.3 230 22:18 22.04.2020
4270 Clouds 8 1012 61 10000 9.3 230 21:54 22.04.2020
4271 Clouds 8 1012 61 10000 9.3 230 21:36 22.04.2020
4272 Clouds 8 1011 52 10000 9.8 230 21:18 22.04.2020
4273 Clouds 8 1011 52 10000 9.8 230 20:43 22.04.2020
4274 Clouds 8 1011 52 10000 9.8 230 20:19 22.04.2020
4275 Clouds 7 1011 56 10000 9.3 230 19:57 22.04.2020
4276 Clouds 7 1011 56 10000 9.3 230 19:38 22.04.2020
4277 Clouds 7 1011 56 10000 9.3 230 19:38 22.04.2020
4278 Clouds 7 1011 56 10000 9.8 230 19:18 22.04.2020
4279 Clouds 7 1011 56 10000 9.8 230 18:58 22.04.2020
4280 Clouds 7 1011 56 10000 9.8 230 18:40 22.04.2020
4281 Clouds 7 1011 56 10000 9.8 230 18:21 22.04.2020
4282 Clouds 6 1010 56 10000 9.3 230 17:44 22.04.2020
4283 Clouds 6 1010 56 10000 9.3 230 17:26 22.04.2020
4284 Clouds 6 1010 66 10000 12.9 230 16:58 22.04.2020
4285 Clouds 6 1010 66 10000 12.9 230 16:58 22.04.2020
4286 Clouds 6 1010 66 10000 12.9 230 16:40 22.04.2020
4287 Clouds 6 1010 66 10000 12.9 230 16:21 22.04.2020
4288 Clouds 6 1009 70 10000 10.3 230 15:42 22.04.2020
4289 Clouds 6 1009 70 10000 10.3 230 15:23 22.04.2020
4290 Clouds 4 1009 86 10000 9.3 230 14:58 22.04.2020
4291 Clouds 4 1009 86 10000 9.3 230 14:38 22.04.2020
4292 Clouds 4 1009 86 10000 9.3 230 14:20 22.04.2020
4293 Clouds 5 1008 80 10000 9.3 230 13:55 22.04.2020
4294 Clouds 5 1008 80 10000 9.3 230 13:37 22.04.2020
4295 Clouds 4 1009 80 0 2.51 221 13:19 22.04.2020
4296 Clouds 4 1009 80 0 2.51 221 12:40 22.04.2020
4297 Clouds 6 1007 75 10000 6.7 230 12:22 22.04.2020
4298 Clouds 6 1007 75 10000 6.7 230 11:41 22.04.2020
4299 Clouds 6 1007 75 10000 6.7 230 11:22 22.04.2020
4300 Clouds 6 1006 81 10000 7.7 230 10:59 22.04.2020
4301 Clouds 6 1006 81 10000 7.7 230 10:40 22.04.2020
4302 Clouds 6 1006 81 10000 7.7 230 10:40 22.04.2020
4303 Clouds 6 1006 81 10000 7.7 230 10:20 22.04.2020
4304 Clouds 6 1006 87 10000 9.3 230 09:40 22.04.2020
4305 Clouds 6 1006 87 10000 9.3 230 09:21 22.04.2020
4306 Clouds 5 1006 93 10000 7.2 230 08:58 22.04.2020
4307 Clouds 5 1006 93 10000 7.2 230 08:40 22.04.2020
4308 Clouds 5 1006 93 10000 7.2 230 08:22 22.04.2020
4309 Clouds 5 1005 93 10000 8.7 230 07:53 22.04.2020
4310 Clouds 5 1005 93 10000 8.7 230 07:29 22.04.2020
4311 Clouds 5 1005 93 10000 9.3 230 06:53 22.04.2020
4312 Clouds 5 1005 93 10000 9.3 230 06:23 22.04.2020
4313 Drizzle 5 1004 86 10000 11.3 230 05:37 22.04.2020
4314 Rain 5 1003 80 10000 14.4 230 04:30 22.04.2020
4315 Drizzle 5 1001 80 10000 13.9 230 02:51 22.04.2020
4316 Drizzle 6 1001 75 10000 11.8 230 01:53 22.04.2020
4317 Drizzle 6 1001 75 10000 11.8 230 01:27 22.04.2020
4318 Drizzle 6 1002 81 10000 10.3 230 00:57 22.04.2020
4319 Drizzle 6 1002 81 10000 10.3 230 00:37 22.04.2020
4320 Drizzle 6 1002 81 10000 10.3 230 00:37 22.04.2020
4321 Drizzle 6 1002 81 10000 10.3 230 00:19 22.04.2020
4322 Drizzle 6 1002 81 10000 14.9 230 23:41 21.04.2020
4323 Drizzle 6 1002 81 10000 14.9 230 23:19 21.04.2020
4324 Drizzle 6 1002 81 10000 13.9 230 22:41 21.04.2020
4325 Drizzle 6 1002 81 10000 13.9 230 22:22 21.04.2020
4326 Rain 7 1003 70 10000 13.4 230 21:59 21.04.2020
4327 Rain 7 1003 70 10000 13.4 230 21:59 21.04.2020
4328 -273 0 0 0 0 0 21:59 21.04.2020
4329 Rain 7 1003 70 10000 13.4 230 21:41 21.04.2020
4330 Rain 7 1003 70 10000 13.4 230 21:23 21.04.2020
4331 Clouds 7 1004 70 10000 13.9 230 20:57 21.04.2020
4332 Clouds 7 1004 70 10000 13.9 230 20:39 21.04.2020
4333 Clouds 7 1004 70 10000 13.9 230 20:21 21.04.2020
4334 Clouds 7 1005 70 10000 15.9 230 19:41 21.04.2020
4335 Clouds 7 1005 70 10000 15.9 230 19:20 21.04.2020
4336 Clouds 7 1006 70 10000 18.5 230 18:58 21.04.2020
4337 Clouds 7 1006 70 10000 18.5 230 18:39 21.04.2020
4338 Clouds 7 1006 70 10000 18.5 230 18:19 21.04.2020
4339 Clouds 7 1006 65 10000 13.4 230 17:59 21.04.2020
4340 Clouds 7 1006 65 10000 13.4 230 17:38 21.04.2020
4341 Clouds 7 1006 65 10000 13.4 230 17:19 21.04.2020
4342 Clouds 6 1007 70 10000 13.4 230 16:39 21.04.2020
4343 Clouds 6 1007 70 10000 13.4 230 16:19 21.04.2020
4344 Clouds 6 1007 70 10000 13.4 230 16:19 21.04.2020
4345 Clouds 6 1007 70 10000 17 230 15:58 21.04.2020
4346 Clouds 6 1007 70 10000 17 230 15:40 21.04.2020
4347 Clouds 6 1007 70 10000 17 230 15:22 21.04.2020
4348 Rain 5 1006 80 10000 15.9 230 14:58 21.04.2020
4349 Rain 5 1006 80 10000 15.9 230 14:39 21.04.2020
4350 Rain 5 1006 80 10000 15.9 230 14:21 21.04.2020
4351 Drizzle 5 1006 80 10000 19 230 13:42 21.04.2020
4352 Drizzle 5 1006 80 10000 19 230 13:23 21.04.2020
4353 Clouds 5 1005 75 10000 14.9 230 12:58 21.04.2020
4354 Clouds 5 1005 75 10000 14.9 230 12:37 21.04.2020
4355 Clouds 5 1005 75 10000 14.9 230 12:19 21.04.2020
4356 Clouds 5 1005 75 10000 17.5 230 11:56 21.04.2020
4357 Clouds 5 1005 75 10000 17.5 230 11:37 21.04.2020
4358 Clouds 5 1005 75 10000 16.5 230 11:18 21.04.2020
4359 Clouds 5 1005 75 10000 16.5 230 10:56 21.04.2020
4360 Clouds 5 1005 75 10000 16.5 230 10:38 21.04.2020
4361 Clouds 5 1005 75 10000 16.5 230 10:20 21.04.2020
4362 Rain 5 1004 75 10000 14.4 230 09:38 21.04.2020
4363 Rain 5 1004 75 10000 14.4 230 09:20 21.04.2020
4364 Clouds 5 1003 80 10000 17 230 08:58 21.04.2020
4365 Clouds 5 1003 80 10000 17 230 08:58 21.04.2020
4366 Clouds 5 1003 80 10000 17 230 08:39 21.04.2020
4367 Clouds 5 1003 80 10000 17 230 08:19 21.04.2020
4368 Clouds 6 1003 75 10000 17 230 07:45 21.04.2020
4369 Clouds 6 1003 75 10000 17 230 07:23 21.04.2020
4370 Rain 6 1003 75 10000 17 230 06:49 21.04.2020
4371 Rain 6 1003 75 10000 17 230 06:20 21.04.2020
4372 Rain 6 1002 81 10000 17 230 05:49 21.04.2020
4373 Rain 6 1001 81 10000 18.5 230 04:21 21.04.2020
4374 Clouds 6 999 75 10000 19 230 03:44 21.04.2020
4375 Rain 7 998 75 10000 14.4 230 01:46 21.04.2020
4376 Rain 7 998 75 10000 14.4 230 01:25 21.04.2020
4377 Rain 7 998 75 10000 15.9 230 00:37 21.04.2020
4378 Drizzle 6 996 87 10000 18.5 230 23:45 20.04.2020
4379 Drizzle 6 996 87 10000 18.5 230 23:25 20.04.2020
4380 Drizzle 7 995 81 10000 14.9 230 22:58 20.04.2020
4381 Drizzle 7 995 81 10000 14.9 230 22:39 20.04.2020
4382 Drizzle 7 995 81 10000 14.9 230 22:20 20.04.2020
4383 Drizzle 7 995 81 10000 14.9 230 22:20 20.04.2020
4384 Drizzle 7 995 75 10000 13.4 230 21:57 20.04.2020
4385 Drizzle 7 995 75 10000 13.4 230 21:39 20.04.2020
4386 Drizzle 7 995 75 10000 13.4 230 21:19 20.04.2020
4387 Drizzle 7 995 75 10000 12.9 230 20:58 20.04.2020
4388 Drizzle 7 995 75 10000 12.9 230 20:38 20.04.2020
4389 Rain 8 996 70 10000 14.9 230 20:18 20.04.2020
4390 Rain 8 996 70 10000 14.9 230 19:58 20.04.2020
4391 Rain 8 996 70 10000 14.9 230 19:39 20.04.2020
4392 Rain 8 996 70 10000 14.9 230 19:19 20.04.2020
4393 Rain 7 996 75 10000 8.7 230 18:43 20.04.2020
4394 Rain 7 996 75 10000 8.7 230 18:24 20.04.2020
4395 Clouds 7 996 75 10000 4.1 270 17:58 20.04.2020
4396 Clouds 7 996 75 10000 4.1 270 17:39 20.04.2020
4397 Clouds 7 996 75 10000 4.1 270 17:21 20.04.2020
4398 Clouds 6 997 75 10000 10.3 230 16:59 20.04.2020
4399 Clouds 6 997 77 0 2.17 302 16:39 20.04.2020
4400 Clouds 6 997 81 10000 10.3 230 16:19 20.04.2020
4401 Clouds 8 997 70 10000 6.7 280 15:45 20.04.2020
4402 Rain 6 998 81 10000 10.3 230 15:24 20.04.2020
4403 Rain 6 998 81 10000 10.3 230 14:58 20.04.2020
4404 Rain 6 998 81 10000 10.3 230 14:40 20.04.2020
4405 Rain 6 998 81 10000 10.3 230 14:19 20.04.2020
4406 Clouds 6 998 75 10000 11.3 230 13:56 20.04.2020
4407 Clouds 6 998 75 10000 11.3 230 13:37 20.04.2020
4408 Clouds 6 998 75 10000 11.3 230 13:19 20.04.2020
4409 Clouds 6 997 75 10000 9.8 230 12:42 20.04.2020
4410 Clouds 6 997 75 10000 9.8 230 12:21 20.04.2020
4411 Clouds 6 997 70 10000 14.4 230 11:42 20.04.2020
4412 Clouds 6 997 70 10000 14.4 230 11:22 20.04.2020
4413 Clouds 5 997 75 10000 10.8 230 10:57 20.04.2020
4414 Clouds 5 997 75 10000 10.8 230 10:39 20.04.2020
4415 Clouds 5 997 75 10000 10.8 230 10:20 20.04.2020
4416 Clouds 4 997 86 10000 10.8 230 09:59 20.04.2020
4417 Clouds 4 997 86 10000 10.8 230 09:40 20.04.2020
4418 Clouds 4 997 86 10000 10.8 230 09:21 20.04.2020
4419 Rain 5 997 80 10000 13.4 230 08:42 20.04.2020
4420 Rain 5 997 80 10000 13.4 230 08:23 20.04.2020
4421 Drizzle 4 996 80 10000 14.4 230 07:56 20.04.2020
4422 Drizzle 4 996 80 10000 14.4 230 07:37 20.04.2020
4423 Drizzle 4 996 80 10000 14.4 230 07:19 20.04.2020
4424 Drizzle 4 996 80 10000 14.4 230 07:19 20.04.2020
4425 Rain 4 997 86 10000 11.3 230 06:37 20.04.2020
4426 Rain 4 996 86 10000 10.8 230 05:48 20.04.2020
4427 Rain 5 996 80 10000 11.8 230 04:46 20.04.2020
4428 Rain 5 996 80 10000 11.8 230 04:46 20.04.2020
4429 Rain 5 994 80 10000 10.8 230 02:48 20.04.2020
4430 Rain 5 994 80 10000 10.8 230 02:26 20.04.2020
4431 Clouds 5 993 86 10000 12.3 230 01:29 20.04.2020
4432 Drizzle 5 992 86 10000 9.8 230 00:44 20.04.2020
4433 Drizzle 5 992 86 10000 9.8 230 00:21 20.04.2020
4434 Drizzle 6 990 81 10000 10.3 230 23:39 19.04.2020
4435 Drizzle 6 990 81 10000 10.3 230 23:21 19.04.2020
4436 Drizzle 6 989 81 10000 12.3 230 22:56 19.04.2020
4437 Drizzle 6 989 81 10000 12.3 230 22:37 19.04.2020
4438 Drizzle 6 989 81 10000 12.3 230 22:19 19.04.2020
4439 Drizzle 7 987 75 10000 12.9 230 21:42 19.04.2020
4440 Drizzle 7 987 75 10000 12.9 230 21:23 19.04.2020
4441 Clouds 7 986 75 10000 8.7 230 20:58 19.04.2020
4442 Clouds 7 986 75 10000 8.7 230 20:40 19.04.2020
4443 Clouds 7 986 75 10000 8.7 230 20:20 19.04.2020
4444 Clouds 7 986 75 10000 8.7 230 20:20 19.04.2020
4445 Drizzle 7 986 75 10000 8.7 230 19:56 19.04.2020
4446 Drizzle 7 986 75 10000 8.7 230 19:38 19.04.2020
4447 Drizzle 7 986 75 10000 8.7 230 19:20 19.04.2020
4448 Drizzle 7 985 75 10000 2.01 211 18:56 19.04.2020
4449 Drizzle 7 985 75 10000 2.01 211 18:38 19.04.2020
4450 Drizzle 7 985 75 10000 0.54 292 18:18 19.04.2020
4451 Clouds 7 985 75 10000 0.54 292 17:56 19.04.2020
4452 Clouds 7 985 75 10000 0.54 292 17:37 19.04.2020
4453 Clouds 7 985 75 10000 0.54 292 17:19 19.04.2020
4454 Clouds 7 984 75 10000 0.54 292 16:40 19.04.2020
4455 Clouds 6 984 81 10000 2.6 50 16:21 19.04.2020
4456 Clouds 5 984 81 10000 2.6 50 15:58 19.04.2020
4457 Clouds 5 984 81 10000 2.6 50 15:58 19.04.2020
4458 Clouds 5 984 81 10000 2.6 50 15:39 19.04.2020
4459 Clouds 5 984 81 10000 2.6 50 15:19 19.04.2020
4460 Snow 5 983 80 10000 2.6 50 14:39 19.04.2020
4461 Clouds 5 983 80 10000 2.6 50 14:21 19.04.2020
4462 Clouds 5 983 80 10000 2.6 50 14:21 19.04.2020
4463 Clouds 5 983 80 10000 3.1 140 13:57 19.04.2020
4464 Clouds 5 983 80 10000 3.1 140 13:37 19.04.2020
4465 Clouds 5 983 75 10000 1.34 357 13:18 19.04.2020
4466 Clouds 5 983 75 10000 1.34 357 12:44 19.04.2020
4467 Rain 5 983 75 10000 1.56 336 12:24 19.04.2020
4468 Rain 6 983 70 10000 2.1 180 11:54 19.04.2020
4469 Rain 6 983 70 10000 2.1 180 11:36 19.04.2020
4470 Rain 6 983 70 10000 2.1 180 11:36 19.04.2020
4471 Clouds 7 983 70 10000 1.56 336 11:18 19.04.2020
4472 Clouds 7 983 70 10000 1.56 336 10:41 19.04.2020
4473 Clouds 7 983 70 10000 1.56 336 10:41 19.04.2020
4474 Clouds 7 983 70 10000 1.56 336 10:21 19.04.2020
4475 Clouds 6 984 75 10000 2.1 320 09:57 19.04.2020
4476 Clouds 6 984 75 10000 2.1 320 09:39 19.04.2020
4477 Clouds 7 984 70 10000 5.1 230 09:18 19.04.2020
4478 Rain 4 984 82 0 0.86 294 08:40 19.04.2020
4479 Clouds 7 983 75 10000 7.2 230 08:21 19.04.2020
4480 Clouds 7 983 75 10000 7.2 230 07:55 19.04.2020
4481 Clouds 7 983 75 10000 7.2 230 07:37 19.04.2020
4482 Clouds 7 983 75 10000 7.2 230 07:18 19.04.2020
4483 Clouds 8 984 70 10000 1.62 338 06:24 19.04.2020
4484 Clouds 9 984 81 10000 2.6 290 05:35 19.04.2020
4485 Clouds 9 984 57 10000 3.6 360 03:54 19.04.2020
4486 Clouds 9 984 57 10000 4.6 360 02:50 19.04.2020
4487 Clouds 8 984 61 10000 5.1 360 02:18 19.04.2020
4488 Clouds 8 984 61 10000 5.1 360 01:26 19.04.2020
4489 Clouds 9 985 57 10000 1.78 340 00:41 19.04.2020
4490 Clouds 9 985 57 10000 1.78 340 00:41 19.04.2020
4491 Clouds 9 985 57 10000 3.5 342 00:20 19.04.2020
4492 Rain 10 985 68 10000 3.6 340 23:44 18.04.2020
4493 Rain 10 985 68 10000 3.6 340 23:20 18.04.2020
4494 Clouds 10 985 68 10000 6.2 340 22:55 18.04.2020
4495 Clouds 10 985 68 10000 6.2 340 22:37 18.04.2020
4496 Clouds 10 985 68 10000 6.2 340 22:19 18.04.2020
4497 Rain 10 987 68 10000 8.2 340 21:43 18.04.2020
4498 Rain 10 987 70 10000 8.2 340 21:22 18.04.2020
4499 Clouds 11 987 37 10000 5.7 320 20:59 18.04.2020
4500 Clouds 11 987 37 10000 5.7 320 20:40 18.04.2020
4501 Clouds 11 987 37 10000 5.7 320 20:21 18.04.2020
4502 Clouds 12 987 32 10000 5.7 340 19:43 18.04.2020
4503 Clouds 12 987 32 10000 5.7 340 19:25 18.04.2020
4504 Clouds 12 988 66 10000 6.2 340 18:58 18.04.2020
4505 Clouds 12 988 66 10000 6.2 340 18:36 18.04.2020
4506 Clouds 11 988 34 10000 7.7 320 18:18 18.04.2020
4507 Clouds 11 988 34 10000 7.7 320 17:41 18.04.2020
4508 Clouds 11 988 34 10000 7.7 320 17:21 18.04.2020
4509 Clouds 10 988 37 10000 7.7 320 16:56 18.04.2020
4510 Clouds 10 988 37 10000 7.7 320 16:37 18.04.2020
4511 Clouds 10 988 37 10000 7.7 320 16:19 18.04.2020
4512 Clouds 10 988 37 10000 7.7 290 15:38 18.04.2020
4513 Clouds 10 988 37 10000 7.7 290 15:20 18.04.2020
4514 Clouds 8 988 34 10000 7.7 320 14:45 18.04.2020
4515 Clouds 8 988 34 10000 7.7 320 14:26 18.04.2020
4516 Clouds 7 988 34 10000 6.2 290 13:56 18.04.2020
4517 Clouds 7 988 34 10000 6.2 290 13:38 18.04.2020
4518 Clouds 10 988 34 10000 6.2 290 13:18 18.04.2020
4519 Clouds 9 988 42 10000 5.1 290 12:41 18.04.2020
4520 Clouds 9 988 42 10000 5.1 290 12:22 18.04.2020
4521 Clouds 7 988 75 10000 3.06 320 11:43 18.04.2020
4522 Clouds 7 988 75 10000 3.06 320 11:24 18.04.2020
4523 Clouds 7 988 75 10000 2.1 290 10:58 18.04.2020
4524 Clouds 7 988 75 10000 2.1 290 10:37 18.04.2020
4525 Clouds 7 988 75 10000 2.1 290 10:18 18.04.2020
4526 Clouds 7 987 75 10000 6.2 230 09:42 18.04.2020
4527 Clouds 7 987 75 10000 6.2 230 09:23 18.04.2020
4528 Clouds 10 987 77 10000 4.6 320 08:56 18.04.2020
4529 Clouds 10 987 77 10000 4.6 320 08:38 18.04.2020
4530 Clouds 10 986 77 10000 3.1 200 08:18 18.04.2020
4531 Clouds 10 986 77 10000 3.1 200 07:37 18.04.2020
4532 Clouds 10 986 77 10000 3.1 200 07:37 18.04.2020
4533 Clouds 10 986 77 10000 3.1 200 07:19 18.04.2020
4534 Clouds 11 986 69 10000 2.6 250 06:29 18.04.2020
4535 Clouds 7 987 75 10000 2.1 270 05:42 18.04.2020
4536 Clouds 9 988 61 10000 3.6 290 04:47 18.04.2020
4537 Clouds 9 988 61 10000 3.6 290 04:27 18.04.2020
4538 Clouds 12 988 32 10000 10.3 360 02:55 18.04.2020
4539 Clouds 12 988 32 10000 10.3 360 02:37 18.04.2020
4540 Clouds 12 988 32 10000 10.3 360 02:19 18.04.2020
4541 Clouds 12 989 34 10000 5.1 360 01:35 18.04.2020
4542 Clouds 12 990 32 10000 4.1 360 00:47 18.04.2020
4543 Clouds 12 990 32 10000 4.1 360 00:23 18.04.2020
4544 Clouds 13 991 32 10000 7.2 360 23:57 17.04.2020
4545 Clouds 13 991 32 10000 7.2 360 23:38 17.04.2020
4546 Clouds 13 991 32 10000 7.2 360 23:19 17.04.2020
4547 Clouds 14 992 28 10000 6.7 360 22:56 17.04.2020
4548 Clouds 14 992 28 10000 6.7 360 22:37 17.04.2020
4549 Clouds 14 992 28 10000 6.7 360 22:19 17.04.2020
4550 Clouds 14 994 30 10000 7.7 360 21:43 17.04.2020
4551 Clouds 14 994 30 10000 7.7 360 21:22 17.04.2020
4552 Clouds 14 995 41 10000 6.2 360 20:58 17.04.2020
4553 Clouds 14 995 41 10000 6.2 360 20:38 17.04.2020
4554 Clouds 14 995 41 10000 6.2 360 20:19 17.04.2020
4555 Clouds 14 996 47 10000 7.7 320 19:58 17.04.2020
4556 Clouds 14 996 47 10000 7.7 320 19:40 17.04.2020
4557 Clouds 14 996 47 10000 7.7 320 19:22 17.04.2020
4558 Clouds 13 997 50 10000 5.1 320 18:44 17.04.2020
4559 Clouds 13 997 50 10000 5.1 320 18:24 17.04.2020
4560 Clouds 13 997 50 10000 5.1 320 18:24 17.04.2020
4561 Clouds 13 997 50 10000 5.1 320 18:24 17.04.2020
4562 Clouds 13 997 68 10000 2.6 20 17:56 17.04.2020
4563 Clouds 13 997 68 10000 2.6 20 17:37 17.04.2020
4564 Mist 9 998 81 10000 3.1 270 17:18 17.04.2020
4565 Mist 9 998 81 10000 3.1 270 16:43 17.04.2020
4566 Mist 9 998 81 10000 3.1 270 16:23 17.04.2020
4567 Mist 8 998 81 10000 2.6 340 15:44 17.04.2020
4568 Mist 8 998 81 10000 2.6 340 15:24 17.04.2020
4569 Mist 8 999 81 10000 2.6 90 14:57 17.04.2020
4570 Mist 8 999 81 10000 2.6 90 14:39 17.04.2020
4571 Mist 8 999 81 10000 2.6 90 14:20 17.04.2020
4572 Clouds 7 999 81 10000 3.1 160 13:55 17.04.2020
4573 Clouds 7 999 81 10000 3.1 160 13:36 17.04.2020
4574 Clouds 8 998 70 10000 1.6 5 13:18 17.04.2020
4575 Clouds 8 998 70 10000 1.6 5 12:44 17.04.2020
4576 Clouds 8 998 70 10000 1.18 247 12:23 17.04.2020
4577 Clouds 10 998 53 10000 6.2 230 11:42 17.04.2020
4578 Clouds 11 998 62 10000 6.7 230 11:19 17.04.2020
4579 Clouds 11 998 62 10000 6.7 230 10:56 17.04.2020
4580 Clouds 11 998 62 10000 6.7 230 10:56 17.04.2020
4581 Clouds 11 998 62 10000 6.7 230 10:38 17.04.2020
4582 Clouds 13 997 54 10000 7.7 230 10:18 17.04.2020
4583 Clouds 13 997 54 10000 7.7 230 09:41 17.04.2020
4584 Clouds 13 997 54 10000 7.7 230 09:20 17.04.2020
4585 Clouds 13 996 54 10000 9.3 230 08:57 17.04.2020
4586 Clouds 13 996 54 10000 9.3 230 08:39 17.04.2020
4587 Clouds 13 996 54 10000 9.3 230 08:19 17.04.2020
4588 Clouds 12 994 71 10000 9.8 230 07:44 17.04.2020
4589 Clouds 12 994 66 10000 4.1 140 07:22 17.04.2020
4590 Clouds 12 994 66 10000 4.1 140 06:46 17.04.2020
4591 Clouds 12 994 66 10000 4.1 140 06:23 17.04.2020
4592 Clouds 13 993 58 10000 5.7 320 05:26 17.04.2020
4593 Clouds 14 992 51 10000 9.3 360 03:19 17.04.2020
4594 Clouds 14 992 51 10000 8.2 360 02:19 17.04.2020
4595 Clouds 13 993 54 10000 9.3 360 01:29 17.04.2020
4596 Clouds 13 993 54 10000 6.2 360 00:52 17.04.2020
4597 Clouds 13 993 62 10000 4.6 340 00:19 17.04.2020
4598 Clouds 13 993 62 10000 4.6 340 23:42 16.04.2020
4599 Clouds 13 993 62 10000 4.6 340 23:42 16.04.2020
4600 Clouds 13 993 62 10000 4.6 340 23:22 16.04.2020
4601 Clouds 14 994 58 10000 2.1 320 22:57 16.04.2020
4602 Clouds 14 994 58 10000 2.1 320 22:37 16.04.2020
4603 Clouds 14 994 58 10000 2.1 320 22:19 16.04.2020
4604 Clouds 14 995 58 10000 5.7 360 21:43 16.04.2020
4605 Clouds 14 995 58 10000 5.7 360 21:20 16.04.2020
4606 Clouds 14 997 58 10000 1.5 340 20:59 16.04.2020
4607 Clouds 14 997 58 10000 1.5 340 20:40 16.04.2020
4608 Clouds 14 997 58 10000 1.5 340 20:20 16.04.2020
4609 Clouds 12 998 66 10000 2.98 14 19:55 16.04.2020
4610 Clouds 12 998 66 10000 2.98 14 19:37 16.04.2020
4611 Clouds 11 999 71 10000 2.6 50 19:18 16.04.2020
4612 Clouds 11 999 71 10000 2.6 50 18:42 16.04.2020
4613 Clouds 11 999 71 10000 2.6 50 18:24 16.04.2020
4614 Clouds 11 1000 71 10000 2.6 360 17:57 16.04.2020
4615 Clouds 11 1000 71 10000 2.6 360 17:39 16.04.2020
4616 Clouds 11 1000 71 10000 2.6 360 17:18 16.04.2020
4617 Clouds 10 1001 71 10000 2.42 3 16:43 16.04.2020
4618 Clouds 10 1001 71 10000 2.42 3 16:25 16.04.2020
4619 Clouds 9 1001 76 10000 2.42 3 15:46 16.04.2020
4620 Clouds 9 1001 76 10000 1.77 349 15:20 16.04.2020
4621 Clouds 8 1001 75 10000 1.77 349 14:59 16.04.2020
4622 Clouds 8 1001 75 10000 2 354 14:41 16.04.2020
4623 Clouds 8 1001 75 10000 2 354 14:23 16.04.2020
4624 Clouds 7 1002 87 10000 2 354 13:58 16.04.2020
4625 Clouds 7 1002 87 10000 2 354 13:40 16.04.2020
4626 Clouds 7 1002 87 10000 2 354 13:40 16.04.2020
4627 Clouds 7 1002 87 10000 2 354 13:21 16.04.2020
4628 Clouds 7 1001 87 10000 3.1 360 12:58 16.04.2020
4629 Clouds 7 1001 87 10000 3.1 360 12:39 16.04.2020
4630 Clouds 7 1001 87 10000 3.1 360 12:19 16.04.2020
4631 Clouds 7 1002 87 10000 2.1 50 11:56 16.04.2020
4632 Clouds 7 1002 87 10000 2.1 50 11:38 16.04.2020
4633 Clouds 7 1002 87 10000 2.1 50 11:20 16.04.2020
4634 Clouds 7 1002 87 10000 2.6 90 10:55 16.04.2020
4635 Clouds 7 1002 87 10000 2.6 90 10:36 16.04.2020
4636 Clouds 7 1002 87 10000 2.6 90 10:18 16.04.2020
4637 Clouds 8 1003 75 10000 1.5 320 09:39 16.04.2020
4638 Clouds 8 1003 75 10000 1.5 320 09:39 16.04.2020
4639 Clouds 8 1003 75 10000 1.5 320 09:20 16.04.2020
4640 Clouds 7 1003 87 10000 1.8 3 08:56 16.04.2020
4641 Clouds 7 1003 87 10000 1.8 3 08:36 16.04.2020
4642 Clouds 7 1003 87 10000 1.93 356 08:18 16.04.2020
4643 Clouds 7 1003 87 10000 1.8 3 08:18 16.04.2020
4644 Clouds 7 1004 81 10000 1.8 3 07:42 16.04.2020
4645 Clouds 7 1004 81 10000 1.8 3 07:21 16.04.2020
4646 Clouds 7 1004 87 10000 1.8 3 06:41 16.04.2020
4647 Clouds 7 1004 87 10000 1.45 14 06:22 16.04.2020
4648 Clouds 9 1005 76 10000 2.6 360 04:53 16.04.2020
4649 Clouds 9 1005 76 10000 0.97 14 03:28 16.04.2020
4650 Clouds 10 1005 71 10000 1.5 360 02:59 16.04.2020
4651 Clouds 10 1005 71 10000 1.5 360 02:38 16.04.2020
4652 Clouds 10 1005 71 10000 0.97 14 01:29 16.04.2020
4653 Clouds 11 1005 66 10000 0.97 14 00:54 16.04.2020
4654 Clouds 11 1005 66 10000 1.11 352 00:21 16.04.2020
4655 Clouds 12 1005 58 10000 1.5 360 23:55 15.04.2020
4656 Clouds 12 1005 58 10000 1.5 360 23:36 15.04.2020
4657 Clouds 12 1005 58 10000 1.5 360 23:18 15.04.2020
4658 Clouds 13 1004 58 10000 1.5 360 22:39 15.04.2020
4659 Clouds 13 1004 58 10000 1.5 360 22:20 15.04.2020
4660 Clouds 13 1004 47 10000 2.1 50 21:56 15.04.2020
4661 Clouds 13 1004 47 10000 2.1 50 21:38 15.04.2020
4662 Clouds 13 1004 47 10000 2.1 50 21:20 15.04.2020
4663 Clouds 13 1005 50 10000 1.5 50 20:55 15.04.2020
4664 Clouds 13 1005 50 10000 1.5 50 20:55 15.04.2020
4665 Clouds 13 1005 50 10000 1.5 50 20:37 15.04.2020
4666 Clouds 13 1005 50 10000 1.5 50 20:19 15.04.2020
4667 Clouds 12 1005 62 10000 2.24 337 19:41 15.04.2020
4668 Clouds 11 1006 66 10000 2.24 337 19:20 15.04.2020
4669 Clouds 11 1006 66 10000 2.24 337 19:20 15.04.2020
4670 Clouds 11 1006 66 10000 2.24 337 18:43 15.04.2020
4671 Clouds 11 1005 66 10000 2.5 339 18:23 15.04.2020
4672 Clouds 11 1005 66 10000 2.5 339 17:58 15.04.2020
4673 Clouds 11 1005 66 10000 2.5 339 17:39 15.04.2020
4674 Clouds 11 1005 66 10000 2.5 339 17:20 15.04.2020
4675 Clouds 7 1004 81 10000 2.5 339 16:57 15.04.2020
4676 Clouds 7 1004 81 10000 2.5 339 16:38 15.04.2020
4677 Clouds 7 1004 81 10000 2.5 339 16:19 15.04.2020
4678 Clouds 7 1004 81 10000 2.5 339 16:19 15.04.2020
4679 Clouds 11 1005 66 0 2.5 339 15:57 15.04.2020
4680 Clouds 7 1004 81 10000 1.5 320 15:39 15.04.2020
4681 Clouds 7 1004 81 10000 1.5 320 15:19 15.04.2020
4682 Clouds 7 1004 81 10000 1.5 320 14:57 15.04.2020
4683 Clouds 7 1004 81 10000 1.5 320 14:39 15.04.2020
4684 Clouds 7 1004 81 10000 1.5 320 14:39 15.04.2020
4685 Clouds 7 1004 81 10000 1.5 320 14:21 15.04.2020
4686 Clouds 6 1004 93 10000 2.6 140 13:57 15.04.2020
4687 Clouds 6 1004 93 10000 2.6 140 13:38 15.04.2020
4688 Clouds 6 1004 93 10000 2.6 140 13:19 15.04.2020
4689 Clouds 7 1004 81 10000 2.6 320 12:43 15.04.2020
4690 Clouds 7 1004 81 10000 2.6 320 12:24 15.04.2020
4691 Clouds 6 1004 93 10000 2.37 345 11:59 15.04.2020
4692 Clouds 6 1004 93 10000 2.37 345 11:41 15.04.2020
4693 Clouds 6 1004 93 10000 2.37 345 11:23 15.04.2020
4694 Clouds 6 1004 93 10000 2.6 90 10:56 15.04.2020
4695 Clouds 6 1004 93 10000 2.6 90 10:36 15.04.2020
4696 Clouds 6 1004 93 10000 2.6 90 10:18 15.04.2020
4697 Clouds 6 1004 100 10000 2.1 360 09:54 15.04.2020
4698 Clouds 6 1004 100 10000 2.1 360 09:36 15.04.2020
4699 Clouds 6 1004 100 10000 2.1 360 09:18 15.04.2020
4700 Clouds 6 1004 100 10000 3.6 360 08:40 15.04.2020
4701 Clouds 6 1004 100 10000 3.6 360 08:19 15.04.2020
4702 Clouds 7 1004 81 10000 2.1 140 07:54 15.04.2020
4703 Clouds 7 1004 81 10000 2.1 140 07:32 15.04.2020
4704 Clouds 8 1004 75 10000 2.39 344 06:34 15.04.2020
4705 Clouds 8 1004 75 10000 2.39 344 06:34 15.04.2020
4706 Clouds 9 1004 66 10000 2.85 325 05:51 15.04.2020
4707 Clouds 9 1004 66 10000 2.85 325 05:20 15.04.2020
4708 Clouds 9 1004 66 10000 2.85 325 04:44 15.04.2020
4709 Clouds 9 1004 66 10000 2.1 360 03:40 15.04.2020
4710 Clouds 9 1004 66 10000 2.1 360 03:18 15.04.2020
4711 Clouds 9 1004 61 10000 2.52 326 02:33 15.04.2020
4712 Clouds 9 1004 66 10000 2.52 326 01:44 15.04.2020
4713 Clouds 9 1004 66 10000 2.52 326 01:20 15.04.2020
4714 Clouds 9 1004 66 10000 2.52 326 00:37 15.04.2020
4715 Clouds 9 1004 66 10000 2.67 313 00:19 15.04.2020
4716 Clouds 9 1004 76 10000 2.67 313 23:55 14.04.2020
4717 Clouds 9 1004 76 10000 2.67 313 23:36 14.04.2020
4718 Clouds 9 1004 76 10000 2.67 313 23:18 14.04.2020
4719 Clouds 9 1004 70 10000 2.67 313 22:55 14.04.2020
4720 Clouds 9 1004 70 10000 2.67 313 22:36 14.04.2020
4721 Clouds 9 1004 70 10000 2.67 313 22:18 14.04.2020
4722 Clouds 9 1003 61 10000 2.67 313 21:55 14.04.2020
4723 Clouds 9 1003 61 10000 2.67 313 21:36 14.04.2020
4724 Clouds 9 1003 61 10000 2.81 306 21:18 14.04.2020
4725 Clouds 10 1004 61 10000 2.81 306 20:40 14.04.2020
4726 Clouds 10 1004 61 10000 2.63 311 20:40 14.04.2020
4727 Clouds 10 1004 61 10000 2.81 306 20:22 14.04.2020
4728 Clouds 9 1004 76 10000 2.81 306 19:58 14.04.2020
4729 Clouds 9 1004 76 10000 2.81 306 19:39 14.04.2020
4730 Clouds 9 1004 76 10000 2.63 311 19:20 14.04.2020
4731 Clouds 9 1004 70 10000 2.81 306 18:56 14.04.2020
4732 Clouds 9 1004 70 10000 2.63 311 18:37 14.04.2020
4733 Clouds 9 1004 70 10000 1.8 293 18:18 14.04.2020
4734 Clouds 8 1004 70 10000 1.8 293 17:55 14.04.2020
4735 Clouds 8 1004 70 10000 2.34 289 17:37 14.04.2020
4736 Clouds 8 1004 70 10000 1.8 293 17:18 14.04.2020
4737 Clouds 7 1004 72 10000 2.34 289 16:41 14.04.2020
4738 Clouds 7 1004 72 10000 2.34 289 16:23 14.04.2020
4739 Clouds 8 1005 72 0 2.34 289 15:58 14.04.2020
4740 Clouds 6 1004 75 10000 1.8 293 15:39 14.04.2020
4741 Clouds 6 1004 75 10000 1.16 305 15:20 14.04.2020
4742 Clouds 6 1004 75 10000 1.33 307 14:57 14.04.2020
4743 Clouds 6 1004 75 10000 1.16 305 14:39 14.04.2020
4744 Clouds 6 1004 75 10000 1.16 305 14:21 14.04.2020
4745 Clouds 6 1004 75 10000 1.16 305 13:55 14.04.2020
4746 Clouds 6 1004 75 10000 1.16 305 13:37 14.04.2020
4747 Clouds 6 1004 75 10000 1.16 305 13:19 14.04.2020
4748 Clouds 7 1004 65 10000 4.1 320 12:41 14.04.2020
4749 Clouds 7 1004 65 10000 4.1 320 12:20 14.04.2020
4750 Clouds 6 1004 75 10000 5.1 340 11:55 14.04.2020
4751 Clouds 6 1004 75 10000 5.1 340 11:36 14.04.2020
4752 Clouds 6 1004 75 10000 5.1 340 11:18 14.04.2020
4753 Clouds 7 1004 70 10000 5.7 320 10:43 14.04.2020
4754 Clouds 7 1004 70 10000 5.7 320 10:23 14.04.2020
4755 Clouds 8 1005 65 10000 3.6 270 09:43 14.04.2020
4756 Clouds 8 1005 65 10000 3.6 270 09:25 14.04.2020
4757 Clouds 7 1005 75 10000 3.6 270 08:59 14.04.2020
4758 Rain 6 1005 83 0 1.42 299 08:40 14.04.2020
4759 Clouds 7 1005 75 10000 3.6 270 08:21 14.04.2020
4760 Clouds 8 1004 65 10000 3.6 320 07:53 14.04.2020
4761 Clouds 8 1004 65 10000 3.6 320 07:29 14.04.2020
4762 Clouds 8 1004 65 10000 4.1 320 06:47 14.04.2020
4763 Rain 6 1005 83 0 1.36 294 05:55 14.04.2020
4764 Clouds 8 1004 70 10000 3.1 320 03:52 14.04.2020
4765 Clouds 9 1004 66 10000 4.1 320 02:53 14.04.2020
4766 Clouds 9 1004 66 10000 5.1 270 01:39 14.04.2020
4767 Clouds 9 1004 66 10000 5.1 270 01:18 14.04.2020
4768 Clouds 9 1004 66 10000 9.8 230 00:33 14.04.2020
4769 Clouds 9 1003 70 10000 11.8 230 23:59 13.04.2020
4770 Clouds 9 1003 70 10000 11.8 230 23:39 13.04.2020
4771 Clouds 9 1003 70 10000 11.8 230 23:21 13.04.2020
4772 Clouds 10 1003 61 10000 13.4 230 22:56 13.04.2020
4773 Clouds 10 1003 61 10000 13.4 230 22:37 13.04.2020
4774 Clouds 10 1003 61 10000 13.4 230 22:19 13.04.2020
4775 Clouds 10 1003 61 10000 13.4 230 21:54 13.04.2020
4776 Clouds 10 1003 61 10000 13.4 230 21:36 13.04.2020
4777 Clouds 10 1003 61 10000 13.4 230 21:18 13.04.2020
4778 Clouds 10 1002 71 10000 13.4 230 20:41 13.04.2020
4779 Clouds 10 1002 71 10000 13.4 230 20:20 13.04.2020
4780 Clouds 10 1002 71 10000 11.8 230 19:59 13.04.2020
4781 Clouds 10 1002 71 10000 11.8 230 19:37 13.04.2020
4782 Clouds 10 1002 71 10000 11.8 230 19:37 13.04.2020
4783 Clouds 10 1002 71 10000 11.8 230 19:37 13.04.2020
4784 Clouds 9 1002 70 10000 13.4 230 19:19 13.04.2020
4785 Clouds 9 1002 70 10000 13.4 230 18:58 13.04.2020
4786 Clouds 9 1002 70 10000 13.4 230 18:38 13.04.2020
4787 Clouds 9 1002 70 10000 14.4 230 18:19 13.04.2020
4788 Clouds 9 1002 70 10000 14.4 230 17:58 13.04.2020
4789 Clouds 9 1002 70 10000 14.4 230 17:37 13.04.2020
4790 Clouds 9 1002 70 10000 14.4 230 17:19 13.04.2020
4791 Clouds 9 1002 70 10000 12.3 230 16:58 13.04.2020
4792 Clouds 9 1002 70 10000 12.3 230 16:39 13.04.2020
4793 Clouds 9 1002 70 10000 12.3 230 16:20 13.04.2020
4794 Clouds 8 1001 75 10000 12.9 230 15:57 13.04.2020
4795 Clouds 8 1001 75 10000 12.9 230 15:38 13.04.2020
4796 Clouds 8 1001 75 10000 12.9 230 15:20 13.04.2020
4797 Clouds 6 1001 87 10000 12.3 230 14:42 13.04.2020
4798 Clouds 6 1001 87 10000 12.3 230 14:24 13.04.2020
4799 Clouds 6 1001 87 10000 9.3 230 13:57 13.04.2020
4800 Clouds 6 1001 87 10000 9.3 230 13:39 13.04.2020
4801 Clouds 6 1001 87 10000 9.3 230 13:21 13.04.2020
4802 Clouds 6 1001 87 10000 8.7 230 12:59 13.04.2020
4803 Clouds 6 1001 87 10000 8.7 230 12:40 13.04.2020
4804 Clouds 6 1001 87 10000 8.7 230 12:20 13.04.2020
4805 Clouds 6 1000 87 10000 8.2 230 11:58 13.04.2020
4806 Clouds 6 1000 87 10000 8.2 230 11:40 13.04.2020
4807 Clouds 6 1000 87 10000 8.2 230 11:18 13.04.2020
4808 Drizzle 6 1000 87 10000 3.6 270 10:55 13.04.2020
4809 Drizzle 6 1000 87 10000 3.6 270 10:37 13.04.2020
4810 Drizzle 6 1000 87 10000 3.6 270 10:18 13.04.2020
4811 Drizzle 7 1000 87 10000 3.1 270 09:44 13.04.2020
4812 Drizzle 7 1000 87 10000 3.1 270 09:26 13.04.2020
4813 Drizzle 7 1000 87 10000 3.1 270 09:26 13.04.2020
4814 Rain 7 1000 87 10000 4.1 250 08:48 13.04.2020
4815 Rain 7 1000 87 10000 4.1 250 08:48 13.04.2020
4816 Rain 7 1000 87 10000 4.1 250 08:29 13.04.2020
4817 Drizzle 6 999 81 10000 7.2 250 07:58 13.04.2020
4818 Drizzle 6 999 81 10000 7.2 250 07:38 13.04.2020
4819 Drizzle 6 999 81 10000 7.2 250 07:19 13.04.2020
4820 Drizzle 6 999 81 10000 7.2 250 06:46 13.04.2020
4821 Drizzle 6 999 81 10000 5.1 250 05:56 13.04.2020
4822 Drizzle 6 999 81 10000 5.1 250 05:27 13.04.2020
4823 Drizzle 6 999 81 10000 4.1 250 04:52 13.04.2020
4824 Drizzle 6 999 81 10000 4.1 250 04:22 13.04.2020
4825 Drizzle 6 999 81 10000 4.6 250 03:45 13.04.2020
4826 Drizzle 6 999 87 10000 6.7 230 02:49 13.04.2020
4827 Drizzle 6 999 87 10000 9.3 230 01:49 13.04.2020
4828 Drizzle 6 999 87 10000 9.3 230 01:30 13.04.2020
4829 Drizzle 6 999 87 10000 9.8 230 00:55 13.04.2020
4830 Drizzle 6 999 87 10000 9.8 230 00:36 13.04.2020
4831 Drizzle 6 999 87 10000 9.8 230 00:18 13.04.2020
4832 Rain 5 999 86 10000 10.3 230 23:42 12.04.2020
4833 Rain 5 999 86 10000 10.3 230 23:22 12.04.2020
4834 Rain 6 998 87 10000 10.3 230 22:55 12.04.2020
4835 Rain 6 998 87 10000 10.3 230 22:36 12.04.2020
4836 Rain 6 998 87 10000 10.3 230 22:18 12.04.2020
4837 Rain 6 998 87 10000 12.3 230 21:39 12.04.2020
4838 Rain 6 998 87 10000 12.3 230 21:20 12.04.2020
4839 Rain 6 997 87 10000 13.4 230 20:56 12.04.2020
4840 Rain 6 997 87 10000 13.4 230 20:37 12.04.2020
4841 Rain 6 997 87 10000 13.4 230 20:37 12.04.2020
4842 Rain 6 997 87 10000 13.4 230 20:19 12.04.2020
4843 Rain 6 998 87 10000 6.7 230 19:41 12.04.2020
4844 Drizzle 6 998 93 10000 10.3 230 19:20 12.04.2020
4845 Drizzle 6 998 93 10000 10.3 230 18:59 12.04.2020
4846 Drizzle 6 998 93 10000 10.3 230 18:40 12.04.2020
4847 Drizzle 6 997 87 10000 5.1 230 18:20 12.04.2020
4848 Drizzle 6 997 87 10000 5.1 230 17:56 12.04.2020
4849 Drizzle 6 997 87 10000 5.1 230 17:38 12.04.2020
4850 Drizzle 6 997 87 10000 5.1 230 17:18 12.04.2020
4851 Clouds 5 997 72 10000 2.6 140 16:56 12.04.2020
4852 Clouds 5 997 72 10000 2.6 140 16:36 12.04.2020
4853 Clouds 5 997 72 10000 2.6 140 16:18 12.04.2020
4854 Clouds 5 997 72 0 2.29 320 15:41 12.04.2020
4855 Clouds 4 984 60 10000 1 360 15:21 12.04.2020
4856 Clouds 4 984 60 10000 1 360 14:40 12.04.2020
4857 Clouds 4 984 60 10000 1 360 14:22 12.04.2020
4858 Clouds 4 998 60 10000 1.5 270 13:58 12.04.2020
4859 Clouds 4 998 60 10000 1.5 270 13:37 12.04.2020
4860 Clouds 4 998 60 10000 1.5 270 13:19 12.04.2020
4861 Snow 2 999 83 0 1.64 304 12:47 12.04.2020
4862 Clouds 3 999 64 10000 4.6 320 12:22 12.04.2020
4863 Clouds 3 999 64 10000 4.6 320 11:59 12.04.2020
4864 Clouds 3 999 64 10000 4.6 320 11:38 12.04.2020
4865 Clouds 3 999 64 10000 4.6 320 11:20 12.04.2020
4866 Clouds 3 999 74 10000 3.6 320 10:57 12.04.2020
4867 Clouds 3 999 74 10000 3.6 320 10:39 12.04.2020
4868 Clouds 3 999 74 10000 3.6 320 10:20 12.04.2020
4869 Clouds 5 999 85 10000 4.1 270 09:58 12.04.2020
4870 Clouds 5 999 85 10000 4.1 270 09:39 12.04.2020
4871 Clouds 5 999 88 10000 4.1 270 09:19 12.04.2020
4872 Clouds 5 999 65 10000 6.7 230 08:50 12.04.2020
4873 Clouds 5 999 65 10000 6.7 230 08:31 12.04.2020
4874 Clouds 4 999 64 10000 4.1 270 07:47 12.04.2020
4875 Clouds 4 999 64 10000 4.1 270 07:20 12.04.2020
4876 Clouds 4 999 64 10000 4.1 340 06:54 12.04.2020
4877 Clouds 4 999 88 10000 3.1 320 06:30 12.04.2020
4878 Clouds 4 999 86 10000 3.1 320 05:49 12.04.2020
4879 Clouds 4 999 80 10000 2.6 230 04:44 12.04.2020
4880 Clouds 5 999 75 10000 9.3 230 03:30 12.04.2020
4881 Clouds 5 999 75 10000 7.7 230 02:49 12.04.2020
4882 Clouds 5 999 75 10000 7.7 230 02:29 12.04.2020
4883 Clouds 5 998 75 10000 10.3 230 01:23 12.04.2020
4884 Clouds 5 998 80 10000 10.3 230 00:44 12.04.2020
4885 Clouds 5 998 80 10000 10.3 230 00:21 12.04.2020
4886 Clouds 6 997 75 10000 11.8 230 23:59 11.04.2020
4887 Clouds 6 997 75 10000 11.8 230 23:40 11.04.2020
4888 Clouds 6 997 75 10000 11.8 230 23:22 11.04.2020
4889 Clouds 6 997 75 10000 11.8 230 23:22 11.04.2020
4890 Drizzle 7 997 70 10000 12.3 230 22:39 11.04.2020
4891 Drizzle 7 997 70 10000 12.3 230 22:20 11.04.2020
4892 Drizzle 7 996 70 10000 11.8 230 21:56 11.04.2020
4893 Drizzle 7 996 70 10000 11.8 230 21:37 11.04.2020
4894 Drizzle 7 996 70 10000 11.8 230 21:18 11.04.2020
4895 Drizzle 8 995 76 10000 10.8 230 20:56 11.04.2020
4896 Drizzle 8 995 76 10000 10.8 230 20:38 11.04.2020
4897 Drizzle 8 995 76 10000 10.8 230 20:38 11.04.2020
4898 Drizzle 8 995 76 10000 10.8 230 20:19 11.04.2020
4899 Clouds 9 995 49 10000 8.2 230 19:57 11.04.2020
4900 Clouds 9 995 49 10000 8.2 230 19:38 11.04.2020
4901 Clouds 9 995 49 10000 8.2 230 19:18 11.04.2020
4902 Clouds 9 995 49 10000 8.2 230 19:18 11.04.2020
4903 Clouds 9 995 49 10000 11.3 230 18:55 11.04.2020
4904 Clouds 9 995 49 10000 11.3 230 18:37 11.04.2020
4905 Rain 8 995 61 10000 6.2 230 18:18 11.04.2020
4906 Rain 8 995 61 10000 6.2 230 17:58 11.04.2020
4907 Rain 8 995 61 10000 6.2 230 17:38 11.04.2020
4908 Rain 8 995 61 10000 6.2 230 17:19 11.04.2020
4909 Clouds 9 995 57 10000 3.1 140 16:43 11.04.2020
4910 Clouds 9 995 57 10000 3.1 140 16:22 11.04.2020
4911 Clouds 9 995 57 10000 3.1 140 16:22 11.04.2020
4912 Clouds 7 995 56 10000 2.6 110 15:56 11.04.2020
4913 Clouds 7 995 56 10000 2.6 110 15:36 11.04.2020
4914 Clouds 7 995 56 10000 2.6 110 15:18 11.04.2020
4915 Clouds 6 995 60 10000 2.1 180 14:42 11.04.2020
4916 Clouds 6 995 60 10000 2.1 180 14:42 11.04.2020
4917 Clouds 6 995 60 10000 2.1 180 14:23 11.04.2020
4918 Clouds 6 995 56 10000 6.2 340 13:59 11.04.2020
4919 Clouds 6 995 56 10000 6.2 340 13:38 11.04.2020
4920 Clouds 6 995 56 10000 6.2 340 13:19 11.04.2020
4921 Clouds 7 996 48 10000 4.1 320 12:41 11.04.2020
4922 Clouds 7 996 48 10000 4.1 320 12:19 11.04.2020
4923 Clouds 6 997 48 10000 2.1 290 11:56 11.04.2020
4924 Clouds 6 997 48 10000 2.1 290 11:38 11.04.2020
4925 Clouds 6 997 48 10000 2.1 290 11:19 11.04.2020
4926 Clouds 6 997 45 10000 2.1 290 10:43 11.04.2020
4927 Clouds 6 997 45 10000 2.1 290 10:22 11.04.2020
4928 Clouds 6 998 48 10000 3.1 320 09:59 11.04.2020
4929 Clouds 6 998 48 10000 3.1 320 09:39 11.04.2020
4930 Clouds 6 998 48 10000 3.1 320 09:21 11.04.2020
4931 Clouds 5 998 60 10000 2.1 320 08:49 11.04.2020
4932 Clouds 5 998 60 10000 2.1 320 08:28 11.04.2020
4933 Clouds 5 999 75 10000 2.1 160 07:53 11.04.2020
4934 Clouds 5 999 75 10000 2.1 160 07:34 11.04.2020
4935 Clouds 6 999 56 10000 2.42 335 06:51 11.04.2020
4936 Clouds 6 999 56 10000 1.94 340 06:20 11.04.2020
4937 Clouds 5 1000 80 10000 2.1 140 05:55 11.04.2020
4938 Clouds 6 1001 60 10000 1.5 230 03:42 11.04.2020
4939 Clouds 6 1001 60 10000 1.5 250 02:37 11.04.2020
4940 Clouds 7 1001 72 10000 4.6 230 01:25 11.04.2020
4941 Clouds 7 1001 72 10000 8.2 230 00:44 11.04.2020
4942 Clouds 7 1001 61 10000 8.2 230 00:20 11.04.2020
4943 Clouds 8 1000 70 10000 11.8 230 23:58 10.04.2020
4944 Clouds 8 1000 70 10000 11.8 230 23:40 10.04.2020
4945 Clouds 8 1000 70 10000 11.8 230 23:19 10.04.2020
4946 Clouds 9 1000 61 10000 11.8 230 22:55 10.04.2020
4947 Clouds 9 1000 61 10000 11.8 230 22:36 10.04.2020
4948 Clouds 9 1000 61 10000 11.8 230 22:18 10.04.2020
4949 Clouds 9 999 61 10000 12.3 230 21:41 10.04.2020
4950 Clouds 9 999 61 10000 12.3 230 21:20 10.04.2020
4951 Clouds 9 999 61 10000 12.3 230 21:20 10.04.2020
4952 Clouds 8 998 70 10000 12.3 230 20:56 10.04.2020
4953 Clouds 8 998 70 10000 12.3 230 20:37 10.04.2020
4954 Clouds 8 998 70 10000 12.3 230 20:37 10.04.2020
4955 Clouds 8 998 70 10000 12.3 230 20:19 10.04.2020
4956 Clouds 8 998 70 10000 10.3 230 19:54 10.04.2020
4957 Clouds 8 998 70 10000 10.3 230 19:36 10.04.2020
4958 Clouds 8 996 65 10000 14.9 230 19:18 10.04.2020
4959 Clouds 8 996 65 10000 14.9 230 18:55 10.04.2020
4960 Clouds 8 996 65 10000 14.9 230 18:36 10.04.2020
4961 Clouds 8 996 65 10000 14.9 230 18:18 10.04.2020
4962 Rain 8 995 61 10000 12.9 230 17:56 10.04.2020
4963 Rain 8 995 61 10000 12.9 230 17:37 10.04.2020
4964 Rain 8 995 61 10000 12.9 230 17:18 10.04.2020
4965 Rain 10 993 67 10000 18 230 16:41 10.04.2020
4966 Rain 10 993 67 10000 18 230 16:23 10.04.2020
4967 Rain 11 992 40 10000 9.3 250 15:58 10.04.2020
4968 Rain 11 992 40 10000 9.3 250 15:38 10.04.2020
4969 Rain 11 992 40 10000 9.3 250 15:20 10.04.2020
4970 Clouds 12 990 27 10000 7.7 320 14:58 10.04.2020
4971 Clouds 12 990 27 10000 7.7 320 14:39 10.04.2020
4972 Clouds 12 990 27 10000 7.7 320 14:20 10.04.2020
4973 Clouds 11 989 32 10000 10.3 290 13:45 10.04.2020
4974 Clouds 11 989 32 10000 10.3 290 13:23 10.04.2020
4975 Clouds 12 989 30 10000 12.9 290 12:56 10.04.2020
4976 Clouds 12 989 30 10000 12.9 290 12:37 10.04.2020
4977 Clouds 12 989 30 10000 12.9 290 12:19 10.04.2020
4978 Clouds 15 991 22 10000 7.7 320 11:43 10.04.2020
4979 Clouds 15 991 22 10000 7.7 320 11:24 10.04.2020
4980 Clouds 15 991 22 10000 7.7 320 10:58 10.04.2020
4981 Clouds 15 991 22 10000 7.7 320 10:39 10.04.2020
4982 Clouds 15 991 22 10000 7.7 320 10:19 10.04.2020
4983 Clouds 7 992 68 0 5.36 332 09:43 10.04.2020
4984 Clouds 7 992 68 0 5.36 332 09:43 10.04.2020
4985 Rain 9 993 62 0 4.83 325 09:22 10.04.2020
4986 Rain 9 993 62 0 4.83 325 08:50 10.04.2020
4987 Clouds 15 990 24 10000 9.3 320 08:27 10.04.2020
4988 Clouds 15 990 24 10000 9.3 320 08:27 10.04.2020
4989 Clouds 15 990 24 10000 9.3 320 07:57 10.04.2020
4990 Clouds 15 990 24 10000 9.3 320 07:39 10.04.2020
4991 Clouds 15 990 24 10000 9.3 320 07:20 10.04.2020
4992 Clouds 15 990 58 10000 12.9 320 06:38 10.04.2020
4993 Clouds 15 990 58 10000 12.9 320 06:19 10.04.2020
4994 Clouds 13 991 58 10000 6.2 230 05:30 10.04.2020
4995 Clouds 16 991 48 10000 6.7 290 04:55 10.04.2020
4996 Clouds 17 991 51 10000 5.1 270 03:35 10.04.2020
4997 Clouds 17 992 51 10000 3.24 337 02:51 10.04.2020
4998 Clouds 17 992 51 10000 2.63 330 02:33 10.04.2020
4999 Clouds 17 992 48 10000 1 50 01:47 10.04.2020
5000 Clouds 17 992 48 10000 1 50 01:27 10.04.2020
5001 Clouds 17 992 48 10000 2.1 140 00:46 10.04.2020
5002 Clouds 17 992 48 10000 2.1 140 00:20 10.04.2020
5003 Clouds 19 992 39 10000 2.82 347 23:42 09.04.2020
5004 Clouds 19 992 39 10000 2.82 347 23:24 09.04.2020
5005 Clouds 17 993 42 10000 3.1 90 22:57 09.04.2020
5006 Clouds 17 993 42 10000 3.1 90 22:39 09.04.2020
5007 Clouds 17 993 42 10000 3.1 90 22:21 09.04.2020
5008 Clouds 19 994 39 10000 2.6 90 21:40 09.04.2020
5009 Clouds 19 994 39 10000 2.6 90 21:21 09.04.2020
5010 Clouds 19 994 45 10000 5.1 90 20:54 09.04.2020
5011 Clouds 19 994 45 10000 5.1 90 20:36 09.04.2020
5012 Clouds 19 994 45 10000 5.1 90 20:18 09.04.2020
5013 Clouds 16 996 63 10000 4.1 180 19:39 09.04.2020
5014 Clouds 16 996 63 10000 4.1 180 19:21 09.04.2020
5015 Clouds 16 996 63 10000 4.1 180 19:21 09.04.2020
5016 Clouds 15 997 67 10000 3.62 354 18:42 09.04.2020
5017 Clouds 16 997 67 10000 2.8 352 18:21 09.04.2020
5018 Clouds 16 998 72 10000 1.5 50 17:58 09.04.2020
5019 Clouds 16 998 72 10000 1.5 50 17:39 09.04.2020
5020 Clouds 16 998 72 10000 1.5 50 17:19 09.04.2020
5021 Rain 13 999 66 10000 2.8 352 16:40 09.04.2020
5022 Rain 13 999 66 10000 2.8 352 16:20 09.04.2020
5023 Clouds 11 1000 71 10000 2.8 352 15:57 09.04.2020
5024 Clouds 11 1000 71 10000 2.8 352 15:37 09.04.2020
5025 Clouds 11 1000 71 10000 0.79 356 15:19 09.04.2020
5026 Clouds 11 1000 87 10000 0.79 356 14:56 09.04.2020
5027 Clouds 11 1000 87 10000 0.79 356 14:36 09.04.2020
5028 Clouds 11 1000 87 10000 0.48 22 14:18 09.04.2020
5029 Clouds 11 1001 87 10000 5.1 90 13:42 09.04.2020
5030 Clouds 11 1001 87 10000 5.1 90 13:23 09.04.2020
5031 Clouds 11 1001 87 10000 10.3 50 12:55 09.04.2020
5032 Clouds 11 1001 87 10000 10.3 50 12:36 09.04.2020
5033 Clouds 11 1001 87 10000 10.3 50 12:18 09.04.2020
5034 Clouds 10 1001 87 10000 8.7 70 11:43 09.04.2020
5035 Clouds 10 1001 87 10000 8.7 70 11:20 09.04.2020
5036 Clouds 10 1001 87 10000 8.7 70 11:20 09.04.2020
5037 Clouds 11 1000 81 10000 5.7 230 10:59 09.04.2020
5038 Clouds 11 1000 81 10000 5.7 230 10:41 09.04.2020
5039 Clouds 11 1000 81 10000 5.7 230 10:21 09.04.2020
5040 Clouds 12 1000 71 10000 7.2 230 09:57 09.04.2020
5041 Clouds 12 1000 71 10000 7.2 230 09:57 09.04.2020
5042 Clouds 12 1000 71 10000 7.2 230 09:38 09.04.2020
5043 Clouds 12 1000 71 10000 7.2 230 09:20 09.04.2020
5044 Clouds 15 1000 51 10000 4.6 180 08:44 09.04.2020
5045 Clouds 15 1000 51 10000 4.6 180 08:24 09.04.2020
5046 Clouds 17 1000 45 10000 3.1 110 07:57 09.04.2020
5047 Clouds 17 1000 45 10000 3.1 110 07:28 09.04.2020
5048 Clouds 19 1000 34 10000 1.21 307 06:57 09.04.2020
5049 Clouds 19 1000 34 10000 1.88 332 06:26 09.04.2020
5050 Clouds 20 999 30 10000 5.7 320 05:46 09.04.2020
5051 Clouds 20 999 30 10000 6.2 320 04:26 09.04.2020
5052 Clear 20 998 30 10000 1.5 320 02:33 09.04.2020
5053 Clear 20 998 32 10000 3.6 320 01:44 09.04.2020
5054 Clear 20 998 32 10000 3.6 320 01:24 09.04.2020
5055 Clear 20 999 34 10000 12.9 320 00:43 09.04.2020
5056 Clouds 20 999 34 10000 12.9 320 00:20 09.04.2020
5057 Clouds 20 998 32 10000 10.3 340 23:59 08.04.2020
5058 Clouds 20 998 32 10000 10.3 340 23:41 08.04.2020
5059 Clouds 20 998 32 10000 10.3 340 23:21 08.04.2020
5060 Clouds 20 999 32 10000 5.1 340 22:44 08.04.2020
5061 Clouds 20 1000 32 10000 3.1 140 22:24 08.04.2020
5062 Clouds 20 1000 32 10000 3.1 140 21:57 08.04.2020
5063 Clouds 20 1000 32 10000 3.1 140 21:39 08.04.2020
5064 Clouds 20 1000 32 10000 3.1 140 21:20 08.04.2020
5065 Clouds 20 1000 32 10000 2.6 50 20:58 08.04.2020
5066 Clouds 20 1000 32 10000 2.6 50 20:39 08.04.2020
5067 Clouds 20 1000 32 10000 2.6 50 20:20 08.04.2020
5068 Clouds 20 1001 32 10000 6.2 340 19:56 08.04.2020
5069 Clouds 20 1001 32 10000 6.2 340 19:37 08.04.2020
5070 Clouds 19 1002 45 10000 3.6 320 19:19 08.04.2020
5071 Clouds 19 1002 45 10000 3.6 320 19:19 08.04.2020
5072 Clouds 19 1002 45 10000 3.6 320 18:42 08.04.2020
5073 Clouds 19 1002 45 10000 3.6 320 18:23 08.04.2020
5074 Clouds 19 1002 45 10000 7.7 360 17:56 08.04.2020
5075 Clouds 19 1002 45 10000 7.7 360 17:38 08.04.2020
5076 Clouds 19 1002 45 10000 7.7 360 17:18 08.04.2020
5077 Clouds 17 1002 48 10000 8.2 360 16:42 08.04.2020
5078 Clouds 16 1002 48 10000 8.2 360 16:23 08.04.2020
5079 Clouds 16 1002 42 10000 10.8 360 15:56 08.04.2020
5080 Clouds 14 1002 48 10000 9.3 360 15:37 08.04.2020
5081 Clouds 14 1002 48 10000 9.3 360 15:19 08.04.2020
5082 Clouds 14 1002 48 10000 9.3 360 14:43 08.04.2020
5083 Clouds 14 1002 48 10000 9.3 360 14:25 08.04.2020
5084 Clouds 16 1002 59 10000 9.8 360 13:55 08.04.2020
5085 Clouds 16 1002 59 10000 9.8 360 13:37 08.04.2020
5086 Clouds 16 1002 59 10000 9.8 360 13:18 08.04.2020
5087 Clouds 16 1002 55 10000 10.3 360 12:41 08.04.2020
5088 Clouds 16 1002 55 10000 10.3 360 12:18 08.04.2020
5089 Clouds 16 1002 55 10000 9.3 360 11:57 08.04.2020
5090 Clouds 16 1002 55 10000 9.3 360 11:39 08.04.2020
5091 Clouds 16 1002 55 10000 9.3 360 11:21 08.04.2020
5092 Clouds 15 1003 58 10000 10.8 360 10:55 08.04.2020
5093 Clouds 15 1003 58 10000 10.8 360 10:37 08.04.2020
5094 Clouds 15 1003 58 10000 10.8 360 10:18 08.04.2020
5095 Clouds 10 1004 79 0 3.08 337 09:42 08.04.2020
5096 Clouds 16 1003 55 10000 10.8 320 09:21 08.04.2020
5097 Clouds 16 1003 55 10000 10.8 320 08:59 08.04.2020
5098 Clouds 16 1003 55 10000 10.8 320 08:41 08.04.2020
5099 Clouds 16 1003 55 10000 10.8 320 08:21 08.04.2020
5100 Clouds 16 1003 59 10000 9.8 320 07:43 08.04.2020
5101 Clouds 16 1003 59 10000 9.8 320 07:23 08.04.2020
5102 Clouds 11 1004 80 0 3.71 345 06:48 08.04.2020
5103 Clouds 13 1004 66 10000 6.2 340 05:56 08.04.2020
5104 Rain 11 1005 81 10000 2.1 160 03:34 08.04.2020
5105 Rain 11 1005 76 10000 2.6 140 02:49 08.04.2020
5106 Rain 11 1005 76 10000 2.6 140 02:19 08.04.2020
5107 Clouds 12 1006 66 10000 1.5 250 01:30 08.04.2020
5108 Clouds 12 1006 66 10000 2.1 270 00:59 08.04.2020
5109 Clouds 12 1006 66 10000 2.1 270 00:59 08.04.2020
5110 Clouds 12 1006 66 10000 2.1 270 00:40 08.04.2020
5111 Clouds 12 1006 66 10000 2.1 270 00:20 08.04.2020
5112 Clouds 14 1006 58 10000 6.2 360 23:39 07.04.2020
5113 Clouds 14 1006 58 10000 6.2 360 23:20 07.04.2020
5114 Clouds 14 1006 58 10000 6.2 360 23:20 07.04.2020
5115 Clouds 14 1007 58 10000 5.7 360 22:57 07.04.2020
5116 Clouds 14 1007 58 10000 5.7 360 22:38 07.04.2020
5117 Clouds 14 1007 58 10000 5.7 360 22:19 07.04.2020
5118 Clouds 13 1007 62 10000 5.1 320 21:56 07.04.2020
5119 Clouds 13 1007 62 10000 5.1 320 21:37 07.04.2020
5120 Clouds 13 1007 62 10000 5.1 320 21:18 07.04.2020
5121 Clouds 13 1007 71 10000 3.16 337 20:55 07.04.2020
5122 Clouds 13 1007 71 10000 3.16 337 20:36 07.04.2020
5123 Clouds 13 1007 71 10000 3.16 337 20:18 07.04.2020
5124 Clouds 10 1008 76 10000 3.16 337 19:55 07.04.2020
5125 Clouds 10 1008 76 10000 3.16 337 19:36 07.04.2020
5126 Clouds 10 1008 76 10000 2.6 320 19:18 07.04.2020
5127 Clouds 10 1008 76 10000 2.6 320 19:18 07.04.2020
5128 Clouds 10 1008 76 10000 2.6 320 18:41 07.04.2020
5129 Clouds 10 1008 76 10000 2.6 320 18:21 07.04.2020
5130 Clouds 10 1008 76 10000 1.5 50 17:57 07.04.2020
5131 Clouds 10 1008 76 10000 1.5 50 17:38 07.04.2020
5132 Clouds 10 1008 76 10000 1.5 50 17:20 07.04.2020
5133 Clouds 9 1008 70 10000 2.3 335 16:45 07.04.2020
5134 Clouds 9 1008 70 10000 2.3 335 16:26 07.04.2020
5135 Clouds 8 1009 70 10000 2.3 335 15:46 07.04.2020
5136 Clouds 7 1008 81 10000 1.98 340 15:27 07.04.2020
5137 Clouds 7 1008 81 10000 1.98 340 14:57 07.04.2020
5138 Clouds 7 1008 81 10000 1.78 339 14:38 07.04.2020
5139 Clouds 7 1008 81 10000 1.78 339 14:20 07.04.2020
5140 Clouds 7 1008 81 10000 1.5 320 13:43 07.04.2020
5141 Clouds 7 1008 81 10000 1.5 320 13:20 07.04.2020
5142 Clouds 6 1007 81 10000 1.78 339 12:58 07.04.2020
5143 Clouds 6 1007 81 10000 1.78 339 12:39 07.04.2020
5144 Clouds 6 1007 81 10000 1.88 334 12:21 07.04.2020
5145 Clouds 6 1007 87 10000 1.88 334 11:58 07.04.2020
5146 Clouds 6 1007 87 10000 1.88 334 11:40 07.04.2020
5147 Clouds 6 1007 87 10000 1.88 334 11:20 07.04.2020
5148 Clouds 7 1006 81 10000 1.88 334 10:54 07.04.2020
5149 Clouds 7 1006 81 10000 1.88 334 10:36 07.04.2020
5150 Clouds 7 1006 81 10000 1.88 334 10:18 07.04.2020
5151 Clouds 8 1006 70 10000 2.6 360 09:40 07.04.2020
5152 Clouds 8 1006 70 10000 2.6 360 09:18 07.04.2020
5153 Clouds 8 1006 70 10000 2.1 320 08:41 07.04.2020
5154 Clouds 8 1006 70 10000 2.1 320 08:23 07.04.2020
5155 Clouds 9 1005 70 10000 2.6 290 07:57 07.04.2020
5156 Clouds 9 1005 70 10000 2.6 290 07:38 07.04.2020
5157 Clouds 9 1005 70 10000 2.6 290 07:20 07.04.2020
5158 Clouds 10 1005 66 10000 5.7 270 06:42 07.04.2020
5159 Clouds 10 1005 66 10000 5.7 270 06:18 07.04.2020
5160 Clouds 9 1004 70 10000 1.5 270 05:29 07.04.2020
5161 Clouds 9 1003 70 10000 4.1 140 04:35 07.04.2020
5162 Clouds 9 1002 70 10000 4.1 110 03:24 07.04.2020
5163 Clouds 10 1001 66 10000 6.2 90 02:47 07.04.2020
5164 Clouds 10 1001 66 10000 9.8 230 01:47 07.04.2020
5165 Clouds 10 1001 66 10000 9.8 230 01:23 07.04.2020
5166 Clouds 11 1001 62 10000 8.2 320 00:27 07.04.2020
5167 Clouds 14 1001 50 10000 7.2 320 23:44 06.04.2020
5168 Clouds 14 1001 50 10000 7.2 320 23:23 06.04.2020
5169 Clouds 11 1001 62 10000 8.2 320 22:57 06.04.2020
5170 Clouds 11 1001 62 10000 8.2 320 22:37 06.04.2020
5171 Clouds 11 1001 62 10000 8.2 320 22:19 06.04.2020
5172 Clouds 10 1000 61 10000 11.3 340 21:56 06.04.2020
5173 Clouds 10 1000 61 10000 11.3 340 21:38 06.04.2020
5174 Clouds 10 1000 61 10000 11.3 340 21:18 06.04.2020
5175 Clouds 8 1001 75 10000 9.8 340 20:42 06.04.2020
5176 Clouds 8 1001 75 10000 9.8 340 20:23 06.04.2020
5177 Clouds 8 1002 75 10000 7.7 340 19:59 06.04.2020
5178 Clouds 8 1002 75 10000 7.7 340 19:40 06.04.2020
5179 Clouds 8 1002 75 10000 7.7 340 19:22 06.04.2020
5180 Clouds 7 1002 75 10000 4.1 340 18:56 06.04.2020
5181 Clouds 7 1002 75 10000 4.1 340 18:37 06.04.2020
5182 Clouds 7 1003 75 10000 3.6 140 18:19 06.04.2020
5183 Clouds 7 1003 75 10000 3.6 140 17:42 06.04.2020
5184 Clouds 7 1003 75 10000 3.6 140 17:20 06.04.2020
5185 Clouds 7 1003 75 10000 3.6 140 17:20 06.04.2020
5186 Clouds 7 1003 75 10000 3.6 140 17:20 06.04.2020
5187 Clouds 7 1004 75 10000 3.1 140 16:50 06.04.2020
5188 Clouds 7 1004 75 10000 3.1 140 16:31 06.04.2020
5189 Clouds 6 1000 56 10000 2.6 230 15:40 06.04.2020
5190 Clouds 4 1005 76 0 2.65 310 13:46 06.04.2020
5191 Clouds 4 1005 76 10000 2.6 50 13:24 06.04.2020
5192 Clouds 4 1005 76 10000 2.6 50 13:02 06.04.2020
5193 Clouds 4 1005 76 10000 2.6 50 13:02 06.04.2020
5194 Clouds 4 1005 76 10000 2.6 50 13:00 06.04.2020
5195 Clouds 4 1005 76 10000 2.6 50 13:00 06.04.2020
5196 Clouds 4 1005 76 10000 2.6 50 12:22 06.04.2020
5197 Clouds 4 1005 76 10000 2.6 50 12:22 06.04.2020
5198 Clouds 5 1005 65 10000 2.1 140 11:54 06.04.2020
5199 Clouds 5 1005 65 10000 2.1 140 11:54 06.04.2020
5200 Clouds 5 1005 65 10000 2.1 140 11:32 06.04.2020
5201 Clouds 5 1005 65 10000 2.1 140 11:32 06.04.2020
5202 Clouds 5 1005 65 10000 2.1 140 11:32 06.04.2020
5203 Clouds 5 1005 65 10000 2.1 140 11:32 06.04.2020
5204 Clouds 5 1005 65 10000 2.1 140 11:32 06.04.2020
5205 Clouds 5 1005 65 10000 1.9 322 10:51 06.04.2020
5206 Clouds 5 1005 65 10000 1.9 322 10:51 06.04.2020
5207 Clouds 5 1005 65 10000 1.9 322 10:51 06.04.2020
5208 Clouds 5 1005 65 10000 1.9 322 10:51 06.04.2020
5209 Clouds 5 1005 65 10000 1.9 322 10:51 06.04.2020
5210 Clouds 5 1005 65 10000 1.9 322 10:21 06.04.2020
5211 Clouds 4 1005 82 10000 3.1 230 09:47 06.04.2020
5212 Clouds 4 1005 82 10000 3.1 230 09:47 06.04.2020
5213 Clouds 4 1005 82 10000 3.1 230 09:47 06.04.2020
5214 Clouds 4 1005 83 10000 3.1 230 09:21 06.04.2020
5215 Clouds 4 1005 85 10000 2.6 140 08:54 06.04.2020
5216 Clouds 4 1005 85 10000 2.6 140 08:30 06.04.2020
5217 Clouds 4 1005 69 10000 2.1 320 07:39 06.04.2020
5218 Clouds 4 1005 69 10000 1.92 310 06:47 06.04.2020
5219 Clouds 4 1005 69 10000 1.92 310 06:24 06.04.2020
5220 Rain 4 1004 84 10000 4.1 230 04:20 06.04.2020
5221 Rain 4 1003 80 10000 4.6 230 02:59 06.04.2020
5222 Rain 4 1003 80 10000 4.6 230 02:36 06.04.2020
5223 Clouds 4 1001 80 10000 9.8 230 01:28 06.04.2020
5224 Clouds 4 1000 80 10000 10.8 230 00:44 06.04.2020
5225 Clouds 4 1000 80 10000 10.8 230 00:23 06.04.2020
5226 Drizzle 4 999 80 10000 14.4 230 23:44 05.04.2020
5227 Drizzle 4 999 80 10000 14.4 230 23:26 05.04.2020
5228 Rain 4 998 80 10000 14.4 230 22:56 05.04.2020
5229 Rain 4 998 80 10000 14.4 230 22:37 05.04.2020
5230 Rain 4 998 80 10000 14.4 230 22:37 05.04.2020
5231 Rain 4 998 80 10000 14.4 230 22:37 05.04.2020
5232 Rain 4 998 80 10000 14.4 230 22:18 05.04.2020
5233 Rain 4 996 80 10000 14.4 230 21:46 05.04.2020
5234 Rain 4 996 80 10000 14.4 230 21:26 05.04.2020
5235 Clouds 4 994 86 10000 14.4 230 21:03 05.04.2020
5236 Clouds 4 994 86 10000 14.4 230 21:03 05.04.2020
5237 Clouds 4 994 86 10000 14.4 230 21:03 05.04.2020
5238 Clouds 4 994 86 10000 14.4 230 21:03 05.04.2020
5239 Clouds 4 994 86 10000 14.4 230 21:03 05.04.2020
5240 Clouds 4 994 86 10000 14.4 230 20:20 05.04.2020
5241 Clouds 4 994 86 10000 14.4 230 20:20 05.04.2020
5242 Clouds 4 994 86 10000 14.4 230 20:20 05.04.2020
5243 Rain 4 994 93 10000 10.8 230 19:39 05.04.2020
5244 Rain 4 994 93 10000 10.8 230 19:21 05.04.2020
5245 Rain 3 993 86 10000 10.8 230 18:44 05.04.2020
5246 Rain 3 993 86 10000 10.8 230 18:44 05.04.2020
5247 Rain 3 993 86 10000 10.8 230 18:44 05.04.2020
5248 Rain 3 993 86 10000 10.8 230 18:44 05.04.2020
5249 Rain 3 993 86 10000 10.8 230 18:44 05.04.2020
5250 Drizzle 3 991 86 10000 6.2 230 17:57 05.04.2020
5251 Drizzle 3 991 86 10000 6.2 230 17:39 05.04.2020
5252 Drizzle 3 991 86 10000 6.2 230 17:39 05.04.2020
5253 Drizzle 3 991 86 10000 6.2 230 17:39 05.04.2020
5254 Drizzle 3 991 86 10000 6.2 230 17:39 05.04.2020
5255 Drizzle 3 991 86 10000 6.2 230 17:39 05.04.2020
5256 Drizzle 3 991 86 10000 6.2 230 17:20 05.04.2020
5257 Drizzle 3 991 86 10000 6.2 230 17:20 05.04.2020
5258 Drizzle 3 991 86 10000 6.2 230 17:20 05.04.2020
5259 Drizzle 3 991 86 10000 6.2 230 17:20 05.04.2020
5260 Drizzle 3 991 86 10000 6.2 230 17:20 05.04.2020
5261 Drizzle 4 990 80 10000 6.7 230 16:21 05.04.2020
5262 Drizzle 4 990 80 10000 6.7 230 16:21 05.04.2020
5263 Drizzle 3 988 64 10000 7.2 230 15:55 05.04.2020
5264 Drizzle 3 988 64 10000 7.2 230 15:37 05.04.2020
5265 Drizzle 3 988 85 10000 7.2 230 15:18 05.04.2020
5266 Clouds 3 986 85 10000 10.3 230 14:40 05.04.2020
5267 Clouds 3 986 85 10000 10.3 230 14:40 05.04.2020
5268 Clouds 3 986 85 10000 10.3 230 14:40 05.04.2020
5269 Clouds 3 986 85 10000 10.3 230 14:40 05.04.2020
5270 Clouds 3 986 85 10000 10.3 230 14:39 05.04.2020
5271 Drizzle 3 985 85 10000 8.2 230 13:44 05.04.2020
5272 Drizzle 3 985 85 10000 8.2 230 13:44 05.04.2020
5273 Clouds 3 983 85 10000 11.3 230 12:54 05.04.2020
5274 Clouds 3 983 85 10000 11.3 230 12:54 05.04.2020
5275 Clouds 3 983 85 10000 11.3 230 12:54 05.04.2020
5276 Clouds 3 983 85 10000 11.3 230 12:54 05.04.2020
5277 Clouds 3 982 86 10000 7.7 250 11:43 05.04.2020
5278 Clouds 3 982 86 10000 7.7 250 11:21 05.04.2020
5279 Clouds 4 981 80 10000 11.8 230 10:59 05.04.2020
5280 Clouds 4 981 80 10000 11.8 230 10:41 05.04.2020
5281 Clouds 4 981 80 10000 11.8 230 10:18 05.04.2020
5282 Clouds 3 980 86 10000 10.3 230 09:43 05.04.2020
5283 Clouds 3 980 86 10000 10.3 230 09:24 05.04.2020
5284 Clouds 3 980 86 10000 10.3 230 09:24 05.04.2020
5285 Clouds 3 980 86 10000 10.3 230 09:24 05.04.2020
5286 Clouds 3 980 86 10000 10.3 230 09:24 05.04.2020
5287 Clouds 3 980 86 10000 10.3 230 09:24 05.04.2020
5288 Clouds 4 980 80 10000 3.6 270 07:42 05.04.2020
5289 Clouds 4 979 85 10000 4.1 230 04:40 05.04.2020
5290 Clouds 4 978 80 10000 4.6 230 03:33 05.04.2020
5291 Clouds 5 978 75 10000 9.3 230 02:52 05.04.2020
5292 Clouds 5 978 75 10000 8.2 230 01:48 05.04.2020
5293 Clouds 5 978 75 10000 8.2 230 01:30 05.04.2020
5294 Rain 5 978 75 10000 7.7 230 00:46 05.04.2020
5295 Rain 5 978 75 10000 7.7 230 00:22 05.04.2020
5296 Clouds 5 978 86 10000 5.1 230 23:56 04.04.2020
5297 Clouds 5 978 86 10000 5.1 230 23:37 04.04.2020
5298 Clouds 5 978 86 10000 5.1 230 23:19 04.04.2020
5299 Clouds 5 978 86 10000 7.2 230 22:41 04.04.2020
5300 Clouds 6 978 86 10000 7.2 230 22:22 04.04.2020
5301 Clouds 6 977 86 10000 6.2 230 21:59 04.04.2020
5302 Clouds 6 977 86 10000 6.2 230 21:40 04.04.2020
5303 Clouds 6 977 86 10000 6.2 230 21:20 04.04.2020
5304 Clouds 6 977 86 10000 6.2 230 21:20 04.04.2020
5305 Clouds 7 978 81 10000 7.7 230 20:59 04.04.2020
5306 Clouds 7 978 81 10000 7.7 230 20:41 04.04.2020
5307 Clouds 7 978 81 10000 7.7 230 20:22 04.04.2020
5308 Clouds 7 978 75 10000 9.3 220 19:57 04.04.2020
5309 Clouds 7 978 75 10000 9.3 220 19:37 04.04.2020
5310 Clouds 7 978 75 10000 7.7 230 19:19 04.04.2020
5311 Clouds 6 979 81 10000 6.2 230 18:56 04.04.2020
5312 Clouds 6 979 81 10000 6.2 230 18:38 04.04.2020
5313 Clouds 6 979 81 10000 6.2 230 18:19 04.04.2020
5314 Rain 6 979 75 10000 7.7 230 17:56 04.04.2020
5315 Rain 6 979 75 10000 7.7 230 17:38 04.04.2020
5316 Rain 6 979 75 10000 7.7 230 17:38 04.04.2020
5317 Rain 6 979 75 10000 7.7 230 17:38 04.04.2020
5318 Rain 6 979 75 10000 7.7 230 17:18 04.04.2020
5319 Rain 6 979 75 10000 7.7 200 16:42 04.04.2020
5320 Rain 6 979 75 10000 7.7 200 16:22 04.04.2020
5321 Rain 6 979 60 10000 2.6 90 15:56 04.04.2020
5322 Rain 6 979 60 10000 2.6 90 15:38 04.04.2020
5323 Rain 6 979 60 10000 2.6 90 15:18 04.04.2020
5324 Rain 6 979 56 10000 4.1 160 14:43 04.04.2020
5325 Rain 6 979 56 10000 4.1 160 14:23 04.04.2020
5326 Rain 5 980 60 10000 7.7 20 13:56 04.04.2020
5327 Rain 5 980 60 10000 7.7 20 13:38 04.04.2020
5328 Rain 5 980 60 10000 7.7 20 13:20 04.04.2020
5329 Rain 5 980 56 10000 9.3 340 12:45 04.04.2020
5330 Rain 5 980 56 10000 9.3 340 12:27 04.04.2020
5331 Clouds 4 981 69 10000 9.8 360 11:59 04.04.2020
5332 Clouds 4 981 69 10000 9.8 360 11:40 04.04.2020
5333 Clouds 4 981 69 10000 9.8 360 11:21 04.04.2020
5334 Clouds 2 983 83 10000 6.2 320 10:57 04.04.2020
5335 Clouds 2 983 83 10000 6.2 320 10:39 04.04.2020
5336 Clouds 2 983 83 10000 6.2 320 10:21 04.04.2020
5337 Clouds 2 985 83 10000 2.91 352 09:55 04.04.2020
5338 Clouds 2 985 83 10000 2.91 352 09:37 04.04.2020
5339 Clouds 2 985 83 10000 2.35 326 09:19 04.04.2020
5340 Clouds 2 986 83 10000 2.1 320 08:42 04.04.2020
5341 Clouds 2 986 83 10000 2.1 320 08:23 04.04.2020
5342 Clouds 2 988 93 10000 2.6 320 07:47 04.04.2020
5343 Clouds 2 988 93 10000 2.6 320 07:28 04.04.2020
5344 Clouds 3 988 86 10000 3.1 360 06:58 04.04.2020
5345 Clouds 4 988 86 10000 8.7 230 06:21 04.04.2020
5346 Clouds 4 988 86 10000 8.7 230 05:51 04.04.2020
5347 Clouds 4 988 86 10000 8.7 230 05:32 04.04.2020
5348 Clouds 4 989 86 10000 5.1 230 04:33 04.04.2020
5349 Clouds 5 989 80 10000 10.3 230 03:55 04.04.2020
5350 Clouds 5 989 80 10000 10.3 230 03:27 04.04.2020
5351 Clouds 5 989 80 10000 7.7 230 02:40 04.04.2020
5352 Clouds 5 989 80 10000 7.7 230 02:22 04.04.2020
5353 Rain 6 989 70 10000 12.9 230 01:26 04.04.2020
5354 Rain 7 986 65 8000 17.5 230 00:55 04.04.2020
5355 Rain 7 986 65 8000 17.5 230 00:30 04.04.2020
5356 Clouds 10 987 39 10000 4.1 320 23:55 03.04.2020
5357 Clouds 10 987 39 10000 4.1 320 23:36 03.04.2020
5358 Clouds 10 987 39 10000 4.1 320 23:18 03.04.2020
5359 Clouds 11 987 32 10000 5.1 320 22:40 03.04.2020
5360 Clouds 11 987 32 10000 5.1 320 22:19 03.04.2020
5361 Clouds 11 988 34 10000 6.2 320 21:56 03.04.2020
5362 Clouds 11 988 34 10000 6.2 320 21:37 03.04.2020
5363 Clouds 11 988 34 10000 6.2 320 21:19 03.04.2020
5364 Clouds 10 989 57 10000 5.1 320 20:54 03.04.2020
5365 Clouds 10 989 57 10000 5.1 320 20:36 03.04.2020
5366 Clouds 10 989 57 10000 5.1 320 20:18 03.04.2020
5367 Clouds 9 992 61 10000 7.2 320 19:54 03.04.2020
5368 Clouds 9 992 61 10000 7.2 320 19:36 03.04.2020
5369 Clouds 9 992 61 10000 7.2 320 19:36 03.04.2020
5370 Clouds 9 992 61 10000 7.2 320 19:18 03.04.2020
5371 Clouds 9 991 51 0 3.96 321 18:42 03.04.2020
5372 Clouds 8 993 75 10000 3.1 90 18:23 03.04.2020
5373 Clouds 8 993 75 10000 3.1 90 18:23 03.04.2020
5374 Clouds 8 993 75 10000 3.1 90 17:58 03.04.2020
5375 Clouds 8 993 75 10000 3.1 90 17:40 03.04.2020
5376 Clouds 8 993 75 10000 3.1 90 17:40 03.04.2020
5377 Clouds 8 993 75 10000 3.1 90 17:19 03.04.2020
5378 Clouds 8 994 81 10000 4.1 50 16:55 03.04.2020
5379 Clouds 8 994 81 10000 4.1 50 16:54 03.04.2020
5380 Clouds 8 994 81 10000 4.1 50 16:54 03.04.2020
5381 Clouds 8 994 81 10000 4.1 50 16:36 03.04.2020
5382 Clouds 8 994 81 10000 4.1 50 16:18 03.04.2020
5383 Clouds 6 995 87 10000 1.5 360 15:41 03.04.2020
5384 Clouds 6 995 87 10000 1.5 360 15:22 03.04.2020
5385 Clouds 6 995 87 10000 1.5 360 14:57 03.04.2020
5386 Rain 4 996 78 0 1.56 335 14:39 03.04.2020
5387 Clouds 5 996 86 10000 4.1 340 14:21 03.04.2020
5388 Clouds 5 996 86 10000 4.1 340 13:46 03.04.2020
5389 Clouds 5 996 86 10000 4.1 340 13:27 03.04.2020
5390 Rain 6 997 70 10000 4.1 340 12:57 03.04.2020
5391 Rain 6 997 70 10000 4.1 340 12:39 03.04.2020
5392 Rain 6 997 70 10000 4.1 340 12:18 03.04.2020
5393 Rain 5 997 86 10000 3.1 270 11:55 03.04.2020
5394 Rain 5 997 86 10000 3.1 270 11:37 03.04.2020
5395 Rain 5 997 86 10000 3.1 270 11:18 03.04.2020
5396 Clouds 6 997 81 10000 3.6 290 10:56 03.04.2020
5397 Clouds 6 997 81 10000 3.6 290 10:37 03.04.2020
5398 Clouds 6 997 81 10000 3.6 290 10:19 03.04.2020
5399 Clouds 7 997 75 10000 6.2 250 09:55 03.04.2020
5400 Clouds 7 997 75 10000 6.2 250 09:37 03.04.2020
5401 Clouds 7 997 75 10000 6.2 250 09:19 03.04.2020
5402 Rain 7 997 81 10000 12.9 230 08:44 03.04.2020
5403 Rain 7 997 81 10000 12.9 230 08:24 03.04.2020
5404 Clouds 10 995 76 10000 14.4 230 07:51 03.04.2020
5405 Clouds 10 995 76 10000 14.4 230 07:33 03.04.2020
5406 Rain 10 995 71 10000 11.3 230 06:58 03.04.2020
5407 Rain 10 995 71 10000 11.3 230 06:28 03.04.2020
5408 Clouds 10 995 81 10000 5.1 230 05:42 03.04.2020
5409 Clouds 11 996 76 10000 6.2 230 04:18 03.04.2020
5410 Clouds 11 996 76 10000 6.2 230 03:32 03.04.2020
5411 Rain 12 996 71 10000 9.8 230 02:31 03.04.2020
5412 Clouds 14 996 54 10000 6.7 230 01:25 03.04.2020
5413 Clouds 15 997 51 10000 5.7 270 00:47 03.04.2020
5414 Clouds 15 997 51 10000 5.7 270 00:29 03.04.2020
5415 Clouds 16 1000 44 10000 7.7 340 23:54 02.04.2020
5416 Clouds 16 1000 44 10000 7.7 340 23:36 02.04.2020
5417 Clouds 16 1000 44 10000 7.7 340 23:18 02.04.2020
5418 Clouds 16 1000 44 10000 7.7 340 22:41 02.04.2020
5419 Clouds 16 1000 44 10000 7.7 340 22:22 02.04.2020
5420 Clouds 17 998 45 10000 6.7 310 21:58 02.04.2020
5421 Clouds 17 998 45 10000 6.7 310 21:37 02.04.2020
5422 Clouds 17 998 45 10000 6.7 310 21:18 02.04.2020
5423 Rain 13 1002 67 0 5.65 339 20:45 02.04.2020
5424 Clouds 14 1001 50 10000 6.2 340 20:25 02.04.2020
5425 Clouds 14 1001 50 10000 6.2 340 19:57 02.04.2020
5426 Clouds 14 1001 50 10000 6.2 340 19:39 02.04.2020
5427 Clouds 14 1001 50 10000 6.2 340 19:20 02.04.2020
5428 Clouds 14 1002 50 10000 8.7 340 18:55 02.04.2020
5429 Clouds 14 1002 50 10000 8.7 340 18:36 02.04.2020
5430 Clouds 14 1002 50 10000 8.7 340 18:18 02.04.2020
5431 Clouds 14 1003 47 10000 5.1 340 17:42 02.04.2020
5432 Clouds 14 1003 47 10000 5.1 340 17:24 02.04.2020
5433 Clouds 13 1003 54 10000 5.1 340 16:58 02.04.2020
5434 Clouds 13 1003 54 10000 5.1 340 16:40 02.04.2020
5435 Clouds 13 1003 54 10000 5.1 340 16:21 02.04.2020
5436 Clouds 13 1004 54 10000 6.7 340 15:57 02.04.2020
5437 Clouds 13 1004 54 10000 6.7 340 15:39 02.04.2020
5438 Clouds 13 1004 54 10000 6.7 340 15:18 02.04.2020
5439 Clouds 13 1005 54 10000 7.2 360 14:57 02.04.2020
5440 Clouds 13 1005 54 10000 7.2 360 14:38 02.04.2020
5441 Clouds 13 1005 54 10000 7.2 360 14:18 02.04.2020
5442 Clouds 13 1005 54 10000 7.2 360 14:18 02.04.2020
5443 Clouds 14 1006 47 10000 8.7 360 13:54 02.04.2020
5444 Clouds 14 1006 47 10000 8.7 360 13:54 02.04.2020
5445 Clouds 14 1006 47 10000 8.7 360 13:36 02.04.2020
5446 Clouds 14 1006 47 10000 8.7 360 13:18 02.04.2020
5447 Clouds 14 1006 47 10000 8.7 320 12:44 02.04.2020
5448 Clouds 14 1006 47 10000 8.7 320 12:19 02.04.2020
5449 Clouds 14 1007 50 10000 6.7 340 11:57 02.04.2020
5450 Clouds 14 1007 50 10000 6.7 340 11:39 02.04.2020
5451 Clouds 14 1007 50 10000 6.7 340 11:20 02.04.2020
5452 Clouds 13 1007 54 10000 7.2 340 10:56 02.04.2020
5453 Clouds 13 1007 54 10000 7.2 340 10:38 02.04.2020
5454 Clouds 13 1007 54 10000 7.2 340 10:38 02.04.2020
5455 Clouds 13 1007 54 10000 7.2 340 10:20 02.04.2020
5456 Clouds 14 1008 50 10000 7.7 340 09:58 02.04.2020
5457 Clouds 14 1008 50 10000 7.7 340 09:58 02.04.2020
5458 Clouds 14 1008 50 10000 7.7 340 09:39 02.04.2020
5459 Clouds 14 1008 50 10000 7.7 340 09:20 02.04.2020
5460 Clouds 14 1008 50 10000 6.2 320 08:47 02.04.2020
5461 Clouds 14 1008 50 10000 6.2 320 08:27 02.04.2020
5462 Clouds 14 1008 47 10000 9.3 320 07:54 02.04.2020
5463 Clouds 14 1008 47 10000 9.3 320 07:36 02.04.2020
5464 Clouds 14 1008 47 10000 9.3 320 07:18 02.04.2020
5465 Clouds 14 1008 47 10000 7.2 320 06:23 02.04.2020
5466 Clouds 13 1008 54 10000 7.7 320 05:46 02.04.2020
5467 Clouds 13 1009 54 10000 7.2 320 04:50 02.04.2020
5468 Clouds 12 1009 62 10000 2.6 140 02:19 02.04.2020
5469 Clouds 13 1009 54 10000 1.5 320 00:58 02.04.2020
5470 Clouds 13 1009 54 10000 1.5 320 00:38 02.04.2020
5471 Clouds 13 1009 54 10000 1.5 320 00:19 02.04.2020
5472 Clouds 14 1010 50 10000 2.34 324 23:38 01.04.2020
5473 Clouds 14 1010 50 10000 2.34 324 23:19 01.04.2020
5474 Clouds 14 1010 54 10000 1.5 360 22:56 01.04.2020
5475 Clouds 14 1010 54 10000 1.5 360 22:37 01.04.2020
5476 Clouds 14 1010 54 10000 1.5 360 22:19 01.04.2020
5477 Clouds 14 1010 50 10000 2.1 140 21:39 01.04.2020
5478 Clouds 14 1010 50 10000 2.1 140 21:19 01.04.2020
5479 Clouds 13 1010 54 10000 2.1 140 20:56 01.04.2020
5480 Clouds 13 1010 54 10000 2.1 140 20:38 01.04.2020
5481 Clouds 13 1010 54 10000 2.1 140 20:19 01.04.2020
5482 Clouds 12 1011 66 10000 3.32 316 19:57 01.04.2020
5483 Clouds 12 1011 66 10000 3.32 316 19:37 01.04.2020
5484 Clouds 12 1011 66 10000 3.32 316 19:37 01.04.2020
5485 Clouds 12 1011 66 10000 3.32 316 19:19 01.04.2020
5486 Clouds 12 1011 66 10000 1.5 140 18:42 01.04.2020
5487 Clouds 12 1011 66 10000 1.5 140 18:22 01.04.2020
5488 Rain 11 1011 71 10000 3.05 337 17:57 01.04.2020
5489 Rain 11 1011 71 10000 3.05 337 17:37 01.04.2020
5490 Rain 11 1011 71 10000 3.05 337 17:19 01.04.2020
5491 Rain 10 1011 76 10000 3.05 337 16:57 01.04.2020
5492 Rain 10 1011 76 10000 3.05 337 16:39 01.04.2020
5493 Rain 10 1011 76 10000 3.05 337 16:20 01.04.2020
5494 Rain 9 1011 61 10000 3.05 337 15:56 01.04.2020
5495 Rain 9 1011 61 10000 3.05 337 15:37 01.04.2020
5496 Clouds 9 1011 61 10000 1.82 335 15:18 01.04.2020
5497 Clouds 7 1011 93 10000 1.82 335 14:40 01.04.2020
5498 Clouds 7 1011 93 10000 1.9 336 14:22 01.04.2020
5499 Clouds 8 1011 65 10000 1.9 336 13:59 01.04.2020
5500 Clouds 8 1011 65 10000 1.9 336 13:40 01.04.2020
5501 Clouds 8 1011 65 10000 1.9 336 13:20 01.04.2020
5502 Clouds 7 1011 75 10000 1.9 336 12:59 01.04.2020
5503 Clouds 7 1011 75 10000 1.9 336 12:41 01.04.2020
5504 Clouds 7 1011 75 10000 1.9 336 12:22 01.04.2020
5505 Clouds 8 1011 70 10000 1.81 330 11:57 01.04.2020
5506 Clouds 8 1011 70 10000 1.81 330 11:37 01.04.2020
5507 Clouds 8 1011 70 10000 1.81 330 11:37 01.04.2020
5508 Clouds 8 1011 70 10000 1.81 330 11:19 01.04.2020
5509 Clouds 8 1011 70 10000 2.1 340 10:40 01.04.2020
5510 Clouds 8 1011 70 10000 2.1 340 10:21 01.04.2020
5511 Clouds 8 1011 75 10000 1.81 330 09:59 01.04.2020
5512 Clouds 8 1011 75 10000 1.81 330 09:40 01.04.2020
5513 Clouds 8 1011 75 10000 1.82 324 09:20 01.04.2020
5514 Clouds 8 1010 75 10000 1.94 327 08:56 01.04.2020
5515 Clouds 8 1010 75 10000 1.94 327 08:37 01.04.2020
5516 Clouds 8 1010 75 10000 1.94 327 08:18 01.04.2020
5517 Clouds 8 1010 75 10000 2.1 340 07:41 01.04.2020
5518 Clouds 8 1010 75 10000 2.1 340 07:19 01.04.2020
5519 Clouds 8 1010 75 10000 1.94 327 06:43 01.04.2020
5520 Clouds 8 1010 75 10000 1.94 327 06:21 01.04.2020
5521 Clouds 8 1010 75 10000 3.1 320 05:50 01.04.2020
5522 Clouds 8 1010 81 10000 4.6 320 04:29 01.04.2020
5523 Clouds 8 1010 81 10000 4.1 320 03:20 01.04.2020
5524 Clouds 9 1010 76 10000 2.6 320 02:37 01.04.2020
5525 Clouds 9 1010 76 10000 5.7 230 01:53 01.04.2020
5526 Clouds 9 1010 76 10000 5.7 230 01:27 01.04.2020
5527 Clouds 9 1010 76 10000 5.7 250 00:47 01.04.2020
5528 Clouds 9 1010 76 10000 5.7 250 00:24 01.04.2020
5529 Clouds 10 1009 71 10000 3.1 270 23:59 31.03.2020
5530 Clouds 10 1009 71 10000 3.1 270 23:41 31.03.2020
5531 Clouds 10 1009 71 10000 3.1 270 23:22 31.03.2020
5532 Clouds 10 1009 66 10000 5.1 230 22:41 31.03.2020
5533 Clouds 10 1009 66 10000 5.1 230 22:22 31.03.2020
5534 Clouds 11 1009 66 10000 7.2 230 21:58 31.03.2020
5535 Clouds 11 1009 66 10000 7.2 230 21:40 31.03.2020
5536 Clouds 11 1009 66 10000 7.2 230 21:21 31.03.2020
5537 Clouds 11 1009 71 10000 7.2 230 20:58 31.03.2020
5538 Clouds 11 1009 71 10000 7.2 230 20:58 31.03.2020
5539 Clouds 11 1009 71 10000 7.2 230 20:37 31.03.2020
5540 Clouds 11 1009 71 10000 7.2 230 20:19 31.03.2020
5541 Clouds 11 1009 71 10000 5.1 230 19:57 31.03.2020
5542 Clouds 11 1009 71 10000 5.1 230 19:38 31.03.2020
5543 Clouds 11 1009 71 10000 5.1 230 19:19 31.03.2020
5544 Clouds 10 1009 71 10000 5.1 230 18:46 31.03.2020
5545 Clouds 10 1009 71 10000 5.1 230 18:21 31.03.2020
5546 Clouds 10 1009 76 10000 5.1 250 17:58 31.03.2020
5547 Clouds 10 1009 76 10000 5.1 250 17:40 31.03.2020
5548 Clouds 10 1009 76 10000 5.1 250 17:21 31.03.2020
5549 Clouds 9 1008 70 10000 5.1 250 16:57 31.03.2020
5550 Clouds 9 1008 70 10000 5.1 250 16:37 31.03.2020
5551 Clouds 9 1008 70 10000 5.1 250 16:18 31.03.2020
5552 Clouds 8 1008 81 10000 5.1 230 15:56 31.03.2020
5553 Clouds 8 1008 81 10000 5.1 230 15:37 31.03.2020
5554 Clouds 8 1008 81 10000 5.1 230 15:37 31.03.2020
5555 Clouds 8 1008 81 10000 5.1 230 15:18 31.03.2020
5556 Clouds 8 1008 81 10000 5.1 230 14:43 31.03.2020
5557 Clouds 8 1008 81 10000 5.1 230 14:24 31.03.2020
5558 Clouds 8 1000 87 10000 8.7 230 13:59 31.03.2020
5559 Clouds 8 1000 87 10000 8.7 230 13:41 31.03.2020
5560 Clouds 8 1000 87 10000 8.7 230 13:19 31.03.2020
5561 Clouds 8 1007 81 10000 8.2 230 12:46 31.03.2020
5562 Clouds 8 1007 81 10000 8.2 230 12:21 31.03.2020
5563 Clouds 9 1006 70 10000 10.3 230 11:59 31.03.2020
5564 Clouds 9 1006 70 10000 10.3 230 11:38 31.03.2020
5565 Clouds 9 1006 70 10000 10.3 230 11:19 31.03.2020
5566 Clouds 9 1005 70 10000 10.8 230 10:56 31.03.2020
5567 Clouds 9 1005 70 10000 10.8 230 10:38 31.03.2020
5568 Clouds 9 1005 70 10000 10.8 230 10:20 31.03.2020
5569 Clouds 9 1005 70 10000 10.3 230 09:55 31.03.2020
5570 Clouds 9 1005 70 10000 10.3 230 09:37 31.03.2020
5571 Clouds 9 1005 70 10000 10.3 230 09:19 31.03.2020
5572 Clouds 9 1005 66 10000 8.2 230 08:54 31.03.2020
5573 Clouds 9 1005 66 10000 8.2 230 08:36 31.03.2020
5574 Clouds 9 1005 66 10000 8.2 230 08:18 31.03.2020
5575 Drizzle 10 1004 61 10000 7.7 230 07:43 31.03.2020
5576 Drizzle 10 1004 61 10000 7.7 230 07:23 31.03.2020
5577 Drizzle 10 1004 61 10000 9.3 230 06:58 31.03.2020
5578 Drizzle 10 1004 61 10000 9.3 230 06:39 31.03.2020
5579 Clouds 10 1004 61 10000 8.7 200 05:42 31.03.2020
5580 Clouds 10 1004 61 10000 8.7 200 05:23 31.03.2020
5581 Clouds 11 1004 50 10000 4.6 320 02:56 31.03.2020
5582 Clouds 10 1005 57 10000 5.1 140 01:47 31.03.2020
5583 Clouds 10 1005 57 10000 5.1 140 01:22 31.03.2020
5584 Clouds 11 1005 50 10000 1.5 320 00:43 31.03.2020
5585 Clouds 11 1005 50 10000 1.5 320 00:23 31.03.2020
5586 Clouds 12 1005 50 10000 8.7 320 23:40 30.03.2020
5587 Clouds 12 1005 50 10000 8.7 320 23:20 30.03.2020
5588 Clouds 13 1005 43 10000 7.2 320 22:58 30.03.2020
5589 Clouds 13 1005 43 10000 7.2 320 22:38 30.03.2020
5590 Clouds 13 1005 43 10000 7.2 320 22:19 30.03.2020
5591 Clouds 13 1006 47 10000 6.7 320 21:57 30.03.2020
5592 Clouds 13 1006 47 10000 6.7 320 21:38 30.03.2020
5593 Clouds 13 1006 47 10000 6.7 320 21:20 30.03.2020
5594 Clouds 13 1007 43 10000 7.7 320 20:58 30.03.2020
5595 Clouds 13 1007 43 10000 7.7 320 20:38 30.03.2020
5596 Clouds 13 1007 43 10000 7.7 320 20:19 30.03.2020
5597 Clouds 10 1008 66 10000 2.1 90 19:54 30.03.2020
5598 Clouds 10 1008 66 10000 2.1 90 19:36 30.03.2020
5599 Clouds 10 1008 66 10000 2.1 90 19:18 30.03.2020
5600 Clouds 9 1008 70 10000 3.6 140 18:41 30.03.2020
5601 Clouds 9 1008 70 10000 3.6 140 18:23 30.03.2020
5602 Clouds 9 1008 70 10000 2.5 320 17:57 30.03.2020
5603 Clouds 9 1008 70 10000 2.5 320 17:39 30.03.2020
5604 Clouds 9 1008 70 10000 2.5 320 17:19 30.03.2020
5605 Clouds 8 1009 75 10000 4.6 360 16:57 30.03.2020
5606 Clouds 8 1009 75 10000 4.6 360 16:39 30.03.2020
5607 Clouds 8 1009 75 10000 4.6 360 16:20 30.03.2020
5608 Clouds 8 1009 70 10000 4.1 320 15:55 30.03.2020
5609 Clouds 8 1009 70 10000 4.1 320 15:37 30.03.2020
5610 Clouds 8 1009 70 10000 4.1 320 15:19 30.03.2020
5611 Clouds 8 1009 70 10000 4.1 250 14:55 30.03.2020
5612 Clouds 8 1009 70 10000 4.1 250 14:37 30.03.2020
5613 Clouds 8 1009 70 10000 4.1 250 14:18 30.03.2020
5614 Clouds 6 1009 81 10000 3.6 250 13:54 30.03.2020
5615 Clouds 6 1009 81 10000 3.6 250 13:36 30.03.2020
5616 Clouds 6 1009 81 10000 3.6 250 13:18 30.03.2020
5617 Clouds 6 1008 81 10000 4.1 230 12:41 30.03.2020
5618 Clouds 6 1008 81 10000 4.1 230 12:20 30.03.2020
5619 Drizzle 6 1007 81 10000 9.3 230 11:57 30.03.2020
5620 Drizzle 6 1007 81 10000 9.3 230 11:39 30.03.2020
5621 Drizzle 6 1007 81 10000 9.3 230 11:21 30.03.2020
5622 Drizzle 7 1006 81 10000 10.8 230 10:41 30.03.2020
5623 Drizzle 7 1006 81 10000 10.8 230 10:22 30.03.2020
5624 Drizzle 8 1005 70 10000 13.9 230 09:58 30.03.2020
5625 Drizzle 8 1005 70 10000 13.9 230 09:39 30.03.2020
5626 Drizzle 8 1005 70 10000 13.9 230 09:19 30.03.2020
5627 Clouds 8 1005 70 10000 7.2 230 08:43 30.03.2020
5628 Clouds 8 1005 70 10000 7.2 230 08:23 30.03.2020
5629 Clouds 8 1005 75 10000 4.1 230 07:55 30.03.2020
5630 Clouds 8 1005 75 10000 4.1 230 07:37 30.03.2020
5631 Clouds 8 1005 70 10000 3.1 230 06:59 30.03.2020
5632 Rain 6 1007 80 0 2.52 296 06:34 30.03.2020
5633 Clouds 9 1005 70 10000 1.78 324 05:59 30.03.2020
5634 Clouds 9 1005 70 10000 1.78 324 05:38 30.03.2020
5635 Clouds 9 1005 70 10000 2.6 230 04:27 30.03.2020
5636 Clouds 10 1006 61 10000 1.78 324 03:50 30.03.2020
5637 Rain 7 1007 81 0 2.2 342 02:43 30.03.2020
5638 Clouds 11 1006 57 10000 3.6 320 01:52 30.03.2020
5639 Clouds 11 1006 62 10000 7.7 320 00:56 30.03.2020
5640 Clouds 11 1006 62 10000 7.7 320 00:25 30.03.2020
5641 Clouds 11 1006 62 10000 7.7 320 00:25 30.03.2020
5642 Clouds 12 1006 58 10000 8.2 320 23:55 29.03.2020
5643 Clouds 12 1006 58 10000 8.2 320 23:36 29.03.2020
5644 Clouds 12 1006 58 10000 8.2 320 23:18 29.03.2020
5645 Clouds 12 1006 58 10000 6.2 320 22:39 29.03.2020
5646 Clouds 12 1006 58 10000 6.2 320 22:20 29.03.2020
5647 Clouds 12 1006 58 10000 4.1 340 21:58 29.03.2020
5648 Clouds 12 1006 58 10000 4.1 340 21:37 29.03.2020
5649 Clouds 12 1006 58 10000 4.1 340 21:18 29.03.2020
5650 Clouds 11 1006 57 10000 3.1 360 20:55 29.03.2020
5651 Clouds 11 1006 57 10000 3.1 360 20:37 29.03.2020
5652 Clouds 11 1006 57 10000 3.1 360 20:37 29.03.2020
5653 Clouds 11 1006 57 10000 3.1 360 20:18 29.03.2020
5654 Clouds 9 1006 66 10000 1.5 140 19:55 29.03.2020
5655 Clouds 9 1006 66 10000 1.5 140 19:55 29.03.2020
5656 Clouds 9 1006 66 10000 1.5 140 19:37 29.03.2020
5657 Clouds 9 1006 66 10000 1.5 140 19:18 29.03.2020
5658 Clouds 9 1007 66 10000 3.99 317 18:55 29.03.2020
5659 Clouds 9 1007 66 10000 3.99 317 18:55 29.03.2020
5660 Clouds 9 1007 66 10000 3.99 317 18:36 29.03.2020
5661 Clouds 9 1007 66 10000 3.37 321 18:18 29.03.2020
5662 Clouds 9 1008 66 10000 3.37 321 17:42 29.03.2020
5663 Clouds 9 1008 66 10000 3.37 321 17:24 29.03.2020
5664 Clouds 8 1008 70 10000 3.37 321 16:59 29.03.2020
5665 Clouds 8 1008 70 10000 3.37 321 16:41 29.03.2020
5666 Clouds 8 1008 70 10000 3.37 321 16:21 29.03.2020
5667 Clouds 8 1008 70 10000 3.37 321 15:59 29.03.2020
5668 Clouds 8 1008 70 10000 3.37 321 15:59 29.03.2020
5669 Clouds 8 1008 70 10000 3.37 321 15:40 29.03.2020
5670 Clouds 8 1008 70 10000 3.37 321 15:21 29.03.2020
5671 Clouds 5 1008 86 10000 2.01 327 14:57 29.03.2020
5672 Clouds 5 1008 86 10000 2.01 327 14:37 29.03.2020
5673 Clouds 5 1008 86 10000 2.01 327 14:19 29.03.2020
5674 Clouds 4 1008 80 10000 1.85 321 13:55 29.03.2020
5675 Clouds 4 1008 80 10000 1.85 321 13:37 29.03.2020
5676 Clouds 4 1008 80 10000 1.85 321 13:19 29.03.2020
5677 Clouds 4 1008 86 10000 1.85 321 12:54 29.03.2020
5678 Clouds 4 1008 86 10000 1.85 321 12:54 29.03.2020
5679 Clouds 4 1008 86 10000 1.85 321 12:36 29.03.2020
5680 Clouds 4 1008 86 10000 1.72 316 12:18 29.03.2020
5681 Clouds 4 1009 86 10000 1.72 316 11:39 29.03.2020
5682 Clouds 4 1009 86 10000 1.72 316 11:21 29.03.2020
5683 Clouds 5 1008 80 10000 1.72 316 10:55 29.03.2020
5684 Clouds 5 1008 80 10000 1.72 316 10:37 29.03.2020
5685 Clouds 5 1008 80 10000 1.72 316 10:18 29.03.2020
5686 Clouds 5 1009 80 10000 1.72 316 09:39 29.03.2020
5687 Clouds 5 1009 80 10000 1.51 308 09:19 29.03.2020
5688 Clouds 5 1009 80 10000 1.51 308 08:53 29.03.2020
5689 Clouds 5 1009 80 10000 1.51 308 08:28 29.03.2020
5690 Clouds 5 1008 80 10000 2.1 360 07:58 29.03.2020
5691 Clouds 5 1008 80 10000 2.1 360 07:58 29.03.2020
5692 Clouds 5 1008 80 10000 2.1 360 07:39 29.03.2020
5693 Clouds 5 1008 80 10000 2.1 360 07:39 29.03.2020
5694 Clouds 5 1008 80 10000 2.1 360 07:20 29.03.2020
5695 Clouds 7 1008 70 10000 2.6 320 04:59 29.03.2020
5696 Clouds 7 1008 70 10000 2.6 320 04:59 29.03.2020
5697 Clouds 7 1008 70 10000 2.6 320 04:59 29.03.2020
5698 Clouds 8 1008 65 10000 1.5 360 03:55 29.03.2020
5699 Clouds 8 1008 65 10000 1.5 360 03:26 29.03.2020
5700 Clouds 8 1008 70 10000 0.85 272 01:51 29.03.2020
5701 Clouds 8 1008 70 10000 1.16 274 01:23 29.03.2020
5702 Clouds 8 1008 70 10000 3.1 270 00:55 29.03.2020
5703 Clouds 8 1008 70 10000 3.1 270 00:31 29.03.2020
5704 Clouds 9 1007 76 10000 2.6 320 23:43 28.03.2020
5705 Clouds 9 1007 76 10000 2.6 320 23:23 28.03.2020
5706 Clouds 10 1007 57 10000 2.1 320 22:58 28.03.2020
5707 Clouds 10 1007 57 10000 2.1 320 22:38 28.03.2020
5708 Clouds 10 1007 57 10000 2.1 320 22:20 28.03.2020
5709 Clouds 9 1007 61 10000 2.1 320 21:43 28.03.2020
5710 Clouds 9 1007 61 10000 2.1 320 21:24 28.03.2020
5711 Clouds 9 1007 66 10000 3.1 230 20:59 28.03.2020
5712 Clouds 9 1007 66 10000 3.1 230 20:41 28.03.2020
5713 Clouds 9 1007 66 10000 3.1 230 20:23 28.03.2020
5714 Clouds 9 1006 66 10000 3.6 230 19:57 28.03.2020
5715 Clouds 9 1006 66 10000 3.6 230 19:38 28.03.2020
5716 Clouds 9 1006 66 10000 3.6 230 19:20 28.03.2020
5717 Clouds 9 1006 66 10000 3.1 230 18:56 28.03.2020
5718 Clouds 9 1006 66 10000 3.1 230 18:38 28.03.2020
5719 Clouds 9 1006 66 10000 3.1 230 18:19 28.03.2020
5720 Clouds 8 1006 70 10000 2.1 320 17:39 28.03.2020
5721 Clouds 8 1006 70 10000 2.1 320 17:20 28.03.2020
5722 Clouds 8 1006 65 10000 1.01 298 16:43 28.03.2020
5723 Clouds 8 1006 65 10000 1.01 298 16:20 28.03.2020
5724 Clouds 8 1005 61 10000 2.6 340 15:58 28.03.2020
5725 Clouds 8 1005 61 10000 2.6 340 15:39 28.03.2020
5726 Clouds 8 1005 61 10000 2.6 340 15:19 28.03.2020
5727 Clouds 6 1005 58 10000 2.1 320 14:54 28.03.2020
5728 Clouds 6 1005 58 10000 2.1 320 14:36 28.03.2020
5729 Clouds 6 1005 72 10000 2.1 320 14:18 28.03.2020
5730 Clouds 6 1004 72 10000 4.1 340 13:38 28.03.2020
5731 Clouds 6 1004 72 10000 4.1 340 13:20 28.03.2020
5732 Clouds 6 1004 72 10000 4.6 320 12:39 28.03.2020
5733 Clouds 6 1004 72 10000 4.6 320 12:21 28.03.2020
5734 Clouds 4 1005 72 0 1.15 289 11:42 28.03.2020
5735 Clouds 6 1003 75 10000 3.1 340 11:21 28.03.2020
5736 Clouds 6 1003 75 10000 3.1 340 10:56 28.03.2020
5737 Clouds 6 1003 75 10000 3.1 340 10:38 28.03.2020
5738 Clouds 6 1003 75 10000 3.1 340 10:18 28.03.2020
5739 Clouds 5 1003 80 10000 4.1 340 09:41 28.03.2020
5740 Clouds 5 1003 80 10000 4.1 340 09:23 28.03.2020
5741 Clouds 5 1002 75 10000 2.1 270 08:46 28.03.2020
5742 Clouds 5 1002 75 10000 2.1 270 08:27 28.03.2020
5743 Clouds 5 1002 75 10000 2.6 320 07:59 28.03.2020
5744 Clouds 5 1002 75 10000 2.6 320 07:41 28.03.2020
5745 Clouds 5 1002 80 10000 3.6 320 06:56 28.03.2020
5746 Clouds 5 1002 80 10000 3.6 320 06:33 28.03.2020
5747 Clouds 5 1002 75 10000 3.6 320 05:41 28.03.2020
5748 Clouds 5 1002 75 10000 3.6 320 05:19 28.03.2020
5749 Clouds 5 1002 75 10000 2.6 340 04:40 28.03.2020
5750 Clouds 5 1002 75 10000 3.1 320 03:21 28.03.2020
5751 Clouds 7 1001 65 10000 6.2 250 01:49 28.03.2020
5752 Clouds 7 1001 65 10000 6.2 250 01:25 28.03.2020
5753 Clouds 7 1000 65 10000 6.2 250 00:56 28.03.2020
5754 Clouds 7 1000 65 10000 6.2 250 00:35 28.03.2020
5755 Clouds 7 1000 75 10000 7.2 250 23:55 27.03.2020
5756 Clouds 7 1000 75 10000 7.2 250 23:37 27.03.2020
5757 Clouds 7 1000 56 10000 7.2 250 23:18 27.03.2020
5758 Clouds 8 999 61 10000 9.3 230 22:55 27.03.2020
5759 Clouds 8 999 61 10000 9.3 230 22:37 27.03.2020
5760 Clouds 9 999 61 10000 9.3 230 22:18 27.03.2020
5761 Clouds 9 999 65 10000 10.8 230 21:42 27.03.2020
5762 Clouds 9 999 65 10000 10.8 230 21:24 27.03.2020
5763 Clouds 9 998 61 10000 11.3 230 20:58 27.03.2020
5764 Clouds 9 998 61 10000 11.3 230 20:58 27.03.2020
5765 Clouds 9 998 61 10000 11.3 230 20:58 27.03.2020
5766 Clouds 9 998 61 10000 11.3 230 20:39 27.03.2020
5767 Clouds 9 998 61 10000 11.3 230 20:20 27.03.2020
5768 Clouds 9 998 61 10000 11.8 230 19:57 27.03.2020
5769 Clouds 9 998 61 10000 11.8 230 19:38 27.03.2020
5770 Clouds 9 998 61 10000 11.8 230 19:20 27.03.2020
5771 Clouds 8 998 53 10000 12.9 230 18:44 27.03.2020
5772 Clouds 8 998 53 10000 12.9 230 18:44 27.03.2020
5773 Clouds 8 998 53 10000 12.9 230 18:23 27.03.2020
5774 Clouds 8 998 53 10000 9.8 230 17:57 27.03.2020
5775 Clouds 8 998 53 10000 9.8 230 17:38 27.03.2020
5776 Clouds 8 998 61 10000 9.8 230 17:19 27.03.2020
5777 Clouds 8 998 42 10000 4.6 230 16:44 27.03.2020
5778 Clouds 8 998 42 10000 4.6 230 16:25 27.03.2020
5779 Clouds 8 998 48 10000 4.6 320 15:55 27.03.2020
5780 Clouds 8 998 48 10000 4.6 320 15:37 27.03.2020
5781 Clouds 7 998 48 10000 4.6 320 15:19 27.03.2020
5782 Clouds 7 998 48 10000 2.1 320 14:43 27.03.2020
5783 Clouds 7 998 48 10000 2.1 320 14:24 27.03.2020
5784 Clouds 5 997 60 10000 4.6 270 13:55 27.03.2020
5785 Clouds 5 997 60 10000 4.6 270 13:36 27.03.2020
5786 Clouds 5 997 60 10000 4.6 270 13:18 27.03.2020
5787 Clouds 5 997 60 10000 3.1 270 12:42 27.03.2020
5788 Clouds 5 997 60 10000 3.1 270 12:19 27.03.2020
5789 Clouds 5 997 56 10000 3.1 270 11:55 27.03.2020
5790 Clouds 5 997 56 10000 3.1 270 11:36 27.03.2020
5791 Clouds 6 996 56 10000 8.7 230 11:18 27.03.2020
5792 Clouds 6 996 56 10000 8.7 230 10:42 27.03.2020
5793 Clouds 6 996 56 10000 8.7 230 10:22 27.03.2020
5794 Clouds 6 996 79 10000 12.3 230 09:59 27.03.2020
5795 Clouds 6 996 79 10000 12.3 230 09:40 27.03.2020
5796 Clouds 6 996 79 10000 12.3 230 09:22 27.03.2020
5797 Rain 5 995 86 10000 11.8 230 08:59 27.03.2020
5798 Rain 5 995 86 10000 11.8 230 08:40 27.03.2020
5799 Rain 5 995 86 10000 11.8 230 08:22 27.03.2020
5800 Rain 5 995 86 10000 11.3 230 07:59 27.03.2020
5801 Rain 5 995 86 10000 11.3 230 07:41 27.03.2020
5802 Rain 5 995 86 10000 11.3 230 07:21 27.03.2020
5803 Clouds 6 994 81 10000 12.9 230 06:40 27.03.2020
5804 Clouds 6 994 81 10000 9.8 230 05:51 27.03.2020
5805 Clouds 6 993 81 10000 9.8 230 03:34 27.03.2020
5806 Rain 6 992 87 10000 11.8 230 01:55 27.03.2020
5807 Rain 6 992 87 10000 11.8 230 01:19 27.03.2020
5808 Rain 7 991 81 10000 10.3 230 00:41 27.03.2020
5809 Rain 7 991 81 10000 10.3 230 00:41 27.03.2020
5810 Rain 7 991 81 10000 10.3 230 00:19 27.03.2020
5811 Clouds 8 991 81 10000 9.3 230 23:40 26.03.2020
5812 Clouds 8 991 81 10000 9.3 230 23:18 26.03.2020
5813 Rain 9 991 70 10000 8.2 230 22:57 26.03.2020
5814 Rain 9 991 70 10000 8.2 230 22:36 26.03.2020
5815 Rain 9 991 70 10000 8.2 230 22:18 26.03.2020
5816 Clouds 10 991 61 10000 6.7 230 21:40 26.03.2020
5817 Clouds 10 991 61 10000 6.7 230 21:21 26.03.2020
5818 Clouds 10 991 61 10000 9.3 230 20:59 26.03.2020
5819 Clouds 10 991 61 10000 9.3 230 20:39 26.03.2020
5820 Clouds 10 991 61 10000 9.3 230 20:21 26.03.2020
5821 Clouds 10 992 61 10000 7.2 230 19:58 26.03.2020
5822 Clouds 10 992 61 10000 7.2 230 19:40 26.03.2020
5823 Clouds 10 992 61 10000 7.2 230 19:21 26.03.2020
5824 Clouds 10 993 66 10000 7.2 230 18:58 26.03.2020
5825 Clouds 10 993 66 10000 7.2 230 18:40 26.03.2020
5826 Clouds 10 993 66 10000 7.2 230 18:21 26.03.2020
5827 Clouds 10 992 66 10000 6.2 230 17:44 26.03.2020
5828 Clouds 10 992 66 10000 6.2 230 17:44 26.03.2020
5829 Clouds 10 992 66 10000 6.2 230 17:20 26.03.2020
5830 Clouds 11 993 53 10000 7.2 230 16:57 26.03.2020
5831 Clouds 11 993 53 10000 7.2 230 16:38 26.03.2020
5832 Clouds 11 993 53 10000 7.2 230 16:38 26.03.2020
5833 Clouds 11 993 53 10000 7.2 230 16:19 26.03.2020
5834 Clouds 10 993 61 10000 8.2 230 15:55 26.03.2020
5835 Clouds 10 993 61 10000 8.2 230 15:37 26.03.2020
5836 Clouds 10 993 61 10000 8.2 230 15:18 26.03.2020
5837 Clouds 10 994 66 10000 6.7 230 14:43 26.03.2020
5838 Clouds 10 994 66 10000 6.7 230 14:24 26.03.2020
5839 Clouds 9 994 70 10000 2.6 230 13:55 26.03.2020
5840 Clouds 9 994 70 10000 2.6 230 13:37 26.03.2020
5841 Clouds 9 994 70 10000 2.6 230 13:19 26.03.2020
5842 Drizzle 10 994 66 10000 5.7 270 12:38 26.03.2020
5843 Drizzle 10 994 66 10000 5.7 270 12:20 26.03.2020
5844 Drizzle 10 993 66 10000 10.8 230 11:46 26.03.2020
5845 Drizzle 10 993 66 10000 10.8 230 11:23 26.03.2020
5846 Rain 12 992 58 10000 13.9 230 10:57 26.03.2020
5847 Rain 12 992 58 10000 13.9 230 10:39 26.03.2020
5848 Rain 12 992 58 10000 13.9 230 10:19 26.03.2020
5849 Clouds 12 991 54 10000 6.2 270 09:45 26.03.2020
5850 Clouds 12 991 54 10000 6.2 270 09:21 26.03.2020
5851 Clouds 13 990 47 10000 8.7 320 08:57 26.03.2020
5852 Clouds 13 990 47 10000 8.7 320 08:38 26.03.2020
5853 Clouds 13 990 47 10000 8.7 320 08:19 26.03.2020
5854 Clouds 12 992 54 10000 9.3 320 07:45 26.03.2020
5855 Clouds 12 992 54 10000 9.3 320 07:24 26.03.2020
5856 Clouds 10 993 66 10000 2.6 320 06:57 26.03.2020
5857 Clouds 10 993 66 10000 2.6 320 06:32 26.03.2020
5858 Clouds 10 994 66 10000 4.15 322 05:29 26.03.2020
5859 Clouds 10 996 71 10000 3.1 50 03:45 26.03.2020
5860 Clouds 10 998 71 10000 3.6 230 02:57 26.03.2020
5861 Clouds 8 999 80 0 3.32 305 01:51 26.03.2020
5862 Clouds 11 998 71 10000 4.1 230 01:18 26.03.2020
5863 Clouds 11 998 71 10000 4.1 230 00:30 26.03.2020
5864 Clouds 12 998 66 10000 7.2 230 23:42 25.03.2020
5865 Clouds 12 998 66 10000 7.2 230 23:24 25.03.2020
5866 Clouds 12 998 66 10000 8.2 230 22:42 25.03.2020
5867 Clouds 10 1000 77 0 2.49 301 22:22 25.03.2020
5868 Clouds 10 1000 77 0 2.49 301 21:59 25.03.2020
5869 Clouds 10 1000 77 0 2.49 301 21:41 25.03.2020
5870 Clouds 10 1000 77 0 2.49 301 21:23 25.03.2020
5871 Clouds 10 1000 77 0 2.49 301 20:57 25.03.2020
5872 Clouds 10 1000 77 0 2.49 301 20:38 25.03.2020
5873 Rain 10 1001 76 0 3.71 305 20:18 25.03.2020
5874 Rain 10 1001 76 0 3.8 303 19:43 25.03.2020
5875 Clouds 11 1000 62 10000 4.1 180 19:24 25.03.2020
5876 Clouds 11 1000 62 10000 4.1 180 18:59 25.03.2020
5877 Clouds 11 1000 62 10000 4.1 180 18:41 25.03.2020
5878 Clouds 11 1000 62 10000 4.1 180 18:23 25.03.2020
5879 Clouds 11 1008 62 10000 3.1 180 17:58 25.03.2020
5880 Clouds 11 1008 62 10000 3.1 180 17:58 25.03.2020
5881 Clouds 11 1008 62 10000 3.1 180 17:39 25.03.2020
5882 Clouds 11 1008 62 10000 3.1 180 17:21 25.03.2020
5883 Clouds 11 1001 62 10000 7.7 270 16:55 25.03.2020
5884 Clouds 11 1001 62 10000 7.7 270 16:37 25.03.2020
5885 Clouds 11 1001 62 10000 7.7 270 16:19 25.03.2020
5886 Clouds 10 1001 53 10000 3.1 270 15:42 25.03.2020
5887 Clouds 10 1002 53 10000 3.1 270 15:20 25.03.2020
5888 Clouds 10 1002 53 10000 3.1 270 14:56 25.03.2020
5889 Clouds 10 1002 53 10000 3.1 270 14:37 25.03.2020
5890 Clouds 10 1002 53 10000 3.1 270 14:19 25.03.2020
5891 Clouds 9 1002 57 10000 5.1 270 13:42 25.03.2020
5892 Clouds 9 1002 57 10000 5.1 270 13:22 25.03.2020
5893 Clouds 9 1002 57 10000 5.1 270 13:22 25.03.2020
5894 Clouds 9 1002 61 10000 7.2 320 12:38 25.03.2020
5895 Clouds 9 1002 61 10000 7.2 320 12:20 25.03.2020
5896 Clouds 9 1004 45 10000 5.1 340 11:57 25.03.2020
5897 Clouds 9 1004 45 10000 5.1 340 11:39 25.03.2020
5898 Clouds 9 1004 45 10000 5.1 340 11:20 25.03.2020
5899 Clouds 9 1004 45 10000 8.2 20 10:57 25.03.2020
5900 Clouds 9 1004 45 10000 8.2 20 10:39 25.03.2020
5901 Clouds 9 1004 45 10000 8.2 20 10:18 25.03.2020
5902 Clouds 8 1006 52 10000 8.2 360 09:43 25.03.2020
5903 Clouds 8 1006 52 10000 8.2 360 09:25 25.03.2020
5904 Clouds 8 1007 52 10000 8.2 360 08:58 25.03.2020
5905 Clouds 8 1007 52 10000 8.2 360 08:39 25.03.2020
5906 Clouds 8 1007 52 10000 8.2 360 08:20 25.03.2020
5907 Clouds 8 1007 45 10000 8.7 340 07:44 25.03.2020
5908 Clouds 8 1007 45 10000 8.7 340 07:24 25.03.2020
5909 Clouds 5 1008 80 10000 2.1 230 06:57 25.03.2020
5910 Clouds 5 1008 80 10000 2.1 230 06:37 25.03.2020
5911 Clouds 5 1008 80 10000 2.1 230 06:19 25.03.2020
5912 Clouds 3 1009 74 10000 2.6 270 05:42 25.03.2020
5913 Clear 5 1010 65 10000 2.38 339 04:41 25.03.2020
5914 Clear 6 1011 82 10000 3.1 320 03:53 25.03.2020
5915 Clear 6 1011 82 10000 3.1 320 03:29 25.03.2020
5916 Clouds 6 1011 70 10000 2.6 320 01:39 25.03.2020
5917 Clouds 7 1011 65 10000 1.17 326 00:50 25.03.2020
5918 Clouds 7 1011 65 10000 1.17 326 00:26 25.03.2020
5919 Clouds 7 1011 65 10000 3.6 270 23:53 24.03.2020
5920 Clouds 7 1011 65 10000 3.6 270 23:28 24.03.2020
5921 Clouds 8 1010 61 10000 7.2 230 22:58 24.03.2020
5922 Clouds 8 1010 61 10000 7.2 230 22:38 24.03.2020
5923 Clouds 8 1010 61 10000 7.2 230 22:20 24.03.2020
5924 Clouds 8 1010 61 10000 9.3 230 21:58 24.03.2020
5925 Clouds 8 1010 61 10000 9.3 230 21:39 24.03.2020
5926 Clouds 8 1010 61 10000 9.3 230 21:18 24.03.2020
5927 Clouds 8 1010 54 10000 7.2 230 20:57 24.03.2020
5928 Clouds 8 1010 54 10000 7.2 230 20:39 24.03.2020
5929 Clouds 8 1010 54 10000 7.2 230 20:21 24.03.2020
5930 Clouds 7 1009 65 10000 5.1 230 19:46 24.03.2020
5931 Clouds 7 1009 65 10000 5.1 230 19:20 24.03.2020
5932 Clouds 6 1008 70 10000 9.3 230 18:56 24.03.2020
5933 Clouds 6 1008 70 10000 9.3 230 18:38 24.03.2020
5934 Clouds 6 1007 75 10000 10.3 230 18:19 24.03.2020
5935 Clouds 6 1007 75 10000 10.3 230 17:56 24.03.2020
5936 Clouds 6 1007 75 10000 10.3 230 17:38 24.03.2020
5937 Clouds 6 1007 75 10000 10.3 230 17:19 24.03.2020
5938 Rain 6 1006 81 10000 8.2 230 16:56 24.03.2020
5939 Rain 6 1006 81 10000 8.2 230 16:37 24.03.2020
5940 Rain 6 1006 81 10000 8.2 230 16:19 24.03.2020
5941 Rain 6 1005 75 10000 12.9 230 15:42 24.03.2020
5942 Rain 6 1003 70 10000 9.8 270 15:23 24.03.2020
5943 Rain 5 1004 75 10000 10.3 230 14:44 24.03.2020
5944 Drizzle 4 1002 86 10000 8.2 230 14:22 24.03.2020
5945 Drizzle 4 1002 86 10000 8.2 230 13:59 24.03.2020
5946 Drizzle 4 1002 86 10000 8.2 230 13:40 24.03.2020
5947 Drizzle 4 1002 86 10000 8.2 230 13:22 24.03.2020
5948 Drizzle 4 1000 80 10000 9.3 230 12:42 24.03.2020
5949 Drizzle 4 1000 80 10000 9.3 230 12:24 24.03.2020
5950 Rain 4 999 86 10000 12.3 230 11:42 24.03.2020
5951 Rain 4 999 86 10000 12.3 230 11:22 24.03.2020
5952 Rain 4 999 86 10000 12.3 230 11:22 24.03.2020
5953 Drizzle 4 997 80 10000 10.8 230 10:59 24.03.2020
5954 Drizzle 4 997 80 10000 10.8 230 10:41 24.03.2020
5955 Drizzle 4 997 80 10000 10.8 230 10:19 24.03.2020
5956 Drizzle 4 997 80 10000 10.8 230 10:19 24.03.2020
5957 Clouds 4 995 80 10000 10.8 230 09:47 24.03.2020
5958 Clouds 4 995 80 10000 10.8 230 09:27 24.03.2020
5959 Clouds 5 993 86 10000 14.9 230 08:57 24.03.2020
5960 Clouds 5 993 86 10000 14.9 230 08:38 24.03.2020
5961 Clouds 5 993 86 10000 14.9 230 08:19 24.03.2020
5962 Clouds 5 992 80 10000 11.3 230 07:44 24.03.2020
5963 Clouds 5 992 80 10000 11.3 230 07:22 24.03.2020
5964 Clouds 6 990 75 10000 9.3 230 06:42 24.03.2020
5965 Clouds 6 990 75 10000 9.3 230 06:21 24.03.2020
5966 Drizzle 8 984 81 10000 16.5 230 04:52 24.03.2020
5967 Clouds 8 981 81 10000 9.3 230 03:41 24.03.2020
5968 Rain 8 980 81 10000 10.3 230 02:44 24.03.2020
5969 Rain 9 978 87 5000 15.4 230 00:57 24.03.2020
5970 Rain 9 978 87 5000 15.4 230 00:32 24.03.2020
5971 Drizzle 11 975 87 10000 12.9 230 23:59 23.03.2020
5972 Drizzle 11 975 87 10000 12.9 230 23:38 23.03.2020
5973 Drizzle 11 975 87 10000 12.9 230 23:19 23.03.2020
5974 Clouds 14 975 67 10000 9.8 230 22:45 23.03.2020
5975 Clouds 14 975 67 10000 9.8 230 22:23 23.03.2020
5976 Clouds 15 974 67 10000 5.7 230 21:57 23.03.2020
5977 Clouds 15 974 67 10000 5.7 230 21:38 23.03.2020
5978 Clouds 15 974 67 10000 5.7 230 21:20 23.03.2020
5979 Clouds 16 974 67 10000 7.2 230 20:56 23.03.2020
5980 Clouds 16 974 67 10000 7.2 230 20:38 23.03.2020
5981 Clouds 16 974 67 10000 7.2 230 20:19 23.03.2020
5982 Clouds 17 975 63 10000 1.42 319 19:42 23.03.2020
5983 Clouds 17 975 63 10000 1.42 319 19:23 23.03.2020
5984 Clouds 17 975 59 10000 1.42 319 18:56 23.03.2020
5985 Clouds 17 975 59 10000 1.42 319 18:38 23.03.2020
5986 Clouds 17 975 59 10000 1.42 319 18:20 23.03.2020
5987 Drizzle 15 977 67 10000 3.6 140 17:42 23.03.2020
5988 Rain 14 977 71 10000 3.1 180 17:21 23.03.2020
5989 Rain 14 977 71 10000 3.1 180 16:56 23.03.2020
5990 Rain 14 977 71 10000 3.1 180 16:38 23.03.2020
5991 Rain 14 977 71 10000 3.1 180 16:19 23.03.2020
5992 Clouds 14 979 67 10000 4.41 359 15:41 23.03.2020
5993 Clouds 14 979 67 10000 4.41 359 15:19 23.03.2020
5994 Clouds 14 980 67 10000 4.41 359 14:38 23.03.2020
5995 Clouds 14 980 67 10000 2.88 7 14:20 23.03.2020
5996 Clouds 14 980 67 10000 2.88 7 14:20 23.03.2020
5997 Clouds 14 981 71 10000 3.1 180 13:58 23.03.2020
5998 Clouds 14 981 71 10000 3.1 180 13:40 23.03.2020
5999 Clouds 14 981 71 10000 3.1 180 13:40 23.03.2020
6000 Clouds 14 981 71 10000 3.1 180 13:20 23.03.2020
6001 Clouds 14 982 67 10000 2.81 360 12:44 23.03.2020
6002 Clouds 14 982 67 10000 2.81 360 12:25 23.03.2020
6003 Clouds 14 983 67 10000 3.6 70 11:59 23.03.2020
6004 Clouds 14 983 67 10000 3.6 70 11:59 23.03.2020
6005 Clouds 14 983 67 10000 3.6 70 11:39 23.03.2020
6006 Clouds 14 983 67 10000 3.6 70 11:19 23.03.2020
6007 Drizzle 12 984 81 10000 2.89 8 10:57 23.03.2020
6008 Drizzle 12 984 81 10000 2.89 8 10:38 23.03.2020
6009 Drizzle 12 984 81 10000 2.89 8 10:20 23.03.2020
6010 Clouds 13 984 76 10000 2.1 180 09:44 23.03.2020
6011 Clouds 13 984 76 10000 2.1 180 09:21 23.03.2020
6012 Rain 7 984 96 0 2.89 8 08:57 23.03.2020
6013 Rain 7 984 96 0 2.89 8 08:36 23.03.2020
6014 Clouds 11 987 76 10000 3.1 180 08:18 23.03.2020
6015 Clouds 11 987 76 10000 3.1 180 07:42 23.03.2020
6016 Clouds 11 987 76 10000 3.1 180 07:23 23.03.2020
6017 Drizzle 9 987 76 10000 5.1 140 06:49 23.03.2020
6018 Drizzle 9 989 76 10000 3.46 353 05:54 23.03.2020
6019 Drizzle 9 989 76 10000 3.46 353 05:29 23.03.2020
6020 Rain 9 992 66 10000 4.6 270 03:28 23.03.2020
6021 Clouds 8 993 61 10000 2.69 349 01:51 23.03.2020
6022 Clouds 8 993 61 10000 2.31 344 01:32 23.03.2020
6023 Clouds 10 993 57 10000 5.1 230 00:36 23.03.2020
6024 Clouds 11 993 57 10000 5.1 230 23:47 22.03.2020
6025 Clouds 11 993 57 10000 5.1 230 23:26 22.03.2020
6026 Clouds 11 994 62 10000 4.1 230 22:45 22.03.2020
6027 Clouds 11 994 62 10000 4.1 230 22:24 22.03.2020
6028 Clouds 11 994 62 10000 6.7 230 21:56 22.03.2020
6029 Clouds 11 994 62 10000 6.7 230 21:37 22.03.2020
6030 Clouds 11 994 62 10000 6.7 230 21:19 22.03.2020
6031 Clouds 12 994 58 10000 4.1 230 20:46 22.03.2020
6032 Clouds 12 994 58 10000 4.1 230 20:25 22.03.2020
6033 Clouds 12 994 58 10000 1.5 230 19:58 22.03.2020
6034 Clouds 12 994 58 10000 1.5 230 19:40 22.03.2020
6035 Clouds 12 994 58 10000 1.5 230 19:40 22.03.2020
6036 Clouds 12 994 58 10000 1.5 230 19:20 22.03.2020
6037 Clouds 10 994 57 10000 3.6 230 18:59 22.03.2020
6038 Clouds 10 994 57 10000 3.6 230 18:41 22.03.2020
6039 Clouds 10 994 57 10000 3.6 230 18:22 22.03.2020
6040 Clouds 10 994 57 10000 3.6 230 18:22 22.03.2020
6041 Clouds 9 994 57 10000 3.1 230 17:59 22.03.2020
6042 Clouds 9 994 57 10000 3.1 230 17:39 22.03.2020
6043 Clouds 9 994 57 10000 3.1 230 17:39 22.03.2020
6044 Clouds 9 994 57 10000 3.1 230 17:21 22.03.2020
6045 Clouds 9 994 57 10000 2.22 336 16:59 22.03.2020
6046 Clouds 9 994 57 10000 2.22 336 16:41 22.03.2020
6047 Clouds 9 994 57 10000 2.22 336 16:21 22.03.2020
6048 Clouds 7 994 64 10000 2.22 336 15:58 22.03.2020
6049 Clouds 7 994 64 10000 2.22 336 15:39 22.03.2020
6050 Clouds 4 994 80 10000 3.1 360 14:47 22.03.2020
6051 Clouds 4 994 80 10000 3.1 360 14:19 22.03.2020
6052 Clouds 4 994 81 10000 6.2 360 13:57 22.03.2020
6053 Clouds 4 994 81 10000 6.2 360 13:39 22.03.2020
6054 Clouds 4 994 81 10000 6.2 360 13:19 22.03.2020
6055 Clouds 3 993 81 10000 7.2 360 12:44 22.03.2020
6056 Clouds 3 993 81 10000 7.2 360 12:20 22.03.2020
6057 Clouds 3 993 81 10000 5.1 360 11:56 22.03.2020
6058 Clouds 3 993 81 10000 5.1 360 11:38 22.03.2020
6059 Clouds 3 993 91 10000 5.1 360 11:19 22.03.2020
6060 Clouds 3 992 91 10000 5.7 340 10:43 22.03.2020
6061 Clouds 3 992 91 10000 5.7 340 10:24 22.03.2020
6062 Clouds 3 992 91 10000 5.7 340 10:24 22.03.2020
6063 Clouds 3 992 91 10000 4.6 360 09:49 22.03.2020
6064 Clouds 3 992 91 10000 4.6 360 09:30 22.03.2020
6065 Clouds 3 991 74 10000 9.3 340 08:55 22.03.2020
6066 Clouds 3 991 74 10000 9.3 340 08:36 22.03.2020
6067 Clouds 3 991 74 10000 9.3 340 08:18 22.03.2020
6068 Clouds 3 990 74 10000 6.2 340 07:48 22.03.2020
6069 Clouds 3 990 74 10000 6.2 340 07:18 22.03.2020
6070 Clouds 5 989 93 10000 3.6 270 05:54 22.03.2020
6071 Clouds 4 989 86 10000 1.78 310 04:50 22.03.2020
6072 Clouds 5 988 80 10000 6.2 230 02:43 22.03.2020
6073 Clouds 5 988 86 10000 7.7 230 01:20 22.03.2020
6074 Clouds 6 988 81 10000 9.3 230 00:35 22.03.2020
6075 Clouds 7 988 75 10000 9.8 230 23:57 21.03.2020
6076 Clouds 7 988 75 10000 9.8 230 23:38 21.03.2020
6077 Clouds 7 988 75 10000 9.8 230 23:18 21.03.2020
6078 Clouds 7 987 70 10000 1.39 282 22:38 21.03.2020
6079 Clouds 7 987 70 10000 1.39 282 22:20 21.03.2020
6080 Rain 7 987 70 10000 4.1 230 21:59 21.03.2020
6081 Rain 7 987 70 10000 4.1 230 21:39 21.03.2020
6082 Rain 7 987 70 10000 4.1 230 21:21 21.03.2020
6083 Drizzle 7 987 75 10000 3.6 340 20:45 21.03.2020
6084 Drizzle 7 987 75 10000 3.6 340 20:23 21.03.2020
6085 Drizzle 8 988 75 10000 6.2 360 19:57 21.03.2020
6086 Drizzle 8 988 75 10000 6.2 360 19:38 21.03.2020
6087 Drizzle 7 988 75 10000 6.2 360 19:19 21.03.2020
6088 Rain 7 989 70 10000 5.7 340 18:54 21.03.2020
6089 Rain 7 989 70 10000 5.7 340 18:36 21.03.2020
6090 Rain 7 989 70 10000 5.7 340 18:18 21.03.2020
6091 Rain 7 989 70 10000 5.7 340 18:18 21.03.2020
6092 Clouds 7 990 65 10000 7.7 340 17:42 21.03.2020
6093 Clouds 7 990 65 10000 7.7 340 17:23 21.03.2020
6094 Clouds 6 991 57 10000 2.6 360 16:56 21.03.2020
6095 Clouds 6 991 57 10000 2.6 360 16:38 21.03.2020
6096 Clouds 6 991 57 10000 2.6 360 16:18 21.03.2020
6097 Clouds 6 992 70 10000 3.6 50 15:41 21.03.2020
6098 Clouds 6 992 70 10000 3.6 50 15:23 21.03.2020
6099 Clouds 6 993 75 10000 2.6 360 14:58 21.03.2020
6100 Clouds 6 993 75 10000 2.6 360 14:40 21.03.2020
6101 Clouds 6 993 75 10000 2.6 360 14:20 21.03.2020
6102 Clouds 5 993 87 10000 2.1 360 13:59 21.03.2020
6103 Clouds 5 993 87 10000 2.1 360 13:40 21.03.2020
6104 Clouds 5 993 87 10000 2.1 360 13:21 21.03.2020
6105 Clouds 5 993 87 10000 2.1 360 13:21 21.03.2020
6106 Clouds 5 994 86 10000 2.6 360 12:58 21.03.2020
6107 Clouds 5 994 86 10000 2.6 360 12:37 21.03.2020
6108 Clouds 5 994 86 10000 2.6 360 12:19 21.03.2020
6109 Clouds 5 995 80 10000 3.6 320 11:56 21.03.2020
6110 Clouds 5 995 80 10000 3.6 320 11:37 21.03.2020
6111 Clouds 5 995 80 10000 3.6 320 11:18 21.03.2020
6112 Clouds 5 995 60 10000 4.6 230 10:56 21.03.2020
6113 Clouds 5 995 60 10000 4.6 230 10:38 21.03.2020
6114 Clouds 5 995 60 10000 4.6 230 10:19 21.03.2020
6115 Clouds 5 995 65 10000 6.2 230 09:55 21.03.2020
6116 Clouds 5 995 65 10000 6.2 230 09:37 21.03.2020
6117 Clouds 5 995 65 10000 6.2 230 09:18 21.03.2020
6118 Clouds 5 995 65 10000 8.2 230 08:43 21.03.2020
6119 Clouds 5 995 65 10000 8.2 230 08:24 21.03.2020
6120 Rain 5 994 65 10000 7.7 230 07:43 21.03.2020
6121 Rain 5 994 65 10000 7.7 230 07:23 21.03.2020
6122 Rain 4 994 80 10000 12.9 230 06:47 21.03.2020
6123 Rain 4 994 80 10000 12.9 230 06:27 21.03.2020
6124 Rain 4 993 80 10000 14.4 230 05:46 21.03.2020
6125 Rain 4 991 80 10000 15.9 230 04:46 21.03.2020
6126 Rain 4 991 78 10000 11.8 230 02:51 21.03.2020
6127 Rain 4 991 78 10000 11.8 230 02:33 21.03.2020
6128 Rain 4 990 80 10000 16.5 230 01:32 21.03.2020
6129 Rain 4 990 80 10000 14.4 230 00:48 21.03.2020
6130 Rain 4 990 80 10000 14.4 230 00:26 21.03.2020
6131 Rain 5 989 86 10000 10.3 230 23:51 20.03.2020
6132 Rain 5 989 86 10000 10.3 230 23:27 20.03.2020
6133 Rain 5 988 80 10000 13.9 230 22:57 20.03.2020
6134 Rain 5 988 80 10000 13.9 230 22:39 20.03.2020
6135 Rain 5 988 80 10000 13.9 230 22:20 20.03.2020
6136 Rain 6 988 80 10000 14.4 230 21:55 20.03.2020
6137 Rain 6 988 80 10000 14.4 230 21:37 20.03.2020
6138 Rain 6 988 80 10000 14.4 230 21:18 20.03.2020
6139 Clouds 7 987 70 10000 11.8 230 20:56 20.03.2020
6140 Clouds 7 987 70 10000 11.8 230 20:38 20.03.2020
6141 Clouds 7 987 70 10000 11.8 230 20:18 20.03.2020
6142 Rain 7 987 64 10000 10.3 230 19:44 20.03.2020
6143 Rain 7 987 64 10000 10.3 230 19:19 20.03.2020
6144 Rain 5 987 64 10000 14.4 230 18:55 20.03.2020
6145 Rain 5 987 64 10000 14.4 230 18:37 20.03.2020
6146 Rain 5 987 64 10000 14.4 230 18:19 20.03.2020
6147 Rain 5 986 75 10000 13.9 230 17:39 20.03.2020
6148 Rain 5 986 75 10000 13.9 230 17:21 20.03.2020
6149 Rain 5 986 75 10000 13.9 230 17:21 20.03.2020
6150 Rain 6 986 81 10000 10.3 230 16:57 20.03.2020
6151 Rain 6 986 81 10000 10.3 230 16:39 20.03.2020
6152 Rain 6 986 81 10000 10.3 230 16:18 20.03.2020
6153 Rain 6 986 87 10000 10.8 230 15:42 20.03.2020
6154 Rain 6 985 87 10000 11.3 230 15:22 20.03.2020
6155 Rain 6 984 93 10000 14.4 230 14:56 20.03.2020
6156 Rain 6 984 93 10000 14.4 230 14:37 20.03.2020
6157 Rain 6 984 93 10000 11.3 230 14:18 20.03.2020
6158 Rain 5 984 93 7000 18 230 13:43 20.03.2020
6159 Rain 5 984 93 7000 18 230 13:19 20.03.2020
6160 Rain 5 983 93 6000 11.3 230 12:41 20.03.2020
6161 Rain 5 983 93 6000 11.3 230 12:23 20.03.2020
6162 Rain 5 982 93 10000 12.3 230 11:59 20.03.2020
6163 Rain 5 982 93 10000 12.3 230 11:38 20.03.2020
6164 Rain 5 982 93 10000 12.3 230 11:19 20.03.2020
6165 Rain 7 981 81 10000 10.3 230 10:42 20.03.2020
6166 Rain 7 981 81 10000 10.3 230 10:21 20.03.2020
6167 Rain 7 982 81 10000 8.7 230 09:59 20.03.2020
6168 Rain 7 982 81 10000 8.7 230 09:41 20.03.2020
6169 Rain 7 982 81 10000 8.7 230 09:19 20.03.2020
6170 Rain 7 982 81 10000 10.3 230 08:43 20.03.2020
6171 Rain 7 982 81 10000 10.3 230 08:22 20.03.2020
6172 Rain 7 982 81 10000 7.7 230 07:57 20.03.2020
6173 Rain 7 982 81 10000 7.7 230 07:38 20.03.2020
6174 Rain 7 982 81 10000 7.7 230 07:19 20.03.2020
6175 Rain 8 983 75 10000 10.8 230 06:42 20.03.2020
6176 Drizzle 8 984 65 10000 7.2 200 04:54 20.03.2020
6177 Drizzle 8 984 65 10000 7.2 200 04:26 20.03.2020
6178 Drizzle 9 986 61 10000 8.2 230 02:27 20.03.2020
6179 Clouds 9 987 61 10000 3.1 250 01:47 20.03.2020
6180 Rain 10 988 66 10000 7.2 340 00:33 20.03.2020
6181 Rain 10 988 66 10000 7.2 340 23:55 19.03.2020
6182 Clouds 10 990 71 10000 6.2 320 23:36 19.03.2020
6183 Rain 10 991 66 10000 5.1 230 23:18 19.03.2020
6184 Rain 10 991 66 10000 5.1 230 22:38 19.03.2020
6185 Rain 10 991 66 10000 5.1 230 22:38 19.03.2020
6186 Rain 10 991 66 10000 5.1 230 22:20 19.03.2020
6187 Rain 10 992 66 10000 1.95 321 21:57 19.03.2020
6188 Rain 10 992 66 10000 1.95 321 21:38 19.03.2020
6189 Rain 10 992 66 10000 1.95 321 21:18 19.03.2020
6190 Drizzle 10 994 71 10000 5.1 230 20:42 19.03.2020
6191 Drizzle 10 994 71 10000 5.1 230 20:42 19.03.2020
6192 Drizzle 10 994 71 10000 5.1 230 20:24 19.03.2020
6193 Drizzle 10 995 71 10000 4.1 230 19:59 19.03.2020
6194 Drizzle 10 995 71 10000 4.1 230 19:38 19.03.2020
6195 Drizzle 10 995 71 10000 4.1 230 19:20 19.03.2020
6196 Rain 10 996 66 10000 6.2 230 18:57 19.03.2020
6197 Rain 10 996 66 10000 6.2 230 18:38 19.03.2020
6198 Rain 10 996 66 10000 6.2 230 18:20 19.03.2020
6199 Drizzle 10 996 61 10000 8.2 230 17:43 19.03.2020
6200 Clouds 10 997 57 10000 5.1 230 17:20 19.03.2020
6201 Clouds 10 997 57 10000 5.1 230 16:57 19.03.2020
6202 Clouds 10 997 57 10000 5.1 230 16:39 19.03.2020
6203 Clouds 10 997 57 10000 5.1 230 16:21 19.03.2020
6204 Clouds 9 998 61 10000 3.6 230 15:41 19.03.2020
6205 Clouds 9 998 61 10000 3.6 230 15:23 19.03.2020
6206 Clouds 8 998 65 10000 3.6 230 14:43 19.03.2020
6207 Clouds 8 998 65 10000 3.6 230 14:22 19.03.2020
6208 Clouds 7 999 70 10000 3.1 230 13:56 19.03.2020
6209 Clouds 7 999 70 10000 3.1 230 13:37 19.03.2020
6210 Clouds 7 999 70 10000 3.1 230 13:18 19.03.2020
6211 Clouds 6 999 81 10000 5.1 270 12:40 19.03.2020
6212 Clouds 6 999 81 10000 5.1 270 12:22 19.03.2020
6213 Clouds 6 1000 81 10000 7.7 230 11:57 19.03.2020
6214 Clouds 6 1000 81 10000 7.7 230 11:38 19.03.2020
6215 Clouds 7 1000 65 10000 2.6 270 11:19 19.03.2020
6216 Clouds 7 1000 65 10000 2.6 270 10:41 19.03.2020
6217 Clouds 7 1000 65 10000 2.6 270 10:20 19.03.2020
6218 Clouds 6 1000 89 10000 3.6 360 09:57 19.03.2020
6219 Clouds 6 1000 89 10000 3.6 360 09:37 19.03.2020
6220 Clouds 6 1000 89 10000 3.6 360 09:18 19.03.2020
6221 Clouds 6 1000 89 10000 4.6 270 08:42 19.03.2020
6222 Clouds 6 1000 89 10000 4.6 270 08:21 19.03.2020
6223 Clouds 7 1000 65 10000 3.1 320 07:46 19.03.2020
6224 Clouds 7 1000 65 10000 3.1 320 07:28 19.03.2020
6225 Clouds 6 1000 70 10000 4.6 320 06:43 19.03.2020
6226 Clouds 6 1001 87 10000 4.1 230 05:48 19.03.2020
6227 Clouds 6 1001 89 10000 2.6 320 04:58 19.03.2020
6228 Clouds 6 1001 89 10000 2.6 320 04:40 19.03.2020
6229 Clouds 8 1000 52 10000 4.1 250 02:50 19.03.2020
6230 Clouds 7 999 83 10000 9.3 230 01:21 19.03.2020
6231 Rain 7 999 75 10000 11.3 230 00:28 19.03.2020
6232 Rain 7 998 75 10000 13.4 230 23:51 18.03.2020
6233 Rain 7 998 75 10000 13.4 230 23:30 18.03.2020
6234 Rain 7 998 75 10000 13.4 230 23:30 18.03.2020
6235 Rain 7 998 75 10000 13.4 230 23:30 18.03.2020
6236 Drizzle 7 997 75 10000 15.4 230 22:57 18.03.2020
6237 Drizzle 7 997 75 10000 15.4 230 22:39 18.03.2020
6238 Drizzle 8 997 75 10000 15.4 230 22:21 18.03.2020
6239 Clouds 9 996 75 10000 14.4 230 21:42 18.03.2020
6240 Clouds 9 996 75 10000 14.4 230 21:22 18.03.2020
6241 Clouds 9 996 75 10000 10.8 230 20:59 18.03.2020
6242 Clouds 9 996 75 10000 10.8 230 20:59 18.03.2020
6243 Clouds 9 996 75 10000 10.8 230 20:40 18.03.2020
6244 Clouds 9 996 75 10000 10.8 230 20:40 18.03.2020
6245 Clouds 9 996 75 10000 10.8 230 20:20 18.03.2020
6246 Drizzle 7 996 81 10000 13.4 230 19:58 18.03.2020
6247 Drizzle 7 996 81 10000 13.4 230 19:39 18.03.2020
6248 Drizzle 8 996 81 10000 13.4 230 19:20 18.03.2020
6249 Drizzle 9 995 75 10000 12.3 230 18:42 18.03.2020
6250 Drizzle 9 995 75 10000 12.3 230 18:21 18.03.2020
6251 Drizzle 9 995 75 10000 12.3 230 18:21 18.03.2020
6252 Rain 9 995 71 10000 9.8 280 17:59 18.03.2020
6253 Rain 9 995 71 10000 9.8 280 17:59 18.03.2020
6254 Drizzle 8 995 70 10000 10.8 230 17:41 18.03.2020
6255 Drizzle 8 995 70 10000 10.8 230 17:22 18.03.2020
6256 Drizzle 9 994 87 10000 8.7 230 16:58 18.03.2020
6257 Drizzle 9 994 87 10000 8.7 230 16:40 18.03.2020
6258 Drizzle 9 994 87 10000 8.7 230 16:20 18.03.2020
6259 Drizzle 8 994 93 10000 7.7 230 15:45 18.03.2020
6260 Drizzle 8 994 93 10000 7.7 230 15:23 18.03.2020
6261 Clouds 8 994 93 10000 9.3 230 14:57 18.03.2020
6262 Clouds 8 994 93 10000 9.3 230 14:39 18.03.2020
6263 Clouds 8 994 93 10000 9.3 230 14:20 18.03.2020
6264 Clouds 8 994 93 10000 9.3 230 14:20 18.03.2020
6265 Rain 9 994 93 10000 9.3 230 13:39 18.03.2020
6266 Rain 9 994 93 10000 9.3 230 13:19 18.03.2020
6267 Rain 9 994 93 10000 9.3 230 13:19 18.03.2020
6268 Drizzle 9 994 93 10000 9.3 230 12:42 18.03.2020
6269 Drizzle 9 994 93 10000 9.3 230 12:20 18.03.2020
6270 Drizzle 9 994 93 10000 5.1 230 11:57 18.03.2020
6271 Drizzle 9 994 93 10000 5.1 230 11:37 18.03.2020
6272 Drizzle 9 993 93 10000 10.8 230 11:18 18.03.2020
6273 Drizzle 9 993 93 10000 10.8 230 10:54 18.03.2020
6274 Drizzle 9 993 93 10000 10.8 230 10:36 18.03.2020
6275 Drizzle 9 993 93 10000 10.8 230 10:36 18.03.2020
6276 Drizzle 9 993 93 10000 10.8 230 10:18 18.03.2020
6277 Drizzle 11 993 71 10000 6.2 230 09:41 18.03.2020
6278 Drizzle 11 993 71 10000 6.2 230 09:22 18.03.2020
6279 Clouds 12 993 58 10000 5.1 230 08:40 18.03.2020
6280 Clouds 12 993 58 10000 5.1 230 08:22 18.03.2020
6281 Clouds 12 993 58 10000 2.1 230 07:59 18.03.2020
6282 Clouds 12 993 58 10000 2.1 230 07:37 18.03.2020
6283 Clouds 12 993 58 10000 2.1 230 07:19 18.03.2020
6284 Clouds 12 994 58 10000 1.93 11 06:39 18.03.2020
6285 Clouds 12 995 58 10000 3.6 270 05:37 18.03.2020
6286 Clouds 12 995 58 10000 2.6 270 04:38 18.03.2020
6287 Clouds 13 996 50 10000 4.6 290 03:21 18.03.2020
6288 Clouds 13 996 47 10000 4.1 320 02:36 18.03.2020
6289 Clouds 13 996 47 10000 9.8 320 01:42 18.03.2020
6290 Clouds 14 997 41 10000 7.2 320 00:43 18.03.2020
6291 Clouds 14 997 41 10000 7.2 320 00:21 18.03.2020
6292 Clouds 14 997 44 10000 7.7 320 23:42 17.03.2020
6293 Clouds 14 997 44 10000 7.7 320 23:21 17.03.2020
6294 Clouds 13 998 50 10000 3.1 230 22:45 17.03.2020
6295 Clouds 13 998 50 10000 3.1 230 22:26 17.03.2020
6296 Clouds 13 999 50 10000 1.5 140 21:44 17.03.2020
6297 Clouds 13 999 50 10000 1.5 140 21:25 17.03.2020
6298 Clouds 14 1000 47 10000 2.1 140 20:58 17.03.2020
6299 Clouds 14 1000 47 10000 2.1 140 20:38 17.03.2020
6300 Clouds 14 1000 47 10000 2.1 140 20:19 17.03.2020
6301 Clouds 14 1000 47 10000 3.1 140 19:42 17.03.2020
6302 Clouds 14 1000 47 10000 3.1 140 19:20 17.03.2020
6303 Clouds 11 1001 62 10000 2.1 140 18:58 17.03.2020
6304 Clouds 11 1001 62 10000 2.1 140 18:40 17.03.2020
6305 Clouds 11 1001 62 10000 2.1 140 18:21 17.03.2020
6306 Clouds 12 1002 62 10000 2.1 140 17:56 17.03.2020
6307 Clouds 12 1002 62 10000 2.1 140 17:38 17.03.2020
6308 Clouds 12 1002 62 10000 2.1 140 17:19 17.03.2020
6309 Clouds 11 1002 62 10000 2.1 180 16:42 17.03.2020
6310 Clouds 11 1002 62 10000 2.1 180 16:19 17.03.2020
6311 Clouds 8 1002 70 10000 2.6 320 15:47 17.03.2020
6312 Clouds 9 1002 70 10000 2.6 320 15:23 17.03.2020
6313 Clouds 8 1003 75 10000 2.1 360 14:47 17.03.2020
6314 Clouds 8 1003 75 10000 2.1 360 14:27 17.03.2020
6315 Clouds 8 1003 75 10000 2.6 360 13:58 17.03.2020
6316 Clouds 8 1003 75 10000 2.6 360 13:40 17.03.2020
6317 Clouds 8 1003 75 10000 2.6 360 13:22 17.03.2020
6318 Clouds 5 1003 86 10000 4.1 360 12:47 17.03.2020
6319 Clouds 5 1003 86 10000 4.1 360 12:25 17.03.2020
6320 Clouds 6 1003 75 10000 4.6 360 11:56 17.03.2020
6321 Rain 6 1003 75 10000 4.6 360 11:38 17.03.2020
6322 Clouds 6 1003 75 10000 4.6 360 11:20 17.03.2020
6323 Clouds 7 1003 65 10000 4.1 270 10:54 17.03.2020
6324 Clouds 7 1003 65 10000 4.1 270 10:36 17.03.2020
6325 Clouds 7 1003 65 10000 4.1 270 10:18 17.03.2020
6326 Clouds 8 1003 65 10000 7.2 230 09:44 17.03.2020
6327 Clouds 8 1003 65 10000 7.2 230 09:20 17.03.2020
6328 Clouds 8 1003 65 10000 7.2 230 09:20 17.03.2020
6329 Clouds 7 1002 65 10000 6.2 250 08:51 17.03.2020
6330 Clouds 7 1002 65 10000 6.2 250 08:24 17.03.2020
6331 Clouds 7 1002 70 10000 7.2 270 07:58 17.03.2020
6332 Clouds 7 1002 70 10000 7.2 270 07:40 17.03.2020
6333 Clouds 7 1002 70 10000 7.2 270 07:20 17.03.2020
6334 Clouds 7 1002 75 10000 5.1 270 06:45 17.03.2020
6335 Clouds 7 1002 75 10000 5.1 270 06:24 17.03.2020
6336 Clouds 8 1002 70 10000 10.8 250 05:18 17.03.2020
6337 Clouds 8 1000 61 10000 14.9 230 03:26 17.03.2020
6338 Clouds 9 999 57 10000 13.4 200 01:50 17.03.2020
6339 Clouds 9 999 57 10000 13.4 200 01:29 17.03.2020
6340 Clouds 9 998 61 10000 14.4 230 00:51 17.03.2020
6341 Clouds 10 997 57 10000 13.4 230 23:52 16.03.2020
6342 Clouds 10 997 57 10000 13.4 230 23:34 16.03.2020
6343 Clouds 10 996 66 10000 15.4 230 22:55 16.03.2020
6344 Clouds 10 996 66 10000 15.4 230 22:36 16.03.2020
6345 Clouds 11 996 66 10000 15.4 230 22:18 16.03.2020
6346 Clouds 11 996 66 10000 13.9 230 21:41 16.03.2020
6347 Clouds 11 996 66 10000 13.9 230 21:23 16.03.2020
6348 Clouds 12 994 62 10000 11.8 230 20:58 16.03.2020
6349 Clouds 12 994 62 10000 11.8 230 20:38 16.03.2020
6350 Clouds 12 994 62 10000 11.8 230 20:20 16.03.2020
6351 Clouds 12 993 71 10000 11.3 230 19:42 16.03.2020
6352 Clouds 12 993 71 10000 11.3 230 19:23 16.03.2020
6353 Drizzle 11 993 71 10000 8.7 230 18:57 16.03.2020
6354 Drizzle 11 993 71 10000 8.7 230 18:38 16.03.2020
6355 Drizzle 11 993 71 10000 8.7 230 18:18 16.03.2020
6356 Clouds 11 992 71 10000 7.7 230 17:45 16.03.2020
6357 Clouds 11 992 71 10000 7.7 230 17:24 16.03.2020
6358 Clouds 10 992 71 10000 7.2 230 16:49 16.03.2020
6359 Clouds 10 992 71 10000 7.2 230 16:31 16.03.2020
6360 Rain 11 992 76 10000 6.7 230 15:58 16.03.2020
6361 Rain 11 992 76 10000 6.7 230 15:40 16.03.2020
6362 Drizzle 11 992 76 10000 10.3 230 15:20 16.03.2020
6363 Clouds 10 992 93 10000 7.7 230 14:44 16.03.2020
6364 Clouds 10 992 93 10000 7.7 230 14:20 16.03.2020
6365 Clouds 10 991 87 10000 6.2 230 13:43 16.03.2020
6366 Clouds 10 991 87 10000 6.2 230 13:25 16.03.2020
6367 Clouds 10 991 76 10000 6.2 230 12:55 16.03.2020
6368 Clouds 10 991 76 10000 6.2 230 12:36 16.03.2020
6369 Clouds 10 991 76 10000 6.2 230 12:18 16.03.2020
6370 Clouds 11 991 76 10000 5.1 230 11:41 16.03.2020
6371 Clouds 11 991 76 10000 5.1 230 11:19 16.03.2020
6372 Clouds 9 991 93 10000 5.1 230 10:43 16.03.2020
6373 Clouds 9 991 93 10000 5.1 230 10:24 16.03.2020
6374 Clouds 9 992 93 10000 7.2 230 09:46 16.03.2020
6375 Clouds 9 992 93 10000 7.2 230 09:28 16.03.2020
6376 Clouds 9 992 93 10000 3.1 140 08:59 16.03.2020
6377 Clouds 9 992 93 10000 3.1 140 08:26 16.03.2020
6378 Clouds 10 992 87 10000 2.6 50 07:56 16.03.2020
6379 Clouds 10 992 87 10000 2.6 50 07:38 16.03.2020
6380 Clouds 10 992 87 10000 2.6 50 07:18 16.03.2020
6381 Clouds 11 992 76 10000 2.1 90 06:27 16.03.2020
6382 Clouds 11 994 76 10000 2.1 90 05:54 16.03.2020
6383 Clouds 12 995 71 10000 2.6 230 03:36 16.03.2020
6384 Drizzle 13 995 71 10000 8.7 230 01:29 16.03.2020
6385 Drizzle 13 995 71 10000 8.7 230 00:43 16.03.2020
6386 Clouds 13 995 71 10000 8.2 230 23:49 15.03.2020
6387 Clouds 13 995 71 10000 8.2 230 23:23 15.03.2020
6388 Clouds 14 995 67 10000 7.7 230 22:58 15.03.2020
6389 Clouds 14 995 67 10000 7.7 230 22:38 15.03.2020
6390 Clouds 14 995 67 10000 7.7 230 22:20 15.03.2020
6391 Clouds 16 995 59 10000 7.2 230 21:39 15.03.2020
6392 Clouds 16 995 59 10000 7.2 230 21:20 15.03.2020
6393 Clouds 19 996 48 10000 2.6 180 20:44 15.03.2020
6394 Clouds 19 996 48 10000 2.6 180 20:22 15.03.2020
6395 Clouds 18 996 52 10000 3.6 180 19:59 15.03.2020
6396 Clouds 18 996 52 10000 3.6 180 19:41 15.03.2020
6397 Clouds 18 996 52 10000 3.6 180 19:23 15.03.2020
6398 Clouds 17 996 55 10000 1.98 318 18:59 15.03.2020
6399 Clouds 17 996 55 10000 1.98 318 18:39 15.03.2020
6400 Clouds 17 996 55 10000 1.98 318 18:21 15.03.2020
6401 Clouds 19 996 52 10000 2.1 90 17:57 15.03.2020
6402 Clouds 19 996 52 10000 2.1 90 17:38 15.03.2020
6403 Clouds 19 996 52 10000 2.1 90 17:18 15.03.2020
6404 Clouds 14 997 71 10000 2.6 50 16:43 15.03.2020
6405 Clouds 14 997 71 10000 2.6 50 16:25 15.03.2020
6406 Clouds 14 998 67 10000 2.04 333 15:58 15.03.2020
6407 Clouds 14 998 67 10000 2.04 333 15:40 15.03.2020
6408 Clouds 14 998 67 10000 2.04 333 15:19 15.03.2020
6409 Clouds 14 998 54 10000 3.1 50 14:46 15.03.2020
6410 Clouds 14 998 54 10000 3.1 50 14:24 15.03.2020
6411 Clouds 13 997 66 10000 3.1 50 13:58 15.03.2020
6412 Clouds 13 997 66 10000 3.1 50 13:38 15.03.2020
6413 Clouds 13 997 66 10000 3.1 50 13:38 15.03.2020
6414 Clouds 13 997 66 10000 3.1 50 13:20 15.03.2020
6415 Clouds 13 998 62 10000 4.1 50 12:44 15.03.2020
6416 Clouds 13 998 62 10000 4.1 50 12:25 15.03.2020
6417 Clouds 12 998 66 10000 3.1 90 11:56 15.03.2020
6418 Clouds 12 998 66 10000 3.1 90 11:38 15.03.2020
6419 Clouds 12 998 66 10000 3.1 90 11:20 15.03.2020
6420 Clouds 12 997 66 10000 5.7 140 10:55 15.03.2020
6421 Clouds 12 997 66 10000 5.7 140 10:36 15.03.2020
6422 Clouds 12 997 66 10000 5.7 140 10:18 15.03.2020
6423 Clouds 12 998 66 10000 3.1 110 09:39 15.03.2020
6424 Clouds 12 998 66 10000 3.1 110 09:21 15.03.2020
6425 Clouds 12 998 66 10000 2.1 90 08:42 15.03.2020
6426 Clouds 12 998 66 10000 2.1 90 08:20 15.03.2020
6427 Clouds 12 998 66 10000 2.45 359 07:51 15.03.2020
6428 Clouds 12 998 66 10000 2.45 359 07:29 15.03.2020
6429 Clouds 12 999 66 10000 2.45 359 06:49 15.03.2020
6430 Clouds 12 999 66 10000 4.1 140 05:50 15.03.2020
6431 Clouds 12 999 66 10000 4.1 140 05:18 15.03.2020
6432 Clouds 12 1000 58 10000 3.1 140 04:43 15.03.2020
6433 Clouds 12 1000 58 10000 3.1 140 04:24 15.03.2020
6434 Clouds 12 1000 62 10000 3.6 90 03:38 15.03.2020
6435 Clouds 13 1001 54 10000 6.2 320 02:37 15.03.2020
6436 Clouds 13 1001 54 10000 3.1 320 01:34 15.03.2020
6437 Clouds 12 1001 58 10000 1.5 360 00:46 15.03.2020
6438 Clouds 12 1001 58 10000 1.5 360 00:24 15.03.2020
6439 Clouds 12 1001 62 10000 3.1 140 23:55 14.03.2020
6440 Clouds 12 1001 62 10000 3.1 140 23:36 14.03.2020
6441 Clouds 12 1001 62 10000 3.1 140 23:18 14.03.2020
6442 Clouds 14 1001 47 10000 1.5 140 22:42 14.03.2020
6443 Clouds 14 1001 47 10000 1.5 140 22:23 14.03.2020
6444 Clouds 13 1002 47 10000 3.1 200 21:56 14.03.2020
6445 Clouds 13 1002 47 10000 3.1 200 21:36 14.03.2020
6446 Clouds 13 1002 47 10000 3.1 200 21:18 14.03.2020
6447 Clouds 14 1002 50 10000 4.1 200 20:58 14.03.2020
6448 Clouds 14 1002 50 10000 4.1 200 20:40 14.03.2020
6449 Clouds 14 1002 50 10000 4.1 200 20:19 14.03.2020
6450 Clouds 12 1003 58 10000 4.6 230 19:43 14.03.2020
6451 Clouds 12 1003 58 10000 4.6 230 19:25 14.03.2020
6452 Clouds 12 1003 58 10000 5.1 230 18:56 14.03.2020
6453 Clouds 12 1003 58 10000 5.1 230 18:37 14.03.2020
6454 Clouds 12 1003 58 10000 5.1 230 18:19 14.03.2020
6455 Clouds 11 1003 71 10000 5.7 230 17:38 14.03.2020
6456 Clouds 11 1003 71 10000 5.7 230 17:20 14.03.2020
6457 Clouds 11 1002 76 10000 2.1 360 16:41 14.03.2020
6458 Clouds 11 1002 76 10000 2.1 360 16:23 14.03.2020
6459 Clouds 11 1004 76 10000 3.6 320 15:58 14.03.2020
6460 Clouds 11 1004 76 10000 3.6 320 15:27 14.03.2020
6461 Clouds 10 1003 66 10000 7.7 230 14:58 14.03.2020
6462 Clouds 10 1003 66 10000 7.7 230 14:37 14.03.2020
6463 Clouds 10 1003 66 10000 7.7 230 14:18 14.03.2020
6464 Clouds 9 1003 66 10000 7.2 230 13:42 14.03.2020
6465 Clouds 9 1003 66 10000 7.2 230 13:23 14.03.2020
6466 Drizzle 9 1002 76 10000 8.2 230 12:57 14.03.2020
6467 Drizzle 9 1002 76 10000 8.2 230 12:38 14.03.2020
6468 Drizzle 9 1002 76 10000 8.2 230 12:19 14.03.2020
6469 Clouds 10 1001 76 10000 8.2 230 11:42 14.03.2020
6470 Clouds 10 1001 76 10000 8.2 230 11:24 14.03.2020
6471 Drizzle 10 1001 66 10000 2.1 230 10:46 14.03.2020
6472 Drizzle 10 1001 66 10000 2.1 230 10:27 14.03.2020
6473 Clouds 10 1000 57 10000 3.1 90 09:58 14.03.2020
6474 Clouds 10 1000 57 10000 3.1 90 09:40 14.03.2020
6475 Clouds 10 1000 57 10000 3.1 90 09:20 14.03.2020
6476 Clouds 12 999 90 10000 6.7 320 08:46 14.03.2020
6477 Clouds 12 999 90 10000 6.7 320 08:24 14.03.2020
6478 Clouds 12 999 85 10000 5.1 320 07:40 14.03.2020
6479 Clouds 12 999 85 10000 5.1 320 07:21 14.03.2020
6480 Clouds 11 1000 50 10000 5.7 320 06:41 14.03.2020
6481 Clouds 12 1000 85 10000 6.2 320 05:58 14.03.2020
6482 Clouds 9 1000 81 10000 3.1 360 04:52 14.03.2020
6483 Clouds 8 1001 93 10000 1.85 323 03:25 14.03.2020
6484 Clouds 8 1001 93 10000 1.5 90 02:35 14.03.2020
6485 Clouds 9 1002 87 10000 3.1 90 01:39 14.03.2020
6486 Clouds 9 1002 93 10000 3.6 50 00:23 14.03.2020
6487 Clouds 10 1002 87 10000 3.1 70 23:42 13.03.2020
6488 Clouds 10 1002 87 10000 3.1 70 23:22 13.03.2020
6489 Clouds 12 1002 71 10000 2.1 70 22:41 13.03.2020
6490 Clouds 12 1002 71 10000 2.1 70 22:21 13.03.2020
6491 Clouds 12 1002 71 10000 1.5 70 21:40 13.03.2020
6492 Clouds 12 1002 71 10000 1.5 70 21:18 13.03.2020
6493 Clouds 12 1003 71 10000 2.6 70 20:42 13.03.2020
6494 Clouds 12 1003 71 10000 2.6 70 20:22 13.03.2020
6495 Clouds 12 1003 71 10000 1.5 70 19:57 13.03.2020
6496 Clouds 12 1003 71 10000 1.5 70 19:39 13.03.2020
6497 Clouds 12 1003 71 10000 1.5 70 19:18 13.03.2020
6498 Clouds 11 1003 71 10000 2.1 90 18:40 13.03.2020
6499 Clouds 11 1003 71 10000 2.1 90 18:22 13.03.2020
6500 Clouds 11 1003 66 10000 1.3 359 17:42 13.03.2020
6501 Clouds 11 1003 66 10000 1.3 359 17:21 13.03.2020
6502 Clouds 10 1004 76 10000 2.6 230 16:56 13.03.2020
6503 Clouds 10 1004 76 10000 2.6 230 16:38 13.03.2020
6504 Clouds 10 1004 76 10000 2.6 230 16:20 13.03.2020
6505 Clouds 9 1004 81 10000 6.2 230 15:43 13.03.2020
6506 Clouds 9 1004 81 10000 6.2 230 15:22 13.03.2020
6507 Clouds 9 1004 81 10000 6.2 220 14:56 13.03.2020
6508 Clouds 9 1004 81 10000 6.2 220 14:38 13.03.2020
6509 Rain 8 1004 87 10000 6.2 230 14:18 13.03.2020
6510 Drizzle 8 1004 87 10000 7.7 230 13:42 13.03.2020
6511 Drizzle 8 1004 87 10000 7.7 230 13:22 13.03.2020
6512 Drizzle 8 1004 93 10000 7.7 230 12:58 13.03.2020
6513 Drizzle 8 1004 93 10000 7.7 230 12:38 13.03.2020
6514 Drizzle 8 1003 87 10000 8.7 230 12:19 13.03.2020
6515 Drizzle 8 1003 87 10000 8.7 230 11:55 13.03.2020
6516 Drizzle 8 1003 87 10000 8.7 230 11:36 13.03.2020
6517 Drizzle 8 1002 87 10000 10.3 230 11:18 13.03.2020
6518 Drizzle 8 1002 87 10000 10.3 230 10:42 13.03.2020
6519 Drizzle 8 1002 87 10000 10.3 230 10:24 13.03.2020
6520 Clouds 11 1002 76 10000 5.7 230 09:46 13.03.2020
6521 Clouds 11 1002 76 10000 5.7 230 09:27 13.03.2020
6522 Clouds 11 1002 76 10000 5.7 230 08:57 13.03.2020
6523 Clouds 11 1002 76 10000 5.7 230 08:38 13.03.2020
6524 Clouds 11 1002 76 10000 5.7 230 08:19 13.03.2020
6525 Rain 7 1003 98 0 1.08 52 07:44 13.03.2020
6526 Rain 7 1003 98 0 1.08 52 07:23 13.03.2020
6527 Rain 7 1003 98 0 1.08 52 06:46 13.03.2020
6528 Drizzle 12 1002 71 10000 2.1 320 06:21 13.03.2020
6529 Drizzle 12 1002 71 10000 2.1 320 05:44 13.03.2020
6530 Rain 12 1001 71 10000 3.1 360 04:57 13.03.2020
6531 Rain 12 1001 71 10000 3.1 360 04:25 13.03.2020
6532 Clouds 12 1001 76 10000 4.6 340 02:42 13.03.2020
6533 Clouds 12 1002 71 10000 6.2 360 01:37 13.03.2020
6534 Clouds 12 1002 71 10000 6.2 360 01:18 13.03.2020
6535 Clouds 12 1002 66 10000 1.7 29 00:39 13.03.2020
6536 Clouds 12 1002 76 10000 1.7 29 00:19 13.03.2020
6537 Clouds 12 1002 76 10000 1.7 29 23:38 12.03.2020
6538 Clouds 12 1002 76 10000 0.8 77 23:19 12.03.2020
6539 Clouds 13 1002 71 10000 0.8 77 22:46 12.03.2020
6540 Clouds 13 1002 71 10000 0.8 77 22:27 12.03.2020
6541 Clouds 13 1002 76 10000 0.8 77 21:56 12.03.2020
6542 Clouds 13 1002 76 10000 0.8 77 21:38 12.03.2020
6543 Clouds 13 1002 76 10000 0.8 77 21:20 12.03.2020
6544 Clouds 13 1002 71 10000 0.8 77 20:42 12.03.2020
6545 Clouds 13 1002 71 10000 1.51 25 20:20 12.03.2020
6546 Clouds 14 1002 67 10000 1.5 180 19:42 12.03.2020
6547 Clouds 14 1002 67 10000 1.5 180 19:22 12.03.2020
6548 Clouds 13 1003 71 10000 2.1 360 18:59 12.03.2020
6549 Clouds 13 1003 71 10000 2.1 360 18:41 12.03.2020
6550 Clouds 13 1003 71 10000 2.1 360 18:22 12.03.2020
6551 Clouds 12 1003 76 10000 2.6 90 17:42 12.03.2020
6552 Clouds 12 1003 76 10000 2.6 90 17:24 12.03.2020
6553 Clouds 12 1003 76 10000 3.08 1 16:59 12.03.2020
6554 Clouds 12 1003 76 10000 3.08 1 16:41 12.03.2020
6555 Clouds 12 1003 76 10000 3.08 1 16:22 12.03.2020
6556 Clouds 11 1004 81 10000 3.08 1 15:49 12.03.2020
6557 Clouds 11 1004 81 10000 3.08 1 15:28 12.03.2020
6558 Clouds 11 1004 81 10000 3.08 1 15:28 12.03.2020
6559 Clouds 11 1004 81 10000 3.08 1 15:28 12.03.2020
6560 Clouds 10 1003 81 10000 2.6 270 14:56 12.03.2020
6561 Clouds 10 1003 81 10000 2.6 270 14:37 12.03.2020
6562 Clouds 10 1003 81 10000 2.6 270 14:18 12.03.2020
6563 Clouds 8 1004 93 10000 3.03 9 13:40 12.03.2020
6564 Clouds 8 1004 93 10000 3.01 11 13:21 12.03.2020
6565 Clouds 7 1003 93 10000 3.01 11 12:55 12.03.2020
6566 Clouds 7 1003 93 10000 3.01 11 12:55 12.03.2020
6567 Clouds 7 1003 93 10000 3.01 11 12:37 12.03.2020
6568 Clouds 7 1003 93 10000 3.01 11 12:37 12.03.2020
6569 Clouds 7 1003 93 10000 3.01 11 12:18 12.03.2020
6570 Clouds 7 1003 93 10000 3.01 11 12:18 12.03.2020
6571 Clouds 7 1003 87 10000 3.01 11 11:55 12.03.2020
6572 Clouds 7 1003 87 10000 3.01 11 11:36 12.03.2020
6573 Clouds 7 1003 87 10000 1.84 2 11:18 12.03.2020
6574 Clouds 7 1003 93 10000 3.6 320 10:43 12.03.2020
6575 Clouds 7 1003 93 10000 3.6 320 10:23 12.03.2020
6576 Clouds 8 1003 93 10000 1.84 2 09:55 12.03.2020
6577 Clouds 8 1003 93 10000 1.84 2 09:37 12.03.2020
6578 Clouds 8 1003 93 10000 1.84 2 09:19 12.03.2020
6579 Clouds 8 1003 93 10000 2.1 270 08:38 12.03.2020
6580 Clouds 8 1003 93 10000 2.1 270 08:18 12.03.2020
6581 Clouds 8 1003 93 10000 2.1 270 07:47 12.03.2020
6582 Clouds 8 1003 93 10000 2.1 270 07:22 12.03.2020
6583 Drizzle 8 1003 93 10000 1.62 360 06:20 12.03.2020
6584 Drizzle 8 1003 100 10000 1.62 360 05:34 12.03.2020
6585 Drizzle 8 1003 93 10000 2.6 20 03:44 12.03.2020
6586 Drizzle 8 1003 81 10000 6.2 70 01:58 12.03.2020
6587 Drizzle 8 1003 81 10000 6.2 70 01:23 12.03.2020
6588 Drizzle 8 1003 81 10000 5.1 70 00:42 12.03.2020
6589 Rain 8 1003 81 10000 5.1 70 23:58 11.03.2020
6590 Rain 8 1003 81 10000 5.1 70 23:29 11.03.2020
6591 Rain 9 1003 81 10000 5.7 70 22:59 11.03.2020
6592 Rain 9 1003 81 10000 5.7 70 22:40 11.03.2020
6593 Rain 9 1003 81 10000 5.7 70 22:21 11.03.2020
6594 Rain 9 1003 81 10000 6.7 70 21:58 11.03.2020
6595 Rain 9 1003 81 10000 6.7 70 21:39 11.03.2020
6596 Rain 9 1003 81 10000 6.7 70 21:21 11.03.2020
6597 Rain 9 1003 81 10000 7.2 70 20:56 11.03.2020
6598 Rain 9 1003 81 10000 7.2 70 20:37 11.03.2020
6599 Rain 9 1003 81 10000 7.2 70 20:19 11.03.2020
6600 Rain 9 1003 81 10000 5.7 50 19:42 11.03.2020
6601 Rain 9 1003 81 10000 5.7 50 19:24 11.03.2020
6602 Drizzle 8 1004 87 10000 1.5 320 18:57 11.03.2020
6603 Drizzle 8 1004 87 10000 1.5 320 18:38 11.03.2020
6604 Drizzle 8 1004 87 10000 1.5 320 18:18 11.03.2020
6605 Drizzle 8 1004 87 10000 2.6 230 17:55 11.03.2020
6606 Drizzle 8 1004 87 10000 2.6 230 17:37 11.03.2020
6607 Drizzle 8 1004 87 10000 2.6 230 17:18 11.03.2020
6608 Drizzle 8 1005 81 10000 3.1 360 16:43 11.03.2020
6609 Drizzle 8 1005 81 10000 3.1 360 16:20 11.03.2020
6610 Drizzle 7 1005 93 10000 5.1 360 15:43 11.03.2020
6611 Drizzle 7 1005 93 10000 5.1 360 15:23 11.03.2020
6612 Drizzle 8 1005 75 10000 5.1 360 14:56 11.03.2020
6613 Drizzle 8 1005 75 10000 5.1 360 14:37 11.03.2020
6614 Drizzle 8 1005 75 10000 5.1 360 14:18 11.03.2020
6615 Drizzle 8 1005 75 10000 6.7 360 13:42 11.03.2020
6616 Drizzle 8 1005 75 10000 6.7 360 13:24 11.03.2020
6617 Drizzle 8 1005 75 10000 7.2 360 12:56 11.03.2020
6618 Drizzle 8 1005 75 10000 7.2 360 12:38 11.03.2020
6619 Drizzle 8 1005 75 10000 7.2 360 12:19 11.03.2020
6620 Drizzle 8 1006 70 10000 4.6 360 11:41 11.03.2020
6621 Drizzle 8 1006 70 10000 4.6 360 11:21 11.03.2020
6622 Clouds 8 1006 65 10000 2.6 340 10:49 11.03.2020
6623 Clouds 8 1006 65 10000 2.6 340 10:21 11.03.2020
6624 Clouds 8 1006 65 10000 2.6 340 10:21 11.03.2020
6625 Clouds 8 1006 65 10000 2.6 340 10:21 11.03.2020
6626 Clouds 8 1007 61 10000 5.7 360 09:59 11.03.2020
6627 Clouds 8 1007 61 10000 5.7 360 09:41 11.03.2020
6628 Clouds 8 1007 61 10000 5.7 360 09:22 11.03.2020
6629 Clouds 8 1007 61 10000 5.7 360 09:22 11.03.2020
6630 Clouds 8 1007 61 10000 6.7 340 08:44 11.03.2020
6631 Clouds 8 1007 61 10000 6.7 340 08:26 11.03.2020
6632 Clouds 8 1008 61 10000 4.6 340 07:48 11.03.2020
6633 Clouds 8 1008 61 10000 4.6 340 07:22 11.03.2020
6634 Clouds 7 1009 75 10000 6.7 340 06:53 11.03.2020
6635 Clouds 7 1009 75 10000 6.7 340 06:33 11.03.2020
6636 Clouds 8 1009 65 10000 4.6 360 05:33 11.03.2020
6637 Clouds 8 1010 75 10000 4.6 360 03:34 11.03.2020
6638 Clouds 8 1011 70 10000 2.6 320 01:56 11.03.2020
6639 Clouds 8 1011 70 10000 2.6 320 01:25 11.03.2020
6640 Clouds 9 1011 70 10000 4.1 50 00:44 11.03.2020
6641 Clouds 10 1012 61 10000 6.2 70 23:50 10.03.2020
6642 Clouds 10 1012 61 10000 6.2 70 23:28 10.03.2020
6643 Clouds 10 1012 61 10000 4.1 50 22:58 10.03.2020
6644 Clouds 10 1012 61 10000 4.1 50 22:38 10.03.2020
6645 Clouds 10 1012 61 10000 4.1 50 22:19 10.03.2020
6646 Clouds 11 1012 63 10000 2.6 70 21:56 10.03.2020
6647 Clouds 11 1012 63 10000 2.6 70 21:38 10.03.2020
6648 Clouds 11 1012 63 10000 2.6 70 21:19 10.03.2020
6649 Clouds 11 1013 50 10000 2.1 110 20:54 10.03.2020
6650 Clouds 11 1013 50 10000 2.1 110 20:36 10.03.2020
6651 Clouds 11 1013 50 10000 2.1 110 20:18 10.03.2020
6652 Clouds 11 1014 52 10000 2.1 180 19:42 10.03.2020
6653 Clouds 11 1014 52 10000 2.1 180 19:42 10.03.2020
6654 Clouds 11 1014 52 10000 2.1 180 19:23 10.03.2020
6655 Clouds 11 1014 52 10000 1.5 110 18:58 10.03.2020
6656 Clouds 11 1014 52 10000 1.5 110 18:40 10.03.2020
6657 Clouds 11 1014 52 10000 1.5 110 18:21 10.03.2020
6658 Clouds 11 1015 50 10000 1.5 90 17:56 10.03.2020
6659 Clouds 11 1015 50 10000 1.5 90 17:37 10.03.2020
6660 Clouds 11 1015 50 10000 1.5 90 17:19 10.03.2020
6661 Clouds 9 1015 61 10000 0.82 315 16:38 10.03.2020
6662 Clouds 9 1015 61 10000 0.82 315 16:18 10.03.2020
6663 Clouds 9 1016 70 10000 0.82 315 15:44 10.03.2020
6664 Clouds 9 1016 70 10000 0.82 315 15:20 10.03.2020
6665 Clouds 8 1016 65 10000 0.82 315 14:59 10.03.2020
6666 Clouds 8 1016 65 10000 0.82 315 14:59 10.03.2020
6667 Clouds 8 1016 65 10000 0.82 315 14:40 10.03.2020
6668 Clouds 8 1016 65 10000 0.35 335 14:19 10.03.2020
6669 Clouds 7 1016 75 10000 4.1 320 13:45 10.03.2020
6670 Clouds 7 1016 75 10000 4.1 320 13:27 10.03.2020
6671 Clouds 5 1016 75 10000 3.6 270 12:59 10.03.2020
6672 Clouds 5 1016 75 10000 3.6 270 12:39 10.03.2020
6673 Clouds 5 1016 75 10000 3.6 270 12:18 10.03.2020
6674 Clouds 5 1016 80 10000 4.6 270 11:43 10.03.2020
6675 Clouds 5 1016 80 10000 4.6 270 11:24 10.03.2020
6676 Clouds 6 1016 70 10000 4.6 270 10:58 10.03.2020
6677 Clouds 6 1016 70 10000 4.6 270 10:40 10.03.2020
6678 Clouds 6 1016 81 10000 4.6 230 10:21 10.03.2020
6679 Clouds 6 1016 81 10000 4.6 230 09:56 10.03.2020
6680 -273 0 0 0 0 0 09:37 10.03.2020
6681 Clouds 6 1016 81 10000 4.6 230 09:18 10.03.2020
6682 Clouds 7 1015 81 10000 9.8 230 08:43 10.03.2020
6683 Clouds 7 1015 81 10000 9.8 230 08:25 10.03.2020
6684 Clouds 7 1015 81 10000 8.7 230 07:46 10.03.2020
6685 Clouds 7 1015 81 10000 8.7 230 07:28 10.03.2020
6686 Clouds 7 1015 81 10000 9.3 230 06:42 10.03.2020
6687 Clouds 7 1015 81 10000 9.3 230 06:23 10.03.2020
6688 Drizzle 7 1015 81 10000 9.8 230 05:38 10.03.2020
6689 Drizzle 7 1015 87 10000 8.2 230 04:34 10.03.2020
6690 Drizzle 8 1014 81 10000 7.7 230 03:34 10.03.2020
6691 Rain 9 1013 81 8000 12.9 230 01:55 10.03.2020
6692 Clouds 9 1013 81 10000 5.7 250 00:53 10.03.2020
6693 Clouds 9 1013 81 10000 5.7 250 00:30 10.03.2020
6694 Rain 9 1013 81 10000 5.7 230 23:56 09.03.2020